<?xml version="1.0" encoding="UTF-8" standalone="no" ?>
<gpx xmlns="http://www.topografix.com/GPX/1/1" xmlns:xsi="http://www.w3.org/2001/XMLSchema-instance" xsi:schemaLocation="http://www.topografix.com/GPX/1/1 http://www.topografix.com/GPX/1/1/gpx.xsd" version="1.1" creator="VisuGPX - https://www.visugpx.com">
  <metadata>
    <name>la blanzatoise 2010 (56Km)</name>
    <desc><![CDATA[la blanzatoise 2010: parcours du 56Km]]></desc>
  </metadata>
  <trk>
    <name><![CDATA[La Blanzatoise]]></name>
    <cmt><![CDATA[Avec Rui et un gars d'IBM]]></cmt>
    <trkseg>
      <trkpt lat="45.83001" lon="3.07823">
        <ele>401.00708007812</ele>
        <time>2010-04-24T08:03:10Z</time>
      </trkpt>
      <trkpt lat="45.83004" lon="3.07821">
        <ele>401.00708007812</ele>
        <time>2010-04-24T08:03:12Z</time>
      </trkpt>
      <trkpt lat="45.83003" lon="3.07811">
        <ele>401.00708007812</ele>
        <time>2010-04-24T08:03:16Z</time>
      </trkpt>
      <trkpt lat="45.83002" lon="3.07779">
        <ele>401.00708007812</ele>
        <time>2010-04-24T08:03:23Z</time>
      </trkpt>
      <trkpt lat="45.83002" lon="3.07762">
        <ele>401.48779296875</ele>
        <time>2010-04-24T08:03:27Z</time>
      </trkpt>
      <trkpt lat="45.83008" lon="3.07744">
        <ele>401.96850585938</ele>
        <time>2010-04-24T08:03:32Z</time>
      </trkpt>
      <trkpt lat="45.83007" lon="3.0774">
        <ele>401.48779296875</ele>
        <time>2010-04-24T08:03:33Z</time>
      </trkpt>
      <trkpt lat="45.83003" lon="3.07722">
        <ele>403.41040039062</ele>
        <time>2010-04-24T08:03:37Z</time>
      </trkpt>
      <trkpt lat="45.83002" lon="3.07712">
        <ele>403.89111328125</ele>
        <time>2010-04-24T08:03:40Z</time>
      </trkpt>
      <trkpt lat="45.83" lon="3.07687">
        <ele>404.37170410156</ele>
        <time>2010-04-24T08:03:46Z</time>
      </trkpt>
      <trkpt lat="45.82998" lon="3.07669">
        <ele>405.3330078125</ele>
        <time>2010-04-24T08:03:50Z</time>
      </trkpt>
      <trkpt lat="45.82995" lon="3.07636">
        <ele>405.81372070312</ele>
        <time>2010-04-24T08:03:57Z</time>
      </trkpt>
      <trkpt lat="45.82988" lon="3.07603">
        <ele>406.77490234375</ele>
        <time>2010-04-24T08:04:04Z</time>
      </trkpt>
      <trkpt lat="45.82978" lon="3.07595">
        <ele>407.25561523438</ele>
        <time>2010-04-24T08:04:08Z</time>
      </trkpt>
      <trkpt lat="45.82975" lon="3.07597">
        <ele>407.25561523438</ele>
        <time>2010-04-24T08:04:09Z</time>
      </trkpt>
      <trkpt lat="45.82961" lon="3.07604">
        <ele>406.77490234375</ele>
        <time>2010-04-24T08:04:13Z</time>
      </trkpt>
      <trkpt lat="45.82952" lon="3.07606">
        <ele>406.29431152344</ele>
        <time>2010-04-24T08:04:15Z</time>
      </trkpt>
      <trkpt lat="45.82943" lon="3.07608">
        <ele>405.3330078125</ele>
        <time>2010-04-24T08:04:17Z</time>
      </trkpt>
      <trkpt lat="45.82924" lon="3.07603">
        <ele>405.3330078125</ele>
        <time>2010-04-24T08:04:21Z</time>
      </trkpt>
      <trkpt lat="45.82915" lon="3.07601">
        <ele>405.81372070312</ele>
        <time>2010-04-24T08:04:23Z</time>
      </trkpt>
      <trkpt lat="45.82883" lon="3.07602">
        <ele>406.29431152344</ele>
        <time>2010-04-24T08:04:30Z</time>
      </trkpt>
      <trkpt lat="45.82872" lon="3.07588">
        <ele>405.81372070312</ele>
        <time>2010-04-24T08:04:34Z</time>
      </trkpt>
      <trkpt lat="45.82872" lon="3.07583">
        <ele>405.81372070312</ele>
        <time>2010-04-24T08:04:35Z</time>
      </trkpt>
      <trkpt lat="45.82872" lon="3.07523">
        <ele>405.81372070312</ele>
        <time>2010-04-24T08:04:44Z</time>
      </trkpt>
      <trkpt lat="45.82872" lon="3.07457">
        <ele>408.21704101562</ele>
        <time>2010-04-24T08:04:54Z</time>
      </trkpt>
      <trkpt lat="45.82871" lon="3.07412">
        <ele>409.65905761719</ele>
        <time>2010-04-24T08:05:01Z</time>
      </trkpt>
      <trkpt lat="45.82869" lon="3.07363">
        <ele>411.58166503906</ele>
        <time>2010-04-24T08:05:09Z</time>
      </trkpt>
      <trkpt lat="45.82867" lon="3.073">
        <ele>412.06225585938</ele>
        <time>2010-04-24T08:05:19Z</time>
      </trkpt>
      <trkpt lat="45.82867" lon="3.07282">
        <ele>413.50427246094</ele>
        <time>2010-04-24T08:05:22Z</time>
      </trkpt>
      <trkpt lat="45.82867" lon="3.0727">
        <ele>413.98486328125</ele>
        <time>2010-04-24T08:05:24Z</time>
      </trkpt>
      <trkpt lat="45.82866" lon="3.07209">
        <ele>415.90747070312</ele>
        <time>2010-04-24T08:05:34Z</time>
      </trkpt>
      <trkpt lat="45.82864" lon="3.07166">
        <ele>416.86889648438</ele>
        <time>2010-04-24T08:05:41Z</time>
      </trkpt>
      <trkpt lat="45.82865" lon="3.07126">
        <ele>418.31079101562</ele>
        <time>2010-04-24T08:05:48Z</time>
      </trkpt>
      <trkpt lat="45.82865" lon="3.07091">
        <ele>418.79150390625</ele>
        <time>2010-04-24T08:05:54Z</time>
      </trkpt>
      <trkpt lat="45.82872" lon="3.07045">
        <ele>420.2333984375</ele>
        <time>2010-04-24T08:06:02Z</time>
      </trkpt>
      <trkpt lat="45.82879" lon="3.07011">
        <ele>421.19482421875</ele>
        <time>2010-04-24T08:06:08Z</time>
      </trkpt>
      <trkpt lat="45.82883" lon="3.06953">
        <ele>423.11743164062</ele>
        <time>2010-04-24T08:06:18Z</time>
      </trkpt>
      <trkpt lat="45.82882" lon="3.06896">
        <ele>425.52075195312</ele>
        <time>2010-04-24T08:06:28Z</time>
      </trkpt>
      <trkpt lat="45.82882" lon="3.06858">
        <ele>426.96276855469</ele>
        <time>2010-04-24T08:06:35Z</time>
      </trkpt>
      <trkpt lat="45.82883" lon="3.06825">
        <ele>428.40466308594</ele>
        <time>2010-04-24T08:06:41Z</time>
      </trkpt>
      <trkpt lat="45.82885" lon="3.06794">
        <ele>429.36596679688</ele>
        <time>2010-04-24T08:06:47Z</time>
      </trkpt>
      <trkpt lat="45.82888" lon="3.06761">
        <ele>430.80798339844</ele>
        <time>2010-04-24T08:06:53Z</time>
      </trkpt>
      <trkpt lat="45.82895" lon="3.06717">
        <ele>432.73071289062</ele>
        <time>2010-04-24T08:07:01Z</time>
      </trkpt>
      <trkpt lat="45.82883" lon="3.06702">
        <ele>432.25</ele>
        <time>2010-04-24T08:07:05Z</time>
      </trkpt>
      <trkpt lat="45.82867" lon="3.06692">
        <ele>433.21130371094</ele>
        <time>2010-04-24T08:07:09Z</time>
      </trkpt>
      <trkpt lat="45.82858" lon="3.06678">
        <ele>432.73071289062</ele>
        <time>2010-04-24T08:07:12Z</time>
      </trkpt>
      <trkpt lat="45.82854" lon="3.06651">
        <ele>433.69189453125</ele>
        <time>2010-04-24T08:07:17Z</time>
      </trkpt>
      <trkpt lat="45.82862" lon="3.06636">
        <ele>434.6533203125</ele>
        <time>2010-04-24T08:07:21Z</time>
      </trkpt>
      <trkpt lat="45.82867" lon="3.06625">
        <ele>435.61450195312</ele>
        <time>2010-04-24T08:07:24Z</time>
      </trkpt>
      <trkpt lat="45.82877" lon="3.06596">
        <ele>438.49853515625</ele>
        <time>2010-04-24T08:07:32Z</time>
      </trkpt>
      <trkpt lat="45.82879" lon="3.06589">
        <ele>439.45971679688</ele>
        <time>2010-04-24T08:07:36Z</time>
      </trkpt>
      <trkpt lat="45.82879" lon="3.06588">
        <ele>438.97912597656</ele>
        <time>2010-04-24T08:07:38Z</time>
      </trkpt>
      <trkpt lat="45.82879" lon="3.06583">
        <ele>439.45971679688</ele>
        <time>2010-04-24T08:07:41Z</time>
      </trkpt>
      <trkpt lat="45.82887" lon="3.0657">
        <ele>441.86315917969</ele>
        <time>2010-04-24T08:07:48Z</time>
      </trkpt>
      <trkpt lat="45.82896" lon="3.06562">
        <ele>442.82446289062</ele>
        <time>2010-04-24T08:07:53Z</time>
      </trkpt>
      <trkpt lat="45.82909" lon="3.06558">
        <ele>444.26647949219</ele>
        <time>2010-04-24T08:07:59Z</time>
      </trkpt>
      <trkpt lat="45.8292" lon="3.06553">
        <ele>446.18908691406</ele>
        <time>2010-04-24T08:08:04Z</time>
      </trkpt>
      <trkpt lat="45.82931" lon="3.06549">
        <ele>446.66967773438</ele>
        <time>2010-04-24T08:08:09Z</time>
      </trkpt>
      <trkpt lat="45.82949" lon="3.0654">
        <ele>448.11181640625</ele>
        <time>2010-04-24T08:08:16Z</time>
      </trkpt>
      <trkpt lat="45.82962" lon="3.06539">
        <ele>448.59240722656</ele>
        <time>2010-04-24T08:08:21Z</time>
      </trkpt>
      <trkpt lat="45.82983" lon="3.06545">
        <ele>450.03442382812</ele>
        <time>2010-04-24T08:08:28Z</time>
      </trkpt>
      <trkpt lat="45.83003" lon="3.06557">
        <ele>450.99560546875</ele>
        <time>2010-04-24T08:08:35Z</time>
      </trkpt>
      <trkpt lat="45.83014" lon="3.06564">
        <ele>451.47631835938</ele>
        <time>2010-04-24T08:08:40Z</time>
      </trkpt>
      <trkpt lat="45.83036" lon="3.06564">
        <ele>452.43762207031</ele>
        <time>2010-04-24T08:08:47Z</time>
      </trkpt>
      <trkpt lat="45.83058" lon="3.06559">
        <ele>453.39892578125</ele>
        <time>2010-04-24T08:08:54Z</time>
      </trkpt>
      <trkpt lat="45.83089" lon="3.0655">
        <ele>455.80224609375</ele>
        <time>2010-04-24T08:09:03Z</time>
      </trkpt>
      <trkpt lat="45.83105" lon="3.06554">
        <ele>457.24426269531</ele>
        <time>2010-04-24T08:09:08Z</time>
      </trkpt>
      <trkpt lat="45.83112" lon="3.06563">
        <ele>458.68615722656</ele>
        <time>2010-04-24T08:09:13Z</time>
      </trkpt>
      <trkpt lat="45.83115" lon="3.06584">
        <ele>458.20556640625</ele>
        <time>2010-04-24T08:09:18Z</time>
      </trkpt>
      <trkpt lat="45.83117" lon="3.06612">
        <ele>459.16687011719</ele>
        <time>2010-04-24T08:09:25Z</time>
      </trkpt>
      <trkpt lat="45.83123" lon="3.06632">
        <ele>459.16687011719</ele>
        <time>2010-04-24T08:09:30Z</time>
      </trkpt>
      <trkpt lat="45.83131" lon="3.06658">
        <ele>460.12817382812</ele>
        <time>2010-04-24T08:09:36Z</time>
      </trkpt>
      <trkpt lat="45.83136" lon="3.06687">
        <ele>462.05078125</ele>
        <time>2010-04-24T08:09:44Z</time>
      </trkpt>
      <trkpt lat="45.83136" lon="3.06705">
        <ele>463.49279785156</ele>
        <time>2010-04-24T08:09:49Z</time>
      </trkpt>
      <trkpt lat="45.83138" lon="3.06729">
        <ele>464.93481445312</ele>
        <time>2010-04-24T08:09:56Z</time>
      </trkpt>
      <trkpt lat="45.83139" lon="3.0675">
        <ele>466.857421875</ele>
        <time>2010-04-24T08:10:02Z</time>
      </trkpt>
      <trkpt lat="45.8314" lon="3.0676">
        <ele>468.78002929688</ele>
        <time>2010-04-24T08:10:05Z</time>
      </trkpt>
      <trkpt lat="45.83139" lon="3.06775">
        <ele>469.74133300781</ele>
        <time>2010-04-24T08:10:09Z</time>
      </trkpt>
      <trkpt lat="45.83138" lon="3.06785">
        <ele>471.66394042969</ele>
        <time>2010-04-24T08:10:12Z</time>
      </trkpt>
      <trkpt lat="45.83134" lon="3.06803">
        <ele>473.58666992188</ele>
        <time>2010-04-24T08:10:17Z</time>
      </trkpt>
      <trkpt lat="45.83128" lon="3.06822">
        <ele>474.06726074219</ele>
        <time>2010-04-24T08:10:23Z</time>
      </trkpt>
      <trkpt lat="45.83124" lon="3.06833">
        <ele>475.98986816406</ele>
        <time>2010-04-24T08:10:27Z</time>
      </trkpt>
      <trkpt lat="45.83116" lon="3.06851">
        <ele>475.50927734375</ele>
        <time>2010-04-24T08:10:35Z</time>
      </trkpt>
      <trkpt lat="45.83113" lon="3.06862">
        <ele>475.50927734375</ele>
        <time>2010-04-24T08:10:39Z</time>
      </trkpt>
      <trkpt lat="45.83115" lon="3.06878">
        <ele>476.95129394531</ele>
        <time>2010-04-24T08:10:45Z</time>
      </trkpt>
      <trkpt lat="45.83118" lon="3.06884">
        <ele>477.43188476562</ele>
        <time>2010-04-24T08:10:48Z</time>
      </trkpt>
      <trkpt lat="45.83127" lon="3.06894">
        <ele>478.39318847656</ele>
        <time>2010-04-24T08:10:55Z</time>
      </trkpt>
      <trkpt lat="45.8314" lon="3.06896">
        <ele>479.83508300781</ele>
        <time>2010-04-24T08:11:01Z</time>
      </trkpt>
      <trkpt lat="45.83148" lon="3.06894">
        <ele>481.27722167969</ele>
        <time>2010-04-24T08:11:05Z</time>
      </trkpt>
      <trkpt lat="45.8316" lon="3.06892">
        <ele>482.71923828125</ele>
        <time>2010-04-24T08:11:11Z</time>
      </trkpt>
      <trkpt lat="45.8317" lon="3.06886">
        <ele>485.12243652344</ele>
        <time>2010-04-24T08:11:17Z</time>
      </trkpt>
      <trkpt lat="45.83179" lon="3.06879">
        <ele>487.04504394531</ele>
        <time>2010-04-24T08:11:24Z</time>
      </trkpt>
      <trkpt lat="45.83187" lon="3.0687">
        <ele>488.9677734375</ele>
        <time>2010-04-24T08:11:31Z</time>
      </trkpt>
      <trkpt lat="45.83194" lon="3.06858">
        <ele>491.37097167969</ele>
        <time>2010-04-24T08:11:39Z</time>
      </trkpt>
      <trkpt lat="45.83203" lon="3.06855">
        <ele>492.33239746094</ele>
        <time>2010-04-24T08:11:46Z</time>
      </trkpt>
      <trkpt lat="45.8321" lon="3.06865">
        <ele>494.73559570312</ele>
        <time>2010-04-24T08:11:53Z</time>
      </trkpt>
      <trkpt lat="45.8321" lon="3.06868">
        <ele>495.21618652344</ele>
        <time>2010-04-24T08:11:54Z</time>
      </trkpt>
      <trkpt lat="45.83205" lon="3.06889">
        <ele>494.73559570312</ele>
        <time>2010-04-24T08:12:02Z</time>
      </trkpt>
      <trkpt lat="45.83195" lon="3.06911">
        <ele>496.177734375</ele>
        <time>2010-04-24T08:12:10Z</time>
      </trkpt>
      <trkpt lat="45.83193" lon="3.0693">
        <ele>497.61962890625</ele>
        <time>2010-04-24T08:12:16Z</time>
      </trkpt>
      <trkpt lat="45.83201" lon="3.06956">
        <ele>498.10034179688</ele>
        <time>2010-04-24T08:12:24Z</time>
      </trkpt>
      <trkpt lat="45.83205" lon="3.06972">
        <ele>498.58093261719</ele>
        <time>2010-04-24T08:12:29Z</time>
      </trkpt>
      <trkpt lat="45.83211" lon="3.06994">
        <ele>499.0615234375</ele>
        <time>2010-04-24T08:12:35Z</time>
      </trkpt>
      <trkpt lat="45.83219" lon="3.07018">
        <ele>500.02294921875</ele>
        <time>2010-04-24T08:12:42Z</time>
      </trkpt>
      <trkpt lat="45.83229" lon="3.07039">
        <ele>500.50354003906</ele>
        <time>2010-04-24T08:12:48Z</time>
      </trkpt>
      <trkpt lat="45.83245" lon="3.07069">
        <ele>500.98413085938</ele>
        <time>2010-04-24T08:12:56Z</time>
      </trkpt>
      <trkpt lat="45.8326" lon="3.07097">
        <ele>502.42614746094</ele>
        <time>2010-04-24T08:13:04Z</time>
      </trkpt>
      <trkpt lat="45.83267" lon="3.0711">
        <ele>502.90673828125</ele>
        <time>2010-04-24T08:13:08Z</time>
      </trkpt>
      <trkpt lat="45.8327" lon="3.07135">
        <ele>504.34887695312</ele>
        <time>2010-04-24T08:13:14Z</time>
      </trkpt>
      <trkpt lat="45.83276" lon="3.07173">
        <ele>504.82946777344</ele>
        <time>2010-04-24T08:13:23Z</time>
      </trkpt>
      <trkpt lat="45.83284" lon="3.07205">
        <ele>506.271484375</ele>
        <time>2010-04-24T08:13:31Z</time>
      </trkpt>
      <trkpt lat="45.83287" lon="3.07223">
        <ele>507.71350097656</ele>
        <time>2010-04-24T08:13:35Z</time>
      </trkpt>
      <trkpt lat="45.83287" lon="3.07249">
        <ele>508.19409179688</ele>
        <time>2010-04-24T08:13:41Z</time>
      </trkpt>
      <trkpt lat="45.8329" lon="3.07278">
        <ele>510.11669921875</ele>
        <time>2010-04-24T08:13:48Z</time>
      </trkpt>
      <trkpt lat="45.83296" lon="3.07304">
        <ele>512.52001953125</ele>
        <time>2010-04-24T08:13:55Z</time>
      </trkpt>
      <trkpt lat="45.83296" lon="3.07311">
        <ele>513.00073242188</ele>
        <time>2010-04-24T08:13:57Z</time>
      </trkpt>
      <trkpt lat="45.83302" lon="3.07323">
        <ele>513.4814453125</ele>
        <time>2010-04-24T08:14:01Z</time>
      </trkpt>
      <trkpt lat="45.83306" lon="3.07339">
        <ele>513.4814453125</ele>
        <time>2010-04-24T08:14:05Z</time>
      </trkpt>
      <trkpt lat="45.83315" lon="3.07346">
        <ele>513.96203613281</ele>
        <time>2010-04-24T08:14:09Z</time>
      </trkpt>
      <trkpt lat="45.83331" lon="3.07353">
        <ele>512.03942871094</ele>
        <time>2010-04-24T08:14:13Z</time>
      </trkpt>
      <trkpt lat="45.83348" lon="3.07359">
        <ele>512.52001953125</ele>
        <time>2010-04-24T08:14:17Z</time>
      </trkpt>
      <trkpt lat="45.83373" lon="3.07365">
        <ele>512.52001953125</ele>
        <time>2010-04-24T08:14:24Z</time>
      </trkpt>
      <trkpt lat="45.83388" lon="3.07363">
        <ele>513.4814453125</ele>
        <time>2010-04-24T08:14:29Z</time>
      </trkpt>
      <trkpt lat="45.83397" lon="3.0737">
        <ele>513.4814453125</ele>
        <time>2010-04-24T08:14:34Z</time>
      </trkpt>
      <trkpt lat="45.83418" lon="3.07374">
        <ele>513.00073242188</ele>
        <time>2010-04-24T08:14:41Z</time>
      </trkpt>
      <trkpt lat="45.83427" lon="3.07376">
        <ele>513.4814453125</ele>
        <time>2010-04-24T08:14:44Z</time>
      </trkpt>
      <trkpt lat="45.83438" lon="3.07384">
        <ele>513.00073242188</ele>
        <time>2010-04-24T08:14:48Z</time>
      </trkpt>
      <trkpt lat="45.83447" lon="3.07406">
        <ele>513.00073242188</ele>
        <time>2010-04-24T08:14:53Z</time>
      </trkpt>
      <trkpt lat="45.83455" lon="3.07414">
        <ele>514.44262695312</ele>
        <time>2010-04-24T08:14:57Z</time>
      </trkpt>
      <trkpt lat="45.83465" lon="3.0741">
        <ele>514.44262695312</ele>
        <time>2010-04-24T08:15:02Z</time>
      </trkpt>
      <trkpt lat="45.83468" lon="3.07409">
        <ele>514.44262695312</ele>
        <time>2010-04-24T08:15:03Z</time>
      </trkpt>
      <trkpt lat="45.83478" lon="3.07398">
        <ele>514.92333984375</ele>
        <time>2010-04-24T08:15:08Z</time>
      </trkpt>
      <trkpt lat="45.83492" lon="3.0739">
        <ele>513.96203613281</ele>
        <time>2010-04-24T08:15:14Z</time>
      </trkpt>
      <trkpt lat="45.83508" lon="3.07392">
        <ele>513.96203613281</ele>
        <time>2010-04-24T08:15:20Z</time>
      </trkpt>
      <trkpt lat="45.8352" lon="3.07386">
        <ele>512.52001953125</ele>
        <time>2010-04-24T08:15:24Z</time>
      </trkpt>
      <trkpt lat="45.83532" lon="3.07373">
        <ele>512.52001953125</ele>
        <time>2010-04-24T08:15:28Z</time>
      </trkpt>
      <trkpt lat="45.83546" lon="3.07349">
        <ele>510.59729003906</ele>
        <time>2010-04-24T08:15:33Z</time>
      </trkpt>
      <trkpt lat="45.83557" lon="3.07328">
        <ele>510.11669921875</ele>
        <time>2010-04-24T08:15:38Z</time>
      </trkpt>
      <trkpt lat="45.83561" lon="3.07317">
        <ele>510.59729003906</ele>
        <time>2010-04-24T08:15:41Z</time>
      </trkpt>
      <trkpt lat="45.83569" lon="3.07312">
        <ele>509.63610839844</ele>
        <time>2010-04-24T08:15:44Z</time>
      </trkpt>
      <trkpt lat="45.83587" lon="3.0729">
        <ele>508.19409179688</ele>
        <time>2010-04-24T08:15:51Z</time>
      </trkpt>
      <trkpt lat="45.83598" lon="3.07282">
        <ele>507.71350097656</ele>
        <time>2010-04-24T08:15:55Z</time>
      </trkpt>
      <trkpt lat="45.8361" lon="3.07279">
        <ele>507.71350097656</ele>
        <time>2010-04-24T08:15:58Z</time>
      </trkpt>
      <trkpt lat="45.8363" lon="3.07278">
        <ele>508.19409179688</ele>
        <time>2010-04-24T08:16:03Z</time>
      </trkpt>
      <trkpt lat="45.83657" lon="3.07269">
        <ele>508.19409179688</ele>
        <time>2010-04-24T08:16:10Z</time>
      </trkpt>
      <trkpt lat="45.83675" lon="3.07274">
        <ele>509.15539550781</ele>
        <time>2010-04-24T08:16:15Z</time>
      </trkpt>
      <trkpt lat="45.83696" lon="3.0728">
        <ele>510.59729003906</ele>
        <time>2010-04-24T08:16:21Z</time>
      </trkpt>
      <trkpt lat="45.83703" lon="3.07292">
        <ele>511.55871582031</ele>
        <time>2010-04-24T08:16:25Z</time>
      </trkpt>
      <trkpt lat="45.83717" lon="3.0729">
        <ele>511.55871582031</ele>
        <time>2010-04-24T08:16:31Z</time>
      </trkpt>
      <trkpt lat="45.83723" lon="3.07285">
        <ele>511.07800292969</ele>
        <time>2010-04-24T08:16:33Z</time>
      </trkpt>
      <trkpt lat="45.83734" lon="3.07261">
        <ele>510.11669921875</ele>
        <time>2010-04-24T08:16:38Z</time>
      </trkpt>
      <trkpt lat="45.83738" lon="3.07241">
        <ele>508.67468261719</ele>
        <time>2010-04-24T08:16:41Z</time>
      </trkpt>
      <trkpt lat="45.83742" lon="3.0722">
        <ele>508.19409179688</ele>
        <time>2010-04-24T08:16:44Z</time>
      </trkpt>
      <trkpt lat="45.83741" lon="3.07165">
        <ele>508.19409179688</ele>
        <time>2010-04-24T08:16:52Z</time>
      </trkpt>
      <trkpt lat="45.83747" lon="3.07141">
        <ele>507.23278808594</ele>
        <time>2010-04-24T08:16:56Z</time>
      </trkpt>
      <trkpt lat="45.83754" lon="3.07128">
        <ele>506.75207519531</ele>
        <time>2010-04-24T08:16:59Z</time>
      </trkpt>
      <trkpt lat="45.83772" lon="3.07127">
        <ele>506.271484375</ele>
        <time>2010-04-24T08:17:03Z</time>
      </trkpt>
      <trkpt lat="45.83804" lon="3.07132">
        <ele>505.79089355469</ele>
        <time>2010-04-24T08:17:09Z</time>
      </trkpt>
      <trkpt lat="45.83841" lon="3.0714">
        <ele>506.271484375</ele>
        <time>2010-04-24T08:17:16Z</time>
      </trkpt>
      <trkpt lat="45.83862" lon="3.07145">
        <ele>505.79089355469</ele>
        <time>2010-04-24T08:17:21Z</time>
      </trkpt>
      <trkpt lat="45.83871" lon="3.07145">
        <ele>504.82946777344</ele>
        <time>2010-04-24T08:17:23Z</time>
      </trkpt>
      <trkpt lat="45.83876" lon="3.07146">
        <ele>504.34887695312</ele>
        <time>2010-04-24T08:17:24Z</time>
      </trkpt>
      <trkpt lat="45.8389" lon="3.07137">
        <ele>505.79089355469</ele>
        <time>2010-04-24T08:17:28Z</time>
      </trkpt>
      <trkpt lat="45.83894" lon="3.07127">
        <ele>505.79089355469</ele>
        <time>2010-04-24T08:17:31Z</time>
      </trkpt>
      <trkpt lat="45.83895" lon="3.07116">
        <ele>505.79089355469</ele>
        <time>2010-04-24T08:17:37Z</time>
      </trkpt>
      <trkpt lat="45.83895" lon="3.07117">
        <ele>505.31018066406</ele>
        <time>2010-04-24T08:17:49Z</time>
      </trkpt>
      <trkpt lat="45.83895" lon="3.07117">
        <ele>505.31018066406</ele>
        <time>2010-04-24T08:17:53Z</time>
      </trkpt>
      <trkpt lat="45.83895" lon="3.07117">
        <ele>505.31018066406</ele>
        <time>2010-04-24T08:18:01Z</time>
      </trkpt>
      <trkpt lat="45.83895" lon="3.07106">
        <ele>504.82946777344</ele>
        <time>2010-04-24T08:18:06Z</time>
      </trkpt>
      <trkpt lat="45.83895" lon="3.07092">
        <ele>505.31018066406</ele>
        <time>2010-04-24T08:18:10Z</time>
      </trkpt>
      <trkpt lat="45.83898" lon="3.07082">
        <ele>503.8681640625</ele>
        <time>2010-04-24T08:18:13Z</time>
      </trkpt>
      <trkpt lat="45.83899" lon="3.07074">
        <ele>504.34887695312</ele>
        <time>2010-04-24T08:18:15Z</time>
      </trkpt>
      <trkpt lat="45.83899" lon="3.07058">
        <ele>502.90673828125</ele>
        <time>2010-04-24T08:18:18Z</time>
      </trkpt>
      <trkpt lat="45.83894" lon="3.07009">
        <ele>502.42614746094</ele>
        <time>2010-04-24T08:18:25Z</time>
      </trkpt>
      <trkpt lat="45.83892" lon="3.06955">
        <ele>501.46484375</ele>
        <time>2010-04-24T08:18:32Z</time>
      </trkpt>
      <trkpt lat="45.83892" lon="3.06939">
        <ele>500.98413085938</ele>
        <time>2010-04-24T08:18:34Z</time>
      </trkpt>
      <trkpt lat="45.83894" lon="3.06906">
        <ele>500.50354003906</ele>
        <time>2010-04-24T08:18:38Z</time>
      </trkpt>
      <trkpt lat="45.839" lon="3.06836">
        <ele>500.50354003906</ele>
        <time>2010-04-24T08:18:46Z</time>
      </trkpt>
      <trkpt lat="45.83903" lon="3.06821">
        <ele>500.50354003906</ele>
        <time>2010-04-24T08:18:48Z</time>
      </trkpt>
      <trkpt lat="45.83921" lon="3.06761">
        <ele>500.02294921875</ele>
        <time>2010-04-24T08:18:56Z</time>
      </trkpt>
      <trkpt lat="45.83944" lon="3.06693">
        <ele>500.02294921875</ele>
        <time>2010-04-24T08:19:05Z</time>
      </trkpt>
      <trkpt lat="45.83952" lon="3.06662">
        <ele>499.0615234375</ele>
        <time>2010-04-24T08:19:09Z</time>
      </trkpt>
      <trkpt lat="45.8396" lon="3.06631">
        <ele>499.0615234375</ele>
        <time>2010-04-24T08:19:13Z</time>
      </trkpt>
      <trkpt lat="45.83968" lon="3.06583">
        <ele>499.0615234375</ele>
        <time>2010-04-24T08:19:19Z</time>
      </trkpt>
      <trkpt lat="45.83972" lon="3.06549">
        <ele>499.0615234375</ele>
        <time>2010-04-24T08:19:23Z</time>
      </trkpt>
      <trkpt lat="45.83981" lon="3.06492">
        <ele>500.50354003906</ele>
        <time>2010-04-24T08:19:30Z</time>
      </trkpt>
      <trkpt lat="45.83982" lon="3.06484">
        <ele>500.98413085938</ele>
        <time>2010-04-24T08:19:31Z</time>
      </trkpt>
      <trkpt lat="45.83986" lon="3.06469">
        <ele>502.42614746094</ele>
        <time>2010-04-24T08:19:33Z</time>
      </trkpt>
      <trkpt lat="45.83989" lon="3.06454">
        <ele>503.8681640625</ele>
        <time>2010-04-24T08:19:35Z</time>
      </trkpt>
      <trkpt lat="45.83995" lon="3.06434">
        <ele>506.271484375</ele>
        <time>2010-04-24T08:19:38Z</time>
      </trkpt>
      <trkpt lat="45.83997" lon="3.06427">
        <ele>506.75207519531</ele>
        <time>2010-04-24T08:19:39Z</time>
      </trkpt>
      <trkpt lat="45.84001" lon="3.06414">
        <ele>507.23278808594</ele>
        <time>2010-04-24T08:19:41Z</time>
      </trkpt>
      <trkpt lat="45.84005" lon="3.06394">
        <ele>509.15539550781</ele>
        <time>2010-04-24T08:19:44Z</time>
      </trkpt>
      <trkpt lat="45.8401" lon="3.06375">
        <ele>509.63610839844</ele>
        <time>2010-04-24T08:19:47Z</time>
      </trkpt>
      <trkpt lat="45.84014" lon="3.06358">
        <ele>510.59729003906</ele>
        <time>2010-04-24T08:19:50Z</time>
      </trkpt>
      <trkpt lat="45.84022" lon="3.06336">
        <ele>510.59729003906</ele>
        <time>2010-04-24T08:19:54Z</time>
      </trkpt>
      <trkpt lat="45.84022" lon="3.06311">
        <ele>510.59729003906</ele>
        <time>2010-04-24T08:19:58Z</time>
      </trkpt>
      <trkpt lat="45.84027" lon="3.06285">
        <ele>510.59729003906</ele>
        <time>2010-04-24T08:20:02Z</time>
      </trkpt>
      <trkpt lat="45.84037" lon="3.06232">
        <ele>510.11669921875</ele>
        <time>2010-04-24T08:20:10Z</time>
      </trkpt>
      <trkpt lat="45.84041" lon="3.06211">
        <ele>510.59729003906</ele>
        <time>2010-04-24T08:20:13Z</time>
      </trkpt>
      <trkpt lat="45.84061" lon="3.06157">
        <ele>510.59729003906</ele>
        <time>2010-04-24T08:20:21Z</time>
      </trkpt>
      <trkpt lat="45.84076" lon="3.06108">
        <ele>510.59729003906</ele>
        <time>2010-04-24T08:20:28Z</time>
      </trkpt>
      <trkpt lat="45.84075" lon="3.0607">
        <ele>511.07800292969</ele>
        <time>2010-04-24T08:20:33Z</time>
      </trkpt>
      <trkpt lat="45.84068" lon="3.06019">
        <ele>512.03942871094</ele>
        <time>2010-04-24T08:20:40Z</time>
      </trkpt>
      <trkpt lat="45.84067" lon="3.06003">
        <ele>512.03942871094</ele>
        <time>2010-04-24T08:20:42Z</time>
      </trkpt>
      <trkpt lat="45.84067" lon="3.05924">
        <ele>513.4814453125</ele>
        <time>2010-04-24T08:20:53Z</time>
      </trkpt>
      <trkpt lat="45.84076" lon="3.05895">
        <ele>514.92333984375</ele>
        <time>2010-04-24T08:20:58Z</time>
      </trkpt>
      <trkpt lat="45.84081" lon="3.05887">
        <ele>515.40405273438</ele>
        <time>2010-04-24T08:21:00Z</time>
      </trkpt>
      <trkpt lat="45.841" lon="3.05875">
        <ele>515.88464355469</ele>
        <time>2010-04-24T08:21:06Z</time>
      </trkpt>
      <trkpt lat="45.8412" lon="3.05857">
        <ele>516.84594726562</ele>
        <time>2010-04-24T08:21:13Z</time>
      </trkpt>
      <trkpt lat="45.84135" lon="3.05844">
        <ele>516.84594726562</ele>
        <time>2010-04-24T08:21:19Z</time>
      </trkpt>
      <trkpt lat="45.84151" lon="3.05829">
        <ele>518.28784179688</ele>
        <time>2010-04-24T08:21:26Z</time>
      </trkpt>
      <trkpt lat="45.84164" lon="3.05815">
        <ele>518.28784179688</ele>
        <time>2010-04-24T08:21:32Z</time>
      </trkpt>
      <trkpt lat="45.84169" lon="3.05809">
        <ele>518.7685546875</ele>
        <time>2010-04-24T08:21:34Z</time>
      </trkpt>
      <trkpt lat="45.84189" lon="3.05794">
        <ele>518.7685546875</ele>
        <time>2010-04-24T08:21:40Z</time>
      </trkpt>
      <trkpt lat="45.84214" lon="3.05771">
        <ele>519.24926757812</ele>
        <time>2010-04-24T08:21:47Z</time>
      </trkpt>
      <trkpt lat="45.84245" lon="3.05744">
        <ele>518.7685546875</ele>
        <time>2010-04-24T08:21:54Z</time>
      </trkpt>
      <trkpt lat="45.84276" lon="3.05713">
        <ele>518.28784179688</ele>
        <time>2010-04-24T08:22:02Z</time>
      </trkpt>
      <trkpt lat="45.84287" lon="3.05703">
        <ele>517.32666015625</ele>
        <time>2010-04-24T08:22:06Z</time>
      </trkpt>
      <trkpt lat="45.84305" lon="3.05684">
        <ele>517.80725097656</ele>
        <time>2010-04-24T08:22:12Z</time>
      </trkpt>
      <trkpt lat="45.84336" lon="3.05652">
        <ele>519.24926757812</ele>
        <time>2010-04-24T08:22:20Z</time>
      </trkpt>
      <trkpt lat="45.84366" lon="3.05622">
        <ele>519.72985839844</ele>
        <time>2010-04-24T08:22:28Z</time>
      </trkpt>
      <trkpt lat="45.84369" lon="3.0562">
        <ele>520.21057128906</ele>
        <time>2010-04-24T08:22:29Z</time>
      </trkpt>
      <trkpt lat="45.8438" lon="3.0563">
        <ele>519.72985839844</ele>
        <time>2010-04-24T08:22:33Z</time>
      </trkpt>
      <trkpt lat="45.84383" lon="3.05642">
        <ele>519.72985839844</ele>
        <time>2010-04-24T08:22:35Z</time>
      </trkpt>
      <trkpt lat="45.844" lon="3.05704">
        <ele>518.7685546875</ele>
        <time>2010-04-24T08:22:44Z</time>
      </trkpt>
      <trkpt lat="45.84414" lon="3.05766">
        <ele>517.80725097656</ele>
        <time>2010-04-24T08:22:52Z</time>
      </trkpt>
      <trkpt lat="45.84417" lon="3.05782">
        <ele>517.32666015625</ele>
        <time>2010-04-24T08:22:54Z</time>
      </trkpt>
      <trkpt lat="45.84417" lon="3.05841">
        <ele>516.365234375</ele>
        <time>2010-04-24T08:23:01Z</time>
      </trkpt>
      <trkpt lat="45.84416" lon="3.05859">
        <ele>515.40405273438</ele>
        <time>2010-04-24T08:23:03Z</time>
      </trkpt>
      <trkpt lat="45.84415" lon="3.05868">
        <ele>514.92333984375</ele>
        <time>2010-04-24T08:23:04Z</time>
      </trkpt>
      <trkpt lat="45.84421" lon="3.05904">
        <ele>513.00073242188</ele>
        <time>2010-04-24T08:23:08Z</time>
      </trkpt>
      <trkpt lat="45.84431" lon="3.05921">
        <ele>511.07800292969</ele>
        <time>2010-04-24T08:23:10Z</time>
      </trkpt>
      <trkpt lat="45.84455" lon="3.05958">
        <ele>505.79089355469</ele>
        <time>2010-04-24T08:23:14Z</time>
      </trkpt>
      <trkpt lat="45.84468" lon="3.0598">
        <ele>503.8681640625</ele>
        <time>2010-04-24T08:23:16Z</time>
      </trkpt>
      <trkpt lat="45.84487" lon="3.06034">
        <ele>500.98413085938</ele>
        <time>2010-04-24T08:23:20Z</time>
      </trkpt>
      <trkpt lat="45.84501" lon="3.06072">
        <ele>500.50354003906</ele>
        <time>2010-04-24T08:23:23Z</time>
      </trkpt>
      <trkpt lat="45.84505" lon="3.06084">
        <ele>500.98413085938</ele>
        <time>2010-04-24T08:23:24Z</time>
      </trkpt>
      <trkpt lat="45.8451" lon="3.06094">
        <ele>502.42614746094</ele>
        <time>2010-04-24T08:23:25Z</time>
      </trkpt>
      <trkpt lat="45.84527" lon="3.06132">
        <ele>502.90673828125</ele>
        <time>2010-04-24T08:23:29Z</time>
      </trkpt>
      <trkpt lat="45.84549" lon="3.06177">
        <ele>502.90673828125</ele>
        <time>2010-04-24T08:23:35Z</time>
      </trkpt>
      <trkpt lat="45.84565" lon="3.06204">
        <ele>503.8681640625</ele>
        <time>2010-04-24T08:23:39Z</time>
      </trkpt>
      <trkpt lat="45.84571" lon="3.06217">
        <ele>504.34887695312</ele>
        <time>2010-04-24T08:23:41Z</time>
      </trkpt>
      <trkpt lat="45.84578" lon="3.06226">
        <ele>504.82946777344</ele>
        <time>2010-04-24T08:23:43Z</time>
      </trkpt>
      <trkpt lat="45.84589" lon="3.06222">
        <ele>504.34887695312</ele>
        <time>2010-04-24T08:23:46Z</time>
      </trkpt>
      <trkpt lat="45.84592" lon="3.06217">
        <ele>504.82946777344</ele>
        <time>2010-04-24T08:23:47Z</time>
      </trkpt>
      <trkpt lat="45.84605" lon="3.06194">
        <ele>503.8681640625</ele>
        <time>2010-04-24T08:23:51Z</time>
      </trkpt>
      <trkpt lat="45.84634" lon="3.06149">
        <ele>503.38745117188</ele>
        <time>2010-04-24T08:23:58Z</time>
      </trkpt>
      <trkpt lat="45.84668" lon="3.06104">
        <ele>502.42614746094</ele>
        <time>2010-04-24T08:24:05Z</time>
      </trkpt>
      <trkpt lat="45.847" lon="3.06069">
        <ele>501.94555664062</ele>
        <time>2010-04-24T08:24:11Z</time>
      </trkpt>
      <trkpt lat="45.84726" lon="3.06043">
        <ele>502.90673828125</ele>
        <time>2010-04-24T08:24:15Z</time>
      </trkpt>
      <trkpt lat="45.84766" lon="3.06004">
        <ele>501.46484375</ele>
        <time>2010-04-24T08:24:21Z</time>
      </trkpt>
      <trkpt lat="45.84772" lon="3.05998">
        <ele>500.98413085938</ele>
        <time>2010-04-24T08:24:22Z</time>
      </trkpt>
      <trkpt lat="45.84809" lon="3.0596">
        <ele>501.46484375</ele>
        <time>2010-04-24T08:24:28Z</time>
      </trkpt>
      <trkpt lat="45.84856" lon="3.05906">
        <ele>500.50354003906</ele>
        <time>2010-04-24T08:24:36Z</time>
      </trkpt>
      <trkpt lat="45.84869" lon="3.05894">
        <ele>500.98413085938</ele>
        <time>2010-04-24T08:24:38Z</time>
      </trkpt>
      <trkpt lat="45.84907" lon="3.05852">
        <ele>500.50354003906</ele>
        <time>2010-04-24T08:24:45Z</time>
      </trkpt>
      <trkpt lat="45.84933" lon="3.05826">
        <ele>500.02294921875</ele>
        <time>2010-04-24T08:24:50Z</time>
      </trkpt>
      <trkpt lat="45.84969" lon="3.05804">
        <ele>500.02294921875</ele>
        <time>2010-04-24T08:24:56Z</time>
      </trkpt>
      <trkpt lat="45.8498" lon="3.05786">
        <ele>500.02294921875</ele>
        <time>2010-04-24T08:25:00Z</time>
      </trkpt>
      <trkpt lat="45.84979" lon="3.05763">
        <ele>499.54223632812</ele>
        <time>2010-04-24T08:25:04Z</time>
      </trkpt>
      <trkpt lat="45.84989" lon="3.05759">
        <ele>498.58093261719</ele>
        <time>2010-04-24T08:25:07Z</time>
      </trkpt>
      <trkpt lat="45.84994" lon="3.0576">
        <ele>498.58093261719</ele>
        <time>2010-04-24T08:25:08Z</time>
      </trkpt>
      <trkpt lat="45.8502" lon="3.05775">
        <ele>500.50354003906</ele>
        <time>2010-04-24T08:25:13Z</time>
      </trkpt>
      <trkpt lat="45.8505" lon="3.05796">
        <ele>499.0615234375</ele>
        <time>2010-04-24T08:25:18Z</time>
      </trkpt>
      <trkpt lat="45.85062" lon="3.05804">
        <ele>499.0615234375</ele>
        <time>2010-04-24T08:25:20Z</time>
      </trkpt>
      <trkpt lat="45.8508" lon="3.05817">
        <ele>500.50354003906</ele>
        <time>2010-04-24T08:25:23Z</time>
      </trkpt>
      <trkpt lat="45.85086" lon="3.05821">
        <ele>500.50354003906</ele>
        <time>2010-04-24T08:25:24Z</time>
      </trkpt>
      <trkpt lat="45.85138" lon="3.05861">
        <ele>500.50354003906</ele>
        <time>2010-04-24T08:25:33Z</time>
      </trkpt>
      <trkpt lat="45.85149" lon="3.0587">
        <ele>500.50354003906</ele>
        <time>2010-04-24T08:25:35Z</time>
      </trkpt>
      <trkpt lat="45.85169" lon="3.05905">
        <ele>500.98413085938</ele>
        <time>2010-04-24T08:25:40Z</time>
      </trkpt>
      <trkpt lat="45.85175" lon="3.0592">
        <ele>500.98413085938</ele>
        <time>2010-04-24T08:25:42Z</time>
      </trkpt>
      <trkpt lat="45.85196" lon="3.0595">
        <ele>501.94555664062</ele>
        <time>2010-04-24T08:25:47Z</time>
      </trkpt>
      <trkpt lat="45.85239" lon="3.05986">
        <ele>501.46484375</ele>
        <time>2010-04-24T08:25:55Z</time>
      </trkpt>
      <trkpt lat="45.85275" lon="3.06022">
        <ele>501.94555664062</ele>
        <time>2010-04-24T08:26:02Z</time>
      </trkpt>
      <trkpt lat="45.85291" lon="3.06038">
        <ele>501.94555664062</ele>
        <time>2010-04-24T08:26:05Z</time>
      </trkpt>
      <trkpt lat="45.85324" lon="3.06063">
        <ele>502.42614746094</ele>
        <time>2010-04-24T08:26:11Z</time>
      </trkpt>
      <trkpt lat="45.85347" lon="3.06081">
        <ele>502.90673828125</ele>
        <time>2010-04-24T08:26:15Z</time>
      </trkpt>
      <trkpt lat="45.85396" lon="3.06114">
        <ele>502.42614746094</ele>
        <time>2010-04-24T08:26:23Z</time>
      </trkpt>
      <trkpt lat="45.85457" lon="3.06157">
        <ele>501.46484375</ele>
        <time>2010-04-24T08:26:33Z</time>
      </trkpt>
      <trkpt lat="45.85531" lon="3.06207">
        <ele>500.98413085938</ele>
        <time>2010-04-24T08:26:45Z</time>
      </trkpt>
      <trkpt lat="45.85573" lon="3.06243">
        <ele>500.50354003906</ele>
        <time>2010-04-24T08:26:52Z</time>
      </trkpt>
      <trkpt lat="45.85614" lon="3.06279">
        <ele>500.98413085938</ele>
        <time>2010-04-24T08:26:59Z</time>
      </trkpt>
      <trkpt lat="45.85662" lon="3.0632">
        <ele>500.50354003906</ele>
        <time>2010-04-24T08:27:07Z</time>
      </trkpt>
      <trkpt lat="45.85696" lon="3.06353">
        <ele>499.54223632812</ele>
        <time>2010-04-24T08:27:13Z</time>
      </trkpt>
      <trkpt lat="45.85719" lon="3.06373">
        <ele>498.58093261719</ele>
        <time>2010-04-24T08:27:17Z</time>
      </trkpt>
      <trkpt lat="45.85726" lon="3.06378">
        <ele>498.10034179688</ele>
        <time>2010-04-24T08:27:18Z</time>
      </trkpt>
      <trkpt lat="45.85775" lon="3.06424">
        <ele>497.61962890625</ele>
        <time>2010-04-24T08:27:26Z</time>
      </trkpt>
      <trkpt lat="45.85828" lon="3.06478">
        <ele>496.177734375</ele>
        <time>2010-04-24T08:27:35Z</time>
      </trkpt>
      <trkpt lat="45.85863" lon="3.06505">
        <ele>495.69689941406</ele>
        <time>2010-04-24T08:27:41Z</time>
      </trkpt>
      <trkpt lat="45.85895" lon="3.06534">
        <ele>495.69689941406</ele>
        <time>2010-04-24T08:27:47Z</time>
      </trkpt>
      <trkpt lat="45.859" lon="3.06538">
        <ele>495.69689941406</ele>
        <time>2010-04-24T08:27:48Z</time>
      </trkpt>
      <trkpt lat="45.85916" lon="3.06553">
        <ele>495.21618652344</ele>
        <time>2010-04-24T08:27:52Z</time>
      </trkpt>
      <trkpt lat="45.85947" lon="3.06588">
        <ele>495.21618652344</ele>
        <time>2010-04-24T08:27:59Z</time>
      </trkpt>
      <trkpt lat="45.85978" lon="3.06617">
        <ele>494.73559570312</ele>
        <time>2010-04-24T08:28:05Z</time>
      </trkpt>
      <trkpt lat="45.86007" lon="3.06645">
        <ele>494.25500488281</ele>
        <time>2010-04-24T08:28:11Z</time>
      </trkpt>
      <trkpt lat="45.86037" lon="3.06675">
        <ele>493.77429199219</ele>
        <time>2010-04-24T08:28:17Z</time>
      </trkpt>
      <trkpt lat="45.86076" lon="3.06711">
        <ele>493.77429199219</ele>
        <time>2010-04-24T08:28:25Z</time>
      </trkpt>
      <trkpt lat="45.86087" lon="3.06718">
        <ele>494.25500488281</ele>
        <time>2010-04-24T08:28:27Z</time>
      </trkpt>
      <trkpt lat="45.86115" lon="3.06724">
        <ele>492.81298828125</ele>
        <time>2010-04-24T08:28:32Z</time>
      </trkpt>
      <trkpt lat="45.86121" lon="3.06727">
        <ele>492.33239746094</ele>
        <time>2010-04-24T08:28:33Z</time>
      </trkpt>
      <trkpt lat="45.86157" lon="3.06745">
        <ele>492.81298828125</ele>
        <time>2010-04-24T08:28:40Z</time>
      </trkpt>
      <trkpt lat="45.86171" lon="3.06754">
        <ele>490.89038085938</ele>
        <time>2010-04-24T08:28:43Z</time>
      </trkpt>
      <trkpt lat="45.8618" lon="3.06759">
        <ele>490.89038085938</ele>
        <time>2010-04-24T08:28:45Z</time>
      </trkpt>
      <trkpt lat="45.86189" lon="3.06765">
        <ele>490.40979003906</ele>
        <time>2010-04-24T08:28:47Z</time>
      </trkpt>
      <trkpt lat="45.86214" lon="3.06779">
        <ele>488.9677734375</ele>
        <time>2010-04-24T08:28:52Z</time>
      </trkpt>
      <trkpt lat="45.86219" lon="3.06781">
        <ele>488.9677734375</ele>
        <time>2010-04-24T08:28:53Z</time>
      </trkpt>
      <trkpt lat="45.86229" lon="3.06784">
        <ele>488.48718261719</ele>
        <time>2010-04-24T08:28:55Z</time>
      </trkpt>
      <trkpt lat="45.86252" lon="3.06794">
        <ele>487.52563476562</ele>
        <time>2010-04-24T08:29:00Z</time>
      </trkpt>
      <trkpt lat="45.86271" lon="3.06786">
        <ele>488.00646972656</ele>
        <time>2010-04-24T08:29:04Z</time>
      </trkpt>
      <trkpt lat="45.86308" lon="3.06754">
        <ele>488.48718261719</ele>
        <time>2010-04-24T08:29:12Z</time>
      </trkpt>
      <trkpt lat="45.86312" lon="3.0675">
        <ele>488.48718261719</ele>
        <time>2010-04-24T08:29:13Z</time>
      </trkpt>
      <trkpt lat="45.86328" lon="3.06734">
        <ele>489.44836425781</ele>
        <time>2010-04-24T08:29:17Z</time>
      </trkpt>
      <trkpt lat="45.8634" lon="3.06724">
        <ele>489.92907714844</ele>
        <time>2010-04-24T08:29:20Z</time>
      </trkpt>
      <trkpt lat="45.86359" lon="3.06703">
        <ele>490.40979003906</ele>
        <time>2010-04-24T08:29:25Z</time>
      </trkpt>
      <trkpt lat="45.86385" lon="3.06668">
        <ele>491.37097167969</ele>
        <time>2010-04-24T08:29:32Z</time>
      </trkpt>
      <trkpt lat="45.86391" lon="3.06658">
        <ele>491.37097167969</ele>
        <time>2010-04-24T08:29:34Z</time>
      </trkpt>
      <trkpt lat="45.86392" lon="3.06639">
        <ele>491.85168457031</ele>
        <time>2010-04-24T08:29:38Z</time>
      </trkpt>
      <trkpt lat="45.86387" lon="3.0662">
        <ele>489.44836425781</ele>
        <time>2010-04-24T08:29:42Z</time>
      </trkpt>
      <trkpt lat="45.86383" lon="3.06597">
        <ele>486.08374023438</ele>
        <time>2010-04-24T08:29:46Z</time>
      </trkpt>
      <trkpt lat="45.86385" lon="3.06578">
        <ele>485.12243652344</ele>
        <time>2010-04-24T08:29:50Z</time>
      </trkpt>
      <trkpt lat="45.86387" lon="3.06572">
        <ele>483.19982910156</ele>
        <time>2010-04-24T08:29:54Z</time>
      </trkpt>
      <trkpt lat="45.86391" lon="3.06567">
        <ele>482.23852539062</ele>
        <time>2010-04-24T08:30:02Z</time>
      </trkpt>
      <trkpt lat="45.86393" lon="3.06563">
        <ele>480.79663085938</ele>
        <time>2010-04-24T08:30:04Z</time>
      </trkpt>
      <trkpt lat="45.86394" lon="3.06561">
        <ele>480.31591796875</ele>
        <time>2010-04-24T08:30:05Z</time>
      </trkpt>
      <trkpt lat="45.864" lon="3.06553">
        <ele>476.95129394531</ele>
        <time>2010-04-24T08:30:09Z</time>
      </trkpt>
      <trkpt lat="45.86406" lon="3.06546">
        <ele>473.58666992188</ele>
        <time>2010-04-24T08:30:14Z</time>
      </trkpt>
      <trkpt lat="45.86409" lon="3.06531">
        <ele>471.18334960938</ele>
        <time>2010-04-24T08:30:19Z</time>
      </trkpt>
      <trkpt lat="45.86415" lon="3.06518">
        <ele>468.29931640625</ele>
        <time>2010-04-24T08:30:24Z</time>
      </trkpt>
      <trkpt lat="45.86417" lon="3.06514">
        <ele>467.33813476562</ele>
        <time>2010-04-24T08:30:25Z</time>
      </trkpt>
      <trkpt lat="45.86418" lon="3.06489">
        <ele>466.37670898438</ele>
        <time>2010-04-24T08:30:30Z</time>
      </trkpt>
      <trkpt lat="45.86414" lon="3.06463">
        <ele>466.37670898438</ele>
        <time>2010-04-24T08:30:34Z</time>
      </trkpt>
      <trkpt lat="45.86414" lon="3.06457">
        <ele>466.37670898438</ele>
        <time>2010-04-24T08:30:35Z</time>
      </trkpt>
      <trkpt lat="45.86415" lon="3.06418">
        <ele>466.37670898438</ele>
        <time>2010-04-24T08:30:41Z</time>
      </trkpt>
      <trkpt lat="45.86419" lon="3.06407">
        <ele>464.93481445312</ele>
        <time>2010-04-24T08:30:43Z</time>
      </trkpt>
      <trkpt lat="45.8642" lon="3.064">
        <ele>463.97338867188</ele>
        <time>2010-04-24T08:30:44Z</time>
      </trkpt>
      <trkpt lat="45.86423" lon="3.06386">
        <ele>462.53137207031</ele>
        <time>2010-04-24T08:30:46Z</time>
      </trkpt>
      <trkpt lat="45.86425" lon="3.06369">
        <ele>461.57019042969</ele>
        <time>2010-04-24T08:30:48Z</time>
      </trkpt>
      <trkpt lat="45.8643" lon="3.06325">
        <ele>458.68615722656</ele>
        <time>2010-04-24T08:30:54Z</time>
      </trkpt>
      <trkpt lat="45.86429" lon="3.06303">
        <ele>457.24426269531</ele>
        <time>2010-04-24T08:30:57Z</time>
      </trkpt>
      <trkpt lat="45.86426" lon="3.0628">
        <ele>455.32153320312</ele>
        <time>2010-04-24T08:31:00Z</time>
      </trkpt>
      <trkpt lat="45.86421" lon="3.06264">
        <ele>453.87963867188</ele>
        <time>2010-04-24T08:31:02Z</time>
      </trkpt>
      <trkpt lat="45.86415" lon="3.06237">
        <ele>452.91821289062</ele>
        <time>2010-04-24T08:31:05Z</time>
      </trkpt>
      <trkpt lat="45.86417" lon="3.06195">
        <ele>452.91821289062</ele>
        <time>2010-04-24T08:31:10Z</time>
      </trkpt>
      <trkpt lat="45.86429" lon="3.06176">
        <ele>452.43762207031</ele>
        <time>2010-04-24T08:31:15Z</time>
      </trkpt>
      <trkpt lat="45.86439" lon="3.06154">
        <ele>451.95703125</ele>
        <time>2010-04-24T08:31:19Z</time>
      </trkpt>
      <trkpt lat="45.86455" lon="3.06118">
        <ele>450.51501464844</ele>
        <time>2010-04-24T08:31:25Z</time>
      </trkpt>
      <trkpt lat="45.86459" lon="3.06112">
        <ele>450.99560546875</ele>
        <time>2010-04-24T08:31:26Z</time>
      </trkpt>
      <trkpt lat="45.86464" lon="3.06101">
        <ele>450.51501464844</ele>
        <time>2010-04-24T08:31:28Z</time>
      </trkpt>
      <trkpt lat="45.86465" lon="3.06076">
        <ele>450.99560546875</ele>
        <time>2010-04-24T08:31:32Z</time>
      </trkpt>
      <trkpt lat="45.86458" lon="3.06059">
        <ele>448.11181640625</ele>
        <time>2010-04-24T08:31:35Z</time>
      </trkpt>
      <trkpt lat="45.86438" lon="3.06037">
        <ele>444.7470703125</ele>
        <time>2010-04-24T08:31:39Z</time>
      </trkpt>
      <trkpt lat="45.86428" lon="3.06023">
        <ele>443.78576660156</ele>
        <time>2010-04-24T08:31:41Z</time>
      </trkpt>
      <trkpt lat="45.86406" lon="3.05979">
        <ele>445.70837402344</ele>
        <time>2010-04-24T08:31:47Z</time>
      </trkpt>
      <trkpt lat="45.86403" lon="3.05973">
        <ele>445.70837402344</ele>
        <time>2010-04-24T08:31:48Z</time>
      </trkpt>
      <trkpt lat="45.86384" lon="3.05938">
        <ele>445.70837402344</ele>
        <time>2010-04-24T08:31:53Z</time>
      </trkpt>
      <trkpt lat="45.86372" lon="3.05917">
        <ele>446.18908691406</ele>
        <time>2010-04-24T08:31:56Z</time>
      </trkpt>
      <trkpt lat="45.86351" lon="3.05881">
        <ele>446.66967773438</ele>
        <time>2010-04-24T08:32:01Z</time>
      </trkpt>
      <trkpt lat="45.86343" lon="3.05868">
        <ele>447.15026855469</ele>
        <time>2010-04-24T08:32:03Z</time>
      </trkpt>
      <trkpt lat="45.86322" lon="3.05844">
        <ele>448.11181640625</ele>
        <time>2010-04-24T08:32:08Z</time>
      </trkpt>
      <trkpt lat="45.86314" lon="3.05835">
        <ele>450.51501464844</ele>
        <time>2010-04-24T08:32:11Z</time>
      </trkpt>
      <trkpt lat="45.86301" lon="3.05821">
        <ele>451.47631835938</ele>
        <time>2010-04-24T08:32:15Z</time>
      </trkpt>
      <trkpt lat="45.86298" lon="3.05818">
        <ele>451.95703125</ele>
        <time>2010-04-24T08:32:16Z</time>
      </trkpt>
      <trkpt lat="45.86287" lon="3.05797">
        <ele>453.39892578125</ele>
        <time>2010-04-24T08:32:21Z</time>
      </trkpt>
      <trkpt lat="45.8628" lon="3.05783">
        <ele>453.39892578125</ele>
        <time>2010-04-24T08:32:24Z</time>
      </trkpt>
      <trkpt lat="45.86264" lon="3.05767">
        <ele>453.87963867188</ele>
        <time>2010-04-24T08:32:29Z</time>
      </trkpt>
      <trkpt lat="45.86249" lon="3.05756">
        <ele>455.80224609375</ele>
        <time>2010-04-24T08:32:34Z</time>
      </trkpt>
      <trkpt lat="45.86244" lon="3.0575">
        <ele>457.24426269531</ele>
        <time>2010-04-24T08:32:36Z</time>
      </trkpt>
      <trkpt lat="45.86238" lon="3.05746">
        <ele>458.20556640625</ele>
        <time>2010-04-24T08:32:38Z</time>
      </trkpt>
      <trkpt lat="45.86233" lon="3.05741">
        <ele>458.68615722656</ele>
        <time>2010-04-24T08:32:40Z</time>
      </trkpt>
      <trkpt lat="45.8622" lon="3.05719">
        <ele>458.20556640625</ele>
        <time>2010-04-24T08:32:47Z</time>
      </trkpt>
      <trkpt lat="45.86212" lon="3.05698">
        <ele>455.80224609375</ele>
        <time>2010-04-24T08:32:51Z</time>
      </trkpt>
      <trkpt lat="45.86203" lon="3.05672">
        <ele>454.8408203125</ele>
        <time>2010-04-24T08:32:56Z</time>
      </trkpt>
      <trkpt lat="45.86205" lon="3.05656">
        <ele>452.91821289062</ele>
        <time>2010-04-24T08:33:00Z</time>
      </trkpt>
      <trkpt lat="45.86217" lon="3.05638">
        <ele>451.47631835938</ele>
        <time>2010-04-24T08:33:06Z</time>
      </trkpt>
      <trkpt lat="45.86226" lon="3.05628">
        <ele>450.03442382812</ele>
        <time>2010-04-24T08:33:09Z</time>
      </trkpt>
      <trkpt lat="45.86232" lon="3.0562">
        <ele>448.59240722656</ele>
        <time>2010-04-24T08:33:11Z</time>
      </trkpt>
      <trkpt lat="45.86249" lon="3.05596">
        <ele>447.15026855469</ele>
        <time>2010-04-24T08:33:17Z</time>
      </trkpt>
      <trkpt lat="45.86255" lon="3.05591">
        <ele>446.66967773438</ele>
        <time>2010-04-24T08:33:19Z</time>
      </trkpt>
      <trkpt lat="45.86285" lon="3.05579">
        <ele>443.78576660156</ele>
        <time>2010-04-24T08:33:26Z</time>
      </trkpt>
      <trkpt lat="45.86306" lon="3.05573">
        <ele>443.30505371094</ele>
        <time>2010-04-24T08:33:31Z</time>
      </trkpt>
      <trkpt lat="45.86318" lon="3.05569">
        <ele>442.82446289062</ele>
        <time>2010-04-24T08:33:33Z</time>
      </trkpt>
      <trkpt lat="45.86338" lon="3.05557">
        <ele>441.86315917969</ele>
        <time>2010-04-24T08:33:37Z</time>
      </trkpt>
      <trkpt lat="45.86347" lon="3.05548">
        <ele>441.86315917969</ele>
        <time>2010-04-24T08:33:39Z</time>
      </trkpt>
      <trkpt lat="45.8637" lon="3.0552">
        <ele>440.42126464844</ele>
        <time>2010-04-24T08:33:46Z</time>
      </trkpt>
      <trkpt lat="45.86376" lon="3.05513">
        <ele>440.90185546875</ele>
        <time>2010-04-24T08:33:48Z</time>
      </trkpt>
      <trkpt lat="45.86407" lon="3.05477">
        <ele>440.90185546875</ele>
        <time>2010-04-24T08:33:56Z</time>
      </trkpt>
      <trkpt lat="45.86428" lon="3.05451">
        <ele>440.90185546875</ele>
        <time>2010-04-24T08:34:02Z</time>
      </trkpt>
      <trkpt lat="45.86434" lon="3.05443">
        <ele>440.90185546875</ele>
        <time>2010-04-24T08:34:06Z</time>
      </trkpt>
      <trkpt lat="45.86445" lon="3.05432">
        <ele>440.90185546875</ele>
        <time>2010-04-24T08:34:11Z</time>
      </trkpt>
      <trkpt lat="45.8647" lon="3.05388">
        <ele>440.90185546875</ele>
        <time>2010-04-24T08:34:20Z</time>
      </trkpt>
      <trkpt lat="45.86486" lon="3.05357">
        <ele>440.90185546875</ele>
        <time>2010-04-24T08:34:26Z</time>
      </trkpt>
      <trkpt lat="45.86501" lon="3.05326">
        <ele>443.30505371094</ele>
        <time>2010-04-24T08:34:32Z</time>
      </trkpt>
      <trkpt lat="45.86507" lon="3.0531">
        <ele>443.78576660156</ele>
        <time>2010-04-24T08:34:37Z</time>
      </trkpt>
      <trkpt lat="45.8651" lon="3.05305">
        <ele>444.26647949219</ele>
        <time>2010-04-24T08:34:42Z</time>
      </trkpt>
      <trkpt lat="45.8651" lon="3.05305">
        <ele>444.26647949219</ele>
        <time>2010-04-24T08:34:53Z</time>
      </trkpt>
      <trkpt lat="45.8651" lon="3.05305">
        <ele>444.26647949219</ele>
        <time>2010-04-24T08:34:56Z</time>
      </trkpt>
      <trkpt lat="45.8651" lon="3.05305">
        <ele>444.26647949219</ele>
        <time>2010-04-24T08:34:58Z</time>
      </trkpt>
      <trkpt lat="45.8651" lon="3.05305">
        <ele>444.26647949219</ele>
        <time>2010-04-24T08:35:04Z</time>
      </trkpt>
      <trkpt lat="45.8651" lon="3.05305">
        <ele>444.7470703125</ele>
        <time>2010-04-24T08:35:18Z</time>
      </trkpt>
      <trkpt lat="45.86524" lon="3.05309">
        <ele>446.18908691406</ele>
        <time>2010-04-24T08:35:25Z</time>
      </trkpt>
      <trkpt lat="45.86538" lon="3.05307">
        <ele>448.11181640625</ele>
        <time>2010-04-24T08:35:30Z</time>
      </trkpt>
      <trkpt lat="45.86547" lon="3.05302">
        <ele>448.59240722656</ele>
        <time>2010-04-24T08:35:33Z</time>
      </trkpt>
      <trkpt lat="45.86563" lon="3.05289">
        <ele>449.07299804688</ele>
        <time>2010-04-24T08:35:39Z</time>
      </trkpt>
      <trkpt lat="45.86587" lon="3.05261">
        <ele>449.07299804688</ele>
        <time>2010-04-24T08:35:47Z</time>
      </trkpt>
      <trkpt lat="45.86603" lon="3.0524">
        <ele>448.59240722656</ele>
        <time>2010-04-24T08:35:52Z</time>
      </trkpt>
      <trkpt lat="45.86625" lon="3.05196">
        <ele>450.51501464844</ele>
        <time>2010-04-24T08:36:01Z</time>
      </trkpt>
      <trkpt lat="45.86644" lon="3.05161">
        <ele>451.47631835938</ele>
        <time>2010-04-24T08:36:09Z</time>
      </trkpt>
      <trkpt lat="45.86662" lon="3.05141">
        <ele>452.91821289062</ele>
        <time>2010-04-24T08:36:15Z</time>
      </trkpt>
      <trkpt lat="45.86673" lon="3.05129">
        <ele>456.28295898438</ele>
        <time>2010-04-24T08:36:19Z</time>
      </trkpt>
      <trkpt lat="45.86689" lon="3.05119">
        <ele>458.68615722656</ele>
        <time>2010-04-24T08:36:24Z</time>
      </trkpt>
      <trkpt lat="45.86705" lon="3.05105">
        <ele>458.68615722656</ele>
        <time>2010-04-24T08:36:29Z</time>
      </trkpt>
      <trkpt lat="45.86708" lon="3.05103">
        <ele>460.12817382812</ele>
        <time>2010-04-24T08:36:30Z</time>
      </trkpt>
      <trkpt lat="45.86711" lon="3.051">
        <ele>460.12817382812</ele>
        <time>2010-04-24T08:36:31Z</time>
      </trkpt>
      <trkpt lat="45.86733" lon="3.05082">
        <ele>461.08947753906</ele>
        <time>2010-04-24T08:36:39Z</time>
      </trkpt>
      <trkpt lat="45.86746" lon="3.05067">
        <ele>461.57019042969</ele>
        <time>2010-04-24T08:36:45Z</time>
      </trkpt>
      <trkpt lat="45.8675" lon="3.05046">
        <ele>462.05078125</ele>
        <time>2010-04-24T08:36:50Z</time>
      </trkpt>
      <trkpt lat="45.86759" lon="3.05015">
        <ele>463.01208496094</ele>
        <time>2010-04-24T08:36:57Z</time>
      </trkpt>
      <trkpt lat="45.86771" lon="3.04983">
        <ele>463.49279785156</ele>
        <time>2010-04-24T08:37:04Z</time>
      </trkpt>
      <trkpt lat="45.86779" lon="3.04954">
        <ele>463.97338867188</ele>
        <time>2010-04-24T08:37:10Z</time>
      </trkpt>
      <trkpt lat="45.86788" lon="3.04924">
        <ele>464.93481445312</ele>
        <time>2010-04-24T08:37:18Z</time>
      </trkpt>
      <trkpt lat="45.86791" lon="3.04914">
        <ele>465.41552734375</ele>
        <time>2010-04-24T08:37:22Z</time>
      </trkpt>
      <trkpt lat="45.86788" lon="3.04912">
        <ele>464.93481445312</ele>
        <time>2010-04-24T08:37:26Z</time>
      </trkpt>
      <trkpt lat="45.8679" lon="3.04917">
        <ele>465.41552734375</ele>
        <time>2010-04-24T08:37:29Z</time>
      </trkpt>
      <trkpt lat="45.86798" lon="3.04913">
        <ele>464.93481445312</ele>
        <time>2010-04-24T08:37:33Z</time>
      </trkpt>
      <trkpt lat="45.868" lon="3.04914">
        <ele>464.4541015625</ele>
        <time>2010-04-24T08:37:34Z</time>
      </trkpt>
      <trkpt lat="45.86823" lon="3.04916">
        <ele>464.4541015625</ele>
        <time>2010-04-24T08:37:40Z</time>
      </trkpt>
      <trkpt lat="45.86858" lon="3.04909">
        <ele>464.4541015625</ele>
        <time>2010-04-24T08:37:48Z</time>
      </trkpt>
      <trkpt lat="45.86896" lon="3.049">
        <ele>464.93481445312</ele>
        <time>2010-04-24T08:37:57Z</time>
      </trkpt>
      <trkpt lat="45.86935" lon="3.04892">
        <ele>465.89611816406</ele>
        <time>2010-04-24T08:38:06Z</time>
      </trkpt>
      <trkpt lat="45.8698" lon="3.04882">
        <ele>465.41552734375</ele>
        <time>2010-04-24T08:38:16Z</time>
      </trkpt>
      <trkpt lat="45.87011" lon="3.04874">
        <ele>466.37670898438</ele>
        <time>2010-04-24T08:38:23Z</time>
      </trkpt>
      <trkpt lat="45.87041" lon="3.04868">
        <ele>467.81872558594</ele>
        <time>2010-04-24T08:38:30Z</time>
      </trkpt>
      <trkpt lat="45.87048" lon="3.04882">
        <ele>464.93481445312</ele>
        <time>2010-04-24T08:38:34Z</time>
      </trkpt>
      <trkpt lat="45.87049" lon="3.04889">
        <ele>464.93481445312</ele>
        <time>2010-04-24T08:38:35Z</time>
      </trkpt>
      <trkpt lat="45.87054" lon="3.04926">
        <ele>463.97338867188</ele>
        <time>2010-04-24T08:38:40Z</time>
      </trkpt>
      <trkpt lat="45.87058" lon="3.04952">
        <ele>462.53137207031</ele>
        <time>2010-04-24T08:38:43Z</time>
      </trkpt>
      <trkpt lat="45.8706" lon="3.04997">
        <ele>461.08947753906</ele>
        <time>2010-04-24T08:38:48Z</time>
      </trkpt>
      <trkpt lat="45.87052" lon="3.05045">
        <ele>459.16687011719</ele>
        <time>2010-04-24T08:38:53Z</time>
      </trkpt>
      <trkpt lat="45.87041" lon="3.05097">
        <ele>457.24426269531</ele>
        <time>2010-04-24T08:38:58Z</time>
      </trkpt>
      <trkpt lat="45.87033" lon="3.05138">
        <ele>455.80224609375</ele>
        <time>2010-04-24T08:39:02Z</time>
      </trkpt>
      <trkpt lat="45.87024" lon="3.05188">
        <ele>455.32153320312</ele>
        <time>2010-04-24T08:39:07Z</time>
      </trkpt>
      <trkpt lat="45.8701" lon="3.05259">
        <ele>452.43762207031</ele>
        <time>2010-04-24T08:39:14Z</time>
      </trkpt>
      <trkpt lat="45.87008" lon="3.05269">
        <ele>452.43762207031</ele>
        <time>2010-04-24T08:39:15Z</time>
      </trkpt>
      <trkpt lat="45.87011" lon="3.05297">
        <ele>452.43762207031</ele>
        <time>2010-04-24T08:39:19Z</time>
      </trkpt>
      <trkpt lat="45.87022" lon="3.05304">
        <ele>450.99560546875</ele>
        <time>2010-04-24T08:39:21Z</time>
      </trkpt>
      <trkpt lat="45.87061" lon="3.05329">
        <ele>449.07299804688</ele>
        <time>2010-04-24T08:39:27Z</time>
      </trkpt>
      <trkpt lat="45.87072" lon="3.05336">
        <ele>449.5537109375</ele>
        <time>2010-04-24T08:39:29Z</time>
      </trkpt>
      <trkpt lat="45.87086" lon="3.0536">
        <ele>450.03442382812</ele>
        <time>2010-04-24T08:39:33Z</time>
      </trkpt>
      <trkpt lat="45.87086" lon="3.05367">
        <ele>450.51501464844</ele>
        <time>2010-04-24T08:39:34Z</time>
      </trkpt>
      <trkpt lat="45.87088" lon="3.0541">
        <ele>452.43762207031</ele>
        <time>2010-04-24T08:39:40Z</time>
      </trkpt>
      <trkpt lat="45.8709" lon="3.05446">
        <ele>454.36022949219</ele>
        <time>2010-04-24T08:39:45Z</time>
      </trkpt>
      <trkpt lat="45.87098" lon="3.05465">
        <ele>454.36022949219</ele>
        <time>2010-04-24T08:39:49Z</time>
      </trkpt>
      <trkpt lat="45.87105" lon="3.05467">
        <ele>455.32153320312</ele>
        <time>2010-04-24T08:39:51Z</time>
      </trkpt>
      <trkpt lat="45.8714" lon="3.05474">
        <ele>456.76354980469</ele>
        <time>2010-04-24T08:40:00Z</time>
      </trkpt>
      <trkpt lat="45.87147" lon="3.05471">
        <ele>458.20556640625</ele>
        <time>2010-04-24T08:40:02Z</time>
      </trkpt>
      <trkpt lat="45.87162" lon="3.05454">
        <ele>458.68615722656</ele>
        <time>2010-04-24T08:40:07Z</time>
      </trkpt>
      <trkpt lat="45.87172" lon="3.05439">
        <ele>459.64758300781</ele>
        <time>2010-04-24T08:40:11Z</time>
      </trkpt>
      <trkpt lat="45.87185" lon="3.05424">
        <ele>460.12817382812</ele>
        <time>2010-04-24T08:40:16Z</time>
      </trkpt>
      <trkpt lat="45.872" lon="3.05407">
        <ele>461.57019042969</ele>
        <time>2010-04-24T08:40:22Z</time>
      </trkpt>
      <trkpt lat="45.87222" lon="3.05389">
        <ele>462.05078125</ele>
        <time>2010-04-24T08:40:29Z</time>
      </trkpt>
      <trkpt lat="45.8724" lon="3.05369">
        <ele>463.01208496094</ele>
        <time>2010-04-24T08:40:36Z</time>
      </trkpt>
      <trkpt lat="45.8726" lon="3.0535">
        <ele>464.4541015625</ele>
        <time>2010-04-24T08:40:43Z</time>
      </trkpt>
      <trkpt lat="45.87286" lon="3.05329">
        <ele>465.89611816406</ele>
        <time>2010-04-24T08:40:51Z</time>
      </trkpt>
      <trkpt lat="45.87301" lon="3.05322">
        <ele>465.41552734375</ele>
        <time>2010-04-24T08:40:56Z</time>
      </trkpt>
      <trkpt lat="45.87323" lon="3.05307">
        <ele>465.89611816406</ele>
        <time>2010-04-24T08:41:02Z</time>
      </trkpt>
      <trkpt lat="45.87326" lon="3.05305">
        <ele>465.89611816406</ele>
        <time>2010-04-24T08:41:03Z</time>
      </trkpt>
      <trkpt lat="45.87337" lon="3.05297">
        <ele>465.41552734375</ele>
        <time>2010-04-24T08:41:06Z</time>
      </trkpt>
      <trkpt lat="45.87362" lon="3.05288">
        <ele>463.97338867188</ele>
        <time>2010-04-24T08:41:12Z</time>
      </trkpt>
      <trkpt lat="45.87378" lon="3.05272">
        <ele>463.49279785156</ele>
        <time>2010-04-24T08:41:16Z</time>
      </trkpt>
      <trkpt lat="45.87382" lon="3.05259">
        <ele>463.97338867188</ele>
        <time>2010-04-24T08:41:18Z</time>
      </trkpt>
      <trkpt lat="45.87387" lon="3.05234">
        <ele>464.93481445312</ele>
        <time>2010-04-24T08:41:22Z</time>
      </trkpt>
      <trkpt lat="45.87392" lon="3.05223">
        <ele>464.4541015625</ele>
        <time>2010-04-24T08:41:24Z</time>
      </trkpt>
      <trkpt lat="45.87395" lon="3.05211">
        <ele>465.41552734375</ele>
        <time>2010-04-24T08:41:26Z</time>
      </trkpt>
      <trkpt lat="45.87402" lon="3.05192">
        <ele>464.4541015625</ele>
        <time>2010-04-24T08:41:29Z</time>
      </trkpt>
      <trkpt lat="45.87416" lon="3.05168">
        <ele>463.49279785156</ele>
        <time>2010-04-24T08:41:33Z</time>
      </trkpt>
      <trkpt lat="45.87435" lon="3.05149">
        <ele>462.53137207031</ele>
        <time>2010-04-24T08:41:37Z</time>
      </trkpt>
      <trkpt lat="45.87451" lon="3.05127">
        <ele>462.53137207031</ele>
        <time>2010-04-24T08:41:41Z</time>
      </trkpt>
      <trkpt lat="45.87478" lon="3.0508">
        <ele>463.49279785156</ele>
        <time>2010-04-24T08:41:49Z</time>
      </trkpt>
      <trkpt lat="45.87486" lon="3.05063">
        <ele>463.97338867188</ele>
        <time>2010-04-24T08:41:52Z</time>
      </trkpt>
      <trkpt lat="45.87494" lon="3.0503">
        <ele>463.97338867188</ele>
        <time>2010-04-24T08:41:57Z</time>
      </trkpt>
      <trkpt lat="45.87497" lon="3.04982">
        <ele>464.4541015625</ele>
        <time>2010-04-24T08:42:04Z</time>
      </trkpt>
      <trkpt lat="45.87497" lon="3.04929">
        <ele>465.41552734375</ele>
        <time>2010-04-24T08:42:11Z</time>
      </trkpt>
      <trkpt lat="45.8749" lon="3.04871">
        <ele>466.857421875</ele>
        <time>2010-04-24T08:42:19Z</time>
      </trkpt>
      <trkpt lat="45.87489" lon="3.04827">
        <ele>467.81872558594</ele>
        <time>2010-04-24T08:42:25Z</time>
      </trkpt>
      <trkpt lat="45.87489" lon="3.04798">
        <ele>467.81872558594</ele>
        <time>2010-04-24T08:42:29Z</time>
      </trkpt>
      <trkpt lat="45.87489" lon="3.04784">
        <ele>468.29931640625</ele>
        <time>2010-04-24T08:42:31Z</time>
      </trkpt>
      <trkpt lat="45.87479" lon="3.04711">
        <ele>468.78002929688</ele>
        <time>2010-04-24T08:42:41Z</time>
      </trkpt>
      <trkpt lat="45.87477" lon="3.04696">
        <ele>468.29931640625</ele>
        <time>2010-04-24T08:42:43Z</time>
      </trkpt>
      <trkpt lat="45.87478" lon="3.04667">
        <ele>468.78002929688</ele>
        <time>2010-04-24T08:42:47Z</time>
      </trkpt>
      <trkpt lat="45.8749" lon="3.04653">
        <ele>469.74133300781</ele>
        <time>2010-04-24T08:42:50Z</time>
      </trkpt>
      <trkpt lat="45.87528" lon="3.04633">
        <ele>473.10607910156</ele>
        <time>2010-04-24T08:42:58Z</time>
      </trkpt>
      <trkpt lat="45.87553" lon="3.04627">
        <ele>475.98986816406</ele>
        <time>2010-04-24T08:43:04Z</time>
      </trkpt>
      <trkpt lat="45.87556" lon="3.04626">
        <ele>476.47058105469</ele>
        <time>2010-04-24T08:43:05Z</time>
      </trkpt>
      <trkpt lat="45.87558" lon="3.04616">
        <ele>476.95129394531</ele>
        <time>2010-04-24T08:43:09Z</time>
      </trkpt>
      <trkpt lat="45.87555" lon="3.04586">
        <ele>476.95129394531</ele>
        <time>2010-04-24T08:43:16Z</time>
      </trkpt>
      <trkpt lat="45.87554" lon="3.04565">
        <ele>477.43188476562</ele>
        <time>2010-04-24T08:43:21Z</time>
      </trkpt>
      <trkpt lat="45.87561" lon="3.04544">
        <ele>477.91247558594</ele>
        <time>2010-04-24T08:43:26Z</time>
      </trkpt>
      <trkpt lat="45.87579" lon="3.04534">
        <ele>478.39318847656</ele>
        <time>2010-04-24T08:43:31Z</time>
      </trkpt>
      <trkpt lat="45.87591" lon="3.04529">
        <ele>478.87390136719</ele>
        <time>2010-04-24T08:43:34Z</time>
      </trkpt>
      <trkpt lat="45.8764" lon="3.04516">
        <ele>479.83508300781</ele>
        <time>2010-04-24T08:43:45Z</time>
      </trkpt>
      <trkpt lat="45.87692" lon="3.04504">
        <ele>480.31591796875</ele>
        <time>2010-04-24T08:43:56Z</time>
      </trkpt>
      <trkpt lat="45.87725" lon="3.04497">
        <ele>479.3544921875</ele>
        <time>2010-04-24T08:44:02Z</time>
      </trkpt>
      <trkpt lat="45.87738" lon="3.04496">
        <ele>476.95129394531</ele>
        <time>2010-04-24T08:44:04Z</time>
      </trkpt>
      <trkpt lat="45.87744" lon="3.04496">
        <ele>477.43188476562</ele>
        <time>2010-04-24T08:44:05Z</time>
      </trkpt>
      <trkpt lat="45.87772" lon="3.04493">
        <ele>475.02868652344</ele>
        <time>2010-04-24T08:44:09Z</time>
      </trkpt>
      <trkpt lat="45.87793" lon="3.04498">
        <ele>475.02868652344</ele>
        <time>2010-04-24T08:44:13Z</time>
      </trkpt>
      <trkpt lat="45.87797" lon="3.04499">
        <ele>474.54797363281</ele>
        <time>2010-04-24T08:44:14Z</time>
      </trkpt>
      <trkpt lat="45.87809" lon="3.04484">
        <ele>474.06726074219</ele>
        <time>2010-04-24T08:44:18Z</time>
      </trkpt>
      <trkpt lat="45.87807" lon="3.04457">
        <ele>474.54797363281</ele>
        <time>2010-04-24T08:44:22Z</time>
      </trkpt>
      <trkpt lat="45.87798" lon="3.04422">
        <ele>476.47058105469</ele>
        <time>2010-04-24T08:44:29Z</time>
      </trkpt>
      <trkpt lat="45.87786" lon="3.04384">
        <ele>478.39318847656</ele>
        <time>2010-04-24T08:44:38Z</time>
      </trkpt>
      <trkpt lat="45.87775" lon="3.04356">
        <ele>479.3544921875</ele>
        <time>2010-04-24T08:44:45Z</time>
      </trkpt>
      <trkpt lat="45.87768" lon="3.0433">
        <ele>481.7578125</ele>
        <time>2010-04-24T08:44:51Z</time>
      </trkpt>
      <trkpt lat="45.87758" lon="3.04299">
        <ele>483.19982910156</ele>
        <time>2010-04-24T08:44:58Z</time>
      </trkpt>
      <trkpt lat="45.87753" lon="3.04282">
        <ele>484.1611328125</ele>
        <time>2010-04-24T08:45:02Z</time>
      </trkpt>
      <trkpt lat="45.87758" lon="3.04279">
        <ele>482.23852539062</ele>
        <time>2010-04-24T08:45:06Z</time>
      </trkpt>
      <trkpt lat="45.87762" lon="3.04282">
        <ele>480.79663085938</ele>
        <time>2010-04-24T08:45:07Z</time>
      </trkpt>
      <trkpt lat="45.87782" lon="3.04295">
        <ele>475.02868652344</ele>
        <time>2010-04-24T08:45:11Z</time>
      </trkpt>
      <trkpt lat="45.87796" lon="3.04301">
        <ele>470.70263671875</ele>
        <time>2010-04-24T08:45:14Z</time>
      </trkpt>
      <trkpt lat="45.87807" lon="3.04306">
        <ele>467.33813476562</ele>
        <time>2010-04-24T08:45:16Z</time>
      </trkpt>
      <trkpt lat="45.87826" lon="3.04316">
        <ele>464.93481445312</ele>
        <time>2010-04-24T08:45:19Z</time>
      </trkpt>
      <trkpt lat="45.87844" lon="3.04339">
        <ele>459.16687011719</ele>
        <time>2010-04-24T08:45:23Z</time>
      </trkpt>
      <trkpt lat="45.87868" lon="3.04384">
        <ele>453.87963867188</ele>
        <time>2010-04-24T08:45:28Z</time>
      </trkpt>
      <trkpt lat="45.8788" lon="3.04398">
        <ele>452.91821289062</ele>
        <time>2010-04-24T08:45:30Z</time>
      </trkpt>
      <trkpt lat="45.8789" lon="3.04409">
        <ele>451.95703125</ele>
        <time>2010-04-24T08:45:32Z</time>
      </trkpt>
      <trkpt lat="45.87903" lon="3.0442">
        <ele>449.5537109375</ele>
        <time>2010-04-24T08:45:34Z</time>
      </trkpt>
      <trkpt lat="45.87929" lon="3.04447">
        <ele>445.22766113281</ele>
        <time>2010-04-24T08:45:38Z</time>
      </trkpt>
      <trkpt lat="45.87963" lon="3.04482">
        <ele>442.34387207031</ele>
        <time>2010-04-24T08:45:43Z</time>
      </trkpt>
      <trkpt lat="45.87973" lon="3.04492">
        <ele>442.34387207031</ele>
        <time>2010-04-24T08:45:45Z</time>
      </trkpt>
      <trkpt lat="45.8798" lon="3.04519">
        <ele>438.49853515625</ele>
        <time>2010-04-24T08:45:49Z</time>
      </trkpt>
      <trkpt lat="45.8797" lon="3.04539">
        <ele>439.9404296875</ele>
        <time>2010-04-24T08:45:52Z</time>
      </trkpt>
      <trkpt lat="45.87966" lon="3.04559">
        <ele>441.86315917969</ele>
        <time>2010-04-24T08:45:55Z</time>
      </trkpt>
      <trkpt lat="45.87968" lon="3.04563">
        <ele>441.86315917969</ele>
        <time>2010-04-24T08:45:56Z</time>
      </trkpt>
      <trkpt lat="45.87988" lon="3.04588">
        <ele>438.01782226562</ele>
        <time>2010-04-24T08:46:01Z</time>
      </trkpt>
      <trkpt lat="45.87999" lon="3.046">
        <ele>437.05651855469</ele>
        <time>2010-04-24T08:46:03Z</time>
      </trkpt>
      <trkpt lat="45.88025" lon="3.04637">
        <ele>430.80798339844</ele>
        <time>2010-04-24T08:46:08Z</time>
      </trkpt>
      <trkpt lat="45.88042" lon="3.04664">
        <ele>427.443359375</ele>
        <time>2010-04-24T08:46:11Z</time>
      </trkpt>
      <trkpt lat="45.88053" lon="3.04684">
        <ele>424.55944824219</ele>
        <time>2010-04-24T08:46:13Z</time>
      </trkpt>
      <trkpt lat="45.88064" lon="3.04705">
        <ele>423.11743164062</ele>
        <time>2010-04-24T08:46:15Z</time>
      </trkpt>
      <trkpt lat="45.88068" lon="3.04714">
        <ele>423.11743164062</ele>
        <time>2010-04-24T08:46:16Z</time>
      </trkpt>
      <trkpt lat="45.88092" lon="3.04729">
        <ele>420.2333984375</ele>
        <time>2010-04-24T08:46:20Z</time>
      </trkpt>
      <trkpt lat="45.88113" lon="3.04734">
        <ele>420.2333984375</ele>
        <time>2010-04-24T08:46:24Z</time>
      </trkpt>
      <trkpt lat="45.88121" lon="3.04754">
        <ele>418.31079101562</ele>
        <time>2010-04-24T08:46:27Z</time>
      </trkpt>
      <trkpt lat="45.88128" lon="3.04778">
        <ele>417.349609375</ele>
        <time>2010-04-24T08:46:30Z</time>
      </trkpt>
      <trkpt lat="45.88152" lon="3.04843">
        <ele>414.94616699219</ele>
        <time>2010-04-24T08:46:38Z</time>
      </trkpt>
      <trkpt lat="45.88158" lon="3.0486">
        <ele>414.46545410156</ele>
        <time>2010-04-24T08:46:40Z</time>
      </trkpt>
      <trkpt lat="45.88166" lon="3.04876">
        <ele>413.98486328125</ele>
        <time>2010-04-24T08:46:42Z</time>
      </trkpt>
      <trkpt lat="45.882" lon="3.04923">
        <ele>412.06225585938</ele>
        <time>2010-04-24T08:46:49Z</time>
      </trkpt>
      <trkpt lat="45.88243" lon="3.04982">
        <ele>410.62023925781</ele>
        <time>2010-04-24T08:46:58Z</time>
      </trkpt>
      <trkpt lat="45.88275" lon="3.05026">
        <ele>409.17834472656</ele>
        <time>2010-04-24T08:47:04Z</time>
      </trkpt>
      <trkpt lat="45.88285" lon="3.05042">
        <ele>407.736328125</ele>
        <time>2010-04-24T08:47:06Z</time>
      </trkpt>
      <trkpt lat="45.88317" lon="3.05091">
        <ele>406.77490234375</ele>
        <time>2010-04-24T08:47:12Z</time>
      </trkpt>
      <trkpt lat="45.88338" lon="3.05133">
        <ele>406.29431152344</ele>
        <time>2010-04-24T08:47:17Z</time>
      </trkpt>
      <trkpt lat="45.88342" lon="3.05139">
        <ele>406.29431152344</ele>
        <time>2010-04-24T08:47:18Z</time>
      </trkpt>
      <trkpt lat="45.88357" lon="3.05168">
        <ele>406.29431152344</ele>
        <time>2010-04-24T08:47:23Z</time>
      </trkpt>
      <trkpt lat="45.88361" lon="3.05174">
        <ele>406.29431152344</ele>
        <time>2010-04-24T08:47:24Z</time>
      </trkpt>
      <trkpt lat="45.88384" lon="3.05211">
        <ele>405.81372070312</ele>
        <time>2010-04-24T08:47:31Z</time>
      </trkpt>
      <trkpt lat="45.884" lon="3.05218">
        <ele>407.736328125</ele>
        <time>2010-04-24T08:47:35Z</time>
      </trkpt>
      <trkpt lat="45.88427" lon="3.0521">
        <ele>408.69763183594</ele>
        <time>2010-04-24T08:47:41Z</time>
      </trkpt>
      <trkpt lat="45.88436" lon="3.05208">
        <ele>409.17834472656</ele>
        <time>2010-04-24T08:47:43Z</time>
      </trkpt>
      <trkpt lat="45.88465" lon="3.05204">
        <ele>410.1396484375</ele>
        <time>2010-04-24T08:47:50Z</time>
      </trkpt>
      <trkpt lat="45.88483" lon="3.05209">
        <ele>410.1396484375</ele>
        <time>2010-04-24T08:47:55Z</time>
      </trkpt>
      <trkpt lat="45.88503" lon="3.05218">
        <ele>410.62023925781</ele>
        <time>2010-04-24T08:48:00Z</time>
      </trkpt>
      <trkpt lat="45.8851" lon="3.05206">
        <ele>411.58166503906</ele>
        <time>2010-04-24T08:48:04Z</time>
      </trkpt>
      <trkpt lat="45.88511" lon="3.05201">
        <ele>411.10095214844</ele>
        <time>2010-04-24T08:48:05Z</time>
      </trkpt>
      <trkpt lat="45.88517" lon="3.05167">
        <ele>413.02355957031</ele>
        <time>2010-04-24T08:48:12Z</time>
      </trkpt>
      <trkpt lat="45.88526" lon="3.05121">
        <ele>414.94616699219</ele>
        <time>2010-04-24T08:48:21Z</time>
      </trkpt>
      <trkpt lat="45.88533" lon="3.05076">
        <ele>416.38818359375</ele>
        <time>2010-04-24T08:48:31Z</time>
      </trkpt>
      <trkpt lat="45.88538" lon="3.0503">
        <ele>418.79150390625</ele>
        <time>2010-04-24T08:48:41Z</time>
      </trkpt>
      <trkpt lat="45.88538" lon="3.04997">
        <ele>419.75280761719</ele>
        <time>2010-04-24T08:48:48Z</time>
      </trkpt>
      <trkpt lat="45.88539" lon="3.04953">
        <ele>421.19482421875</ele>
        <time>2010-04-24T08:48:57Z</time>
      </trkpt>
      <trkpt lat="45.88546" lon="3.0492">
        <ele>422.15600585938</ele>
        <time>2010-04-24T08:49:05Z</time>
      </trkpt>
      <trkpt lat="45.88555" lon="3.04899">
        <ele>424.07873535156</ele>
        <time>2010-04-24T08:49:11Z</time>
      </trkpt>
      <trkpt lat="45.88564" lon="3.04887">
        <ele>426.00134277344</ele>
        <time>2010-04-24T08:49:16Z</time>
      </trkpt>
      <trkpt lat="45.8857" lon="3.04879">
        <ele>427.443359375</ele>
        <time>2010-04-24T08:49:19Z</time>
      </trkpt>
      <trkpt lat="45.88574" lon="3.04875">
        <ele>428.40466308594</ele>
        <time>2010-04-24T08:49:21Z</time>
      </trkpt>
      <trkpt lat="45.88582" lon="3.04865">
        <ele>430.32727050781</ele>
        <time>2010-04-24T08:49:26Z</time>
      </trkpt>
      <trkpt lat="45.88594" lon="3.04852">
        <ele>432.25</ele>
        <time>2010-04-24T08:49:33Z</time>
      </trkpt>
      <trkpt lat="45.88605" lon="3.04837">
        <ele>433.69189453125</ele>
        <time>2010-04-24T08:49:40Z</time>
      </trkpt>
      <trkpt lat="45.88619" lon="3.04817">
        <ele>435.61450195312</ele>
        <time>2010-04-24T08:49:49Z</time>
      </trkpt>
      <trkpt lat="45.8863" lon="3.04796">
        <ele>437.537109375</ele>
        <time>2010-04-24T08:49:58Z</time>
      </trkpt>
      <trkpt lat="45.88641" lon="3.04782">
        <ele>439.45971679688</ele>
        <time>2010-04-24T08:50:05Z</time>
      </trkpt>
      <trkpt lat="45.8865" lon="3.04768">
        <ele>440.90185546875</ele>
        <time>2010-04-24T08:50:12Z</time>
      </trkpt>
      <trkpt lat="45.8866" lon="3.0475">
        <ele>443.30505371094</ele>
        <time>2010-04-24T08:50:20Z</time>
      </trkpt>
      <trkpt lat="45.88661" lon="3.04748">
        <ele>443.78576660156</ele>
        <time>2010-04-24T08:50:21Z</time>
      </trkpt>
      <trkpt lat="45.88672" lon="3.04734">
        <ele>444.7470703125</ele>
        <time>2010-04-24T08:50:28Z</time>
      </trkpt>
      <trkpt lat="45.88677" lon="3.04722">
        <ele>445.22766113281</ele>
        <time>2010-04-24T08:50:34Z</time>
      </trkpt>
      <trkpt lat="45.88689" lon="3.04718">
        <ele>444.7470703125</ele>
        <time>2010-04-24T08:50:40Z</time>
      </trkpt>
      <trkpt lat="45.88702" lon="3.04718">
        <ele>444.26647949219</ele>
        <time>2010-04-24T08:50:44Z</time>
      </trkpt>
      <trkpt lat="45.88721" lon="3.04722">
        <ele>443.30505371094</ele>
        <time>2010-04-24T08:50:48Z</time>
      </trkpt>
      <trkpt lat="45.88752" lon="3.04739">
        <ele>439.9404296875</ele>
        <time>2010-04-24T08:50:54Z</time>
      </trkpt>
      <trkpt lat="45.88761" lon="3.04744">
        <ele>440.42126464844</ele>
        <time>2010-04-24T08:50:56Z</time>
      </trkpt>
      <trkpt lat="45.8877" lon="3.04736">
        <ele>439.9404296875</ele>
        <time>2010-04-24T08:51:00Z</time>
      </trkpt>
      <trkpt lat="45.8877" lon="3.04731">
        <ele>439.45971679688</ele>
        <time>2010-04-24T08:51:01Z</time>
      </trkpt>
      <trkpt lat="45.88772" lon="3.04698">
        <ele>439.45971679688</ele>
        <time>2010-04-24T08:51:06Z</time>
      </trkpt>
      <trkpt lat="45.88776" lon="3.04668">
        <ele>440.42126464844</ele>
        <time>2010-04-24T08:51:11Z</time>
      </trkpt>
      <trkpt lat="45.88779" lon="3.0461">
        <ele>441.86315917969</ele>
        <time>2010-04-24T08:51:21Z</time>
      </trkpt>
      <trkpt lat="45.88787" lon="3.04577">
        <ele>443.78576660156</ele>
        <time>2010-04-24T08:51:29Z</time>
      </trkpt>
      <trkpt lat="45.88786" lon="3.04558">
        <ele>444.7470703125</ele>
        <time>2010-04-24T08:51:34Z</time>
      </trkpt>
      <trkpt lat="45.88783" lon="3.04543">
        <ele>446.18908691406</ele>
        <time>2010-04-24T08:51:38Z</time>
      </trkpt>
      <trkpt lat="45.88779" lon="3.0452">
        <ele>447.15026855469</ele>
        <time>2010-04-24T08:51:43Z</time>
      </trkpt>
      <trkpt lat="45.88778" lon="3.04501">
        <ele>448.59240722656</ele>
        <time>2010-04-24T08:51:47Z</time>
      </trkpt>
      <trkpt lat="45.88779" lon="3.04475">
        <ele>450.51501464844</ele>
        <time>2010-04-24T08:51:53Z</time>
      </trkpt>
      <trkpt lat="45.88779" lon="3.04442">
        <ele>451.95703125</ele>
        <time>2010-04-24T08:52:01Z</time>
      </trkpt>
      <trkpt lat="45.88778" lon="3.04418">
        <ele>452.43762207031</ele>
        <time>2010-04-24T08:52:07Z</time>
      </trkpt>
      <trkpt lat="45.88779" lon="3.04397">
        <ele>452.91821289062</ele>
        <time>2010-04-24T08:52:12Z</time>
      </trkpt>
      <trkpt lat="45.88776" lon="3.04372">
        <ele>454.8408203125</ele>
        <time>2010-04-24T08:52:19Z</time>
      </trkpt>
      <trkpt lat="45.88774" lon="3.04365">
        <ele>455.32153320312</ele>
        <time>2010-04-24T08:52:21Z</time>
      </trkpt>
      <trkpt lat="45.88772" lon="3.04362">
        <ele>455.80224609375</ele>
        <time>2010-04-24T08:52:23Z</time>
      </trkpt>
      <trkpt lat="45.88767" lon="3.04351">
        <ele>456.76354980469</ele>
        <time>2010-04-24T08:52:31Z</time>
      </trkpt>
      <trkpt lat="45.88765" lon="3.04348">
        <ele>456.76354980469</ele>
        <time>2010-04-24T08:52:33Z</time>
      </trkpt>
      <trkpt lat="45.88763" lon="3.04336">
        <ele>457.72497558594</ele>
        <time>2010-04-24T08:52:40Z</time>
      </trkpt>
      <trkpt lat="45.88763" lon="3.04331">
        <ele>458.20556640625</ele>
        <time>2010-04-24T08:52:46Z</time>
      </trkpt>
      <trkpt lat="45.88765" lon="3.04324">
        <ele>458.20556640625</ele>
        <time>2010-04-24T08:52:51Z</time>
      </trkpt>
      <trkpt lat="45.88765" lon="3.04322">
        <ele>458.20556640625</ele>
        <time>2010-04-24T08:52:52Z</time>
      </trkpt>
      <trkpt lat="45.88768" lon="3.04301">
        <ele>459.64758300781</ele>
        <time>2010-04-24T08:52:58Z</time>
      </trkpt>
      <trkpt lat="45.8876" lon="3.04282">
        <ele>460.60876464844</ele>
        <time>2010-04-24T08:53:05Z</time>
      </trkpt>
      <trkpt lat="45.88759" lon="3.04279">
        <ele>461.08947753906</ele>
        <time>2010-04-24T08:53:06Z</time>
      </trkpt>
      <trkpt lat="45.88758" lon="3.04271">
        <ele>463.01208496094</ele>
        <time>2010-04-24T08:53:09Z</time>
      </trkpt>
      <trkpt lat="45.88757" lon="3.04264">
        <ele>463.49279785156</ele>
        <time>2010-04-24T08:53:11Z</time>
      </trkpt>
      <trkpt lat="45.88756" lon="3.04249">
        <ele>464.4541015625</ele>
        <time>2010-04-24T08:53:16Z</time>
      </trkpt>
      <trkpt lat="45.88756" lon="3.04236">
        <ele>464.93481445312</ele>
        <time>2010-04-24T08:53:20Z</time>
      </trkpt>
      <trkpt lat="45.88754" lon="3.04222">
        <ele>466.857421875</ele>
        <time>2010-04-24T08:53:26Z</time>
      </trkpt>
      <trkpt lat="45.88753" lon="3.04211">
        <ele>468.78002929688</ele>
        <time>2010-04-24T08:53:30Z</time>
      </trkpt>
      <trkpt lat="45.88752" lon="3.04193">
        <ele>470.70263671875</ele>
        <time>2010-04-24T08:53:35Z</time>
      </trkpt>
      <trkpt lat="45.8875" lon="3.04184">
        <ele>471.18334960938</ele>
        <time>2010-04-24T08:53:38Z</time>
      </trkpt>
      <trkpt lat="45.8875" lon="3.04173">
        <ele>472.14465332031</ele>
        <time>2010-04-24T08:53:41Z</time>
      </trkpt>
      <trkpt lat="45.88749" lon="3.0416">
        <ele>474.06726074219</ele>
        <time>2010-04-24T08:53:45Z</time>
      </trkpt>
      <trkpt lat="45.88745" lon="3.04145">
        <ele>475.50927734375</ele>
        <time>2010-04-24T08:53:51Z</time>
      </trkpt>
      <trkpt lat="45.88744" lon="3.04135">
        <ele>475.98986816406</ele>
        <time>2010-04-24T08:53:55Z</time>
      </trkpt>
      <trkpt lat="45.88745" lon="3.04123">
        <ele>477.43188476562</ele>
        <time>2010-04-24T08:53:59Z</time>
      </trkpt>
      <trkpt lat="45.88748" lon="3.04101">
        <ele>478.39318847656</ele>
        <time>2010-04-24T08:54:06Z</time>
      </trkpt>
      <trkpt lat="45.88749" lon="3.04097">
        <ele>478.87390136719</ele>
        <time>2010-04-24T08:54:07Z</time>
      </trkpt>
      <trkpt lat="45.88752" lon="3.04078">
        <ele>480.31591796875</ele>
        <time>2010-04-24T08:54:14Z</time>
      </trkpt>
      <trkpt lat="45.88758" lon="3.04061">
        <ele>482.23852539062</ele>
        <time>2010-04-24T08:54:20Z</time>
      </trkpt>
      <trkpt lat="45.88766" lon="3.04038">
        <ele>482.71923828125</ele>
        <time>2010-04-24T08:54:27Z</time>
      </trkpt>
      <trkpt lat="45.8877" lon="3.04021">
        <ele>484.1611328125</ele>
        <time>2010-04-24T08:54:33Z</time>
      </trkpt>
      <trkpt lat="45.88776" lon="3.04008">
        <ele>485.60302734375</ele>
        <time>2010-04-24T08:54:38Z</time>
      </trkpt>
      <trkpt lat="45.88783" lon="3.03996">
        <ele>487.52563476562</ele>
        <time>2010-04-24T08:54:43Z</time>
      </trkpt>
      <trkpt lat="45.88786" lon="3.03991">
        <ele>488.00646972656</ele>
        <time>2010-04-24T08:54:45Z</time>
      </trkpt>
      <trkpt lat="45.88794" lon="3.03973">
        <ele>490.89038085938</ele>
        <time>2010-04-24T08:54:51Z</time>
      </trkpt>
      <trkpt lat="45.88797" lon="3.03963">
        <ele>492.33239746094</ele>
        <time>2010-04-24T08:54:55Z</time>
      </trkpt>
      <trkpt lat="45.88802" lon="3.03952">
        <ele>493.77429199219</ele>
        <time>2010-04-24T08:54:59Z</time>
      </trkpt>
      <trkpt lat="45.88807" lon="3.03939">
        <ele>494.25500488281</ele>
        <time>2010-04-24T08:55:06Z</time>
      </trkpt>
      <trkpt lat="45.88812" lon="3.03929">
        <ele>495.21618652344</ele>
        <time>2010-04-24T08:55:11Z</time>
      </trkpt>
      <trkpt lat="45.88817" lon="3.03921">
        <ele>495.69689941406</ele>
        <time>2010-04-24T08:55:15Z</time>
      </trkpt>
      <trkpt lat="45.88823" lon="3.03914">
        <ele>497.61962890625</ele>
        <time>2010-04-24T08:55:21Z</time>
      </trkpt>
      <trkpt lat="45.88822" lon="3.03913">
        <ele>496.65832519531</ele>
        <time>2010-04-24T08:55:24Z</time>
      </trkpt>
      <trkpt lat="45.88821" lon="3.03912">
        <ele>496.65832519531</ele>
        <time>2010-04-24T08:55:26Z</time>
      </trkpt>
      <trkpt lat="45.88824" lon="3.03904">
        <ele>496.65832519531</ele>
        <time>2010-04-24T08:55:31Z</time>
      </trkpt>
      <trkpt lat="45.88831" lon="3.03914">
        <ele>497.13891601562</ele>
        <time>2010-04-24T08:55:37Z</time>
      </trkpt>
      <trkpt lat="45.88832" lon="3.03917">
        <ele>498.58093261719</ele>
        <time>2010-04-24T08:55:40Z</time>
      </trkpt>
      <trkpt lat="45.88828" lon="3.03925">
        <ele>498.58093261719</ele>
        <time>2010-04-24T08:55:46Z</time>
      </trkpt>
      <trkpt lat="45.88823" lon="3.03935">
        <ele>500.02294921875</ele>
        <time>2010-04-24T08:55:52Z</time>
      </trkpt>
      <trkpt lat="45.88821" lon="3.03943">
        <ele>500.02294921875</ele>
        <time>2010-04-24T08:55:55Z</time>
      </trkpt>
      <trkpt lat="45.88817" lon="3.0396">
        <ele>501.46484375</ele>
        <time>2010-04-24T08:56:00Z</time>
      </trkpt>
      <trkpt lat="45.88816" lon="3.03967">
        <ele>500.98413085938</ele>
        <time>2010-04-24T08:56:02Z</time>
      </trkpt>
      <trkpt lat="45.88809" lon="3.03983">
        <ele>501.94555664062</ele>
        <time>2010-04-24T08:56:08Z</time>
      </trkpt>
      <trkpt lat="45.88805" lon="3.03988">
        <ele>501.46484375</ele>
        <time>2010-04-24T08:56:10Z</time>
      </trkpt>
      <trkpt lat="45.88802" lon="3.04004">
        <ele>502.42614746094</ele>
        <time>2010-04-24T08:56:15Z</time>
      </trkpt>
      <trkpt lat="45.88799" lon="3.04026">
        <ele>502.90673828125</ele>
        <time>2010-04-24T08:56:21Z</time>
      </trkpt>
      <trkpt lat="45.88797" lon="3.04049">
        <ele>504.34887695312</ele>
        <time>2010-04-24T08:56:28Z</time>
      </trkpt>
      <trkpt lat="45.88799" lon="3.0407">
        <ele>504.82946777344</ele>
        <time>2010-04-24T08:56:33Z</time>
      </trkpt>
      <trkpt lat="45.888" lon="3.04087">
        <ele>504.82946777344</ele>
        <time>2010-04-24T08:56:37Z</time>
      </trkpt>
      <trkpt lat="45.88801" lon="3.04093">
        <ele>505.31018066406</ele>
        <time>2010-04-24T08:56:39Z</time>
      </trkpt>
      <trkpt lat="45.88803" lon="3.04105">
        <ele>505.79089355469</ele>
        <time>2010-04-24T08:56:44Z</time>
      </trkpt>
      <trkpt lat="45.88803" lon="3.04108">
        <ele>506.271484375</ele>
        <time>2010-04-24T08:56:48Z</time>
      </trkpt>
      <trkpt lat="45.88807" lon="3.04125">
        <ele>506.271484375</ele>
        <time>2010-04-24T08:56:54Z</time>
      </trkpt>
      <trkpt lat="45.88811" lon="3.04139">
        <ele>506.271484375</ele>
        <time>2010-04-24T08:56:59Z</time>
      </trkpt>
      <trkpt lat="45.88813" lon="3.04142">
        <ele>507.71350097656</ele>
        <time>2010-04-24T08:57:00Z</time>
      </trkpt>
      <trkpt lat="45.88817" lon="3.04155">
        <ele>507.71350097656</ele>
        <time>2010-04-24T08:57:04Z</time>
      </trkpt>
      <trkpt lat="45.88827" lon="3.04177">
        <ele>508.67468261719</ele>
        <time>2010-04-24T08:57:11Z</time>
      </trkpt>
      <trkpt lat="45.88832" lon="3.04184">
        <ele>510.11669921875</ele>
        <time>2010-04-24T08:57:14Z</time>
      </trkpt>
      <trkpt lat="45.8884" lon="3.04194">
        <ele>510.11669921875</ele>
        <time>2010-04-24T08:57:19Z</time>
      </trkpt>
      <trkpt lat="45.8884" lon="3.04196">
        <ele>510.11669921875</ele>
        <time>2010-04-24T08:57:20Z</time>
      </trkpt>
      <trkpt lat="45.88844" lon="3.04206">
        <ele>511.07800292969</ele>
        <time>2010-04-24T08:57:24Z</time>
      </trkpt>
      <trkpt lat="45.88852" lon="3.04215">
        <ele>512.03942871094</ele>
        <time>2010-04-24T08:57:29Z</time>
      </trkpt>
      <trkpt lat="45.88862" lon="3.04233">
        <ele>512.52001953125</ele>
        <time>2010-04-24T08:57:35Z</time>
      </trkpt>
      <trkpt lat="45.8887" lon="3.04245">
        <ele>511.07800292969</ele>
        <time>2010-04-24T08:57:39Z</time>
      </trkpt>
      <trkpt lat="45.88876" lon="3.04257">
        <ele>510.11669921875</ele>
        <time>2010-04-24T08:57:42Z</time>
      </trkpt>
      <trkpt lat="45.8889" lon="3.04271">
        <ele>509.63610839844</ele>
        <time>2010-04-24T08:57:46Z</time>
      </trkpt>
      <trkpt lat="45.889" lon="3.04273">
        <ele>510.59729003906</ele>
        <time>2010-04-24T08:57:49Z</time>
      </trkpt>
      <trkpt lat="45.8891" lon="3.04291">
        <ele>510.11669921875</ele>
        <time>2010-04-24T08:57:55Z</time>
      </trkpt>
      <trkpt lat="45.88917" lon="3.04311">
        <ele>509.63610839844</ele>
        <time>2010-04-24T08:58:00Z</time>
      </trkpt>
      <trkpt lat="45.88925" lon="3.04332">
        <ele>509.15539550781</ele>
        <time>2010-04-24T08:58:04Z</time>
      </trkpt>
      <trkpt lat="45.8894" lon="3.04342">
        <ele>510.11669921875</ele>
        <time>2010-04-24T08:58:08Z</time>
      </trkpt>
      <trkpt lat="45.88944" lon="3.04352">
        <ele>510.59729003906</ele>
        <time>2010-04-24T08:58:11Z</time>
      </trkpt>
      <trkpt lat="45.88944" lon="3.04356">
        <ele>510.59729003906</ele>
        <time>2010-04-24T08:58:12Z</time>
      </trkpt>
      <trkpt lat="45.88946" lon="3.04367">
        <ele>509.63610839844</ele>
        <time>2010-04-24T08:58:14Z</time>
      </trkpt>
      <trkpt lat="45.88959" lon="3.04399">
        <ele>509.15539550781</ele>
        <time>2010-04-24T08:58:20Z</time>
      </trkpt>
      <trkpt lat="45.8897" lon="3.04417">
        <ele>510.59729003906</ele>
        <time>2010-04-24T08:58:25Z</time>
      </trkpt>
      <trkpt lat="45.88972" lon="3.04424">
        <ele>510.59729003906</ele>
        <time>2010-04-24T08:58:29Z</time>
      </trkpt>
      <trkpt lat="45.88969" lon="3.04424">
        <ele>510.11669921875</ele>
        <time>2010-04-24T08:58:39Z</time>
      </trkpt>
      <trkpt lat="45.88969" lon="3.04424">
        <ele>510.59729003906</ele>
        <time>2010-04-24T08:58:49Z</time>
      </trkpt>
      <trkpt lat="45.8897" lon="3.04425">
        <ele>510.59729003906</ele>
        <time>2010-04-24T08:58:51Z</time>
      </trkpt>
      <trkpt lat="45.88972" lon="3.04427">
        <ele>509.15539550781</ele>
        <time>2010-04-24T08:58:56Z</time>
      </trkpt>
      <trkpt lat="45.88974" lon="3.04427">
        <ele>509.63610839844</ele>
        <time>2010-04-24T08:58:59Z</time>
      </trkpt>
      <trkpt lat="45.88978" lon="3.0443">
        <ele>508.67468261719</ele>
        <time>2010-04-24T08:59:01Z</time>
      </trkpt>
      <trkpt lat="45.88987" lon="3.04445">
        <ele>507.71350097656</ele>
        <time>2010-04-24T08:59:05Z</time>
      </trkpt>
      <trkpt lat="45.88995" lon="3.0446">
        <ele>504.82946777344</ele>
        <time>2010-04-24T08:59:08Z</time>
      </trkpt>
      <trkpt lat="45.89008" lon="3.04491">
        <ele>503.38745117188</ele>
        <time>2010-04-24T08:59:13Z</time>
      </trkpt>
      <trkpt lat="45.89011" lon="3.04499">
        <ele>502.90673828125</ele>
        <time>2010-04-24T08:59:14Z</time>
      </trkpt>
      <trkpt lat="45.89019" lon="3.04512">
        <ele>501.94555664062</ele>
        <time>2010-04-24T08:59:16Z</time>
      </trkpt>
      <trkpt lat="45.89029" lon="3.04527">
        <ele>500.50354003906</ele>
        <time>2010-04-24T08:59:18Z</time>
      </trkpt>
      <trkpt lat="45.89049" lon="3.04562">
        <ele>499.54223632812</ele>
        <time>2010-04-24T08:59:22Z</time>
      </trkpt>
      <trkpt lat="45.89068" lon="3.04581">
        <ele>497.13891601562</ele>
        <time>2010-04-24T08:59:25Z</time>
      </trkpt>
      <trkpt lat="45.89073" lon="3.04588">
        <ele>497.61962890625</ele>
        <time>2010-04-24T08:59:26Z</time>
      </trkpt>
      <trkpt lat="45.89091" lon="3.04601">
        <ele>496.177734375</ele>
        <time>2010-04-24T08:59:29Z</time>
      </trkpt>
      <trkpt lat="45.89103" lon="3.04606">
        <ele>494.73559570312</ele>
        <time>2010-04-24T08:59:31Z</time>
      </trkpt>
      <trkpt lat="45.89126" lon="3.04618">
        <ele>492.33239746094</ele>
        <time>2010-04-24T08:59:35Z</time>
      </trkpt>
      <trkpt lat="45.89137" lon="3.04627">
        <ele>490.89038085938</ele>
        <time>2010-04-24T08:59:37Z</time>
      </trkpt>
      <trkpt lat="45.89148" lon="3.04637">
        <ele>490.40979003906</ele>
        <time>2010-04-24T08:59:39Z</time>
      </trkpt>
      <trkpt lat="45.89167" lon="3.04643">
        <ele>489.92907714844</ele>
        <time>2010-04-24T08:59:43Z</time>
      </trkpt>
      <trkpt lat="45.89172" lon="3.04639">
        <ele>490.40979003906</ele>
        <time>2010-04-24T08:59:46Z</time>
      </trkpt>
      <trkpt lat="45.89174" lon="3.04635">
        <ele>490.89038085938</ele>
        <time>2010-04-24T08:59:56Z</time>
      </trkpt>
      <trkpt lat="45.89184" lon="3.04627">
        <ele>490.89038085938</ele>
        <time>2010-04-24T09:00:01Z</time>
      </trkpt>
      <trkpt lat="45.89202" lon="3.04617">
        <ele>490.89038085938</ele>
        <time>2010-04-24T09:00:06Z</time>
      </trkpt>
      <trkpt lat="45.89224" lon="3.04604">
        <ele>490.89038085938</ele>
        <time>2010-04-24T09:00:11Z</time>
      </trkpt>
      <trkpt lat="45.89237" lon="3.04584">
        <ele>491.85168457031</ele>
        <time>2010-04-24T09:00:15Z</time>
      </trkpt>
      <trkpt lat="45.89246" lon="3.04566">
        <ele>492.81298828125</ele>
        <time>2010-04-24T09:00:19Z</time>
      </trkpt>
      <trkpt lat="45.89257" lon="3.04549">
        <ele>493.29357910156</ele>
        <time>2010-04-24T09:00:23Z</time>
      </trkpt>
      <trkpt lat="45.89265" lon="3.04549">
        <ele>493.29357910156</ele>
        <time>2010-04-24T09:00:25Z</time>
      </trkpt>
      <trkpt lat="45.89273" lon="3.04554">
        <ele>493.29357910156</ele>
        <time>2010-04-24T09:00:28Z</time>
      </trkpt>
      <trkpt lat="45.89275" lon="3.04566">
        <ele>491.37097167969</ele>
        <time>2010-04-24T09:00:32Z</time>
      </trkpt>
      <trkpt lat="45.89277" lon="3.04586">
        <ele>491.37097167969</ele>
        <time>2010-04-24T09:00:35Z</time>
      </trkpt>
      <trkpt lat="45.89284" lon="3.04614">
        <ele>491.37097167969</ele>
        <time>2010-04-24T09:00:39Z</time>
      </trkpt>
      <trkpt lat="45.8929" lon="3.04623">
        <ele>490.89038085938</ele>
        <time>2010-04-24T09:00:41Z</time>
      </trkpt>
      <trkpt lat="45.89299" lon="3.04638">
        <ele>491.85168457031</ele>
        <time>2010-04-24T09:00:44Z</time>
      </trkpt>
      <trkpt lat="45.89313" lon="3.04659">
        <ele>493.77429199219</ele>
        <time>2010-04-24T09:00:49Z</time>
      </trkpt>
      <trkpt lat="45.89334" lon="3.04685">
        <ele>495.21618652344</ele>
        <time>2010-04-24T09:00:56Z</time>
      </trkpt>
      <trkpt lat="45.89345" lon="3.04692">
        <ele>495.21618652344</ele>
        <time>2010-04-24T09:00:59Z</time>
      </trkpt>
      <trkpt lat="45.89367" lon="3.04706">
        <ele>497.61962890625</ele>
        <time>2010-04-24T09:01:05Z</time>
      </trkpt>
      <trkpt lat="45.89385" lon="3.04717">
        <ele>498.58093261719</ele>
        <time>2010-04-24T09:01:10Z</time>
      </trkpt>
      <trkpt lat="45.89402" lon="3.04718">
        <ele>499.0615234375</ele>
        <time>2010-04-24T09:01:15Z</time>
      </trkpt>
      <trkpt lat="45.89419" lon="3.04702">
        <ele>500.50354003906</ele>
        <time>2010-04-24T09:01:21Z</time>
      </trkpt>
      <trkpt lat="45.89437" lon="3.04682">
        <ele>500.50354003906</ele>
        <time>2010-04-24T09:01:28Z</time>
      </trkpt>
      <trkpt lat="45.89441" lon="3.04679">
        <ele>500.98413085938</ele>
        <time>2010-04-24T09:01:29Z</time>
      </trkpt>
      <trkpt lat="45.89454" lon="3.04682">
        <ele>501.46484375</ele>
        <time>2010-04-24T09:01:33Z</time>
      </trkpt>
      <trkpt lat="45.89456" lon="3.04685">
        <ele>501.94555664062</ele>
        <time>2010-04-24T09:01:34Z</time>
      </trkpt>
      <trkpt lat="45.89465" lon="3.04698">
        <ele>500.50354003906</ele>
        <time>2010-04-24T09:01:39Z</time>
      </trkpt>
      <trkpt lat="45.8947" lon="3.04704">
        <ele>499.0615234375</ele>
        <time>2010-04-24T09:01:41Z</time>
      </trkpt>
      <trkpt lat="45.89477" lon="3.04712">
        <ele>497.13891601562</ele>
        <time>2010-04-24T09:01:43Z</time>
      </trkpt>
      <trkpt lat="45.89489" lon="3.0472">
        <ele>495.69689941406</ele>
        <time>2010-04-24T09:01:45Z</time>
      </trkpt>
      <trkpt lat="45.89519" lon="3.04733">
        <ele>493.77429199219</ele>
        <time>2010-04-24T09:01:49Z</time>
      </trkpt>
      <trkpt lat="45.89543" lon="3.0474">
        <ele>492.81298828125</ele>
        <time>2010-04-24T09:01:52Z</time>
      </trkpt>
      <trkpt lat="45.89572" lon="3.04756">
        <ele>488.48718261719</ele>
        <time>2010-04-24T09:01:56Z</time>
      </trkpt>
      <trkpt lat="45.89598" lon="3.04776">
        <ele>485.60302734375</ele>
        <time>2010-04-24T09:02:00Z</time>
      </trkpt>
      <trkpt lat="45.89621" lon="3.04786">
        <ele>480.79663085938</ele>
        <time>2010-04-24T09:02:03Z</time>
      </trkpt>
      <trkpt lat="45.89638" lon="3.04793">
        <ele>478.39318847656</ele>
        <time>2010-04-24T09:02:05Z</time>
      </trkpt>
      <trkpt lat="45.89653" lon="3.04801">
        <ele>477.43188476562</ele>
        <time>2010-04-24T09:02:07Z</time>
      </trkpt>
      <trkpt lat="45.89675" lon="3.04815">
        <ele>475.02868652344</ele>
        <time>2010-04-24T09:02:10Z</time>
      </trkpt>
      <trkpt lat="45.89702" lon="3.04812">
        <ele>471.18334960938</ele>
        <time>2010-04-24T09:02:14Z</time>
      </trkpt>
      <trkpt lat="45.8971" lon="3.04808">
        <ele>470.22192382812</ele>
        <time>2010-04-24T09:02:15Z</time>
      </trkpt>
      <trkpt lat="45.89725" lon="3.04799">
        <ele>469.74133300781</ele>
        <time>2010-04-24T09:02:17Z</time>
      </trkpt>
      <trkpt lat="45.89744" lon="3.04783">
        <ele>466.37670898438</ele>
        <time>2010-04-24T09:02:20Z</time>
      </trkpt>
      <trkpt lat="45.89763" lon="3.04769">
        <ele>461.08947753906</ele>
        <time>2010-04-24T09:02:23Z</time>
      </trkpt>
      <trkpt lat="45.89775" lon="3.04761">
        <ele>458.20556640625</ele>
        <time>2010-04-24T09:02:25Z</time>
      </trkpt>
      <trkpt lat="45.89795" lon="3.0475">
        <ele>454.36022949219</ele>
        <time>2010-04-24T09:02:28Z</time>
      </trkpt>
      <trkpt lat="45.89809" lon="3.04742">
        <ele>452.91821289062</ele>
        <time>2010-04-24T09:02:30Z</time>
      </trkpt>
      <trkpt lat="45.89824" lon="3.04736">
        <ele>450.51501464844</ele>
        <time>2010-04-24T09:02:33Z</time>
      </trkpt>
      <trkpt lat="45.89828" lon="3.04735">
        <ele>450.99560546875</ele>
        <time>2010-04-24T09:02:34Z</time>
      </trkpt>
      <trkpt lat="45.89839" lon="3.04737">
        <ele>450.51501464844</ele>
        <time>2010-04-24T09:02:39Z</time>
      </trkpt>
      <trkpt lat="45.89857" lon="3.04721">
        <ele>451.47631835938</ele>
        <time>2010-04-24T09:02:45Z</time>
      </trkpt>
      <trkpt lat="45.89872" lon="3.04712">
        <ele>449.07299804688</ele>
        <time>2010-04-24T09:02:50Z</time>
      </trkpt>
      <trkpt lat="45.89876" lon="3.04712">
        <ele>447.63098144531</ele>
        <time>2010-04-24T09:02:51Z</time>
      </trkpt>
      <trkpt lat="45.89887" lon="3.04729">
        <ele>444.26647949219</ele>
        <time>2010-04-24T09:02:55Z</time>
      </trkpt>
      <trkpt lat="45.8989" lon="3.04757">
        <ele>441.86315917969</ele>
        <time>2010-04-24T09:02:59Z</time>
      </trkpt>
      <trkpt lat="45.89889" lon="3.04761">
        <ele>442.34387207031</ele>
        <time>2010-04-24T09:03:00Z</time>
      </trkpt>
      <trkpt lat="45.89886" lon="3.04768">
        <ele>440.90185546875</ele>
        <time>2010-04-24T09:03:02Z</time>
      </trkpt>
      <trkpt lat="45.89889" lon="3.04784">
        <ele>439.9404296875</ele>
        <time>2010-04-24T09:03:06Z</time>
      </trkpt>
      <trkpt lat="45.89896" lon="3.04801">
        <ele>438.97912597656</ele>
        <time>2010-04-24T09:03:09Z</time>
      </trkpt>
      <trkpt lat="45.89901" lon="3.04811">
        <ele>438.97912597656</ele>
        <time>2010-04-24T09:03:11Z</time>
      </trkpt>
      <trkpt lat="45.89903" lon="3.04815">
        <ele>438.97912597656</ele>
        <time>2010-04-24T09:03:12Z</time>
      </trkpt>
      <trkpt lat="45.89903" lon="3.04828">
        <ele>438.01782226562</ele>
        <time>2010-04-24T09:03:15Z</time>
      </trkpt>
      <trkpt lat="45.89886" lon="3.04848">
        <ele>435.61450195312</ele>
        <time>2010-04-24T09:03:20Z</time>
      </trkpt>
      <trkpt lat="45.89882" lon="3.04851">
        <ele>435.61450195312</ele>
        <time>2010-04-24T09:03:21Z</time>
      </trkpt>
      <trkpt lat="45.89875" lon="3.04861">
        <ele>435.13391113281</ele>
        <time>2010-04-24T09:03:24Z</time>
      </trkpt>
      <trkpt lat="45.89876" lon="3.04878">
        <ele>436.57592773438</ele>
        <time>2010-04-24T09:03:27Z</time>
      </trkpt>
      <trkpt lat="45.89878" lon="3.04904">
        <ele>437.537109375</ele>
        <time>2010-04-24T09:03:32Z</time>
      </trkpt>
      <trkpt lat="45.8988" lon="3.04927">
        <ele>438.01782226562</ele>
        <time>2010-04-24T09:03:36Z</time>
      </trkpt>
      <trkpt lat="45.89885" lon="3.04942">
        <ele>438.97912597656</ele>
        <time>2010-04-24T09:03:39Z</time>
      </trkpt>
      <trkpt lat="45.89901" lon="3.04954">
        <ele>440.42126464844</ele>
        <time>2010-04-24T09:03:44Z</time>
      </trkpt>
      <trkpt lat="45.89912" lon="3.04959">
        <ele>442.34387207031</ele>
        <time>2010-04-24T09:03:47Z</time>
      </trkpt>
      <trkpt lat="45.89929" lon="3.04966">
        <ele>443.30505371094</ele>
        <time>2010-04-24T09:03:52Z</time>
      </trkpt>
      <trkpt lat="45.89936" lon="3.04973">
        <ele>444.7470703125</ele>
        <time>2010-04-24T09:03:55Z</time>
      </trkpt>
      <trkpt lat="45.89935" lon="3.0498">
        <ele>445.70837402344</ele>
        <time>2010-04-24T09:03:57Z</time>
      </trkpt>
      <trkpt lat="45.89931" lon="3.04988">
        <ele>446.66967773438</ele>
        <time>2010-04-24T09:03:59Z</time>
      </trkpt>
      <trkpt lat="45.89923" lon="3.05007">
        <ele>448.11181640625</ele>
        <time>2010-04-24T09:04:03Z</time>
      </trkpt>
      <trkpt lat="45.89918" lon="3.05025">
        <ele>449.5537109375</ele>
        <time>2010-04-24T09:04:07Z</time>
      </trkpt>
      <trkpt lat="45.89912" lon="3.05035">
        <ele>449.5537109375</ele>
        <time>2010-04-24T09:04:10Z</time>
      </trkpt>
      <trkpt lat="45.89909" lon="3.05043">
        <ele>450.03442382812</ele>
        <time>2010-04-24T09:04:12Z</time>
      </trkpt>
      <trkpt lat="45.89898" lon="3.05065">
        <ele>450.99560546875</ele>
        <time>2010-04-24T09:04:18Z</time>
      </trkpt>
      <trkpt lat="45.89897" lon="3.05081">
        <ele>452.91821289062</ele>
        <time>2010-04-24T09:04:22Z</time>
      </trkpt>
      <trkpt lat="45.89898" lon="3.05085">
        <ele>453.39892578125</ele>
        <time>2010-04-24T09:04:23Z</time>
      </trkpt>
      <trkpt lat="45.89898" lon="3.05101">
        <ele>455.32153320312</ele>
        <time>2010-04-24T09:04:27Z</time>
      </trkpt>
      <trkpt lat="45.89904" lon="3.05142">
        <ele>458.68615722656</ele>
        <time>2010-04-24T09:04:37Z</time>
      </trkpt>
      <trkpt lat="45.89906" lon="3.05146">
        <ele>458.68615722656</ele>
        <time>2010-04-24T09:04:38Z</time>
      </trkpt>
      <trkpt lat="45.89912" lon="3.05174">
        <ele>460.60876464844</ele>
        <time>2010-04-24T09:04:45Z</time>
      </trkpt>
      <trkpt lat="45.89913" lon="3.05178">
        <ele>460.60876464844</ele>
        <time>2010-04-24T09:04:46Z</time>
      </trkpt>
      <trkpt lat="45.89917" lon="3.05205">
        <ele>461.08947753906</ele>
        <time>2010-04-24T09:04:53Z</time>
      </trkpt>
      <trkpt lat="45.89917" lon="3.05235">
        <ele>460.60876464844</ele>
        <time>2010-04-24T09:04:59Z</time>
      </trkpt>
      <trkpt lat="45.89917" lon="3.05254">
        <ele>460.12817382812</ele>
        <time>2010-04-24T09:05:02Z</time>
      </trkpt>
      <trkpt lat="45.89909" lon="3.05292">
        <ele>460.12817382812</ele>
        <time>2010-04-24T09:05:08Z</time>
      </trkpt>
      <trkpt lat="45.89906" lon="3.05304">
        <ele>460.12817382812</ele>
        <time>2010-04-24T09:05:10Z</time>
      </trkpt>
      <trkpt lat="45.89901" lon="3.05316">
        <ele>459.64758300781</ele>
        <time>2010-04-24T09:05:12Z</time>
      </trkpt>
      <trkpt lat="45.89891" lon="3.0536">
        <ele>459.64758300781</ele>
        <time>2010-04-24T09:05:18Z</time>
      </trkpt>
      <trkpt lat="45.89893" lon="3.05406">
        <ele>458.68615722656</ele>
        <time>2010-04-24T09:05:24Z</time>
      </trkpt>
      <trkpt lat="45.89906" lon="3.05428">
        <ele>458.68615722656</ele>
        <time>2010-04-24T09:05:28Z</time>
      </trkpt>
      <trkpt lat="45.89922" lon="3.0543">
        <ele>459.16687011719</ele>
        <time>2010-04-24T09:05:31Z</time>
      </trkpt>
      <trkpt lat="45.89933" lon="3.05429">
        <ele>459.64758300781</ele>
        <time>2010-04-24T09:05:33Z</time>
      </trkpt>
      <trkpt lat="45.89971" lon="3.05417">
        <ele>458.68615722656</ele>
        <time>2010-04-24T09:05:40Z</time>
      </trkpt>
      <trkpt lat="45.89988" lon="3.05415">
        <ele>460.12817382812</ele>
        <time>2010-04-24T09:05:43Z</time>
      </trkpt>
      <trkpt lat="45.90008" lon="3.05424">
        <ele>459.16687011719</ele>
        <time>2010-04-24T09:05:47Z</time>
      </trkpt>
      <trkpt lat="45.9002" lon="3.05451">
        <ele>459.16687011719</ele>
        <time>2010-04-24T09:05:51Z</time>
      </trkpt>
      <trkpt lat="45.90024" lon="3.05466">
        <ele>459.64758300781</ele>
        <time>2010-04-24T09:05:53Z</time>
      </trkpt>
      <trkpt lat="45.90028" lon="3.05509">
        <ele>460.60876464844</ele>
        <time>2010-04-24T09:05:59Z</time>
      </trkpt>
      <trkpt lat="45.90029" lon="3.05527">
        <ele>462.53137207031</ele>
        <time>2010-04-24T09:06:02Z</time>
      </trkpt>
      <trkpt lat="45.9003" lon="3.05558">
        <ele>463.97338867188</ele>
        <time>2010-04-24T09:06:08Z</time>
      </trkpt>
      <trkpt lat="45.90031" lon="3.05582">
        <ele>466.857421875</ele>
        <time>2010-04-24T09:06:13Z</time>
      </trkpt>
      <trkpt lat="45.90033" lon="3.05596">
        <ele>467.33813476562</ele>
        <time>2010-04-24T09:06:16Z</time>
      </trkpt>
      <trkpt lat="45.90035" lon="3.05609">
        <ele>468.29931640625</ele>
        <time>2010-04-24T09:06:19Z</time>
      </trkpt>
      <trkpt lat="45.90036" lon="3.05622">
        <ele>469.74133300781</ele>
        <time>2010-04-24T09:06:22Z</time>
      </trkpt>
      <trkpt lat="45.90036" lon="3.05627">
        <ele>470.22192382812</ele>
        <time>2010-04-24T09:06:23Z</time>
      </trkpt>
      <trkpt lat="45.90035" lon="3.05643">
        <ele>472.62536621094</ele>
        <time>2010-04-24T09:06:27Z</time>
      </trkpt>
      <trkpt lat="45.90035" lon="3.05647">
        <ele>472.62536621094</ele>
        <time>2010-04-24T09:06:28Z</time>
      </trkpt>
      <trkpt lat="45.90034" lon="3.05651">
        <ele>472.62536621094</ele>
        <time>2010-04-24T09:06:29Z</time>
      </trkpt>
      <trkpt lat="45.90033" lon="3.05664">
        <ele>475.02868652344</ele>
        <time>2010-04-24T09:06:32Z</time>
      </trkpt>
      <trkpt lat="45.90023" lon="3.05698">
        <ele>476.47058105469</ele>
        <time>2010-04-24T09:06:41Z</time>
      </trkpt>
      <trkpt lat="45.90023" lon="3.05722">
        <ele>477.43188476562</ele>
        <time>2010-04-24T09:06:47Z</time>
      </trkpt>
      <trkpt lat="45.90025" lon="3.05749">
        <ele>477.43188476562</ele>
        <time>2010-04-24T09:06:53Z</time>
      </trkpt>
      <trkpt lat="45.90031" lon="3.05788">
        <ele>478.87390136719</ele>
        <time>2010-04-24T09:07:01Z</time>
      </trkpt>
      <trkpt lat="45.90044" lon="3.05813">
        <ele>479.83508300781</ele>
        <time>2010-04-24T09:07:07Z</time>
      </trkpt>
      <trkpt lat="45.90061" lon="3.05827">
        <ele>480.79663085938</ele>
        <time>2010-04-24T09:07:13Z</time>
      </trkpt>
      <trkpt lat="45.90079" lon="3.05836">
        <ele>483.19982910156</ele>
        <time>2010-04-24T09:07:20Z</time>
      </trkpt>
      <trkpt lat="45.90083" lon="3.05841">
        <ele>482.71923828125</ele>
        <time>2010-04-24T09:07:24Z</time>
      </trkpt>
      <trkpt lat="45.90094" lon="3.05848">
        <ele>482.71923828125</ele>
        <time>2010-04-24T09:07:29Z</time>
      </trkpt>
      <trkpt lat="45.90096" lon="3.05862">
        <ele>481.7578125</ele>
        <time>2010-04-24T09:07:34Z</time>
      </trkpt>
      <trkpt lat="45.90096" lon="3.05871">
        <ele>482.71923828125</ele>
        <time>2010-04-24T09:07:37Z</time>
      </trkpt>
      <trkpt lat="45.90093" lon="3.05881">
        <ele>482.23852539062</ele>
        <time>2010-04-24T09:07:43Z</time>
      </trkpt>
      <trkpt lat="45.90094" lon="3.05883">
        <ele>482.71923828125</ele>
        <time>2010-04-24T09:07:48Z</time>
      </trkpt>
      <trkpt lat="45.90094" lon="3.05882">
        <ele>482.71923828125</ele>
        <time>2010-04-24T09:08:25Z</time>
      </trkpt>
      <trkpt lat="45.90094" lon="3.05882">
        <ele>481.7578125</ele>
        <time>2010-04-24T09:08:50Z</time>
      </trkpt>
      <trkpt lat="45.90094" lon="3.05882">
        <ele>482.71923828125</ele>
        <time>2010-04-24T09:08:51Z</time>
      </trkpt>
      <trkpt lat="45.90094" lon="3.05882">
        <ele>482.23852539062</ele>
        <time>2010-04-24T09:08:57Z</time>
      </trkpt>
      <trkpt lat="45.90094" lon="3.05882">
        <ele>482.71923828125</ele>
        <time>2010-04-24T09:14:12Z</time>
      </trkpt>
      <trkpt lat="45.90094" lon="3.05882">
        <ele>482.71923828125</ele>
        <time>2010-04-24T09:14:13Z</time>
      </trkpt>
      <trkpt lat="45.90095" lon="3.05886">
        <ele>481.7578125</ele>
        <time>2010-04-24T09:14:21Z</time>
      </trkpt>
      <trkpt lat="45.90099" lon="3.05891">
        <ele>481.27722167969</ele>
        <time>2010-04-24T09:14:26Z</time>
      </trkpt>
      <trkpt lat="45.901" lon="3.05891">
        <ele>481.7578125</ele>
        <time>2010-04-24T09:14:34Z</time>
      </trkpt>
      <trkpt lat="45.90101" lon="3.05892">
        <ele>482.23852539062</ele>
        <time>2010-04-24T09:14:46Z</time>
      </trkpt>
      <trkpt lat="45.90102" lon="3.05896">
        <ele>482.71923828125</ele>
        <time>2010-04-24T09:14:51Z</time>
      </trkpt>
      <trkpt lat="45.90102" lon="3.05898">
        <ele>481.7578125</ele>
        <time>2010-04-24T09:15:02Z</time>
      </trkpt>
      <trkpt lat="45.90104" lon="3.0592">
        <ele>480.31591796875</ele>
        <time>2010-04-24T09:15:08Z</time>
      </trkpt>
      <trkpt lat="45.90105" lon="3.0593">
        <ele>479.83508300781</ele>
        <time>2010-04-24T09:15:10Z</time>
      </trkpt>
      <trkpt lat="45.90108" lon="3.05978">
        <ele>478.39318847656</ele>
        <time>2010-04-24T09:15:17Z</time>
      </trkpt>
      <trkpt lat="45.90114" lon="3.06028">
        <ele>475.50927734375</ele>
        <time>2010-04-24T09:15:23Z</time>
      </trkpt>
      <trkpt lat="45.90115" lon="3.06046">
        <ele>474.54797363281</ele>
        <time>2010-04-24T09:15:25Z</time>
      </trkpt>
      <trkpt lat="45.90115" lon="3.06056">
        <ele>474.54797363281</ele>
        <time>2010-04-24T09:15:26Z</time>
      </trkpt>
      <trkpt lat="45.90118" lon="3.06085">
        <ele>473.58666992188</ele>
        <time>2010-04-24T09:15:29Z</time>
      </trkpt>
      <trkpt lat="45.90122" lon="3.06105">
        <ele>472.62536621094</ele>
        <time>2010-04-24T09:15:31Z</time>
      </trkpt>
      <trkpt lat="45.9013" lon="3.06156">
        <ele>471.66394042969</ele>
        <time>2010-04-24T09:15:36Z</time>
      </trkpt>
      <trkpt lat="45.90142" lon="3.06209">
        <ele>467.33813476562</ele>
        <time>2010-04-24T09:15:41Z</time>
      </trkpt>
      <trkpt lat="45.90151" lon="3.06242">
        <ele>465.89611816406</ele>
        <time>2010-04-24T09:15:44Z</time>
      </trkpt>
      <trkpt lat="45.90174" lon="3.06316">
        <ele>463.97338867188</ele>
        <time>2010-04-24T09:15:51Z</time>
      </trkpt>
      <trkpt lat="45.90194" lon="3.06387">
        <ele>461.57019042969</ele>
        <time>2010-04-24T09:15:58Z</time>
      </trkpt>
      <trkpt lat="45.90207" lon="3.0646">
        <ele>462.05078125</ele>
        <time>2010-04-24T09:16:05Z</time>
      </trkpt>
      <trkpt lat="45.90216" lon="3.0649">
        <ele>461.57019042969</ele>
        <time>2010-04-24T09:16:08Z</time>
      </trkpt>
      <trkpt lat="45.9025" lon="3.06554">
        <ele>458.68615722656</ele>
        <time>2010-04-24T09:16:15Z</time>
      </trkpt>
      <trkpt lat="45.9028" lon="3.06596">
        <ele>455.32153320312</ele>
        <time>2010-04-24T09:16:20Z</time>
      </trkpt>
      <trkpt lat="45.90319" lon="3.06646">
        <ele>453.87963867188</ele>
        <time>2010-04-24T09:16:26Z</time>
      </trkpt>
      <trkpt lat="45.90341" lon="3.06676">
        <ele>454.36022949219</ele>
        <time>2010-04-24T09:16:30Z</time>
      </trkpt>
      <trkpt lat="45.9035" lon="3.06698">
        <ele>454.36022949219</ele>
        <time>2010-04-24T09:16:33Z</time>
      </trkpt>
      <trkpt lat="45.90348" lon="3.06706">
        <ele>454.8408203125</ele>
        <time>2010-04-24T09:16:36Z</time>
      </trkpt>
      <trkpt lat="45.90347" lon="3.06707">
        <ele>454.36022949219</ele>
        <time>2010-04-24T09:16:37Z</time>
      </trkpt>
      <trkpt lat="45.9033" lon="3.06714">
        <ele>450.99560546875</ele>
        <time>2010-04-24T09:16:41Z</time>
      </trkpt>
      <trkpt lat="45.90299" lon="3.06717">
        <ele>448.11181640625</ele>
        <time>2010-04-24T09:16:45Z</time>
      </trkpt>
      <trkpt lat="45.9029" lon="3.06718">
        <ele>447.63098144531</ele>
        <time>2010-04-24T09:16:46Z</time>
      </trkpt>
      <trkpt lat="45.90232" lon="3.06723">
        <ele>445.22766113281</ele>
        <time>2010-04-24T09:16:53Z</time>
      </trkpt>
      <trkpt lat="45.90216" lon="3.06725">
        <ele>443.78576660156</ele>
        <time>2010-04-24T09:16:55Z</time>
      </trkpt>
      <trkpt lat="45.90208" lon="3.06726">
        <ele>442.82446289062</ele>
        <time>2010-04-24T09:16:56Z</time>
      </trkpt>
      <trkpt lat="45.9017" lon="3.06743">
        <ele>438.49853515625</ele>
        <time>2010-04-24T09:17:01Z</time>
      </trkpt>
      <trkpt lat="45.90142" lon="3.06758">
        <ele>434.17260742188</ele>
        <time>2010-04-24T09:17:04Z</time>
      </trkpt>
      <trkpt lat="45.90123" lon="3.06767">
        <ele>431.76916503906</ele>
        <time>2010-04-24T09:17:06Z</time>
      </trkpt>
      <trkpt lat="45.90102" lon="3.06776">
        <ele>431.76916503906</ele>
        <time>2010-04-24T09:17:09Z</time>
      </trkpt>
      <trkpt lat="45.90092" lon="3.06802">
        <ele>428.88537597656</ele>
        <time>2010-04-24T09:17:13Z</time>
      </trkpt>
      <trkpt lat="45.90091" lon="3.06835">
        <ele>427.443359375</ele>
        <time>2010-04-24T09:17:16Z</time>
      </trkpt>
      <trkpt lat="45.90088" lon="3.06871">
        <ele>426.00134277344</ele>
        <time>2010-04-24T09:17:19Z</time>
      </trkpt>
      <trkpt lat="45.90084" lon="3.06926">
        <ele>425.04016113281</ele>
        <time>2010-04-24T09:17:23Z</time>
      </trkpt>
      <trkpt lat="45.90082" lon="3.06956">
        <ele>424.07873535156</ele>
        <time>2010-04-24T09:17:25Z</time>
      </trkpt>
      <trkpt lat="45.90077" lon="3.07032">
        <ele>422.63671875</ele>
        <time>2010-04-24T09:17:30Z</time>
      </trkpt>
      <trkpt lat="45.90075" lon="3.07077">
        <ele>421.19482421875</ele>
        <time>2010-04-24T09:17:33Z</time>
      </trkpt>
      <trkpt lat="45.90073" lon="3.07105">
        <ele>422.15600585938</ele>
        <time>2010-04-24T09:17:35Z</time>
      </trkpt>
      <trkpt lat="45.90068" lon="3.07187">
        <ele>421.67541503906</ele>
        <time>2010-04-24T09:17:41Z</time>
      </trkpt>
      <trkpt lat="45.90072" lon="3.07215">
        <ele>422.15600585938</ele>
        <time>2010-04-24T09:17:44Z</time>
      </trkpt>
      <trkpt lat="45.90083" lon="3.07221">
        <ele>423.11743164062</ele>
        <time>2010-04-24T09:17:46Z</time>
      </trkpt>
      <trkpt lat="45.90096" lon="3.07221">
        <ele>422.15600585938</ele>
        <time>2010-04-24T09:17:48Z</time>
      </trkpt>
      <trkpt lat="45.9012" lon="3.07236">
        <ele>421.19482421875</ele>
        <time>2010-04-24T09:17:52Z</time>
      </trkpt>
      <trkpt lat="45.90125" lon="3.07264">
        <ele>420.2333984375</ele>
        <time>2010-04-24T09:17:55Z</time>
      </trkpt>
      <trkpt lat="45.90126" lon="3.07273">
        <ele>420.2333984375</ele>
        <time>2010-04-24T09:17:56Z</time>
      </trkpt>
      <trkpt lat="45.90134" lon="3.07318">
        <ele>420.2333984375</ele>
        <time>2010-04-24T09:18:01Z</time>
      </trkpt>
      <trkpt lat="45.90137" lon="3.07333">
        <ele>421.19482421875</ele>
        <time>2010-04-24T09:18:04Z</time>
      </trkpt>
      <trkpt lat="45.90149" lon="3.07355">
        <ele>418.31079101562</ele>
        <time>2010-04-24T09:18:08Z</time>
      </trkpt>
      <trkpt lat="45.9016" lon="3.07382">
        <ele>417.349609375</ele>
        <time>2010-04-24T09:18:11Z</time>
      </trkpt>
      <trkpt lat="45.90171" lon="3.07423">
        <ele>417.349609375</ele>
        <time>2010-04-24T09:18:15Z</time>
      </trkpt>
      <trkpt lat="45.90171" lon="3.07434">
        <ele>417.349609375</ele>
        <time>2010-04-24T09:18:16Z</time>
      </trkpt>
      <trkpt lat="45.90168" lon="3.07489">
        <ele>417.83020019531</ele>
        <time>2010-04-24T09:18:21Z</time>
      </trkpt>
      <trkpt lat="45.90172" lon="3.07554">
        <ele>413.98486328125</ele>
        <time>2010-04-24T09:18:26Z</time>
      </trkpt>
      <trkpt lat="45.90173" lon="3.07567">
        <ele>414.94616699219</ele>
        <time>2010-04-24T09:18:27Z</time>
      </trkpt>
      <trkpt lat="45.90173" lon="3.07592">
        <ele>413.02355957031</ele>
        <time>2010-04-24T09:18:29Z</time>
      </trkpt>
      <trkpt lat="45.90174" lon="3.07654">
        <ele>415.42687988281</ele>
        <time>2010-04-24T09:18:35Z</time>
      </trkpt>
      <trkpt lat="45.90176" lon="3.07699">
        <ele>415.90747070312</ele>
        <time>2010-04-24T09:18:40Z</time>
      </trkpt>
      <trkpt lat="45.90181" lon="3.0775">
        <ele>415.90747070312</ele>
        <time>2010-04-24T09:18:46Z</time>
      </trkpt>
      <trkpt lat="45.90187" lon="3.07774">
        <ele>414.46545410156</ele>
        <time>2010-04-24T09:18:49Z</time>
      </trkpt>
      <trkpt lat="45.90189" lon="3.07791">
        <ele>413.98486328125</ele>
        <time>2010-04-24T09:18:51Z</time>
      </trkpt>
      <trkpt lat="45.90189" lon="3.07837">
        <ele>411.58166503906</ele>
        <time>2010-04-24T09:18:56Z</time>
      </trkpt>
      <trkpt lat="45.90189" lon="3.07873">
        <ele>410.62023925781</ele>
        <time>2010-04-24T09:19:00Z</time>
      </trkpt>
      <trkpt lat="45.9019" lon="3.07904">
        <ele>409.17834472656</ele>
        <time>2010-04-24T09:19:03Z</time>
      </trkpt>
      <trkpt lat="45.90194" lon="3.07951">
        <ele>403.89111328125</ele>
        <time>2010-04-24T09:19:07Z</time>
      </trkpt>
      <trkpt lat="45.90199" lon="3.0799">
        <ele>401.48779296875</ele>
        <time>2010-04-24T09:19:10Z</time>
      </trkpt>
      <trkpt lat="45.90207" lon="3.08028">
        <ele>399.08435058594</ele>
        <time>2010-04-24T09:19:13Z</time>
      </trkpt>
      <trkpt lat="45.90212" lon="3.08068">
        <ele>397.16174316406</ele>
        <time>2010-04-24T09:19:16Z</time>
      </trkpt>
      <trkpt lat="45.90218" lon="3.08107">
        <ele>396.68115234375</ele>
        <time>2010-04-24T09:19:19Z</time>
      </trkpt>
      <trkpt lat="45.90222" lon="3.08131">
        <ele>396.20056152344</ele>
        <time>2010-04-24T09:19:21Z</time>
      </trkpt>
      <trkpt lat="45.90231" lon="3.08169">
        <ele>395.71984863281</ele>
        <time>2010-04-24T09:19:25Z</time>
      </trkpt>
      <trkpt lat="45.90236" lon="3.08204">
        <ele>394.75854492188</ele>
        <time>2010-04-24T09:19:29Z</time>
      </trkpt>
      <trkpt lat="45.90244" lon="3.08253">
        <ele>393.31652832031</ele>
        <time>2010-04-24T09:19:35Z</time>
      </trkpt>
      <trkpt lat="45.90246" lon="3.08271">
        <ele>391.39379882812</ele>
        <time>2010-04-24T09:19:37Z</time>
      </trkpt>
      <trkpt lat="45.90246" lon="3.0829">
        <ele>389.95190429688</ele>
        <time>2010-04-24T09:19:39Z</time>
      </trkpt>
      <trkpt lat="45.90247" lon="3.08296">
        <ele>390.4326171875</ele>
        <time>2010-04-24T09:19:40Z</time>
      </trkpt>
      <trkpt lat="45.90253" lon="3.08305">
        <ele>389.95190429688</ele>
        <time>2010-04-24T09:19:45Z</time>
      </trkpt>
      <trkpt lat="45.90253" lon="3.08318">
        <ele>388.029296875</ele>
        <time>2010-04-24T09:19:48Z</time>
      </trkpt>
      <trkpt lat="45.9026" lon="3.08355">
        <ele>384.66479492188</ele>
        <time>2010-04-24T09:19:53Z</time>
      </trkpt>
      <trkpt lat="45.90263" lon="3.08374">
        <ele>384.18408203125</ele>
        <time>2010-04-24T09:19:55Z</time>
      </trkpt>
      <trkpt lat="45.90263" lon="3.08394">
        <ele>383.22265625</ele>
        <time>2010-04-24T09:19:57Z</time>
      </trkpt>
      <trkpt lat="45.90264" lon="3.08415">
        <ele>381.78063964844</ele>
        <time>2010-04-24T09:19:59Z</time>
      </trkpt>
      <trkpt lat="45.90273" lon="3.08471">
        <ele>378.41613769531</ele>
        <time>2010-04-24T09:20:04Z</time>
      </trkpt>
      <trkpt lat="45.90279" lon="3.08518">
        <ele>374.57080078125</ele>
        <time>2010-04-24T09:20:08Z</time>
      </trkpt>
      <trkpt lat="45.90279" lon="3.0853">
        <ele>375.53210449219</ele>
        <time>2010-04-24T09:20:09Z</time>
      </trkpt>
      <trkpt lat="45.9028" lon="3.08623">
        <ele>373.12890625</ele>
        <time>2010-04-24T09:20:17Z</time>
      </trkpt>
      <trkpt lat="45.90276" lon="3.08676">
        <ele>372.64819335938</ele>
        <time>2010-04-24T09:20:22Z</time>
      </trkpt>
      <trkpt lat="45.90284" lon="3.08725">
        <ele>371.68688964844</ele>
        <time>2010-04-24T09:20:27Z</time>
      </trkpt>
      <trkpt lat="45.90297" lon="3.08782">
        <ele>370.7255859375</ele>
        <time>2010-04-24T09:20:33Z</time>
      </trkpt>
      <trkpt lat="45.903" lon="3.08833">
        <ele>367.84155273438</ele>
        <time>2010-04-24T09:20:38Z</time>
      </trkpt>
      <trkpt lat="45.90321" lon="3.0891">
        <ele>367.36096191406</ele>
        <time>2010-04-24T09:20:46Z</time>
      </trkpt>
      <trkpt lat="45.90329" lon="3.0895">
        <ele>365.43835449219</ele>
        <time>2010-04-24T09:20:50Z</time>
      </trkpt>
      <trkpt lat="45.90337" lon="3.0898">
        <ele>364.95764160156</ele>
        <time>2010-04-24T09:20:53Z</time>
      </trkpt>
      <trkpt lat="45.90355" lon="3.09045">
        <ele>364.95764160156</ele>
        <time>2010-04-24T09:21:00Z</time>
      </trkpt>
      <trkpt lat="45.9035" lon="3.09071">
        <ele>364.95764160156</ele>
        <time>2010-04-24T09:21:04Z</time>
      </trkpt>
      <trkpt lat="45.90334" lon="3.09084">
        <ele>363.51574707031</ele>
        <time>2010-04-24T09:21:07Z</time>
      </trkpt>
      <trkpt lat="45.90308" lon="3.09105">
        <ele>361.11242675781</ele>
        <time>2010-04-24T09:21:11Z</time>
      </trkpt>
      <trkpt lat="45.90286" lon="3.09124">
        <ele>357.74780273438</ele>
        <time>2010-04-24T09:21:14Z</time>
      </trkpt>
      <trkpt lat="45.90271" lon="3.09137">
        <ele>354.38317871094</ele>
        <time>2010-04-24T09:21:16Z</time>
      </trkpt>
      <trkpt lat="45.90247" lon="3.0916">
        <ele>350.53784179688</ele>
        <time>2010-04-24T09:21:19Z</time>
      </trkpt>
      <trkpt lat="45.90212" lon="3.09192">
        <ele>347.17321777344</ele>
        <time>2010-04-24T09:21:23Z</time>
      </trkpt>
      <trkpt lat="45.90205" lon="3.092">
        <ele>347.17321777344</ele>
        <time>2010-04-24T09:21:24Z</time>
      </trkpt>
      <trkpt lat="45.90187" lon="3.09217">
        <ele>348.615234375</ele>
        <time>2010-04-24T09:21:27Z</time>
      </trkpt>
      <trkpt lat="45.90179" lon="3.09246">
        <ele>347.17321777344</ele>
        <time>2010-04-24T09:21:31Z</time>
      </trkpt>
      <trkpt lat="45.90181" lon="3.09255">
        <ele>346.69262695312</ele>
        <time>2010-04-24T09:21:32Z</time>
      </trkpt>
      <trkpt lat="45.90197" lon="3.09323">
        <ele>346.21203613281</ele>
        <time>2010-04-24T09:21:39Z</time>
      </trkpt>
      <trkpt lat="45.9021" lon="3.09381">
        <ele>347.17321777344</ele>
        <time>2010-04-24T09:21:45Z</time>
      </trkpt>
      <trkpt lat="45.90228" lon="3.09445">
        <ele>345.73132324219</ele>
        <time>2010-04-24T09:21:52Z</time>
      </trkpt>
      <trkpt lat="45.90257" lon="3.09549">
        <ele>343.80859375</ele>
        <time>2010-04-24T09:22:03Z</time>
      </trkpt>
      <trkpt lat="45.90276" lon="3.09617">
        <ele>341.88598632812</ele>
        <time>2010-04-24T09:22:10Z</time>
      </trkpt>
      <trkpt lat="45.903" lon="3.09699">
        <ele>339.96337890625</ele>
        <time>2010-04-24T09:22:18Z</time>
      </trkpt>
      <trkpt lat="45.90308" lon="3.09729">
        <ele>339.96337890625</ele>
        <time>2010-04-24T09:22:21Z</time>
      </trkpt>
      <trkpt lat="45.90306" lon="3.09757">
        <ele>338.04077148438</ele>
        <time>2010-04-24T09:22:25Z</time>
      </trkpt>
      <trkpt lat="45.90301" lon="3.09761">
        <ele>337.56005859375</ele>
        <time>2010-04-24T09:22:26Z</time>
      </trkpt>
      <trkpt lat="45.90283" lon="3.09791">
        <ele>336.59887695312</ele>
        <time>2010-04-24T09:22:31Z</time>
      </trkpt>
      <trkpt lat="45.90285" lon="3.09799">
        <ele>336.59887695312</ele>
        <time>2010-04-24T09:22:32Z</time>
      </trkpt>
      <trkpt lat="45.90288" lon="3.09807">
        <ele>335.63732910156</ele>
        <time>2010-04-24T09:22:33Z</time>
      </trkpt>
      <trkpt lat="45.90308" lon="3.09864">
        <ele>335.15673828125</ele>
        <time>2010-04-24T09:22:40Z</time>
      </trkpt>
      <trkpt lat="45.90324" lon="3.09884">
        <ele>336.59887695312</ele>
        <time>2010-04-24T09:22:44Z</time>
      </trkpt>
      <trkpt lat="45.9033" lon="3.09885">
        <ele>336.1181640625</ele>
        <time>2010-04-24T09:22:45Z</time>
      </trkpt>
      <trkpt lat="45.90381" lon="3.09896">
        <ele>338.521484375</ele>
        <time>2010-04-24T09:22:55Z</time>
      </trkpt>
      <trkpt lat="45.90386" lon="3.09897">
        <ele>339.00207519531</ele>
        <time>2010-04-24T09:22:56Z</time>
      </trkpt>
      <trkpt lat="45.90419" lon="3.09914">
        <ele>339.96337890625</ele>
        <time>2010-04-24T09:23:03Z</time>
      </trkpt>
      <trkpt lat="45.90429" lon="3.0992">
        <ele>340.44409179688</ele>
        <time>2010-04-24T09:23:05Z</time>
      </trkpt>
      <trkpt lat="45.9044" lon="3.0994">
        <ele>340.44409179688</ele>
        <time>2010-04-24T09:23:09Z</time>
      </trkpt>
      <trkpt lat="45.90437" lon="3.09955">
        <ele>339.96337890625</ele>
        <time>2010-04-24T09:23:12Z</time>
      </trkpt>
      <trkpt lat="45.90433" lon="3.09968">
        <ele>339.96337890625</ele>
        <time>2010-04-24T09:23:15Z</time>
      </trkpt>
      <trkpt lat="45.90432" lon="3.09974">
        <ele>339.96337890625</ele>
        <time>2010-04-24T09:23:20Z</time>
      </trkpt>
      <trkpt lat="45.90431" lon="3.09981">
        <ele>339.48266601562</ele>
        <time>2010-04-24T09:23:31Z</time>
      </trkpt>
      <trkpt lat="45.90434" lon="3.09994">
        <ele>339.48266601562</ele>
        <time>2010-04-24T09:23:34Z</time>
      </trkpt>
      <trkpt lat="45.90451" lon="3.10007">
        <ele>338.04077148438</ele>
        <time>2010-04-24T09:23:38Z</time>
      </trkpt>
      <trkpt lat="45.90456" lon="3.10008">
        <ele>338.04077148438</ele>
        <time>2010-04-24T09:23:39Z</time>
      </trkpt>
      <trkpt lat="45.90468" lon="3.10012">
        <ele>338.04077148438</ele>
        <time>2010-04-24T09:23:41Z</time>
      </trkpt>
      <trkpt lat="45.90507" lon="3.10036">
        <ele>338.04077148438</ele>
        <time>2010-04-24T09:23:48Z</time>
      </trkpt>
      <trkpt lat="45.90558" lon="3.10065">
        <ele>339.00207519531</ele>
        <time>2010-04-24T09:23:57Z</time>
      </trkpt>
      <trkpt lat="45.90592" lon="3.1008">
        <ele>340.92468261719</ele>
        <time>2010-04-24T09:24:03Z</time>
      </trkpt>
      <trkpt lat="45.90631" lon="3.10098">
        <ele>341.4052734375</ele>
        <time>2010-04-24T09:24:10Z</time>
      </trkpt>
      <trkpt lat="45.90663" lon="3.10113">
        <ele>341.88598632812</ele>
        <time>2010-04-24T09:24:16Z</time>
      </trkpt>
      <trkpt lat="45.90696" lon="3.10132">
        <ele>343.32788085938</ele>
        <time>2010-04-24T09:24:23Z</time>
      </trkpt>
      <trkpt lat="45.9071" lon="3.10142">
        <ele>343.80859375</ele>
        <time>2010-04-24T09:24:26Z</time>
      </trkpt>
      <trkpt lat="45.90746" lon="3.10166">
        <ele>342.84729003906</ele>
        <time>2010-04-24T09:24:33Z</time>
      </trkpt>
      <trkpt lat="45.90789" lon="3.10198">
        <ele>341.4052734375</ele>
        <time>2010-04-24T09:24:40Z</time>
      </trkpt>
      <trkpt lat="45.90801" lon="3.10209">
        <ele>341.4052734375</ele>
        <time>2010-04-24T09:24:42Z</time>
      </trkpt>
      <trkpt lat="45.90869" lon="3.10283">
        <ele>339.00207519531</ele>
        <time>2010-04-24T09:24:53Z</time>
      </trkpt>
      <trkpt lat="45.90911" lon="3.10326">
        <ele>338.521484375</ele>
        <time>2010-04-24T09:25:00Z</time>
      </trkpt>
      <trkpt lat="45.90968" lon="3.10387">
        <ele>337.56005859375</ele>
        <time>2010-04-24T09:25:10Z</time>
      </trkpt>
      <trkpt lat="45.91025" lon="3.10449">
        <ele>336.1181640625</ele>
        <time>2010-04-24T09:25:20Z</time>
      </trkpt>
      <trkpt lat="45.91065" lon="3.1049">
        <ele>335.15673828125</ele>
        <time>2010-04-24T09:25:27Z</time>
      </trkpt>
      <trkpt lat="45.91122" lon="3.1055">
        <ele>335.15673828125</ele>
        <time>2010-04-24T09:25:37Z</time>
      </trkpt>
      <trkpt lat="45.91178" lon="3.10611">
        <ele>335.63732910156</ele>
        <time>2010-04-24T09:25:47Z</time>
      </trkpt>
      <trkpt lat="45.9122" lon="3.10655">
        <ele>337.56005859375</ele>
        <time>2010-04-24T09:25:55Z</time>
      </trkpt>
      <trkpt lat="45.91257" lon="3.10702">
        <ele>339.00207519531</ele>
        <time>2010-04-24T09:26:03Z</time>
      </trkpt>
      <trkpt lat="45.91273" lon="3.10726">
        <ele>339.96337890625</ele>
        <time>2010-04-24T09:26:07Z</time>
      </trkpt>
      <trkpt lat="45.91306" lon="3.10783">
        <ele>342.36669921875</ele>
        <time>2010-04-24T09:26:16Z</time>
      </trkpt>
      <trkpt lat="45.91337" lon="3.10834">
        <ele>343.80859375</ele>
        <time>2010-04-24T09:26:25Z</time>
      </trkpt>
      <trkpt lat="45.91378" lon="3.10887">
        <ele>343.80859375</ele>
        <time>2010-04-24T09:26:35Z</time>
      </trkpt>
      <trkpt lat="45.91421" lon="3.10939">
        <ele>344.77001953125</ele>
        <time>2010-04-24T09:26:45Z</time>
      </trkpt>
      <trkpt lat="45.91442" lon="3.10962">
        <ele>346.21203613281</ele>
        <time>2010-04-24T09:26:50Z</time>
      </trkpt>
      <trkpt lat="45.91473" lon="3.11003">
        <ele>347.17321777344</ele>
        <time>2010-04-24T09:26:58Z</time>
      </trkpt>
      <trkpt lat="45.91528" lon="3.11071">
        <ele>347.17321777344</ele>
        <time>2010-04-24T09:27:11Z</time>
      </trkpt>
      <trkpt lat="45.91565" lon="3.1111">
        <ele>347.17321777344</ele>
        <time>2010-04-24T09:27:19Z</time>
      </trkpt>
      <trkpt lat="45.91585" lon="3.11128">
        <ele>347.65393066406</ele>
        <time>2010-04-24T09:27:23Z</time>
      </trkpt>
      <trkpt lat="45.91628" lon="3.11157">
        <ele>347.17321777344</ele>
        <time>2010-04-24T09:27:31Z</time>
      </trkpt>
      <trkpt lat="45.91672" lon="3.11185">
        <ele>345.25061035156</ele>
        <time>2010-04-24T09:27:38Z</time>
      </trkpt>
      <trkpt lat="45.91685" lon="3.11195">
        <ele>345.73132324219</ele>
        <time>2010-04-24T09:27:40Z</time>
      </trkpt>
      <trkpt lat="45.91724" lon="3.11233">
        <ele>347.17321777344</ele>
        <time>2010-04-24T09:27:47Z</time>
      </trkpt>
      <trkpt lat="45.91775" lon="3.11283">
        <ele>348.615234375</ele>
        <time>2010-04-24T09:27:57Z</time>
      </trkpt>
      <trkpt lat="45.91815" lon="3.11321">
        <ele>348.615234375</ele>
        <time>2010-04-24T09:28:05Z</time>
      </trkpt>
      <trkpt lat="45.9187" lon="3.11378">
        <ele>348.13464355469</ele>
        <time>2010-04-24T09:28:16Z</time>
      </trkpt>
      <trkpt lat="45.9193" lon="3.11439">
        <ele>348.615234375</ele>
        <time>2010-04-24T09:28:28Z</time>
      </trkpt>
      <trkpt lat="45.91978" lon="3.11479">
        <ele>349.57653808594</ele>
        <time>2010-04-24T09:28:37Z</time>
      </trkpt>
      <trkpt lat="45.92021" lon="3.11504">
        <ele>350.05725097656</ele>
        <time>2010-04-24T09:28:45Z</time>
      </trkpt>
      <trkpt lat="45.92037" lon="3.1151">
        <ele>350.53784179688</ele>
        <time>2010-04-24T09:28:49Z</time>
      </trkpt>
      <trkpt lat="45.92043" lon="3.11513">
        <ele>350.53784179688</ele>
        <time>2010-04-24T09:28:52Z</time>
      </trkpt>
      <trkpt lat="45.92054" lon="3.11516">
        <ele>350.53784179688</ele>
        <time>2010-04-24T09:28:57Z</time>
      </trkpt>
      <trkpt lat="45.92074" lon="3.11511">
        <ele>351.01843261719</ele>
        <time>2010-04-24T09:29:02Z</time>
      </trkpt>
      <trkpt lat="45.92107" lon="3.11501">
        <ele>351.97985839844</ele>
        <time>2010-04-24T09:29:09Z</time>
      </trkpt>
      <trkpt lat="45.92121" lon="3.11497">
        <ele>352.46057128906</ele>
        <time>2010-04-24T09:29:12Z</time>
      </trkpt>
      <trkpt lat="45.92131" lon="3.11495">
        <ele>352.94116210938</ele>
        <time>2010-04-24T09:29:14Z</time>
      </trkpt>
      <trkpt lat="45.9214" lon="3.11493">
        <ele>353.421875</ele>
        <time>2010-04-24T09:29:16Z</time>
      </trkpt>
      <trkpt lat="45.92189" lon="3.1148">
        <ele>354.86376953125</ele>
        <time>2010-04-24T09:29:26Z</time>
      </trkpt>
      <trkpt lat="45.92228" lon="3.11469">
        <ele>356.78637695312</ele>
        <time>2010-04-24T09:29:34Z</time>
      </trkpt>
      <trkpt lat="45.92246" lon="3.11464">
        <ele>358.22839355469</ele>
        <time>2010-04-24T09:29:38Z</time>
      </trkpt>
      <trkpt lat="45.92281" lon="3.11452">
        <ele>358.22839355469</ele>
        <time>2010-04-24T09:29:45Z</time>
      </trkpt>
      <trkpt lat="45.92318" lon="3.11436">
        <ele>356.78637695312</ele>
        <time>2010-04-24T09:29:52Z</time>
      </trkpt>
      <trkpt lat="45.92352" lon="3.11421">
        <ele>353.421875</ele>
        <time>2010-04-24T09:29:58Z</time>
      </trkpt>
      <trkpt lat="45.92388" lon="3.11405">
        <ele>350.05725097656</ele>
        <time>2010-04-24T09:30:03Z</time>
      </trkpt>
      <trkpt lat="45.92395" lon="3.11402">
        <ele>349.57653808594</ele>
        <time>2010-04-24T09:30:04Z</time>
      </trkpt>
      <trkpt lat="45.92427" lon="3.11387">
        <ele>348.13464355469</ele>
        <time>2010-04-24T09:30:08Z</time>
      </trkpt>
      <trkpt lat="45.92443" lon="3.1138">
        <ele>347.17321777344</ele>
        <time>2010-04-24T09:30:10Z</time>
      </trkpt>
      <trkpt lat="45.92482" lon="3.11371">
        <ele>347.65393066406</ele>
        <time>2010-04-24T09:30:15Z</time>
      </trkpt>
      <trkpt lat="45.92489" lon="3.1137">
        <ele>347.65393066406</ele>
        <time>2010-04-24T09:30:16Z</time>
      </trkpt>
      <trkpt lat="45.92517" lon="3.11371">
        <ele>348.13464355469</ele>
        <time>2010-04-24T09:30:20Z</time>
      </trkpt>
      <trkpt lat="45.92535" lon="3.11362">
        <ele>349.57653808594</ele>
        <time>2010-04-24T09:30:24Z</time>
      </trkpt>
      <trkpt lat="45.92533" lon="3.11349">
        <ele>349.57653808594</ele>
        <time>2010-04-24T09:30:27Z</time>
      </trkpt>
      <trkpt lat="45.92526" lon="3.11329">
        <ele>349.57653808594</ele>
        <time>2010-04-24T09:30:31Z</time>
      </trkpt>
      <trkpt lat="45.92522" lon="3.11319">
        <ele>349.57653808594</ele>
        <time>2010-04-24T09:30:33Z</time>
      </trkpt>
      <trkpt lat="45.92516" lon="3.11297">
        <ele>350.53784179688</ele>
        <time>2010-04-24T09:30:37Z</time>
      </trkpt>
      <trkpt lat="45.92518" lon="3.1126">
        <ele>351.01843261719</ele>
        <time>2010-04-24T09:30:43Z</time>
      </trkpt>
      <trkpt lat="45.92528" lon="3.11227">
        <ele>351.01843261719</ele>
        <time>2010-04-24T09:30:48Z</time>
      </trkpt>
      <trkpt lat="45.92534" lon="3.11208">
        <ele>351.01843261719</ele>
        <time>2010-04-24T09:30:51Z</time>
      </trkpt>
      <trkpt lat="45.92546" lon="3.11169">
        <ele>351.01843261719</ele>
        <time>2010-04-24T09:30:57Z</time>
      </trkpt>
      <trkpt lat="45.92563" lon="3.11116">
        <ele>351.97985839844</ele>
        <time>2010-04-24T09:31:05Z</time>
      </trkpt>
      <trkpt lat="45.92576" lon="3.1107">
        <ele>353.90258789062</ele>
        <time>2010-04-24T09:31:12Z</time>
      </trkpt>
      <trkpt lat="45.92581" lon="3.11042">
        <ele>355.34448242188</ele>
        <time>2010-04-24T09:31:16Z</time>
      </trkpt>
      <trkpt lat="45.92582" lon="3.11014">
        <ele>355.8251953125</ele>
        <time>2010-04-24T09:31:20Z</time>
      </trkpt>
      <trkpt lat="45.92583" lon="3.10994">
        <ele>355.34448242188</ele>
        <time>2010-04-24T09:31:23Z</time>
      </trkpt>
      <trkpt lat="45.9258" lon="3.10958">
        <ele>355.8251953125</ele>
        <time>2010-04-24T09:31:28Z</time>
      </trkpt>
      <trkpt lat="45.9257" lon="3.1093">
        <ele>355.8251953125</ele>
        <time>2010-04-24T09:31:32Z</time>
      </trkpt>
      <trkpt lat="45.92566" lon="3.10897">
        <ele>355.34448242188</ele>
        <time>2010-04-24T09:31:37Z</time>
      </trkpt>
      <trkpt lat="45.92574" lon="3.10877">
        <ele>353.90258789062</ele>
        <time>2010-04-24T09:31:40Z</time>
      </trkpt>
      <trkpt lat="45.92593" lon="3.10871">
        <ele>351.97985839844</ele>
        <time>2010-04-24T09:31:43Z</time>
      </trkpt>
      <trkpt lat="45.92607" lon="3.10876">
        <ele>351.01843261719</ele>
        <time>2010-04-24T09:31:45Z</time>
      </trkpt>
      <trkpt lat="45.9262" lon="3.10888">
        <ele>351.01843261719</ele>
        <time>2010-04-24T09:31:47Z</time>
      </trkpt>
      <trkpt lat="45.92652" lon="3.10925">
        <ele>351.01843261719</ele>
        <time>2010-04-24T09:31:53Z</time>
      </trkpt>
      <trkpt lat="45.92661" lon="3.10934">
        <ele>351.97985839844</ele>
        <time>2010-04-24T09:31:55Z</time>
      </trkpt>
      <trkpt lat="45.92674" lon="3.10944">
        <ele>352.46057128906</ele>
        <time>2010-04-24T09:31:58Z</time>
      </trkpt>
      <trkpt lat="45.92682" lon="3.10949">
        <ele>352.94116210938</ele>
        <time>2010-04-24T09:32:00Z</time>
      </trkpt>
      <trkpt lat="45.92686" lon="3.10951">
        <ele>353.421875</ele>
        <time>2010-04-24T09:32:01Z</time>
      </trkpt>
      <trkpt lat="45.92709" lon="3.10967">
        <ele>354.86376953125</ele>
        <time>2010-04-24T09:32:07Z</time>
      </trkpt>
      <trkpt lat="45.92716" lon="3.10972">
        <ele>355.34448242188</ele>
        <time>2010-04-24T09:32:09Z</time>
      </trkpt>
      <trkpt lat="45.92728" lon="3.1099">
        <ele>357.26708984375</ele>
        <time>2010-04-24T09:32:14Z</time>
      </trkpt>
      <trkpt lat="45.92735" lon="3.10999">
        <ele>359.18969726562</ele>
        <time>2010-04-24T09:32:17Z</time>
      </trkpt>
      <trkpt lat="45.92742" lon="3.1101">
        <ele>360.63171386719</ele>
        <time>2010-04-24T09:32:20Z</time>
      </trkpt>
      <trkpt lat="45.92746" lon="3.11017">
        <ele>361.11242675781</ele>
        <time>2010-04-24T09:32:22Z</time>
      </trkpt>
      <trkpt lat="45.92752" lon="3.11028">
        <ele>361.59313964844</ele>
        <time>2010-04-24T09:32:25Z</time>
      </trkpt>
      <trkpt lat="45.92755" lon="3.11031">
        <ele>361.59313964844</ele>
        <time>2010-04-24T09:32:26Z</time>
      </trkpt>
      <trkpt lat="45.92756" lon="3.11034">
        <ele>362.07373046875</ele>
        <time>2010-04-24T09:32:27Z</time>
      </trkpt>
      <trkpt lat="45.92767" lon="3.11047">
        <ele>363.51574707031</ele>
        <time>2010-04-24T09:32:31Z</time>
      </trkpt>
      <trkpt lat="45.92769" lon="3.1105">
        <ele>364.47692871094</ele>
        <time>2010-04-24T09:32:32Z</time>
      </trkpt>
      <trkpt lat="45.92779" lon="3.11065">
        <ele>366.88024902344</ele>
        <time>2010-04-24T09:32:37Z</time>
      </trkpt>
      <trkpt lat="45.92781" lon="3.11067">
        <ele>366.39953613281</ele>
        <time>2010-04-24T09:32:38Z</time>
      </trkpt>
      <trkpt lat="45.92784" lon="3.11062">
        <ele>367.36096191406</ele>
        <time>2010-04-24T09:32:42Z</time>
      </trkpt>
      <trkpt lat="45.92785" lon="3.11056">
        <ele>367.84155273438</ele>
        <time>2010-04-24T09:32:44Z</time>
      </trkpt>
      <trkpt lat="45.92787" lon="3.11039">
        <ele>368.80297851562</ele>
        <time>2010-04-24T09:32:50Z</time>
      </trkpt>
      <trkpt lat="45.92786" lon="3.11026">
        <ele>368.80297851562</ele>
        <time>2010-04-24T09:32:54Z</time>
      </trkpt>
      <trkpt lat="45.92785" lon="3.11005">
        <ele>370.24487304688</ele>
        <time>2010-04-24T09:32:59Z</time>
      </trkpt>
      <trkpt lat="45.92782" lon="3.10972">
        <ele>372.16748046875</ele>
        <time>2010-04-24T09:33:06Z</time>
      </trkpt>
      <trkpt lat="45.92776" lon="3.10938">
        <ele>372.64819335938</ele>
        <time>2010-04-24T09:33:13Z</time>
      </trkpt>
      <trkpt lat="45.92773" lon="3.10927">
        <ele>372.16748046875</ele>
        <time>2010-04-24T09:33:15Z</time>
      </trkpt>
      <trkpt lat="45.92765" lon="3.10877">
        <ele>372.64819335938</ele>
        <time>2010-04-24T09:33:23Z</time>
      </trkpt>
      <trkpt lat="45.92759" lon="3.10827">
        <ele>372.64819335938</ele>
        <time>2010-04-24T09:33:31Z</time>
      </trkpt>
      <trkpt lat="45.92746" lon="3.10776">
        <ele>372.16748046875</ele>
        <time>2010-04-24T09:33:39Z</time>
      </trkpt>
      <trkpt lat="45.92733" lon="3.10745">
        <ele>371.20629882812</ele>
        <time>2010-04-24T09:33:44Z</time>
      </trkpt>
      <trkpt lat="45.92731" lon="3.10738">
        <ele>371.68688964844</ele>
        <time>2010-04-24T09:33:45Z</time>
      </trkpt>
      <trkpt lat="45.92728" lon="3.10723">
        <ele>370.7255859375</ele>
        <time>2010-04-24T09:33:47Z</time>
      </trkpt>
      <trkpt lat="45.92726" lon="3.10715">
        <ele>370.7255859375</ele>
        <time>2010-04-24T09:33:48Z</time>
      </trkpt>
      <trkpt lat="45.92724" lon="3.1069">
        <ele>369.76428222656</ele>
        <time>2010-04-24T09:33:51Z</time>
      </trkpt>
      <trkpt lat="45.92723" lon="3.10681">
        <ele>369.76428222656</ele>
        <time>2010-04-24T09:33:52Z</time>
      </trkpt>
      <trkpt lat="45.9272" lon="3.10663">
        <ele>368.322265625</ele>
        <time>2010-04-24T09:33:54Z</time>
      </trkpt>
      <trkpt lat="45.92716" lon="3.10622">
        <ele>365.43835449219</ele>
        <time>2010-04-24T09:33:58Z</time>
      </trkpt>
      <trkpt lat="45.92709" lon="3.10567">
        <ele>362.55432128906</ele>
        <time>2010-04-24T09:34:03Z</time>
      </trkpt>
      <trkpt lat="45.92705" lon="3.10533">
        <ele>362.07373046875</ele>
        <time>2010-04-24T09:34:06Z</time>
      </trkpt>
      <trkpt lat="45.92703" lon="3.10522">
        <ele>361.59313964844</ele>
        <time>2010-04-24T09:34:07Z</time>
      </trkpt>
      <trkpt lat="45.92701" lon="3.10511">
        <ele>361.59313964844</ele>
        <time>2010-04-24T09:34:08Z</time>
      </trkpt>
      <trkpt lat="45.92696" lon="3.10479">
        <ele>361.59313964844</ele>
        <time>2010-04-24T09:34:11Z</time>
      </trkpt>
      <trkpt lat="45.92694" lon="3.10469">
        <ele>362.07373046875</ele>
        <time>2010-04-24T09:34:12Z</time>
      </trkpt>
      <trkpt lat="45.9268" lon="3.10405">
        <ele>362.55432128906</ele>
        <time>2010-04-24T09:34:19Z</time>
      </trkpt>
      <trkpt lat="45.92676" lon="3.10354">
        <ele>363.51574707031</ele>
        <time>2010-04-24T09:34:25Z</time>
      </trkpt>
      <trkpt lat="45.92675" lon="3.10339">
        <ele>364.95764160156</ele>
        <time>2010-04-24T09:34:27Z</time>
      </trkpt>
      <trkpt lat="45.92678" lon="3.10309">
        <ele>365.9189453125</ele>
        <time>2010-04-24T09:34:31Z</time>
      </trkpt>
      <trkpt lat="45.9268" lon="3.10295">
        <ele>367.36096191406</ele>
        <time>2010-04-24T09:34:33Z</time>
      </trkpt>
      <trkpt lat="45.9268" lon="3.10274">
        <ele>368.80297851562</ele>
        <time>2010-04-24T09:34:36Z</time>
      </trkpt>
      <trkpt lat="45.9268" lon="3.10268">
        <ele>369.28369140625</ele>
        <time>2010-04-24T09:34:37Z</time>
      </trkpt>
      <trkpt lat="45.92673" lon="3.10235">
        <ele>367.84155273438</ele>
        <time>2010-04-24T09:34:42Z</time>
      </trkpt>
      <trkpt lat="45.92672" lon="3.10227">
        <ele>367.36096191406</ele>
        <time>2010-04-24T09:34:43Z</time>
      </trkpt>
      <trkpt lat="45.92671" lon="3.1022">
        <ele>366.88024902344</ele>
        <time>2010-04-24T09:34:44Z</time>
      </trkpt>
      <trkpt lat="45.92669" lon="3.10203">
        <ele>365.9189453125</ele>
        <time>2010-04-24T09:34:46Z</time>
      </trkpt>
      <trkpt lat="45.9267" lon="3.10157">
        <ele>363.99633789062</ele>
        <time>2010-04-24T09:34:51Z</time>
      </trkpt>
      <trkpt lat="45.92668" lon="3.10102">
        <ele>364.47692871094</ele>
        <time>2010-04-24T09:34:57Z</time>
      </trkpt>
      <trkpt lat="45.92661" lon="3.10023">
        <ele>363.51574707031</ele>
        <time>2010-04-24T09:35:06Z</time>
      </trkpt>
      <trkpt lat="45.92659" lon="3.10015">
        <ele>363.03503417969</ele>
        <time>2010-04-24T09:35:07Z</time>
      </trkpt>
      <trkpt lat="45.92642" lon="3.09946">
        <ele>362.07373046875</ele>
        <time>2010-04-24T09:35:15Z</time>
      </trkpt>
      <trkpt lat="45.92628" lon="3.09905">
        <ele>363.03503417969</ele>
        <time>2010-04-24T09:35:20Z</time>
      </trkpt>
      <trkpt lat="45.92611" lon="3.09846">
        <ele>364.95764160156</ele>
        <time>2010-04-24T09:35:28Z</time>
      </trkpt>
      <trkpt lat="45.92606" lon="3.09832">
        <ele>365.9189453125</ele>
        <time>2010-04-24T09:35:30Z</time>
      </trkpt>
      <trkpt lat="45.92589" lon="3.09767">
        <ele>366.88024902344</ele>
        <time>2010-04-24T09:35:39Z</time>
      </trkpt>
      <trkpt lat="45.92572" lon="3.09712">
        <ele>368.322265625</ele>
        <time>2010-04-24T09:35:47Z</time>
      </trkpt>
      <trkpt lat="45.92554" lon="3.09666">
        <ele>368.80297851562</ele>
        <time>2010-04-24T09:35:54Z</time>
      </trkpt>
      <trkpt lat="45.92529" lon="3.09616">
        <ele>369.76428222656</ele>
        <time>2010-04-24T09:36:02Z</time>
      </trkpt>
      <trkpt lat="45.92509" lon="3.09584">
        <ele>370.7255859375</ele>
        <time>2010-04-24T09:36:08Z</time>
      </trkpt>
      <trkpt lat="45.92503" lon="3.09574">
        <ele>371.20629882812</ele>
        <time>2010-04-24T09:36:10Z</time>
      </trkpt>
      <trkpt lat="45.92491" lon="3.09551">
        <ele>370.7255859375</ele>
        <time>2010-04-24T09:36:14Z</time>
      </trkpt>
      <trkpt lat="45.92476" lon="3.09495">
        <ele>371.20629882812</ele>
        <time>2010-04-24T09:36:22Z</time>
      </trkpt>
      <trkpt lat="45.92463" lon="3.09432">
        <ele>373.12890625</ele>
        <time>2010-04-24T09:36:31Z</time>
      </trkpt>
      <trkpt lat="45.92448" lon="3.09379">
        <ele>375.53210449219</ele>
        <time>2010-04-24T09:36:40Z</time>
      </trkpt>
      <trkpt lat="45.92435" lon="3.09329">
        <ele>376.49353027344</ele>
        <time>2010-04-24T09:36:48Z</time>
      </trkpt>
      <trkpt lat="45.92421" lon="3.09276">
        <ele>376.01281738281</ele>
        <time>2010-04-24T09:36:56Z</time>
      </trkpt>
      <trkpt lat="45.92402" lon="3.09223">
        <ele>377.93542480469</ele>
        <time>2010-04-24T09:37:04Z</time>
      </trkpt>
      <trkpt lat="45.92384" lon="3.09176">
        <ele>377.93542480469</ele>
        <time>2010-04-24T09:37:11Z</time>
      </trkpt>
      <trkpt lat="45.9238" lon="3.09141">
        <ele>378.89685058594</ele>
        <time>2010-04-24T09:37:17Z</time>
      </trkpt>
      <trkpt lat="45.92388" lon="3.09127">
        <ele>380.81945800781</ele>
        <time>2010-04-24T09:37:21Z</time>
      </trkpt>
      <trkpt lat="45.92409" lon="3.09115">
        <ele>382.26135253906</ele>
        <time>2010-04-24T09:37:27Z</time>
      </trkpt>
      <trkpt lat="45.92413" lon="3.09112">
        <ele>382.26135253906</ele>
        <time>2010-04-24T09:37:28Z</time>
      </trkpt>
      <trkpt lat="45.92438" lon="3.09104">
        <ele>383.22265625</ele>
        <time>2010-04-24T09:37:33Z</time>
      </trkpt>
      <trkpt lat="45.92479" lon="3.09082">
        <ele>385.14538574219</ele>
        <time>2010-04-24T09:37:42Z</time>
      </trkpt>
      <trkpt lat="45.92508" lon="3.09057">
        <ele>385.14538574219</ele>
        <time>2010-04-24T09:37:49Z</time>
      </trkpt>
      <trkpt lat="45.92547" lon="3.09028">
        <ele>386.58740234375</ele>
        <time>2010-04-24T09:37:58Z</time>
      </trkpt>
      <trkpt lat="45.92584" lon="3.09001">
        <ele>388.029296875</ele>
        <time>2010-04-24T09:38:07Z</time>
      </trkpt>
      <trkpt lat="45.92588" lon="3.08999">
        <ele>388.029296875</ele>
        <time>2010-04-24T09:38:08Z</time>
      </trkpt>
      <trkpt lat="45.92617" lon="3.08984">
        <ele>389.95190429688</ele>
        <time>2010-04-24T09:38:16Z</time>
      </trkpt>
      <trkpt lat="45.92644" lon="3.08971">
        <ele>392.35534667969</ele>
        <time>2010-04-24T09:38:24Z</time>
      </trkpt>
      <trkpt lat="45.92672" lon="3.08951">
        <ele>395.71984863281</ele>
        <time>2010-04-24T09:38:33Z</time>
      </trkpt>
      <trkpt lat="45.92691" lon="3.08939">
        <ele>396.68115234375</ele>
        <time>2010-04-24T09:38:39Z</time>
      </trkpt>
      <trkpt lat="45.92713" lon="3.08926">
        <ele>397.16174316406</ele>
        <time>2010-04-24T09:38:45Z</time>
      </trkpt>
      <trkpt lat="45.92728" lon="3.08916">
        <ele>398.12316894531</ele>
        <time>2010-04-24T09:38:49Z</time>
      </trkpt>
      <trkpt lat="45.92754" lon="3.089">
        <ele>399.08435058594</ele>
        <time>2010-04-24T09:38:57Z</time>
      </trkpt>
      <trkpt lat="45.92765" lon="3.08897">
        <ele>398.60375976562</ele>
        <time>2010-04-24T09:39:02Z</time>
      </trkpt>
      <trkpt lat="45.92775" lon="3.089">
        <ele>397.16174316406</ele>
        <time>2010-04-24T09:39:07Z</time>
      </trkpt>
      <trkpt lat="45.92791" lon="3.08883">
        <ele>396.20056152344</ele>
        <time>2010-04-24T09:39:12Z</time>
      </trkpt>
      <trkpt lat="45.92821" lon="3.08849">
        <ele>395.23913574219</ele>
        <time>2010-04-24T09:39:19Z</time>
      </trkpt>
      <trkpt lat="45.92838" lon="3.08827">
        <ele>395.23913574219</ele>
        <time>2010-04-24T09:39:23Z</time>
      </trkpt>
      <trkpt lat="45.9285" lon="3.08811">
        <ele>395.23913574219</ele>
        <time>2010-04-24T09:39:26Z</time>
      </trkpt>
      <trkpt lat="45.92859" lon="3.08799">
        <ele>395.23913574219</ele>
        <time>2010-04-24T09:39:28Z</time>
      </trkpt>
      <trkpt lat="45.92892" lon="3.08764">
        <ele>395.23913574219</ele>
        <time>2010-04-24T09:39:35Z</time>
      </trkpt>
      <trkpt lat="45.92921" lon="3.08729">
        <ele>396.68115234375</ele>
        <time>2010-04-24T09:39:42Z</time>
      </trkpt>
      <trkpt lat="45.92933" lon="3.08702">
        <ele>397.16174316406</ele>
        <time>2010-04-24T09:39:46Z</time>
      </trkpt>
      <trkpt lat="45.92944" lon="3.08643">
        <ele>397.64245605469</ele>
        <time>2010-04-24T09:39:53Z</time>
      </trkpt>
      <trkpt lat="45.92952" lon="3.08618">
        <ele>397.64245605469</ele>
        <time>2010-04-24T09:39:56Z</time>
      </trkpt>
      <trkpt lat="45.92984" lon="3.08566">
        <ele>395.23913574219</ele>
        <time>2010-04-24T09:40:03Z</time>
      </trkpt>
      <trkpt lat="45.92998" lon="3.08543">
        <ele>395.23913574219</ele>
        <time>2010-04-24T09:40:06Z</time>
      </trkpt>
      <trkpt lat="45.93013" lon="3.08521">
        <ele>393.79724121094</ele>
        <time>2010-04-24T09:40:09Z</time>
      </trkpt>
      <trkpt lat="45.93029" lon="3.08505">
        <ele>393.79724121094</ele>
        <time>2010-04-24T09:40:12Z</time>
      </trkpt>
      <trkpt lat="45.93046" lon="3.08473">
        <ele>393.79724121094</ele>
        <time>2010-04-24T09:40:17Z</time>
      </trkpt>
      <trkpt lat="45.93052" lon="3.08455">
        <ele>394.75854492188</ele>
        <time>2010-04-24T09:40:20Z</time>
      </trkpt>
      <trkpt lat="45.93064" lon="3.08444">
        <ele>393.31652832031</ele>
        <time>2010-04-24T09:40:24Z</time>
      </trkpt>
      <trkpt lat="45.93069" lon="3.08445">
        <ele>392.8359375</ele>
        <time>2010-04-24T09:40:25Z</time>
      </trkpt>
      <trkpt lat="45.93106" lon="3.08457">
        <ele>392.35534667969</ele>
        <time>2010-04-24T09:40:32Z</time>
      </trkpt>
      <trkpt lat="45.93153" lon="3.08477">
        <ele>391.87451171875</ele>
        <time>2010-04-24T09:40:40Z</time>
      </trkpt>
      <trkpt lat="45.93198" lon="3.08492">
        <ele>388.51000976562</ele>
        <time>2010-04-24T09:40:47Z</time>
      </trkpt>
      <trkpt lat="45.93223" lon="3.08495">
        <ele>385.14538574219</ele>
        <time>2010-04-24T09:40:50Z</time>
      </trkpt>
      <trkpt lat="45.93256" lon="3.08498">
        <ele>381.78063964844</ele>
        <time>2010-04-24T09:40:54Z</time>
      </trkpt>
      <trkpt lat="45.93265" lon="3.08498">
        <ele>380.81945800781</ele>
        <time>2010-04-24T09:40:55Z</time>
      </trkpt>
      <trkpt lat="45.93303" lon="3.08476">
        <ele>379.85803222656</ele>
        <time>2010-04-24T09:41:00Z</time>
      </trkpt>
      <trkpt lat="45.93323" lon="3.08463">
        <ele>380.33874511719</ele>
        <time>2010-04-24T09:41:03Z</time>
      </trkpt>
      <trkpt lat="45.93343" lon="3.08452">
        <ele>380.81945800781</ele>
        <time>2010-04-24T09:41:07Z</time>
      </trkpt>
      <trkpt lat="45.93355" lon="3.0846">
        <ele>381.78063964844</ele>
        <time>2010-04-24T09:41:12Z</time>
      </trkpt>
      <trkpt lat="45.93357" lon="3.08467">
        <ele>381.78063964844</ele>
        <time>2010-04-24T09:41:14Z</time>
      </trkpt>
      <trkpt lat="45.93358" lon="3.08496">
        <ele>380.33874511719</ele>
        <time>2010-04-24T09:41:19Z</time>
      </trkpt>
      <trkpt lat="45.93362" lon="3.08525">
        <ele>379.85803222656</ele>
        <time>2010-04-24T09:41:23Z</time>
      </trkpt>
      <trkpt lat="45.93364" lon="3.08532">
        <ele>379.85803222656</ele>
        <time>2010-04-24T09:41:24Z</time>
      </trkpt>
      <trkpt lat="45.9337" lon="3.08586">
        <ele>379.37744140625</ele>
        <time>2010-04-24T09:41:31Z</time>
      </trkpt>
      <trkpt lat="45.93381" lon="3.08654">
        <ele>377.93542480469</ele>
        <time>2010-04-24T09:41:39Z</time>
      </trkpt>
      <trkpt lat="45.93389" lon="3.08696">
        <ele>377.45483398438</ele>
        <time>2010-04-24T09:41:44Z</time>
      </trkpt>
      <trkpt lat="45.93405" lon="3.08719">
        <ele>376.97424316406</ele>
        <time>2010-04-24T09:41:48Z</time>
      </trkpt>
      <trkpt lat="45.9341" lon="3.08721">
        <ele>377.45483398438</ele>
        <time>2010-04-24T09:41:49Z</time>
      </trkpt>
      <trkpt lat="45.93474" lon="3.08737">
        <ele>375.53210449219</ele>
        <time>2010-04-24T09:41:59Z</time>
      </trkpt>
      <trkpt lat="45.93533" lon="3.08752">
        <ele>374.09008789062</ele>
        <time>2010-04-24T09:42:08Z</time>
      </trkpt>
      <trkpt lat="45.93588" lon="3.08766">
        <ele>372.64819335938</ele>
        <time>2010-04-24T09:42:16Z</time>
      </trkpt>
      <trkpt lat="45.93622" lon="3.08772">
        <ele>371.68688964844</ele>
        <time>2010-04-24T09:42:21Z</time>
      </trkpt>
      <trkpt lat="45.93643" lon="3.08779">
        <ele>371.20629882812</ele>
        <time>2010-04-24T09:42:24Z</time>
      </trkpt>
      <trkpt lat="45.93674" lon="3.08797">
        <ele>371.68688964844</ele>
        <time>2010-04-24T09:42:29Z</time>
      </trkpt>
      <trkpt lat="45.93726" lon="3.0882">
        <ele>371.20629882812</ele>
        <time>2010-04-24T09:42:37Z</time>
      </trkpt>
      <trkpt lat="45.93745" lon="3.08826">
        <ele>371.20629882812</ele>
        <time>2010-04-24T09:42:40Z</time>
      </trkpt>
      <trkpt lat="45.9378" lon="3.08843">
        <ele>371.68688964844</ele>
        <time>2010-04-24T09:42:46Z</time>
      </trkpt>
      <trkpt lat="45.93803" lon="3.08855">
        <ele>371.68688964844</ele>
        <time>2010-04-24T09:42:50Z</time>
      </trkpt>
      <trkpt lat="45.93832" lon="3.08857">
        <ele>372.64819335938</ele>
        <time>2010-04-24T09:42:55Z</time>
      </trkpt>
      <trkpt lat="45.93884" lon="3.08852">
        <ele>374.09008789062</ele>
        <time>2010-04-24T09:43:04Z</time>
      </trkpt>
      <trkpt lat="45.93929" lon="3.08862">
        <ele>374.57080078125</ele>
        <time>2010-04-24T09:43:12Z</time>
      </trkpt>
      <trkpt lat="45.9395" lon="3.08864">
        <ele>375.53210449219</ele>
        <time>2010-04-24T09:43:16Z</time>
      </trkpt>
      <trkpt lat="45.9396" lon="3.08863">
        <ele>375.53210449219</ele>
        <time>2010-04-24T09:43:18Z</time>
      </trkpt>
      <trkpt lat="45.93976" lon="3.08848">
        <ele>378.41613769531</ele>
        <time>2010-04-24T09:43:23Z</time>
      </trkpt>
      <trkpt lat="45.93977" lon="3.08834">
        <ele>379.85803222656</ele>
        <time>2010-04-24T09:43:26Z</time>
      </trkpt>
      <trkpt lat="45.93972" lon="3.08798">
        <ele>381.78063964844</ele>
        <time>2010-04-24T09:43:35Z</time>
      </trkpt>
      <trkpt lat="45.93966" lon="3.08776">
        <ele>383.70324707031</ele>
        <time>2010-04-24T09:43:42Z</time>
      </trkpt>
      <trkpt lat="45.93959" lon="3.08755">
        <ele>386.10668945312</ele>
        <time>2010-04-24T09:43:50Z</time>
      </trkpt>
      <trkpt lat="45.93953" lon="3.08737">
        <ele>388.51000976562</ele>
        <time>2010-04-24T09:43:57Z</time>
      </trkpt>
      <trkpt lat="45.93945" lon="3.08718">
        <ele>391.39379882812</ele>
        <time>2010-04-24T09:44:05Z</time>
      </trkpt>
      <trkpt lat="45.93938" lon="3.08702">
        <ele>393.79724121094</ele>
        <time>2010-04-24T09:44:12Z</time>
      </trkpt>
      <trkpt lat="45.93937" lon="3.08699">
        <ele>393.79724121094</ele>
        <time>2010-04-24T09:44:13Z</time>
      </trkpt>
      <trkpt lat="45.93928" lon="3.08676">
        <ele>396.68115234375</ele>
        <time>2010-04-24T09:44:23Z</time>
      </trkpt>
      <trkpt lat="45.93923" lon="3.08655">
        <ele>399.56506347656</ele>
        <time>2010-04-24T09:44:32Z</time>
      </trkpt>
      <trkpt lat="45.93924" lon="3.08637">
        <ele>401.48779296875</ele>
        <time>2010-04-24T09:44:39Z</time>
      </trkpt>
      <trkpt lat="45.93924" lon="3.08632">
        <ele>402.9296875</ele>
        <time>2010-04-24T09:44:41Z</time>
      </trkpt>
      <trkpt lat="45.93923" lon="3.08627">
        <ele>403.89111328125</ele>
        <time>2010-04-24T09:44:43Z</time>
      </trkpt>
      <trkpt lat="45.93925" lon="3.0861">
        <ele>405.3330078125</ele>
        <time>2010-04-24T09:44:50Z</time>
      </trkpt>
      <trkpt lat="45.93926" lon="3.08605">
        <ele>406.29431152344</ele>
        <time>2010-04-24T09:44:52Z</time>
      </trkpt>
      <trkpt lat="45.93929" lon="3.08581">
        <ele>407.25561523438</ele>
        <time>2010-04-24T09:45:01Z</time>
      </trkpt>
      <trkpt lat="45.9393" lon="3.08557">
        <ele>409.17834472656</ele>
        <time>2010-04-24T09:45:09Z</time>
      </trkpt>
      <trkpt lat="45.93932" lon="3.08535">
        <ele>410.62023925781</ele>
        <time>2010-04-24T09:45:16Z</time>
      </trkpt>
      <trkpt lat="45.93932" lon="3.08511">
        <ele>411.58166503906</ele>
        <time>2010-04-24T09:45:24Z</time>
      </trkpt>
      <trkpt lat="45.93936" lon="3.08485">
        <ele>413.50427246094</ele>
        <time>2010-04-24T09:45:33Z</time>
      </trkpt>
      <trkpt lat="45.93943" lon="3.08463">
        <ele>415.90747070312</ele>
        <time>2010-04-24T09:45:41Z</time>
      </trkpt>
      <trkpt lat="45.9395" lon="3.08433">
        <ele>417.349609375</ele>
        <time>2010-04-24T09:45:51Z</time>
      </trkpt>
      <trkpt lat="45.93956" lon="3.08417">
        <ele>417.83020019531</ele>
        <time>2010-04-24T09:45:57Z</time>
      </trkpt>
      <trkpt lat="45.93962" lon="3.08393">
        <ele>420.71411132812</ele>
        <time>2010-04-24T09:46:06Z</time>
      </trkpt>
      <trkpt lat="45.93964" lon="3.08376">
        <ele>422.63671875</ele>
        <time>2010-04-24T09:46:13Z</time>
      </trkpt>
      <trkpt lat="45.93964" lon="3.08355">
        <ele>426.48205566406</ele>
        <time>2010-04-24T09:46:22Z</time>
      </trkpt>
      <trkpt lat="45.93964" lon="3.08352">
        <ele>426.96276855469</ele>
        <time>2010-04-24T09:46:23Z</time>
      </trkpt>
      <trkpt lat="45.93964" lon="3.08348">
        <ele>427.92395019531</ele>
        <time>2010-04-24T09:46:25Z</time>
      </trkpt>
      <trkpt lat="45.93962" lon="3.08331">
        <ele>429.36596679688</ele>
        <time>2010-04-24T09:46:32Z</time>
      </trkpt>
      <trkpt lat="45.93958" lon="3.08307">
        <ele>432.25</ele>
        <time>2010-04-24T09:46:42Z</time>
      </trkpt>
      <trkpt lat="45.93953" lon="3.08289">
        <ele>434.6533203125</ele>
        <time>2010-04-24T09:46:50Z</time>
      </trkpt>
      <trkpt lat="45.93948" lon="3.08272">
        <ele>437.537109375</ele>
        <time>2010-04-24T09:46:58Z</time>
      </trkpt>
      <trkpt lat="45.93943" lon="3.08258">
        <ele>438.97912597656</ele>
        <time>2010-04-24T09:47:05Z</time>
      </trkpt>
      <trkpt lat="45.93941" lon="3.08246">
        <ele>441.38244628906</ele>
        <time>2010-04-24T09:47:11Z</time>
      </trkpt>
      <trkpt lat="45.93939" lon="3.0823">
        <ele>442.82446289062</ele>
        <time>2010-04-24T09:47:19Z</time>
      </trkpt>
      <trkpt lat="45.93937" lon="3.08207">
        <ele>445.22766113281</ele>
        <time>2010-04-24T09:47:29Z</time>
      </trkpt>
      <trkpt lat="45.93937" lon="3.08188">
        <ele>447.63098144531</ele>
        <time>2010-04-24T09:47:37Z</time>
      </trkpt>
      <trkpt lat="45.93938" lon="3.08182">
        <ele>448.59240722656</ele>
        <time>2010-04-24T09:47:40Z</time>
      </trkpt>
      <trkpt lat="45.93939" lon="3.08166">
        <ele>450.03442382812</ele>
        <time>2010-04-24T09:47:47Z</time>
      </trkpt>
      <trkpt lat="45.93943" lon="3.08147">
        <ele>452.91821289062</ele>
        <time>2010-04-24T09:47:55Z</time>
      </trkpt>
      <trkpt lat="45.93948" lon="3.08129">
        <ele>455.32153320312</ele>
        <time>2010-04-24T09:48:03Z</time>
      </trkpt>
      <trkpt lat="45.93953" lon="3.08113">
        <ele>456.76354980469</ele>
        <time>2010-04-24T09:48:10Z</time>
      </trkpt>
      <trkpt lat="45.93959" lon="3.08097">
        <ele>458.68615722656</ele>
        <time>2010-04-24T09:48:17Z</time>
      </trkpt>
      <trkpt lat="45.93962" lon="3.08083">
        <ele>460.12817382812</ele>
        <time>2010-04-24T09:48:23Z</time>
      </trkpt>
      <trkpt lat="45.93966" lon="3.08067">
        <ele>462.05078125</ele>
        <time>2010-04-24T09:48:30Z</time>
      </trkpt>
      <trkpt lat="45.9397" lon="3.08047">
        <ele>463.97338867188</ele>
        <time>2010-04-24T09:48:38Z</time>
      </trkpt>
      <trkpt lat="45.93972" lon="3.08031">
        <ele>465.41552734375</ele>
        <time>2010-04-24T09:48:44Z</time>
      </trkpt>
      <trkpt lat="45.93974" lon="3.08008">
        <ele>467.33813476562</ele>
        <time>2010-04-24T09:48:52Z</time>
      </trkpt>
      <trkpt lat="45.93974" lon="3.07998">
        <ele>468.78002929688</ele>
        <time>2010-04-24T09:48:55Z</time>
      </trkpt>
      <trkpt lat="45.93973" lon="3.07975">
        <ele>470.70263671875</ele>
        <time>2010-04-24T09:49:03Z</time>
      </trkpt>
      <trkpt lat="45.9397" lon="3.07967">
        <ele>470.70263671875</ele>
        <time>2010-04-24T09:49:07Z</time>
      </trkpt>
      <trkpt lat="45.93972" lon="3.07952">
        <ele>471.18334960938</ele>
        <time>2010-04-24T09:49:13Z</time>
      </trkpt>
      <trkpt lat="45.93976" lon="3.0793">
        <ele>471.18334960938</ele>
        <time>2010-04-24T09:49:20Z</time>
      </trkpt>
      <trkpt lat="45.93979" lon="3.07906">
        <ele>473.58666992188</ele>
        <time>2010-04-24T09:49:29Z</time>
      </trkpt>
      <trkpt lat="45.93981" lon="3.0789">
        <ele>475.02868652344</ele>
        <time>2010-04-24T09:49:35Z</time>
      </trkpt>
      <trkpt lat="45.93984" lon="3.07863">
        <ele>477.43188476562</ele>
        <time>2010-04-24T09:49:45Z</time>
      </trkpt>
      <trkpt lat="45.93988" lon="3.07847">
        <ele>478.87390136719</ele>
        <time>2010-04-24T09:49:51Z</time>
      </trkpt>
      <trkpt lat="45.93996" lon="3.07823">
        <ele>480.31591796875</ele>
        <time>2010-04-24T09:50:00Z</time>
      </trkpt>
      <trkpt lat="45.94003" lon="3.07808">
        <ele>483.19982910156</ele>
        <time>2010-04-24T09:50:07Z</time>
      </trkpt>
      <trkpt lat="45.94012" lon="3.07787">
        <ele>486.08374023438</ele>
        <time>2010-04-24T09:50:16Z</time>
      </trkpt>
      <trkpt lat="45.94013" lon="3.07784">
        <ele>486.564453125</ele>
        <time>2010-04-24T09:50:17Z</time>
      </trkpt>
      <trkpt lat="45.94023" lon="3.07764">
        <ele>487.52563476562</ele>
        <time>2010-04-24T09:50:26Z</time>
      </trkpt>
      <trkpt lat="45.94031" lon="3.07746">
        <ele>490.40979003906</ele>
        <time>2010-04-24T09:50:34Z</time>
      </trkpt>
      <trkpt lat="45.94033" lon="3.07741">
        <ele>491.37097167969</ele>
        <time>2010-04-24T09:50:36Z</time>
      </trkpt>
      <trkpt lat="45.9404" lon="3.07719">
        <ele>493.29357910156</ele>
        <time>2010-04-24T09:50:45Z</time>
      </trkpt>
      <trkpt lat="45.94046" lon="3.07699">
        <ele>495.69689941406</ele>
        <time>2010-04-24T09:50:53Z</time>
      </trkpt>
      <trkpt lat="45.94049" lon="3.07682">
        <ele>496.65832519531</ele>
        <time>2010-04-24T09:51:00Z</time>
      </trkpt>
      <trkpt lat="45.9405" lon="3.07677">
        <ele>497.13891601562</ele>
        <time>2010-04-24T09:51:02Z</time>
      </trkpt>
      <trkpt lat="45.94049" lon="3.07668">
        <ele>497.13891601562</ele>
        <time>2010-04-24T09:51:08Z</time>
      </trkpt>
      <trkpt lat="45.94048" lon="3.07668">
        <ele>497.61962890625</ele>
        <time>2010-04-24T09:51:15Z</time>
      </trkpt>
      <trkpt lat="45.94048" lon="3.07667">
        <ele>497.61962890625</ele>
        <time>2010-04-24T09:51:20Z</time>
      </trkpt>
      <trkpt lat="45.94047" lon="3.07667">
        <ele>498.10034179688</ele>
        <time>2010-04-24T09:51:25Z</time>
      </trkpt>
      <trkpt lat="45.94047" lon="3.07667">
        <ele>498.10034179688</ele>
        <time>2010-04-24T09:51:30Z</time>
      </trkpt>
      <trkpt lat="45.94047" lon="3.07667">
        <ele>498.10034179688</ele>
        <time>2010-04-24T09:51:35Z</time>
      </trkpt>
      <trkpt lat="45.94046" lon="3.07667">
        <ele>498.10034179688</ele>
        <time>2010-04-24T09:51:42Z</time>
      </trkpt>
      <trkpt lat="45.94046" lon="3.07667">
        <ele>498.10034179688</ele>
        <time>2010-04-24T09:51:49Z</time>
      </trkpt>
      <trkpt lat="45.94046" lon="3.07665">
        <ele>497.61962890625</ele>
        <time>2010-04-24T09:51:51Z</time>
      </trkpt>
      <trkpt lat="45.94048" lon="3.07662">
        <ele>498.10034179688</ele>
        <time>2010-04-24T09:51:53Z</time>
      </trkpt>
      <trkpt lat="45.94048" lon="3.07651">
        <ele>499.0615234375</ele>
        <time>2010-04-24T09:51:58Z</time>
      </trkpt>
      <trkpt lat="45.9405" lon="3.07637">
        <ele>500.02294921875</ele>
        <time>2010-04-24T09:52:03Z</time>
      </trkpt>
      <trkpt lat="45.94051" lon="3.07629">
        <ele>500.02294921875</ele>
        <time>2010-04-24T09:52:06Z</time>
      </trkpt>
      <trkpt lat="45.94053" lon="3.07616">
        <ele>501.94555664062</ele>
        <time>2010-04-24T09:52:13Z</time>
      </trkpt>
      <trkpt lat="45.94054" lon="3.07605">
        <ele>502.42614746094</ele>
        <time>2010-04-24T09:52:18Z</time>
      </trkpt>
      <trkpt lat="45.94054" lon="3.076">
        <ele>502.42614746094</ele>
        <time>2010-04-24T09:52:20Z</time>
      </trkpt>
      <trkpt lat="45.9406" lon="3.07579">
        <ele>504.34887695312</ele>
        <time>2010-04-24T09:52:28Z</time>
      </trkpt>
      <trkpt lat="45.94064" lon="3.0756">
        <ele>505.31018066406</ele>
        <time>2010-04-24T09:52:34Z</time>
      </trkpt>
      <trkpt lat="45.94065" lon="3.07546">
        <ele>506.271484375</ele>
        <time>2010-04-24T09:52:39Z</time>
      </trkpt>
      <trkpt lat="45.94067" lon="3.07525">
        <ele>507.71350097656</ele>
        <time>2010-04-24T09:52:46Z</time>
      </trkpt>
      <trkpt lat="45.94069" lon="3.07496">
        <ele>509.15539550781</ele>
        <time>2010-04-24T09:52:55Z</time>
      </trkpt>
      <trkpt lat="45.9407" lon="3.07474">
        <ele>510.11669921875</ele>
        <time>2010-04-24T09:53:02Z</time>
      </trkpt>
      <trkpt lat="45.9407" lon="3.07463">
        <ele>510.59729003906</ele>
        <time>2010-04-24T09:53:07Z</time>
      </trkpt>
      <trkpt lat="45.94069" lon="3.07451">
        <ele>511.55871582031</ele>
        <time>2010-04-24T09:53:13Z</time>
      </trkpt>
      <trkpt lat="45.94069" lon="3.07446">
        <ele>512.52001953125</ele>
        <time>2010-04-24T09:53:15Z</time>
      </trkpt>
      <trkpt lat="45.94069" lon="3.07429">
        <ele>513.4814453125</ele>
        <time>2010-04-24T09:53:21Z</time>
      </trkpt>
      <trkpt lat="45.9407" lon="3.07403">
        <ele>513.96203613281</ele>
        <time>2010-04-24T09:53:29Z</time>
      </trkpt>
      <trkpt lat="45.94069" lon="3.07368">
        <ele>515.40405273438</ele>
        <time>2010-04-24T09:53:39Z</time>
      </trkpt>
      <trkpt lat="45.94065" lon="3.07326">
        <ele>518.28784179688</ele>
        <time>2010-04-24T09:53:51Z</time>
      </trkpt>
      <trkpt lat="45.94062" lon="3.07296">
        <ele>518.7685546875</ele>
        <time>2010-04-24T09:54:00Z</time>
      </trkpt>
      <trkpt lat="45.94063" lon="3.07267">
        <ele>520.21057128906</ele>
        <time>2010-04-24T09:54:08Z</time>
      </trkpt>
      <trkpt lat="45.94067" lon="3.07242">
        <ele>523.09460449219</ele>
        <time>2010-04-24T09:54:16Z</time>
      </trkpt>
      <trkpt lat="45.94069" lon="3.07221">
        <ele>523.5751953125</ele>
        <time>2010-04-24T09:54:23Z</time>
      </trkpt>
      <trkpt lat="45.94071" lon="3.0721">
        <ele>525.01721191406</ele>
        <time>2010-04-24T09:54:27Z</time>
      </trkpt>
      <trkpt lat="45.94073" lon="3.07196">
        <ele>526.93981933594</ele>
        <time>2010-04-24T09:54:32Z</time>
      </trkpt>
      <trkpt lat="45.94073" lon="3.0718">
        <ele>528.86254882812</ele>
        <time>2010-04-24T09:54:38Z</time>
      </trkpt>
      <trkpt lat="45.94076" lon="3.07169">
        <ele>530.30444335938</ele>
        <time>2010-04-24T09:54:42Z</time>
      </trkpt>
      <trkpt lat="45.94081" lon="3.07146">
        <ele>532.70776367188</ele>
        <time>2010-04-24T09:54:51Z</time>
      </trkpt>
      <trkpt lat="45.94085" lon="3.07127">
        <ele>535.59155273438</ele>
        <time>2010-04-24T09:54:58Z</time>
      </trkpt>
      <trkpt lat="45.94086" lon="3.07104">
        <ele>537.03369140625</ele>
        <time>2010-04-24T09:55:06Z</time>
      </trkpt>
      <trkpt lat="45.94082" lon="3.07076">
        <ele>538.95629882812</ele>
        <time>2010-04-24T09:55:15Z</time>
      </trkpt>
      <trkpt lat="45.94079" lon="3.07049">
        <ele>539.91760253906</ele>
        <time>2010-04-24T09:55:23Z</time>
      </trkpt>
      <trkpt lat="45.94075" lon="3.07025">
        <ele>539.91760253906</ele>
        <time>2010-04-24T09:55:29Z</time>
      </trkpt>
      <trkpt lat="45.94071" lon="3.06986">
        <ele>539.91760253906</ele>
        <time>2010-04-24T09:55:38Z</time>
      </trkpt>
      <trkpt lat="45.94069" lon="3.06948">
        <ele>541.84020996094</ele>
        <time>2010-04-24T09:55:46Z</time>
      </trkpt>
      <trkpt lat="45.94069" lon="3.06903">
        <ele>543.28210449219</ele>
        <time>2010-04-24T09:55:56Z</time>
      </trkpt>
      <trkpt lat="45.94071" lon="3.0686">
        <ele>545.20483398438</ele>
        <time>2010-04-24T09:56:06Z</time>
      </trkpt>
      <trkpt lat="45.94076" lon="3.06827">
        <ele>547.60815429688</ele>
        <time>2010-04-24T09:56:14Z</time>
      </trkpt>
      <trkpt lat="45.94085" lon="3.06801">
        <ele>549.05004882812</ele>
        <time>2010-04-24T09:56:21Z</time>
      </trkpt>
      <trkpt lat="45.9409" lon="3.06786">
        <ele>550.01147460938</ele>
        <time>2010-04-24T09:56:25Z</time>
      </trkpt>
      <trkpt lat="45.94098" lon="3.06744">
        <ele>551.45336914062</ele>
        <time>2010-04-24T09:56:35Z</time>
      </trkpt>
      <trkpt lat="45.94101" lon="3.06714">
        <ele>551.93408203125</ele>
        <time>2010-04-24T09:56:41Z</time>
      </trkpt>
      <trkpt lat="45.94102" lon="3.0668">
        <ele>552.41455078125</ele>
        <time>2010-04-24T09:56:47Z</time>
      </trkpt>
      <trkpt lat="45.94105" lon="3.06639">
        <ele>553.3759765625</ele>
        <time>2010-04-24T09:56:55Z</time>
      </trkpt>
      <trkpt lat="45.94109" lon="3.06591">
        <ele>554.81787109375</ele>
        <time>2010-04-24T09:57:05Z</time>
      </trkpt>
      <trkpt lat="45.94114" lon="3.06565">
        <ele>556.26000976562</ele>
        <time>2010-04-24T09:57:11Z</time>
      </trkpt>
      <trkpt lat="45.94116" lon="3.06535">
        <ele>557.7021484375</ele>
        <time>2010-04-24T09:57:19Z</time>
      </trkpt>
      <trkpt lat="45.94115" lon="3.06508">
        <ele>559.14404296875</ele>
        <time>2010-04-24T09:57:27Z</time>
      </trkpt>
      <trkpt lat="45.94114" lon="3.06486">
        <ele>562.02807617188</ele>
        <time>2010-04-24T09:57:34Z</time>
      </trkpt>
      <trkpt lat="45.9411" lon="3.06464">
        <ele>563.46997070312</ele>
        <time>2010-04-24T09:57:42Z</time>
      </trkpt>
      <trkpt lat="45.94109" lon="3.06448">
        <ele>564.43115234375</ele>
        <time>2010-04-24T09:57:48Z</time>
      </trkpt>
      <trkpt lat="45.94112" lon="3.06424">
        <ele>567.31518554688</ele>
        <time>2010-04-24T09:57:57Z</time>
      </trkpt>
      <trkpt lat="45.94115" lon="3.06409">
        <ele>569.71850585938</ele>
        <time>2010-04-24T09:58:03Z</time>
      </trkpt>
      <trkpt lat="45.94126" lon="3.06386">
        <ele>571.16040039062</ele>
        <time>2010-04-24T09:58:13Z</time>
      </trkpt>
      <trkpt lat="45.94133" lon="3.06377">
        <ele>572.12182617188</ele>
        <time>2010-04-24T09:58:18Z</time>
      </trkpt>
      <trkpt lat="45.94141" lon="3.06362">
        <ele>573.08325195312</ele>
        <time>2010-04-24T09:58:25Z</time>
      </trkpt>
      <trkpt lat="45.94144" lon="3.06341">
        <ele>574.52514648438</ele>
        <time>2010-04-24T09:58:32Z</time>
      </trkpt>
      <trkpt lat="45.94143" lon="3.06316">
        <ele>575.005859375</ele>
        <time>2010-04-24T09:58:40Z</time>
      </trkpt>
      <trkpt lat="45.94141" lon="3.06297">
        <ele>575.96704101562</ele>
        <time>2010-04-24T09:58:46Z</time>
      </trkpt>
      <trkpt lat="45.94138" lon="3.06267">
        <ele>578.85107421875</ele>
        <time>2010-04-24T09:58:55Z</time>
      </trkpt>
      <trkpt lat="45.94138" lon="3.06264">
        <ele>578.85107421875</ele>
        <time>2010-04-24T09:58:56Z</time>
      </trkpt>
      <trkpt lat="45.94139" lon="3.0624">
        <ele>579.33154296875</ele>
        <time>2010-04-24T09:59:03Z</time>
      </trkpt>
      <trkpt lat="45.94138" lon="3.06217">
        <ele>580.77368164062</ele>
        <time>2010-04-24T09:59:10Z</time>
      </trkpt>
      <trkpt lat="45.94137" lon="3.06192">
        <ele>583.1767578125</ele>
        <time>2010-04-24T09:59:18Z</time>
      </trkpt>
      <trkpt lat="45.94135" lon="3.0617">
        <ele>584.61889648438</ele>
        <time>2010-04-24T09:59:26Z</time>
      </trkpt>
      <trkpt lat="45.94132" lon="3.06149">
        <ele>587.50268554688</ele>
        <time>2010-04-24T09:59:33Z</time>
      </trkpt>
      <trkpt lat="45.94127" lon="3.06124">
        <ele>589.90625</ele>
        <time>2010-04-24T09:59:41Z</time>
      </trkpt>
      <trkpt lat="45.94123" lon="3.0611">
        <ele>590.86743164062</ele>
        <time>2010-04-24T09:59:46Z</time>
      </trkpt>
      <trkpt lat="45.94118" lon="3.06089">
        <ele>592.79028320312</ele>
        <time>2010-04-24T09:59:53Z</time>
      </trkpt>
      <trkpt lat="45.94114" lon="3.06065">
        <ele>594.23217773438</ele>
        <time>2010-04-24T10:00:01Z</time>
      </trkpt>
      <trkpt lat="45.9411" lon="3.06046">
        <ele>595.193359375</ele>
        <time>2010-04-24T10:00:07Z</time>
      </trkpt>
      <trkpt lat="45.94109" lon="3.06019">
        <ele>596.63549804688</ele>
        <time>2010-04-24T10:00:15Z</time>
      </trkpt>
      <trkpt lat="45.94106" lon="3.05996">
        <ele>598.07739257812</ele>
        <time>2010-04-24T10:00:22Z</time>
      </trkpt>
      <trkpt lat="45.94101" lon="3.05974">
        <ele>599.03857421875</ele>
        <time>2010-04-24T10:00:29Z</time>
      </trkpt>
      <trkpt lat="45.94097" lon="3.05955">
        <ele>600.48071289062</ele>
        <time>2010-04-24T10:00:35Z</time>
      </trkpt>
      <trkpt lat="45.94096" lon="3.05933">
        <ele>601.44189453125</ele>
        <time>2010-04-24T10:00:42Z</time>
      </trkpt>
      <trkpt lat="45.94094" lon="3.05903">
        <ele>603.36450195312</ele>
        <time>2010-04-24T10:00:51Z</time>
      </trkpt>
      <trkpt lat="45.94089" lon="3.05879">
        <ele>605.28735351562</ele>
        <time>2010-04-24T10:00:59Z</time>
      </trkpt>
      <trkpt lat="45.94084" lon="3.05861">
        <ele>606.24853515625</ele>
        <time>2010-04-24T10:01:05Z</time>
      </trkpt>
      <trkpt lat="45.94078" lon="3.05845">
        <ele>608.17138671875</ele>
        <time>2010-04-24T10:01:11Z</time>
      </trkpt>
      <trkpt lat="45.94073" lon="3.05827">
        <ele>609.61328125</ele>
        <time>2010-04-24T10:01:18Z</time>
      </trkpt>
      <trkpt lat="45.94067" lon="3.05805">
        <ele>611.05517578125</ele>
        <time>2010-04-24T10:01:26Z</time>
      </trkpt>
      <trkpt lat="45.94061" lon="3.05785">
        <ele>612.97778320312</ele>
        <time>2010-04-24T10:01:33Z</time>
      </trkpt>
      <trkpt lat="45.94056" lon="3.05767">
        <ele>614.41967773438</ele>
        <time>2010-04-24T10:01:39Z</time>
      </trkpt>
      <trkpt lat="45.94048" lon="3.05744">
        <ele>615.86181640625</ele>
        <time>2010-04-24T10:01:47Z</time>
      </trkpt>
      <trkpt lat="45.94043" lon="3.0572">
        <ele>617.3037109375</ele>
        <time>2010-04-24T10:01:54Z</time>
      </trkpt>
      <trkpt lat="45.94036" lon="3.05695">
        <ele>619.22631835938</ele>
        <time>2010-04-24T10:02:01Z</time>
      </trkpt>
      <trkpt lat="45.9403" lon="3.05671">
        <ele>620.66845703125</ele>
        <time>2010-04-24T10:02:08Z</time>
      </trkpt>
      <trkpt lat="45.94023" lon="3.05651">
        <ele>621.62963867188</ele>
        <time>2010-04-24T10:02:14Z</time>
      </trkpt>
      <trkpt lat="45.94016" lon="3.05628">
        <ele>622.1103515625</ele>
        <time>2010-04-24T10:02:20Z</time>
      </trkpt>
      <trkpt lat="45.94007" lon="3.056">
        <ele>624.03295898438</ele>
        <time>2010-04-24T10:02:27Z</time>
      </trkpt>
      <trkpt lat="45.94004" lon="3.05575">
        <ele>625.95556640625</ele>
        <time>2010-04-24T10:02:34Z</time>
      </trkpt>
      <trkpt lat="45.94003" lon="3.05572">
        <ele>625.95556640625</ele>
        <time>2010-04-24T10:02:39Z</time>
      </trkpt>
      <trkpt lat="45.94003" lon="3.05571">
        <ele>625.95556640625</ele>
        <time>2010-04-24T10:02:45Z</time>
      </trkpt>
      <trkpt lat="45.94003" lon="3.05572">
        <ele>625.95556640625</ele>
        <time>2010-04-24T10:02:50Z</time>
      </trkpt>
      <trkpt lat="45.94002" lon="3.05573">
        <ele>625.95556640625</ele>
        <time>2010-04-24T10:03:02Z</time>
      </trkpt>
      <trkpt lat="45.94003" lon="3.05574">
        <ele>625.47485351562</ele>
        <time>2010-04-24T10:03:18Z</time>
      </trkpt>
      <trkpt lat="45.94004" lon="3.05574">
        <ele>625.47485351562</ele>
        <time>2010-04-24T10:03:26Z</time>
      </trkpt>
      <trkpt lat="45.94004" lon="3.05574">
        <ele>625.47485351562</ele>
        <time>2010-04-24T10:03:29Z</time>
      </trkpt>
      <trkpt lat="45.94003" lon="3.0557">
        <ele>625.95556640625</ele>
        <time>2010-04-24T10:03:41Z</time>
      </trkpt>
      <trkpt lat="45.94004" lon="3.05572">
        <ele>625.95556640625</ele>
        <time>2010-04-24T10:03:51Z</time>
      </trkpt>
      <trkpt lat="45.94004" lon="3.05572">
        <ele>625.95556640625</ele>
        <time>2010-04-24T10:04:01Z</time>
      </trkpt>
      <trkpt lat="45.94005" lon="3.05573">
        <ele>625.95556640625</ele>
        <time>2010-04-24T10:04:22Z</time>
      </trkpt>
      <trkpt lat="45.94004" lon="3.05574">
        <ele>625.95556640625</ele>
        <time>2010-04-24T10:04:39Z</time>
      </trkpt>
      <trkpt lat="45.94003" lon="3.05558">
        <ele>625.47485351562</ele>
        <time>2010-04-24T10:04:45Z</time>
      </trkpt>
      <trkpt lat="45.94" lon="3.05549">
        <ele>624.513671875</ele>
        <time>2010-04-24T10:04:47Z</time>
      </trkpt>
      <trkpt lat="45.93996" lon="3.05533">
        <ele>624.99438476562</ele>
        <time>2010-04-24T10:04:50Z</time>
      </trkpt>
      <trkpt lat="45.93995" lon="3.05527">
        <ele>624.513671875</ele>
        <time>2010-04-24T10:04:51Z</time>
      </trkpt>
      <trkpt lat="45.93985" lon="3.05496">
        <ele>623.07177734375</ele>
        <time>2010-04-24T10:04:56Z</time>
      </trkpt>
      <trkpt lat="45.93973" lon="3.05462">
        <ele>622.1103515625</ele>
        <time>2010-04-24T10:05:01Z</time>
      </trkpt>
      <trkpt lat="45.93968" lon="3.05448">
        <ele>620.66845703125</ele>
        <time>2010-04-24T10:05:03Z</time>
      </trkpt>
      <trkpt lat="45.93962" lon="3.05433">
        <ele>620.18774414062</ele>
        <time>2010-04-24T10:05:05Z</time>
      </trkpt>
      <trkpt lat="45.93959" lon="3.05425">
        <ele>619.70703125</ele>
        <time>2010-04-24T10:05:06Z</time>
      </trkpt>
      <trkpt lat="45.9395" lon="3.05379">
        <ele>620.18774414062</ele>
        <time>2010-04-24T10:05:11Z</time>
      </trkpt>
      <trkpt lat="45.93939" lon="3.05321">
        <ele>621.14916992188</ele>
        <time>2010-04-24T10:05:18Z</time>
      </trkpt>
      <trkpt lat="45.93936" lon="3.05306">
        <ele>621.62963867188</ele>
        <time>2010-04-24T10:05:20Z</time>
      </trkpt>
      <trkpt lat="45.93928" lon="3.0527">
        <ele>623.07177734375</ele>
        <time>2010-04-24T10:05:25Z</time>
      </trkpt>
      <trkpt lat="45.93927" lon="3.05251">
        <ele>623.55249023438</ele>
        <time>2010-04-24T10:05:28Z</time>
      </trkpt>
      <trkpt lat="45.93922" lon="3.05222">
        <ele>624.513671875</ele>
        <time>2010-04-24T10:05:33Z</time>
      </trkpt>
      <trkpt lat="45.93919" lon="3.05208">
        <ele>625.95556640625</ele>
        <time>2010-04-24T10:05:36Z</time>
      </trkpt>
      <trkpt lat="45.93914" lon="3.05188">
        <ele>627.39770507812</ele>
        <time>2010-04-24T10:05:41Z</time>
      </trkpt>
      <trkpt lat="45.93909" lon="3.05178">
        <ele>628.83959960938</ele>
        <time>2010-04-24T10:05:44Z</time>
      </trkpt>
      <trkpt lat="45.93902" lon="3.05159">
        <ele>630.28149414062</ele>
        <time>2010-04-24T10:05:50Z</time>
      </trkpt>
      <trkpt lat="45.93901" lon="3.05155">
        <ele>631.24291992188</ele>
        <time>2010-04-24T10:05:51Z</time>
      </trkpt>
      <trkpt lat="45.93892" lon="3.05152">
        <ele>630.28149414062</ele>
        <time>2010-04-24T10:05:56Z</time>
      </trkpt>
      <trkpt lat="45.93884" lon="3.0515">
        <ele>626.43627929688</ele>
        <time>2010-04-24T10:05:59Z</time>
      </trkpt>
      <trkpt lat="45.93865" lon="3.05134">
        <ele>624.03295898438</ele>
        <time>2010-04-24T10:06:03Z</time>
      </trkpt>
      <trkpt lat="45.93853" lon="3.05124">
        <ele>623.07177734375</ele>
        <time>2010-04-24T10:06:05Z</time>
      </trkpt>
      <trkpt lat="45.9383" lon="3.05123">
        <ele>619.70703125</ele>
        <time>2010-04-24T10:06:09Z</time>
      </trkpt>
      <trkpt lat="45.93824" lon="3.05126">
        <ele>618.26489257812</ele>
        <time>2010-04-24T10:06:10Z</time>
      </trkpt>
      <trkpt lat="45.93811" lon="3.05134">
        <ele>617.3037109375</ele>
        <time>2010-04-24T10:06:12Z</time>
      </trkpt>
      <trkpt lat="45.93783" lon="3.05149">
        <ele>613.45849609375</ele>
        <time>2010-04-24T10:06:16Z</time>
      </trkpt>
      <trkpt lat="45.93772" lon="3.05157">
        <ele>612.0166015625</ele>
        <time>2010-04-24T10:06:18Z</time>
      </trkpt>
      <trkpt lat="45.93756" lon="3.05154">
        <ele>609.13256835938</ele>
        <time>2010-04-24T10:06:22Z</time>
      </trkpt>
      <trkpt lat="45.93743" lon="3.05147">
        <ele>604.806640625</ele>
        <time>2010-04-24T10:06:25Z</time>
      </trkpt>
      <trkpt lat="45.93732" lon="3.05141">
        <ele>602.8837890625</ele>
        <time>2010-04-24T10:06:28Z</time>
      </trkpt>
      <trkpt lat="45.93725" lon="3.05134">
        <ele>600.48071289062</ele>
        <time>2010-04-24T10:06:31Z</time>
      </trkpt>
      <trkpt lat="45.93722" lon="3.05128">
        <ele>600</ele>
        <time>2010-04-24T10:06:33Z</time>
      </trkpt>
      <trkpt lat="45.93723" lon="3.05115">
        <ele>599.51928710938</ele>
        <time>2010-04-24T10:06:38Z</time>
      </trkpt>
      <trkpt lat="45.93729" lon="3.05101">
        <ele>600</ele>
        <time>2010-04-24T10:06:44Z</time>
      </trkpt>
      <trkpt lat="45.93731" lon="3.05095">
        <ele>600</ele>
        <time>2010-04-24T10:06:47Z</time>
      </trkpt>
      <trkpt lat="45.93731" lon="3.0509">
        <ele>599.51928710938</ele>
        <time>2010-04-24T10:06:49Z</time>
      </trkpt>
      <trkpt lat="45.93731" lon="3.05072">
        <ele>596.15478515625</ele>
        <time>2010-04-24T10:06:53Z</time>
      </trkpt>
      <trkpt lat="45.93728" lon="3.05031">
        <ele>593.75146484375</ele>
        <time>2010-04-24T10:06:58Z</time>
      </trkpt>
      <trkpt lat="45.93726" lon="3.05027">
        <ele>593.75146484375</ele>
        <time>2010-04-24T10:06:59Z</time>
      </trkpt>
      <trkpt lat="45.93724" lon="3.05023">
        <ele>594.71264648438</ele>
        <time>2010-04-24T10:07:00Z</time>
      </trkpt>
      <trkpt lat="45.93718" lon="3.05023">
        <ele>591.82885742188</ele>
        <time>2010-04-24T10:07:04Z</time>
      </trkpt>
      <trkpt lat="45.93717" lon="3.05024">
        <ele>591.34814453125</ele>
        <time>2010-04-24T10:07:05Z</time>
      </trkpt>
      <trkpt lat="45.93713" lon="3.05023">
        <ele>589.42553710938</ele>
        <time>2010-04-24T10:07:08Z</time>
      </trkpt>
      <trkpt lat="45.93707" lon="3.05014">
        <ele>587.9833984375</ele>
        <time>2010-04-24T10:07:11Z</time>
      </trkpt>
      <trkpt lat="45.93698" lon="3.04999">
        <ele>586.54150390625</ele>
        <time>2010-04-24T10:07:14Z</time>
      </trkpt>
      <trkpt lat="45.93696" lon="3.04996">
        <ele>586.54150390625</ele>
        <time>2010-04-24T10:07:15Z</time>
      </trkpt>
      <trkpt lat="45.93692" lon="3.04998">
        <ele>585.099609375</ele>
        <time>2010-04-24T10:07:20Z</time>
      </trkpt>
      <trkpt lat="45.93692" lon="3.05">
        <ele>585.580078125</ele>
        <time>2010-04-24T10:07:21Z</time>
      </trkpt>
      <trkpt lat="45.93697" lon="3.05017">
        <ele>584.61889648438</ele>
        <time>2010-04-24T10:07:27Z</time>
      </trkpt>
      <trkpt lat="45.93698" lon="3.05021">
        <ele>584.61889648438</ele>
        <time>2010-04-24T10:07:28Z</time>
      </trkpt>
      <trkpt lat="45.93697" lon="3.05031">
        <ele>583.1767578125</ele>
        <time>2010-04-24T10:07:31Z</time>
      </trkpt>
      <trkpt lat="45.93697" lon="3.05035">
        <ele>582.6962890625</ele>
        <time>2010-04-24T10:07:32Z</time>
      </trkpt>
      <trkpt lat="45.93689" lon="3.05051">
        <ele>580.77368164062</ele>
        <time>2010-04-24T10:07:36Z</time>
      </trkpt>
      <trkpt lat="45.93679" lon="3.05059">
        <ele>578.37036132812</ele>
        <time>2010-04-24T10:07:42Z</time>
      </trkpt>
      <trkpt lat="45.93677" lon="3.0506">
        <ele>577.4091796875</ele>
        <time>2010-04-24T10:07:43Z</time>
      </trkpt>
      <trkpt lat="45.93668" lon="3.05055">
        <ele>574.52514648438</ele>
        <time>2010-04-24T10:07:48Z</time>
      </trkpt>
      <trkpt lat="45.9366" lon="3.05052">
        <ele>573.08325195312</ele>
        <time>2010-04-24T10:07:51Z</time>
      </trkpt>
      <trkpt lat="45.93656" lon="3.05049">
        <ele>571.16040039062</ele>
        <time>2010-04-24T10:07:53Z</time>
      </trkpt>
      <trkpt lat="45.93639" lon="3.0505">
        <ele>568.75708007812</ele>
        <time>2010-04-24T10:07:57Z</time>
      </trkpt>
      <trkpt lat="45.93622" lon="3.05054">
        <ele>567.79565429688</ele>
        <time>2010-04-24T10:08:00Z</time>
      </trkpt>
      <trkpt lat="45.9361" lon="3.05058">
        <ele>565.87329101562</ele>
        <time>2010-04-24T10:08:02Z</time>
      </trkpt>
      <trkpt lat="45.93594" lon="3.05072">
        <ele>564.43115234375</ele>
        <time>2010-04-24T10:08:05Z</time>
      </trkpt>
      <trkpt lat="45.93576" lon="3.05106">
        <ele>562.02807617188</ele>
        <time>2010-04-24T10:08:09Z</time>
      </trkpt>
      <trkpt lat="45.93573" lon="3.05115">
        <ele>562.02807617188</ele>
        <time>2010-04-24T10:08:10Z</time>
      </trkpt>
      <trkpt lat="45.93567" lon="3.05165">
        <ele>561.54736328125</ele>
        <time>2010-04-24T10:08:15Z</time>
      </trkpt>
      <trkpt lat="45.93576" lon="3.05188">
        <ele>561.54736328125</ele>
        <time>2010-04-24T10:08:18Z</time>
      </trkpt>
      <trkpt lat="45.93596" lon="3.05215">
        <ele>562.50854492188</ele>
        <time>2010-04-24T10:08:23Z</time>
      </trkpt>
      <trkpt lat="45.93623" lon="3.05219">
        <ele>562.50854492188</ele>
        <time>2010-04-24T10:08:28Z</time>
      </trkpt>
      <trkpt lat="45.93641" lon="3.05219">
        <ele>562.50854492188</ele>
        <time>2010-04-24T10:08:31Z</time>
      </trkpt>
      <trkpt lat="45.93653" lon="3.0522">
        <ele>562.9892578125</ele>
        <time>2010-04-24T10:08:33Z</time>
      </trkpt>
      <trkpt lat="45.93678" lon="3.05238">
        <ele>562.02807617188</ele>
        <time>2010-04-24T10:08:38Z</time>
      </trkpt>
      <trkpt lat="45.93674" lon="3.05258">
        <ele>561.06665039062</ele>
        <time>2010-04-24T10:08:41Z</time>
      </trkpt>
      <trkpt lat="45.93654" lon="3.05294">
        <ele>560.5859375</ele>
        <time>2010-04-24T10:08:46Z</time>
      </trkpt>
      <trkpt lat="45.93651" lon="3.05303">
        <ele>560.5859375</ele>
        <time>2010-04-24T10:08:47Z</time>
      </trkpt>
      <trkpt lat="45.93639" lon="3.05331">
        <ele>559.14404296875</ele>
        <time>2010-04-24T10:08:50Z</time>
      </trkpt>
      <trkpt lat="45.93623" lon="3.05355">
        <ele>557.7021484375</ele>
        <time>2010-04-24T10:08:53Z</time>
      </trkpt>
      <trkpt lat="45.93602" lon="3.05392">
        <ele>556.26000976562</ele>
        <time>2010-04-24T10:08:57Z</time>
      </trkpt>
      <trkpt lat="45.93592" lon="3.05424">
        <ele>554.81787109375</ele>
        <time>2010-04-24T10:09:00Z</time>
      </trkpt>
      <trkpt lat="45.9359" lon="3.05436">
        <ele>554.81787109375</ele>
        <time>2010-04-24T10:09:01Z</time>
      </trkpt>
      <trkpt lat="45.93585" lon="3.0546">
        <ele>552.89526367188</ele>
        <time>2010-04-24T10:09:03Z</time>
      </trkpt>
      <trkpt lat="45.93588" lon="3.05505">
        <ele>552.41455078125</ele>
        <time>2010-04-24T10:09:07Z</time>
      </trkpt>
      <trkpt lat="45.93585" lon="3.0553">
        <ele>554.33740234375</ele>
        <time>2010-04-24T10:09:11Z</time>
      </trkpt>
      <trkpt lat="45.93572" lon="3.05527">
        <ele>551.45336914062</ele>
        <time>2010-04-24T10:09:13Z</time>
      </trkpt>
      <trkpt lat="45.93529" lon="3.055">
        <ele>548.5693359375</ele>
        <time>2010-04-24T10:09:19Z</time>
      </trkpt>
      <trkpt lat="45.93501" lon="3.05471">
        <ele>548.5693359375</ele>
        <time>2010-04-24T10:09:23Z</time>
      </trkpt>
      <trkpt lat="45.93471" lon="3.05468">
        <ele>547.12744140625</ele>
        <time>2010-04-24T10:09:27Z</time>
      </trkpt>
      <trkpt lat="45.93449" lon="3.05489">
        <ele>543.76281738281</ele>
        <time>2010-04-24T10:09:30Z</time>
      </trkpt>
      <trkpt lat="45.93443" lon="3.05499">
        <ele>543.28210449219</ele>
        <time>2010-04-24T10:09:31Z</time>
      </trkpt>
      <trkpt lat="45.93431" lon="3.05522">
        <ele>539.43688964844</ele>
        <time>2010-04-24T10:09:33Z</time>
      </trkpt>
      <trkpt lat="45.93421" lon="3.05545">
        <ele>537.99499511719</ele>
        <time>2010-04-24T10:09:35Z</time>
      </trkpt>
      <trkpt lat="45.93407" lon="3.05573">
        <ele>538.95629882812</ele>
        <time>2010-04-24T10:09:38Z</time>
      </trkpt>
      <trkpt lat="45.93394" lon="3.05585">
        <ele>537.99499511719</ele>
        <time>2010-04-24T10:09:40Z</time>
      </trkpt>
      <trkpt lat="45.93381" lon="3.05596">
        <ele>535.59155273438</ele>
        <time>2010-04-24T10:09:42Z</time>
      </trkpt>
      <trkpt lat="45.93367" lon="3.0561">
        <ele>534.63037109375</ele>
        <time>2010-04-24T10:09:44Z</time>
      </trkpt>
      <trkpt lat="45.93349" lon="3.05638">
        <ele>532.22705078125</ele>
        <time>2010-04-24T10:09:47Z</time>
      </trkpt>
      <trkpt lat="45.93325" lon="3.05676">
        <ele>527.90100097656</ele>
        <time>2010-04-24T10:09:51Z</time>
      </trkpt>
      <trkpt lat="45.93312" lon="3.05726">
        <ele>526.93981933594</ele>
        <time>2010-04-24T10:09:55Z</time>
      </trkpt>
      <trkpt lat="45.9331" lon="3.05764">
        <ele>524.53649902344</ele>
        <time>2010-04-24T10:09:58Z</time>
      </trkpt>
      <trkpt lat="45.93301" lon="3.05808">
        <ele>523.5751953125</ele>
        <time>2010-04-24T10:10:02Z</time>
      </trkpt>
      <trkpt lat="45.93288" lon="3.05819">
        <ele>523.09460449219</ele>
        <time>2010-04-24T10:10:04Z</time>
      </trkpt>
      <trkpt lat="45.93253" lon="3.05847">
        <ele>518.28784179688</ele>
        <time>2010-04-24T10:10:09Z</time>
      </trkpt>
      <trkpt lat="45.93247" lon="3.05858">
        <ele>516.84594726562</ele>
        <time>2010-04-24T10:10:10Z</time>
      </trkpt>
      <trkpt lat="45.93221" lon="3.05905">
        <ele>510.11669921875</ele>
        <time>2010-04-24T10:10:14Z</time>
      </trkpt>
      <trkpt lat="45.93201" lon="3.05941">
        <ele>508.19409179688</ele>
        <time>2010-04-24T10:10:17Z</time>
      </trkpt>
      <trkpt lat="45.93191" lon="3.05963">
        <ele>506.75207519531</ele>
        <time>2010-04-24T10:10:19Z</time>
      </trkpt>
      <trkpt lat="45.93185" lon="3.05987">
        <ele>506.271484375</ele>
        <time>2010-04-24T10:10:21Z</time>
      </trkpt>
      <trkpt lat="45.93182" lon="3.0604">
        <ele>501.94555664062</ele>
        <time>2010-04-24T10:10:25Z</time>
      </trkpt>
      <trkpt lat="45.93182" lon="3.0608">
        <ele>499.54223632812</ele>
        <time>2010-04-24T10:10:28Z</time>
      </trkpt>
      <trkpt lat="45.93187" lon="3.06118">
        <ele>495.21618652344</ele>
        <time>2010-04-24T10:10:31Z</time>
      </trkpt>
      <trkpt lat="45.93193" lon="3.0616">
        <ele>490.40979003906</ele>
        <time>2010-04-24T10:10:35Z</time>
      </trkpt>
      <trkpt lat="45.93196" lon="3.06181">
        <ele>488.9677734375</ele>
        <time>2010-04-24T10:10:37Z</time>
      </trkpt>
      <trkpt lat="45.93203" lon="3.06218">
        <ele>481.7578125</ele>
        <time>2010-04-24T10:10:40Z</time>
      </trkpt>
      <trkpt lat="45.93205" lon="3.06231">
        <ele>481.7578125</ele>
        <time>2010-04-24T10:10:41Z</time>
      </trkpt>
      <trkpt lat="45.9321" lon="3.06266">
        <ele>480.31591796875</ele>
        <time>2010-04-24T10:10:44Z</time>
      </trkpt>
      <trkpt lat="45.93214" lon="3.06298">
        <ele>475.02868652344</ele>
        <time>2010-04-24T10:10:47Z</time>
      </trkpt>
      <trkpt lat="45.93218" lon="3.06344">
        <ele>472.14465332031</ele>
        <time>2010-04-24T10:10:51Z</time>
      </trkpt>
      <trkpt lat="45.93227" lon="3.06372">
        <ele>469.74133300781</ele>
        <time>2010-04-24T10:10:54Z</time>
      </trkpt>
      <trkpt lat="45.9324" lon="3.06391">
        <ele>468.29931640625</ele>
        <time>2010-04-24T10:10:57Z</time>
      </trkpt>
      <trkpt lat="45.93247" lon="3.06399">
        <ele>467.33813476562</ele>
        <time>2010-04-24T10:10:59Z</time>
      </trkpt>
      <trkpt lat="45.93242" lon="3.06407">
        <ele>466.37670898438</ele>
        <time>2010-04-24T10:11:03Z</time>
      </trkpt>
      <trkpt lat="45.93236" lon="3.06402">
        <ele>465.89611816406</ele>
        <time>2010-04-24T10:11:05Z</time>
      </trkpt>
      <trkpt lat="45.93217" lon="3.06384">
        <ele>463.97338867188</ele>
        <time>2010-04-24T10:11:09Z</time>
      </trkpt>
      <trkpt lat="45.93213" lon="3.06379">
        <ele>463.49279785156</ele>
        <time>2010-04-24T10:11:10Z</time>
      </trkpt>
      <trkpt lat="45.93193" lon="3.06336">
        <ele>460.12817382812</ele>
        <time>2010-04-24T10:11:15Z</time>
      </trkpt>
      <trkpt lat="45.93174" lon="3.06281">
        <ele>456.28295898438</ele>
        <time>2010-04-24T10:11:20Z</time>
      </trkpt>
      <trkpt lat="45.93171" lon="3.06269">
        <ele>454.36022949219</ele>
        <time>2010-04-24T10:11:21Z</time>
      </trkpt>
      <trkpt lat="45.93161" lon="3.06248">
        <ele>452.91821289062</ele>
        <time>2010-04-24T10:11:23Z</time>
      </trkpt>
      <trkpt lat="45.93145" lon="3.06218">
        <ele>450.99560546875</ele>
        <time>2010-04-24T10:11:26Z</time>
      </trkpt>
      <trkpt lat="45.93127" lon="3.06187">
        <ele>449.07299804688</ele>
        <time>2010-04-24T10:11:29Z</time>
      </trkpt>
      <trkpt lat="45.9311" lon="3.06126">
        <ele>447.15026855469</ele>
        <time>2010-04-24T10:11:34Z</time>
      </trkpt>
      <trkpt lat="45.93103" lon="3.06073">
        <ele>449.07299804688</ele>
        <time>2010-04-24T10:11:39Z</time>
      </trkpt>
      <trkpt lat="45.93099" lon="3.06049">
        <ele>447.63098144531</ele>
        <time>2010-04-24T10:11:43Z</time>
      </trkpt>
      <trkpt lat="45.93094" lon="3.06054">
        <ele>446.18908691406</ele>
        <time>2010-04-24T10:11:47Z</time>
      </trkpt>
      <trkpt lat="45.93095" lon="3.06065">
        <ele>445.70837402344</ele>
        <time>2010-04-24T10:11:49Z</time>
      </trkpt>
      <trkpt lat="45.93099" lon="3.06098">
        <ele>443.30505371094</ele>
        <time>2010-04-24T10:11:54Z</time>
      </trkpt>
      <trkpt lat="45.93106" lon="3.06151">
        <ele>440.90185546875</ele>
        <time>2010-04-24T10:12:00Z</time>
      </trkpt>
      <trkpt lat="45.93117" lon="3.06203">
        <ele>438.97912597656</ele>
        <time>2010-04-24T10:12:06Z</time>
      </trkpt>
      <trkpt lat="45.93113" lon="3.06233">
        <ele>436.57592773438</ele>
        <time>2010-04-24T10:12:10Z</time>
      </trkpt>
      <trkpt lat="45.93103" lon="3.06254">
        <ele>435.13391113281</ele>
        <time>2010-04-24T10:12:13Z</time>
      </trkpt>
      <trkpt lat="45.931" lon="3.0626">
        <ele>435.61450195312</ele>
        <time>2010-04-24T10:12:14Z</time>
      </trkpt>
      <trkpt lat="45.9309" lon="3.0627">
        <ele>437.05651855469</ele>
        <time>2010-04-24T10:12:17Z</time>
      </trkpt>
      <trkpt lat="45.93085" lon="3.06271">
        <ele>437.537109375</ele>
        <time>2010-04-24T10:12:21Z</time>
      </trkpt>
      <trkpt lat="45.93081" lon="3.06272">
        <ele>438.49853515625</ele>
        <time>2010-04-24T10:12:24Z</time>
      </trkpt>
      <trkpt lat="45.93075" lon="3.06264">
        <ele>438.97912597656</ele>
        <time>2010-04-24T10:12:29Z</time>
      </trkpt>
      <trkpt lat="45.93074" lon="3.06261">
        <ele>439.45971679688</ele>
        <time>2010-04-24T10:12:30Z</time>
      </trkpt>
      <trkpt lat="45.93068" lon="3.06249">
        <ele>440.42126464844</ele>
        <time>2010-04-24T10:12:36Z</time>
      </trkpt>
      <trkpt lat="45.93066" lon="3.06246">
        <ele>439.9404296875</ele>
        <time>2010-04-24T10:12:38Z</time>
      </trkpt>
      <trkpt lat="45.93063" lon="3.06241">
        <ele>441.86315917969</ele>
        <time>2010-04-24T10:12:43Z</time>
      </trkpt>
      <trkpt lat="45.93056" lon="3.0624">
        <ele>443.78576660156</ele>
        <time>2010-04-24T10:12:47Z</time>
      </trkpt>
      <trkpt lat="45.93052" lon="3.06238">
        <ele>444.7470703125</ele>
        <time>2010-04-24T10:12:49Z</time>
      </trkpt>
      <trkpt lat="45.9305" lon="3.06237">
        <ele>444.7470703125</ele>
        <time>2010-04-24T10:12:50Z</time>
      </trkpt>
      <trkpt lat="45.93049" lon="3.06234">
        <ele>445.22766113281</ele>
        <time>2010-04-24T10:12:55Z</time>
      </trkpt>
      <trkpt lat="45.93052" lon="3.06233">
        <ele>445.22766113281</ele>
        <time>2010-04-24T10:13:06Z</time>
      </trkpt>
      <trkpt lat="45.93052" lon="3.06231">
        <ele>445.70837402344</ele>
        <time>2010-04-24T10:13:11Z</time>
      </trkpt>
      <trkpt lat="45.93051" lon="3.0623">
        <ele>444.7470703125</ele>
        <time>2010-04-24T10:13:21Z</time>
      </trkpt>
      <trkpt lat="45.93055" lon="3.06229">
        <ele>445.22766113281</ele>
        <time>2010-04-24T10:13:40Z</time>
      </trkpt>
      <trkpt lat="45.93053" lon="3.06227">
        <ele>444.7470703125</ele>
        <time>2010-04-24T10:13:52Z</time>
      </trkpt>
      <trkpt lat="45.93055" lon="3.06223">
        <ele>444.7470703125</ele>
        <time>2010-04-24T10:13:57Z</time>
      </trkpt>
      <trkpt lat="45.93056" lon="3.0622">
        <ele>445.22766113281</ele>
        <time>2010-04-24T10:13:59Z</time>
      </trkpt>
      <trkpt lat="45.93055" lon="3.06201">
        <ele>444.26647949219</ele>
        <time>2010-04-24T10:14:06Z</time>
      </trkpt>
      <trkpt lat="45.93053" lon="3.06184">
        <ele>443.30505371094</ele>
        <time>2010-04-24T10:14:10Z</time>
      </trkpt>
      <trkpt lat="45.93053" lon="3.06173">
        <ele>443.30505371094</ele>
        <time>2010-04-24T10:14:12Z</time>
      </trkpt>
      <trkpt lat="45.93049" lon="3.06137">
        <ele>439.45971679688</ele>
        <time>2010-04-24T10:14:17Z</time>
      </trkpt>
      <trkpt lat="45.93048" lon="3.06129">
        <ele>439.9404296875</ele>
        <time>2010-04-24T10:14:18Z</time>
      </trkpt>
      <trkpt lat="45.93046" lon="3.06103">
        <ele>438.49853515625</ele>
        <time>2010-04-24T10:14:21Z</time>
      </trkpt>
      <trkpt lat="45.93044" lon="3.06083">
        <ele>436.57592773438</ele>
        <time>2010-04-24T10:14:23Z</time>
      </trkpt>
      <trkpt lat="45.93041" lon="3.06056">
        <ele>438.97912597656</ele>
        <time>2010-04-24T10:14:26Z</time>
      </trkpt>
      <trkpt lat="45.93042" lon="3.0602">
        <ele>437.537109375</ele>
        <time>2010-04-24T10:14:31Z</time>
      </trkpt>
      <trkpt lat="45.93047" lon="3.05975">
        <ele>439.45971679688</ele>
        <time>2010-04-24T10:14:37Z</time>
      </trkpt>
      <trkpt lat="45.93048" lon="3.05947">
        <ele>441.38244628906</ele>
        <time>2010-04-24T10:14:41Z</time>
      </trkpt>
      <trkpt lat="45.9305" lon="3.05927">
        <ele>441.86315917969</ele>
        <time>2010-04-24T10:14:44Z</time>
      </trkpt>
      <trkpt lat="45.93051" lon="3.0591">
        <ele>442.82446289062</ele>
        <time>2010-04-24T10:14:47Z</time>
      </trkpt>
      <trkpt lat="45.93054" lon="3.05901">
        <ele>444.26647949219</ele>
        <time>2010-04-24T10:14:49Z</time>
      </trkpt>
      <trkpt lat="45.93055" lon="3.05897">
        <ele>444.7470703125</ele>
        <time>2010-04-24T10:14:50Z</time>
      </trkpt>
      <trkpt lat="45.93056" lon="3.05893">
        <ele>445.22766113281</ele>
        <time>2010-04-24T10:14:51Z</time>
      </trkpt>
      <trkpt lat="45.93059" lon="3.05881">
        <ele>446.66967773438</ele>
        <time>2010-04-24T10:14:54Z</time>
      </trkpt>
      <trkpt lat="45.9306" lon="3.05875">
        <ele>446.66967773438</ele>
        <time>2010-04-24T10:14:55Z</time>
      </trkpt>
      <trkpt lat="45.93066" lon="3.05851">
        <ele>447.63098144531</ele>
        <time>2010-04-24T10:14:59Z</time>
      </trkpt>
      <trkpt lat="45.93075" lon="3.05828">
        <ele>449.07299804688</ele>
        <time>2010-04-24T10:15:03Z</time>
      </trkpt>
      <trkpt lat="45.93083" lon="3.05808">
        <ele>450.51501464844</ele>
        <time>2010-04-24T10:15:07Z</time>
      </trkpt>
      <trkpt lat="45.93098" lon="3.05779">
        <ele>450.99560546875</ele>
        <time>2010-04-24T10:15:13Z</time>
      </trkpt>
      <trkpt lat="45.9311" lon="3.05755">
        <ele>451.47631835938</ele>
        <time>2010-04-24T10:15:18Z</time>
      </trkpt>
      <trkpt lat="45.93115" lon="3.05744">
        <ele>450.99560546875</ele>
        <time>2010-04-24T10:15:20Z</time>
      </trkpt>
      <trkpt lat="45.93124" lon="3.05712">
        <ele>452.43762207031</ele>
        <time>2010-04-24T10:15:26Z</time>
      </trkpt>
      <trkpt lat="45.93126" lon="3.05688">
        <ele>453.39892578125</ele>
        <time>2010-04-24T10:15:32Z</time>
      </trkpt>
      <trkpt lat="45.93127" lon="3.05671">
        <ele>454.8408203125</ele>
        <time>2010-04-24T10:15:38Z</time>
      </trkpt>
      <trkpt lat="45.93127" lon="3.05665">
        <ele>454.8408203125</ele>
        <time>2010-04-24T10:15:40Z</time>
      </trkpt>
      <trkpt lat="45.93134" lon="3.05646">
        <ele>454.8408203125</ele>
        <time>2010-04-24T10:15:46Z</time>
      </trkpt>
      <trkpt lat="45.93143" lon="3.05627">
        <ele>454.8408203125</ele>
        <time>2010-04-24T10:15:51Z</time>
      </trkpt>
      <trkpt lat="45.93157" lon="3.05606">
        <ele>453.39892578125</ele>
        <time>2010-04-24T10:15:57Z</time>
      </trkpt>
      <trkpt lat="45.93171" lon="3.05583">
        <ele>454.8408203125</ele>
        <time>2010-04-24T10:16:02Z</time>
      </trkpt>
      <trkpt lat="45.93184" lon="3.05558">
        <ele>453.39892578125</ele>
        <time>2010-04-24T10:16:07Z</time>
      </trkpt>
      <trkpt lat="45.93187" lon="3.05552">
        <ele>453.39892578125</ele>
        <time>2010-04-24T10:16:08Z</time>
      </trkpt>
      <trkpt lat="45.93203" lon="3.0552">
        <ele>454.36022949219</ele>
        <time>2010-04-24T10:16:14Z</time>
      </trkpt>
      <trkpt lat="45.93212" lon="3.05498">
        <ele>455.32153320312</ele>
        <time>2010-04-24T10:16:19Z</time>
      </trkpt>
      <trkpt lat="45.93223" lon="3.0548">
        <ele>455.80224609375</ele>
        <time>2010-04-24T10:16:23Z</time>
      </trkpt>
      <trkpt lat="45.93236" lon="3.05456">
        <ele>456.76354980469</ele>
        <time>2010-04-24T10:16:28Z</time>
      </trkpt>
      <trkpt lat="45.93246" lon="3.05433">
        <ele>458.68615722656</ele>
        <time>2010-04-24T10:16:33Z</time>
      </trkpt>
      <trkpt lat="45.93248" lon="3.05428">
        <ele>458.68615722656</ele>
        <time>2010-04-24T10:16:34Z</time>
      </trkpt>
      <trkpt lat="45.93261" lon="3.05403">
        <ele>460.12817382812</ele>
        <time>2010-04-24T10:16:39Z</time>
      </trkpt>
      <trkpt lat="45.93272" lon="3.0538">
        <ele>460.60876464844</ele>
        <time>2010-04-24T10:16:44Z</time>
      </trkpt>
      <trkpt lat="45.93284" lon="3.05356">
        <ele>461.08947753906</ele>
        <time>2010-04-24T10:16:49Z</time>
      </trkpt>
      <trkpt lat="45.93283" lon="3.05337">
        <ele>462.53137207031</ele>
        <time>2010-04-24T10:16:54Z</time>
      </trkpt>
      <trkpt lat="45.93282" lon="3.05317">
        <ele>463.97338867188</ele>
        <time>2010-04-24T10:17:00Z</time>
      </trkpt>
      <trkpt lat="45.93283" lon="3.05291">
        <ele>465.89611816406</ele>
        <time>2010-04-24T10:17:07Z</time>
      </trkpt>
      <trkpt lat="45.93282" lon="3.05284">
        <ele>466.857421875</ele>
        <time>2010-04-24T10:17:09Z</time>
      </trkpt>
      <trkpt lat="45.93282" lon="3.05274">
        <ele>468.29931640625</ele>
        <time>2010-04-24T10:17:12Z</time>
      </trkpt>
      <trkpt lat="45.93282" lon="3.05267">
        <ele>468.78002929688</ele>
        <time>2010-04-24T10:17:14Z</time>
      </trkpt>
      <trkpt lat="45.93274" lon="3.0525">
        <ele>469.74133300781</ele>
        <time>2010-04-24T10:17:20Z</time>
      </trkpt>
      <trkpt lat="45.9327" lon="3.05244">
        <ele>470.22192382812</ele>
        <time>2010-04-24T10:17:22Z</time>
      </trkpt>
      <trkpt lat="45.93261" lon="3.05228">
        <ele>471.18334960938</ele>
        <time>2010-04-24T10:17:28Z</time>
      </trkpt>
      <trkpt lat="45.9325" lon="3.05209">
        <ele>472.62536621094</ele>
        <time>2010-04-24T10:17:36Z</time>
      </trkpt>
      <trkpt lat="45.9324" lon="3.05196">
        <ele>473.10607910156</ele>
        <time>2010-04-24T10:17:42Z</time>
      </trkpt>
      <trkpt lat="45.93238" lon="3.05195">
        <ele>473.10607910156</ele>
        <time>2010-04-24T10:17:43Z</time>
      </trkpt>
      <trkpt lat="45.93223" lon="3.05188">
        <ele>473.58666992188</ele>
        <time>2010-04-24T10:17:49Z</time>
      </trkpt>
      <trkpt lat="45.9321" lon="3.05183">
        <ele>475.02868652344</ele>
        <time>2010-04-24T10:17:54Z</time>
      </trkpt>
      <trkpt lat="45.932" lon="3.05175">
        <ele>475.98986816406</ele>
        <time>2010-04-24T10:17:59Z</time>
      </trkpt>
      <trkpt lat="45.93194" lon="3.05163">
        <ele>477.43188476562</ele>
        <time>2010-04-24T10:18:04Z</time>
      </trkpt>
      <trkpt lat="45.93183" lon="3.05152">
        <ele>479.3544921875</ele>
        <time>2010-04-24T10:18:11Z</time>
      </trkpt>
      <trkpt lat="45.93167" lon="3.05145">
        <ele>482.23852539062</ele>
        <time>2010-04-24T10:18:18Z</time>
      </trkpt>
      <trkpt lat="45.93161" lon="3.05144">
        <ele>482.71923828125</ele>
        <time>2010-04-24T10:18:21Z</time>
      </trkpt>
      <trkpt lat="45.93148" lon="3.05138">
        <ele>485.12243652344</ele>
        <time>2010-04-24T10:18:28Z</time>
      </trkpt>
      <trkpt lat="45.9314" lon="3.05133">
        <ele>486.564453125</ele>
        <time>2010-04-24T10:18:33Z</time>
      </trkpt>
      <trkpt lat="45.93137" lon="3.05132">
        <ele>487.04504394531</ele>
        <time>2010-04-24T10:18:35Z</time>
      </trkpt>
      <trkpt lat="45.93138" lon="3.05138">
        <ele>487.04504394531</ele>
        <time>2010-04-24T10:18:39Z</time>
      </trkpt>
      <trkpt lat="45.9314" lon="3.0514">
        <ele>487.52563476562</ele>
        <time>2010-04-24T10:18:40Z</time>
      </trkpt>
      <trkpt lat="45.93155" lon="3.05153">
        <ele>488.00646972656</ele>
        <time>2010-04-24T10:18:48Z</time>
      </trkpt>
      <trkpt lat="45.93162" lon="3.05166">
        <ele>488.9677734375</ele>
        <time>2010-04-24T10:18:54Z</time>
      </trkpt>
      <trkpt lat="45.93175" lon="3.05185">
        <ele>488.9677734375</ele>
        <time>2010-04-24T10:19:01Z</time>
      </trkpt>
      <trkpt lat="45.93191" lon="3.0521">
        <ele>488.00646972656</ele>
        <time>2010-04-24T10:19:09Z</time>
      </trkpt>
      <trkpt lat="45.93205" lon="3.05228">
        <ele>488.48718261719</ele>
        <time>2010-04-24T10:19:15Z</time>
      </trkpt>
      <trkpt lat="45.93217" lon="3.05244">
        <ele>488.00646972656</ele>
        <time>2010-04-24T10:19:20Z</time>
      </trkpt>
      <trkpt lat="45.93222" lon="3.05254">
        <ele>488.48718261719</ele>
        <time>2010-04-24T10:19:23Z</time>
      </trkpt>
      <trkpt lat="45.93233" lon="3.05282">
        <ele>487.52563476562</ele>
        <time>2010-04-24T10:19:30Z</time>
      </trkpt>
      <trkpt lat="45.93238" lon="3.05316">
        <ele>488.00646972656</ele>
        <time>2010-04-24T10:19:37Z</time>
      </trkpt>
      <trkpt lat="45.9324" lon="3.05353">
        <ele>489.44836425781</ele>
        <time>2010-04-24T10:19:45Z</time>
      </trkpt>
      <trkpt lat="45.93231" lon="3.05375">
        <ele>490.40979003906</ele>
        <time>2010-04-24T10:19:51Z</time>
      </trkpt>
      <trkpt lat="45.93221" lon="3.05391">
        <ele>490.40979003906</ele>
        <time>2010-04-24T10:19:56Z</time>
      </trkpt>
      <trkpt lat="45.93201" lon="3.05417">
        <ele>489.92907714844</ele>
        <time>2010-04-24T10:20:03Z</time>
      </trkpt>
      <trkpt lat="45.93187" lon="3.05435">
        <ele>489.44836425781</ele>
        <time>2010-04-24T10:20:08Z</time>
      </trkpt>
      <trkpt lat="45.93172" lon="3.05451">
        <ele>488.9677734375</ele>
        <time>2010-04-24T10:20:12Z</time>
      </trkpt>
      <trkpt lat="45.93161" lon="3.05463">
        <ele>488.48718261719</ele>
        <time>2010-04-24T10:20:15Z</time>
      </trkpt>
      <trkpt lat="45.93138" lon="3.05487">
        <ele>487.52563476562</ele>
        <time>2010-04-24T10:20:20Z</time>
      </trkpt>
      <trkpt lat="45.93117" lon="3.05513">
        <ele>487.52563476562</ele>
        <time>2010-04-24T10:20:26Z</time>
      </trkpt>
      <trkpt lat="45.931" lon="3.05531">
        <ele>487.52563476562</ele>
        <time>2010-04-24T10:20:30Z</time>
      </trkpt>
      <trkpt lat="45.93087" lon="3.05561">
        <ele>487.52563476562</ele>
        <time>2010-04-24T10:20:35Z</time>
      </trkpt>
      <trkpt lat="45.93081" lon="3.05591">
        <ele>486.564453125</ele>
        <time>2010-04-24T10:20:39Z</time>
      </trkpt>
      <trkpt lat="45.93064" lon="3.05639">
        <ele>486.08374023438</ele>
        <time>2010-04-24T10:20:46Z</time>
      </trkpt>
      <trkpt lat="45.93056" lon="3.05684">
        <ele>486.08374023438</ele>
        <time>2010-04-24T10:20:52Z</time>
      </trkpt>
      <trkpt lat="45.93048" lon="3.05735">
        <ele>485.12243652344</ele>
        <time>2010-04-24T10:20:59Z</time>
      </trkpt>
      <trkpt lat="45.93047" lon="3.05741">
        <ele>485.60302734375</ele>
        <time>2010-04-24T10:21:00Z</time>
      </trkpt>
      <trkpt lat="45.93039" lon="3.05757">
        <ele>485.12243652344</ele>
        <time>2010-04-24T10:21:03Z</time>
      </trkpt>
      <trkpt lat="45.93024" lon="3.05785">
        <ele>486.564453125</ele>
        <time>2010-04-24T10:21:08Z</time>
      </trkpt>
      <trkpt lat="45.93008" lon="3.05844">
        <ele>485.60302734375</ele>
        <time>2010-04-24T10:21:17Z</time>
      </trkpt>
      <trkpt lat="45.92997" lon="3.05869">
        <ele>486.08374023438</ele>
        <time>2010-04-24T10:21:21Z</time>
      </trkpt>
      <trkpt lat="45.92984" lon="3.05887">
        <ele>485.60302734375</ele>
        <time>2010-04-24T10:21:25Z</time>
      </trkpt>
      <trkpt lat="45.92976" lon="3.05902">
        <ele>485.60302734375</ele>
        <time>2010-04-24T10:21:28Z</time>
      </trkpt>
      <trkpt lat="45.92964" lon="3.05942">
        <ele>486.08374023438</ele>
        <time>2010-04-24T10:21:34Z</time>
      </trkpt>
      <trkpt lat="45.92964" lon="3.05949">
        <ele>486.08374023438</ele>
        <time>2010-04-24T10:21:35Z</time>
      </trkpt>
      <trkpt lat="45.92962" lon="3.06018">
        <ele>485.60302734375</ele>
        <time>2010-04-24T10:21:45Z</time>
      </trkpt>
      <trkpt lat="45.92966" lon="3.06087">
        <ele>486.08374023438</ele>
        <time>2010-04-24T10:21:55Z</time>
      </trkpt>
      <trkpt lat="45.92971" lon="3.06126">
        <ele>486.08374023438</ele>
        <time>2010-04-24T10:22:01Z</time>
      </trkpt>
      <trkpt lat="45.92975" lon="3.06168">
        <ele>487.04504394531</ele>
        <time>2010-04-24T10:22:08Z</time>
      </trkpt>
      <trkpt lat="45.92974" lon="3.06187">
        <ele>489.44836425781</ele>
        <time>2010-04-24T10:22:12Z</time>
      </trkpt>
      <trkpt lat="45.92973" lon="3.06191">
        <ele>489.44836425781</ele>
        <time>2010-04-24T10:22:13Z</time>
      </trkpt>
      <trkpt lat="45.92972" lon="3.06199">
        <ele>489.44836425781</ele>
        <time>2010-04-24T10:22:15Z</time>
      </trkpt>
      <trkpt lat="45.9296" lon="3.06209">
        <ele>490.89038085938</ele>
        <time>2010-04-24T10:22:20Z</time>
      </trkpt>
      <trkpt lat="45.92957" lon="3.06201">
        <ele>491.85168457031</ele>
        <time>2010-04-24T10:22:23Z</time>
      </trkpt>
      <trkpt lat="45.9296" lon="3.06176">
        <ele>494.73559570312</ele>
        <time>2010-04-24T10:22:30Z</time>
      </trkpt>
      <trkpt lat="45.9296" lon="3.06169">
        <ele>496.177734375</ele>
        <time>2010-04-24T10:22:32Z</time>
      </trkpt>
      <trkpt lat="45.92957" lon="3.06162">
        <ele>496.177734375</ele>
        <time>2010-04-24T10:22:36Z</time>
      </trkpt>
      <trkpt lat="45.9295" lon="3.0615">
        <ele>498.10034179688</ele>
        <time>2010-04-24T10:22:43Z</time>
      </trkpt>
      <trkpt lat="45.92942" lon="3.06137">
        <ele>499.0615234375</ele>
        <time>2010-04-24T10:22:49Z</time>
      </trkpt>
      <trkpt lat="45.92929" lon="3.06121">
        <ele>500.50354003906</ele>
        <time>2010-04-24T10:22:57Z</time>
      </trkpt>
      <trkpt lat="45.92918" lon="3.06109">
        <ele>501.46484375</ele>
        <time>2010-04-24T10:23:04Z</time>
      </trkpt>
      <trkpt lat="45.92905" lon="3.06096">
        <ele>503.8681640625</ele>
        <time>2010-04-24T10:23:12Z</time>
      </trkpt>
      <trkpt lat="45.92896" lon="3.06082">
        <ele>506.75207519531</ele>
        <time>2010-04-24T10:23:20Z</time>
      </trkpt>
      <trkpt lat="45.92886" lon="3.06064">
        <ele>507.71350097656</ele>
        <time>2010-04-24T10:23:28Z</time>
      </trkpt>
      <trkpt lat="45.92876" lon="3.06049">
        <ele>509.63610839844</ele>
        <time>2010-04-24T10:23:35Z</time>
      </trkpt>
      <trkpt lat="45.92868" lon="3.06034">
        <ele>511.07800292969</ele>
        <time>2010-04-24T10:23:43Z</time>
      </trkpt>
      <trkpt lat="45.92867" lon="3.06033">
        <ele>512.03942871094</ele>
        <time>2010-04-24T10:23:44Z</time>
      </trkpt>
      <trkpt lat="45.92859" lon="3.06021">
        <ele>513.4814453125</ele>
        <time>2010-04-24T10:23:51Z</time>
      </trkpt>
      <trkpt lat="45.92852" lon="3.06007">
        <ele>515.88464355469</ele>
        <time>2010-04-24T10:23:59Z</time>
      </trkpt>
      <trkpt lat="45.92847" lon="3.05997">
        <ele>516.365234375</ele>
        <time>2010-04-24T10:24:06Z</time>
      </trkpt>
      <trkpt lat="45.92844" lon="3.05987">
        <ele>518.28784179688</ele>
        <time>2010-04-24T10:24:12Z</time>
      </trkpt>
      <trkpt lat="45.92844" lon="3.05984">
        <ele>518.28784179688</ele>
        <time>2010-04-24T10:24:14Z</time>
      </trkpt>
      <trkpt lat="45.92839" lon="3.05971">
        <ele>520.69128417969</ele>
        <time>2010-04-24T10:24:21Z</time>
      </trkpt>
      <trkpt lat="45.92839" lon="3.0596">
        <ele>523.5751953125</ele>
        <time>2010-04-24T10:24:27Z</time>
      </trkpt>
      <trkpt lat="45.92849" lon="3.05963">
        <ele>524.53649902344</ele>
        <time>2010-04-24T10:24:35Z</time>
      </trkpt>
      <trkpt lat="45.92857" lon="3.05966">
        <ele>525.01721191406</ele>
        <time>2010-04-24T10:24:39Z</time>
      </trkpt>
      <trkpt lat="45.9286" lon="3.05958">
        <ele>526.45910644531</ele>
        <time>2010-04-24T10:24:44Z</time>
      </trkpt>
      <trkpt lat="45.92857" lon="3.05954">
        <ele>526.93981933594</ele>
        <time>2010-04-24T10:24:46Z</time>
      </trkpt>
      <trkpt lat="45.92849" lon="3.05944">
        <ele>528.3818359375</ele>
        <time>2010-04-24T10:24:52Z</time>
      </trkpt>
      <trkpt lat="45.92838" lon="3.05925">
        <ele>530.30444335938</ele>
        <time>2010-04-24T10:25:01Z</time>
      </trkpt>
      <trkpt lat="45.92836" lon="3.05921">
        <ele>531.26574707031</ele>
        <time>2010-04-24T10:25:03Z</time>
      </trkpt>
      <trkpt lat="45.92831" lon="3.05911">
        <ele>531.74633789062</ele>
        <time>2010-04-24T10:25:09Z</time>
      </trkpt>
      <trkpt lat="45.92826" lon="3.05898">
        <ele>535.11096191406</ele>
        <time>2010-04-24T10:25:15Z</time>
      </trkpt>
      <trkpt lat="45.92818" lon="3.05886">
        <ele>535.11096191406</ele>
        <time>2010-04-24T10:25:21Z</time>
      </trkpt>
      <trkpt lat="45.92811" lon="3.05873">
        <ele>536.07238769531</ele>
        <time>2010-04-24T10:25:28Z</time>
      </trkpt>
      <trkpt lat="45.92804" lon="3.0586">
        <ele>537.99499511719</ele>
        <time>2010-04-24T10:25:34Z</time>
      </trkpt>
      <trkpt lat="45.928" lon="3.05849">
        <ele>539.43688964844</ele>
        <time>2010-04-24T10:25:38Z</time>
      </trkpt>
      <trkpt lat="45.92794" lon="3.0583">
        <ele>540.87890625</ele>
        <time>2010-04-24T10:25:45Z</time>
      </trkpt>
      <trkpt lat="45.92792" lon="3.05825">
        <ele>541.84020996094</ele>
        <time>2010-04-24T10:25:47Z</time>
      </trkpt>
      <trkpt lat="45.9279" lon="3.05818">
        <ele>542.80151367188</ele>
        <time>2010-04-24T10:25:50Z</time>
      </trkpt>
      <trkpt lat="45.92786" lon="3.05799">
        <ele>543.76281738281</ele>
        <time>2010-04-24T10:25:57Z</time>
      </trkpt>
      <trkpt lat="45.92781" lon="3.05788">
        <ele>545.685546875</ele>
        <time>2010-04-24T10:26:02Z</time>
      </trkpt>
      <trkpt lat="45.92776" lon="3.05774">
        <ele>546.64685058594</ele>
        <time>2010-04-24T10:26:08Z</time>
      </trkpt>
      <trkpt lat="45.92776" lon="3.05771">
        <ele>547.12744140625</ele>
        <time>2010-04-24T10:26:09Z</time>
      </trkpt>
      <trkpt lat="45.92781" lon="3.05761">
        <ele>549.53076171875</ele>
        <time>2010-04-24T10:26:14Z</time>
      </trkpt>
      <trkpt lat="45.92782" lon="3.05761">
        <ele>550.01147460938</ele>
        <time>2010-04-24T10:26:15Z</time>
      </trkpt>
      <trkpt lat="45.92785" lon="3.05762">
        <ele>550.01147460938</ele>
        <time>2010-04-24T10:26:16Z</time>
      </trkpt>
      <trkpt lat="45.92802" lon="3.0578">
        <ele>550.01147460938</ele>
        <time>2010-04-24T10:26:23Z</time>
      </trkpt>
      <trkpt lat="45.92823" lon="3.05798">
        <ele>550.97265625</ele>
        <time>2010-04-24T10:26:31Z</time>
      </trkpt>
      <trkpt lat="45.92832" lon="3.05805">
        <ele>551.45336914062</ele>
        <time>2010-04-24T10:26:36Z</time>
      </trkpt>
      <trkpt lat="45.92847" lon="3.05809">
        <ele>552.89526367188</ele>
        <time>2010-04-24T10:26:42Z</time>
      </trkpt>
      <trkpt lat="45.92861" lon="3.05809">
        <ele>553.85668945312</ele>
        <time>2010-04-24T10:26:47Z</time>
      </trkpt>
      <trkpt lat="45.92874" lon="3.05801">
        <ele>554.81787109375</ele>
        <time>2010-04-24T10:26:52Z</time>
      </trkpt>
      <trkpt lat="45.92885" lon="3.05781">
        <ele>556.74072265625</ele>
        <time>2010-04-24T10:26:58Z</time>
      </trkpt>
      <trkpt lat="45.92891" lon="3.05761">
        <ele>558.18286132812</ele>
        <time>2010-04-24T10:27:04Z</time>
      </trkpt>
      <trkpt lat="45.92895" lon="3.05739">
        <ele>559.62475585938</ele>
        <time>2010-04-24T10:27:10Z</time>
      </trkpt>
      <trkpt lat="45.92897" lon="3.05716">
        <ele>560.5859375</ele>
        <time>2010-04-24T10:27:16Z</time>
      </trkpt>
      <trkpt lat="45.92896" lon="3.05694">
        <ele>562.02807617188</ele>
        <time>2010-04-24T10:27:22Z</time>
      </trkpt>
      <trkpt lat="45.92893" lon="3.05665">
        <ele>562.9892578125</ele>
        <time>2010-04-24T10:27:29Z</time>
      </trkpt>
      <trkpt lat="45.9289" lon="3.0564">
        <ele>563.46997070312</ele>
        <time>2010-04-24T10:27:35Z</time>
      </trkpt>
      <trkpt lat="45.92893" lon="3.05617">
        <ele>563.95043945312</ele>
        <time>2010-04-24T10:27:40Z</time>
      </trkpt>
      <trkpt lat="45.92897" lon="3.05594">
        <ele>564.91186523438</ele>
        <time>2010-04-24T10:27:45Z</time>
      </trkpt>
      <trkpt lat="45.929" lon="3.05571">
        <ele>565.87329101562</ele>
        <time>2010-04-24T10:27:50Z</time>
      </trkpt>
      <trkpt lat="45.92908" lon="3.05554">
        <ele>565.87329101562</ele>
        <time>2010-04-24T10:27:54Z</time>
      </trkpt>
      <trkpt lat="45.92917" lon="3.05539">
        <ele>567.31518554688</ele>
        <time>2010-04-24T10:27:58Z</time>
      </trkpt>
      <trkpt lat="45.92928" lon="3.05523">
        <ele>568.75708007812</ele>
        <time>2010-04-24T10:28:03Z</time>
      </trkpt>
      <trkpt lat="45.92931" lon="3.05515">
        <ele>570.19897460938</ele>
        <time>2010-04-24T10:28:05Z</time>
      </trkpt>
      <trkpt lat="45.92935" lon="3.05498">
        <ele>571.64086914062</ele>
        <time>2010-04-24T10:28:09Z</time>
      </trkpt>
      <trkpt lat="45.92938" lon="3.0547">
        <ele>571.64086914062</ele>
        <time>2010-04-24T10:28:15Z</time>
      </trkpt>
      <trkpt lat="45.92942" lon="3.05443">
        <ele>573.56396484375</ele>
        <time>2010-04-24T10:28:21Z</time>
      </trkpt>
      <trkpt lat="45.92948" lon="3.05419">
        <ele>574.04443359375</ele>
        <time>2010-04-24T10:28:27Z</time>
      </trkpt>
      <trkpt lat="45.92956" lon="3.05402">
        <ele>575.005859375</ele>
        <time>2010-04-24T10:28:32Z</time>
      </trkpt>
      <trkpt lat="45.92966" lon="3.05376">
        <ele>576.92846679688</ele>
        <time>2010-04-24T10:28:38Z</time>
      </trkpt>
      <trkpt lat="45.9297" lon="3.05352">
        <ele>578.85107421875</ele>
        <time>2010-04-24T10:28:43Z</time>
      </trkpt>
      <trkpt lat="45.92971" lon="3.05329">
        <ele>579.33154296875</ele>
        <time>2010-04-24T10:28:48Z</time>
      </trkpt>
      <trkpt lat="45.9297" lon="3.05319">
        <ele>580.77368164062</ele>
        <time>2010-04-24T10:28:50Z</time>
      </trkpt>
      <trkpt lat="45.92966" lon="3.05299">
        <ele>581.73486328125</ele>
        <time>2010-04-24T10:28:55Z</time>
      </trkpt>
      <trkpt lat="45.92956" lon="3.05283">
        <ele>583.65747070312</ele>
        <time>2010-04-24T10:29:00Z</time>
      </trkpt>
      <trkpt lat="45.92944" lon="3.0526">
        <ele>585.099609375</ele>
        <time>2010-04-24T10:29:06Z</time>
      </trkpt>
      <trkpt lat="45.92936" lon="3.05235">
        <ele>587.02197265625</ele>
        <time>2010-04-24T10:29:12Z</time>
      </trkpt>
      <trkpt lat="45.92933" lon="3.05227">
        <ele>587.50268554688</ele>
        <time>2010-04-24T10:29:14Z</time>
      </trkpt>
      <trkpt lat="45.92924" lon="3.05218">
        <ele>587.9833984375</ele>
        <time>2010-04-24T10:29:18Z</time>
      </trkpt>
      <trkpt lat="45.92907" lon="3.05208">
        <ele>588.94506835938</ele>
        <time>2010-04-24T10:29:24Z</time>
      </trkpt>
      <trkpt lat="45.9289" lon="3.05193">
        <ele>589.90625</ele>
        <time>2010-04-24T10:29:29Z</time>
      </trkpt>
      <trkpt lat="45.9288" lon="3.05178">
        <ele>590.38696289062</ele>
        <time>2010-04-24T10:29:33Z</time>
      </trkpt>
      <trkpt lat="45.92868" lon="3.05161">
        <ele>590.86743164062</ele>
        <time>2010-04-24T10:29:38Z</time>
      </trkpt>
      <trkpt lat="45.9286" lon="3.05158">
        <ele>591.34814453125</ele>
        <time>2010-04-24T10:29:40Z</time>
      </trkpt>
      <trkpt lat="45.9282" lon="3.0516">
        <ele>589.90625</ele>
        <time>2010-04-24T10:29:48Z</time>
      </trkpt>
      <trkpt lat="45.92803" lon="3.05168">
        <ele>587.50268554688</ele>
        <time>2010-04-24T10:29:51Z</time>
      </trkpt>
      <trkpt lat="45.92786" lon="3.0518">
        <ele>587.02197265625</ele>
        <time>2010-04-24T10:29:54Z</time>
      </trkpt>
      <trkpt lat="45.92764" lon="3.05208">
        <ele>587.9833984375</ele>
        <time>2010-04-24T10:29:59Z</time>
      </trkpt>
      <trkpt lat="45.92742" lon="3.0523">
        <ele>585.099609375</ele>
        <time>2010-04-24T10:30:03Z</time>
      </trkpt>
      <trkpt lat="45.92702" lon="3.05245">
        <ele>581.73486328125</ele>
        <time>2010-04-24T10:30:08Z</time>
      </trkpt>
      <trkpt lat="45.92678" lon="3.05233">
        <ele>579.33154296875</ele>
        <time>2010-04-24T10:30:11Z</time>
      </trkpt>
      <trkpt lat="45.9267" lon="3.05228">
        <ele>577.8896484375</ele>
        <time>2010-04-24T10:30:12Z</time>
      </trkpt>
      <trkpt lat="45.92645" lon="3.05208">
        <ele>574.52514648438</ele>
        <time>2010-04-24T10:30:15Z</time>
      </trkpt>
      <trkpt lat="45.92621" lon="3.05192">
        <ele>574.52514648438</ele>
        <time>2010-04-24T10:30:18Z</time>
      </trkpt>
      <trkpt lat="45.92611" lon="3.05178">
        <ele>575.96704101562</ele>
        <time>2010-04-24T10:30:20Z</time>
      </trkpt>
      <trkpt lat="45.92611" lon="3.0516">
        <ele>577.8896484375</ele>
        <time>2010-04-24T10:30:23Z</time>
      </trkpt>
      <trkpt lat="45.92607" lon="3.05142">
        <ele>579.33154296875</ele>
        <time>2010-04-24T10:30:28Z</time>
      </trkpt>
      <trkpt lat="45.92607" lon="3.05126">
        <ele>579.81225585938</ele>
        <time>2010-04-24T10:30:33Z</time>
      </trkpt>
      <trkpt lat="45.92606" lon="3.0511">
        <ele>581.73486328125</ele>
        <time>2010-04-24T10:30:38Z</time>
      </trkpt>
      <trkpt lat="45.92606" lon="3.05102">
        <ele>581.73486328125</ele>
        <time>2010-04-24T10:30:43Z</time>
      </trkpt>
      <trkpt lat="45.92603" lon="3.05092">
        <ele>582.21557617188</ele>
        <time>2010-04-24T10:30:47Z</time>
      </trkpt>
      <trkpt lat="45.92601" lon="3.05075">
        <ele>583.1767578125</ele>
        <time>2010-04-24T10:30:53Z</time>
      </trkpt>
      <trkpt lat="45.92597" lon="3.05061">
        <ele>584.13818359375</ele>
        <time>2010-04-24T10:30:57Z</time>
      </trkpt>
      <trkpt lat="45.92595" lon="3.05052">
        <ele>584.13818359375</ele>
        <time>2010-04-24T10:30:59Z</time>
      </trkpt>
      <trkpt lat="45.92593" lon="3.05032">
        <ele>581.73486328125</ele>
        <time>2010-04-24T10:31:02Z</time>
      </trkpt>
      <trkpt lat="45.92591" lon="3.04987">
        <ele>578.85107421875</ele>
        <time>2010-04-24T10:31:07Z</time>
      </trkpt>
      <trkpt lat="45.9259" lon="3.04953">
        <ele>575.486328125</ele>
        <time>2010-04-24T10:31:12Z</time>
      </trkpt>
      <trkpt lat="45.9259" lon="3.04948">
        <ele>575.486328125</ele>
        <time>2010-04-24T10:31:13Z</time>
      </trkpt>
      <trkpt lat="45.926" lon="3.04932">
        <ele>575.486328125</ele>
        <time>2010-04-24T10:31:17Z</time>
      </trkpt>
      <trkpt lat="45.92602" lon="3.04928">
        <ele>575.96704101562</ele>
        <time>2010-04-24T10:31:18Z</time>
      </trkpt>
      <trkpt lat="45.92612" lon="3.0491">
        <ele>576.92846679688</ele>
        <time>2010-04-24T10:31:24Z</time>
      </trkpt>
      <trkpt lat="45.92619" lon="3.0489">
        <ele>577.8896484375</ele>
        <time>2010-04-24T10:31:29Z</time>
      </trkpt>
      <trkpt lat="45.92624" lon="3.04852">
        <ele>578.85107421875</ele>
        <time>2010-04-24T10:31:36Z</time>
      </trkpt>
      <trkpt lat="45.92619" lon="3.04809">
        <ele>580.29296875</ele>
        <time>2010-04-24T10:31:44Z</time>
      </trkpt>
      <trkpt lat="45.92615" lon="3.04791">
        <ele>581.73486328125</ele>
        <time>2010-04-24T10:31:49Z</time>
      </trkpt>
      <trkpt lat="45.92614" lon="3.0479">
        <ele>581.73486328125</ele>
        <time>2010-04-24T10:31:53Z</time>
      </trkpt>
      <trkpt lat="45.92613" lon="3.0479">
        <ele>582.6962890625</ele>
        <time>2010-04-24T10:32:04Z</time>
      </trkpt>
      <trkpt lat="45.92614" lon="3.0479">
        <ele>582.21557617188</ele>
        <time>2010-04-24T10:32:08Z</time>
      </trkpt>
      <trkpt lat="45.92618" lon="3.04788">
        <ele>581.73486328125</ele>
        <time>2010-04-24T10:32:14Z</time>
      </trkpt>
      <trkpt lat="45.92621" lon="3.04787">
        <ele>581.73486328125</ele>
        <time>2010-04-24T10:32:16Z</time>
      </trkpt>
      <trkpt lat="45.92622" lon="3.04786">
        <ele>581.73486328125</ele>
        <time>2010-04-24T10:32:20Z</time>
      </trkpt>
      <trkpt lat="45.92622" lon="3.04786">
        <ele>581.73486328125</ele>
        <time>2010-04-24T10:32:21Z</time>
      </trkpt>
      <trkpt lat="45.92618" lon="3.0479">
        <ele>581.73486328125</ele>
        <time>2010-04-24T10:32:35Z</time>
      </trkpt>
      <trkpt lat="45.92619" lon="3.0479">
        <ele>581.73486328125</ele>
        <time>2010-04-24T10:32:38Z</time>
      </trkpt>
      <trkpt lat="45.9262" lon="3.04789">
        <ele>582.21557617188</ele>
        <time>2010-04-24T10:32:50Z</time>
      </trkpt>
      <trkpt lat="45.9262" lon="3.04786">
        <ele>582.21557617188</ele>
        <time>2010-04-24T10:32:53Z</time>
      </trkpt>
      <trkpt lat="45.92626" lon="3.0477">
        <ele>583.1767578125</ele>
        <time>2010-04-24T10:32:59Z</time>
      </trkpt>
      <trkpt lat="45.92628" lon="3.04767">
        <ele>583.65747070312</ele>
        <time>2010-04-24T10:33:00Z</time>
      </trkpt>
      <trkpt lat="45.92642" lon="3.04751">
        <ele>584.61889648438</ele>
        <time>2010-04-24T10:33:07Z</time>
      </trkpt>
      <trkpt lat="45.92647" lon="3.04748">
        <ele>586.06079101562</ele>
        <time>2010-04-24T10:33:10Z</time>
      </trkpt>
      <trkpt lat="45.92653" lon="3.04746">
        <ele>587.02197265625</ele>
        <time>2010-04-24T10:33:13Z</time>
      </trkpt>
      <trkpt lat="45.92655" lon="3.04746">
        <ele>587.02197265625</ele>
        <time>2010-04-24T10:33:14Z</time>
      </trkpt>
      <trkpt lat="45.92662" lon="3.04744">
        <ele>587.9833984375</ele>
        <time>2010-04-24T10:33:18Z</time>
      </trkpt>
      <trkpt lat="45.92665" lon="3.04744">
        <ele>588.94506835938</ele>
        <time>2010-04-24T10:33:20Z</time>
      </trkpt>
      <trkpt lat="45.92672" lon="3.04743">
        <ele>590.38696289062</ele>
        <time>2010-04-24T10:33:24Z</time>
      </trkpt>
      <trkpt lat="45.92683" lon="3.04743">
        <ele>592.3095703125</ele>
        <time>2010-04-24T10:33:30Z</time>
      </trkpt>
      <trkpt lat="45.9269" lon="3.04737">
        <ele>593.75146484375</ele>
        <time>2010-04-24T10:33:36Z</time>
      </trkpt>
      <trkpt lat="45.92696" lon="3.04723">
        <ele>595.193359375</ele>
        <time>2010-04-24T10:33:43Z</time>
      </trkpt>
      <trkpt lat="45.927" lon="3.0471">
        <ele>596.15478515625</ele>
        <time>2010-04-24T10:33:48Z</time>
      </trkpt>
      <trkpt lat="45.92704" lon="3.04696">
        <ele>598.55786132812</ele>
        <time>2010-04-24T10:33:54Z</time>
      </trkpt>
      <trkpt lat="45.92707" lon="3.04684">
        <ele>600</ele>
        <time>2010-04-24T10:34:00Z</time>
      </trkpt>
      <trkpt lat="45.92709" lon="3.04675">
        <ele>601.44189453125</ele>
        <time>2010-04-24T10:34:05Z</time>
      </trkpt>
      <trkpt lat="45.92709" lon="3.04665">
        <ele>601.92260742188</ele>
        <time>2010-04-24T10:34:10Z</time>
      </trkpt>
      <trkpt lat="45.92704" lon="3.04648">
        <ele>603.36450195312</ele>
        <time>2010-04-24T10:34:19Z</time>
      </trkpt>
      <trkpt lat="45.92701" lon="3.04643">
        <ele>604.806640625</ele>
        <time>2010-04-24T10:34:22Z</time>
      </trkpt>
      <trkpt lat="45.92694" lon="3.0464">
        <ele>606.24853515625</ele>
        <time>2010-04-24T10:34:29Z</time>
      </trkpt>
      <trkpt lat="45.92686" lon="3.04641">
        <ele>607.69067382812</ele>
        <time>2010-04-24T10:34:37Z</time>
      </trkpt>
      <trkpt lat="45.92677" lon="3.04644">
        <ele>609.13256835938</ele>
        <time>2010-04-24T10:34:43Z</time>
      </trkpt>
      <trkpt lat="45.92675" lon="3.04645">
        <ele>608.65185546875</ele>
        <time>2010-04-24T10:34:44Z</time>
      </trkpt>
      <trkpt lat="45.92662" lon="3.04647">
        <ele>611.53588867188</ele>
        <time>2010-04-24T10:34:53Z</time>
      </trkpt>
      <trkpt lat="45.9265" lon="3.04642">
        <ele>612.4970703125</ele>
        <time>2010-04-24T10:35:00Z</time>
      </trkpt>
      <trkpt lat="45.92635" lon="3.04636">
        <ele>612.97778320312</ele>
        <time>2010-04-24T10:35:06Z</time>
      </trkpt>
      <trkpt lat="45.92616" lon="3.04631">
        <ele>613.45849609375</ele>
        <time>2010-04-24T10:35:13Z</time>
      </trkpt>
      <trkpt lat="45.92598" lon="3.04626">
        <ele>613.93896484375</ele>
        <time>2010-04-24T10:35:20Z</time>
      </trkpt>
      <trkpt lat="45.9259" lon="3.04622">
        <ele>615.38110351562</ele>
        <time>2010-04-24T10:35:24Z</time>
      </trkpt>
      <trkpt lat="45.92583" lon="3.04612">
        <ele>615.86181640625</ele>
        <time>2010-04-24T10:35:29Z</time>
      </trkpt>
      <trkpt lat="45.9258" lon="3.04592">
        <ele>618.26489257812</ele>
        <time>2010-04-24T10:35:37Z</time>
      </trkpt>
      <trkpt lat="45.92582" lon="3.04578">
        <ele>620.18774414062</ele>
        <time>2010-04-24T10:35:43Z</time>
      </trkpt>
      <trkpt lat="45.92587" lon="3.0456">
        <ele>622.59106445312</ele>
        <time>2010-04-24T10:35:50Z</time>
      </trkpt>
      <trkpt lat="45.92587" lon="3.0454">
        <ele>623.07177734375</ele>
        <time>2010-04-24T10:35:57Z</time>
      </trkpt>
      <trkpt lat="45.92585" lon="3.04508">
        <ele>624.513671875</ele>
        <time>2010-04-24T10:36:06Z</time>
      </trkpt>
      <trkpt lat="45.92582" lon="3.04484">
        <ele>625.47485351562</ele>
        <time>2010-04-24T10:36:13Z</time>
      </trkpt>
      <trkpt lat="45.92575" lon="3.04455">
        <ele>626.43627929688</ele>
        <time>2010-04-24T10:36:21Z</time>
      </trkpt>
      <trkpt lat="45.92569" lon="3.04427">
        <ele>627.87817382812</ele>
        <time>2010-04-24T10:36:28Z</time>
      </trkpt>
      <trkpt lat="45.9256" lon="3.04392">
        <ele>627.39770507812</ele>
        <time>2010-04-24T10:36:37Z</time>
      </trkpt>
      <trkpt lat="45.92553" lon="3.04367">
        <ele>628.35888671875</ele>
        <time>2010-04-24T10:36:43Z</time>
      </trkpt>
      <trkpt lat="45.92545" lon="3.04334">
        <ele>627.87817382812</ele>
        <time>2010-04-24T10:36:50Z</time>
      </trkpt>
      <trkpt lat="45.92537" lon="3.04304">
        <ele>628.35888671875</ele>
        <time>2010-04-24T10:36:56Z</time>
      </trkpt>
      <trkpt lat="45.92533" lon="3.04278">
        <ele>627.39770507812</ele>
        <time>2010-04-24T10:37:01Z</time>
      </trkpt>
      <trkpt lat="45.92524" lon="3.04235">
        <ele>627.87817382812</ele>
        <time>2010-04-24T10:37:09Z</time>
      </trkpt>
      <trkpt lat="45.92521" lon="3.04203">
        <ele>628.35888671875</ele>
        <time>2010-04-24T10:37:15Z</time>
      </trkpt>
      <trkpt lat="45.92523" lon="3.04171">
        <ele>628.83959960938</ele>
        <time>2010-04-24T10:37:21Z</time>
      </trkpt>
      <trkpt lat="45.92534" lon="3.04144">
        <ele>629.32006835938</ele>
        <time>2010-04-24T10:37:27Z</time>
      </trkpt>
      <trkpt lat="45.92549" lon="3.04116">
        <ele>630.76220703125</ele>
        <time>2010-04-24T10:37:34Z</time>
      </trkpt>
      <trkpt lat="45.92556" lon="3.04092">
        <ele>631.72338867188</ele>
        <time>2010-04-24T10:37:39Z</time>
      </trkpt>
      <trkpt lat="45.92557" lon="3.04083">
        <ele>632.2041015625</ele>
        <time>2010-04-24T10:37:41Z</time>
      </trkpt>
      <trkpt lat="45.92558" lon="3.04063">
        <ele>633.64599609375</ele>
        <time>2010-04-24T10:37:46Z</time>
      </trkpt>
      <trkpt lat="45.92557" lon="3.04046">
        <ele>634.607421875</ele>
        <time>2010-04-24T10:37:50Z</time>
      </trkpt>
      <trkpt lat="45.92555" lon="3.04021">
        <ele>636.5302734375</ele>
        <time>2010-04-24T10:37:56Z</time>
      </trkpt>
      <trkpt lat="45.92554" lon="3.04017">
        <ele>637.0107421875</ele>
        <time>2010-04-24T10:37:57Z</time>
      </trkpt>
      <trkpt lat="45.92552" lon="3.04006">
        <ele>637.97216796875</ele>
        <time>2010-04-24T10:38:00Z</time>
      </trkpt>
      <trkpt lat="45.92545" lon="3.03981">
        <ele>639.4140625</ele>
        <time>2010-04-24T10:38:07Z</time>
      </trkpt>
      <trkpt lat="45.92535" lon="3.0396">
        <ele>640.85595703125</ele>
        <time>2010-04-24T10:38:14Z</time>
      </trkpt>
      <trkpt lat="45.92527" lon="3.03935">
        <ele>643.25927734375</ele>
        <time>2010-04-24T10:38:22Z</time>
      </trkpt>
      <trkpt lat="45.9252" lon="3.03918">
        <ele>644.701171875</ele>
        <time>2010-04-24T10:38:29Z</time>
      </trkpt>
      <trkpt lat="45.92516" lon="3.03912">
        <ele>645.18188476562</ele>
        <time>2010-04-24T10:38:32Z</time>
      </trkpt>
      <trkpt lat="45.92517" lon="3.03898">
        <ele>645.18188476562</ele>
        <time>2010-04-24T10:38:37Z</time>
      </trkpt>
      <trkpt lat="45.92517" lon="3.03894">
        <ele>645.66259765625</ele>
        <time>2010-04-24T10:38:38Z</time>
      </trkpt>
      <trkpt lat="45.92516" lon="3.03857">
        <ele>647.1044921875</ele>
        <time>2010-04-24T10:38:48Z</time>
      </trkpt>
      <trkpt lat="45.92516" lon="3.03815">
        <ele>647.58520507812</ele>
        <time>2010-04-24T10:38:58Z</time>
      </trkpt>
      <trkpt lat="45.92515" lon="3.03776">
        <ele>649.02709960938</ele>
        <time>2010-04-24T10:39:07Z</time>
      </trkpt>
      <trkpt lat="45.92513" lon="3.03746">
        <ele>650.46923828125</ele>
        <time>2010-04-24T10:39:14Z</time>
      </trkpt>
      <trkpt lat="45.92513" lon="3.03732">
        <ele>650.46923828125</ele>
        <time>2010-04-24T10:39:17Z</time>
      </trkpt>
      <trkpt lat="45.92513" lon="3.03673">
        <ele>652.39184570312</ele>
        <time>2010-04-24T10:39:27Z</time>
      </trkpt>
      <trkpt lat="45.92512" lon="3.03623">
        <ele>653.833984375</ele>
        <time>2010-04-24T10:39:35Z</time>
      </trkpt>
      <trkpt lat="45.92511" lon="3.0361">
        <ele>654.31469726562</ele>
        <time>2010-04-24T10:39:37Z</time>
      </trkpt>
      <trkpt lat="45.92509" lon="3.03554">
        <ele>655.27587890625</ele>
        <time>2010-04-24T10:39:46Z</time>
      </trkpt>
      <trkpt lat="45.9251" lon="3.03496">
        <ele>656.23706054688</ele>
        <time>2010-04-24T10:39:55Z</time>
      </trkpt>
      <trkpt lat="45.92516" lon="3.03456">
        <ele>656.23706054688</ele>
        <time>2010-04-24T10:40:01Z</time>
      </trkpt>
      <trkpt lat="45.92524" lon="3.03398">
        <ele>658.64038085938</ele>
        <time>2010-04-24T10:40:10Z</time>
      </trkpt>
      <trkpt lat="45.92527" lon="3.03367">
        <ele>659.12109375</ele>
        <time>2010-04-24T10:40:15Z</time>
      </trkpt>
      <trkpt lat="45.92527" lon="3.03348">
        <ele>661.04370117188</ele>
        <time>2010-04-24T10:40:18Z</time>
      </trkpt>
      <trkpt lat="45.92527" lon="3.03342">
        <ele>661.5244140625</ele>
        <time>2010-04-24T10:40:19Z</time>
      </trkpt>
      <trkpt lat="45.92523" lon="3.03287">
        <ele>663.44702148438</ele>
        <time>2010-04-24T10:40:28Z</time>
      </trkpt>
      <trkpt lat="45.92515" lon="3.03259">
        <ele>664.88891601562</ele>
        <time>2010-04-24T10:40:33Z</time>
      </trkpt>
      <trkpt lat="45.92513" lon="3.03222">
        <ele>666.8115234375</ele>
        <time>2010-04-24T10:40:39Z</time>
      </trkpt>
      <trkpt lat="45.92508" lon="3.03199">
        <ele>668.25366210938</ele>
        <time>2010-04-24T10:40:43Z</time>
      </trkpt>
      <trkpt lat="45.92493" lon="3.03184">
        <ele>669.69580078125</ele>
        <time>2010-04-24T10:40:48Z</time>
      </trkpt>
      <trkpt lat="45.92487" lon="3.03181">
        <ele>669.69580078125</ele>
        <time>2010-04-24T10:40:50Z</time>
      </trkpt>
      <trkpt lat="45.9248" lon="3.0318">
        <ele>669.21508789062</ele>
        <time>2010-04-24T10:40:52Z</time>
      </trkpt>
      <trkpt lat="45.92476" lon="3.03166">
        <ele>669.69580078125</ele>
        <time>2010-04-24T10:40:56Z</time>
      </trkpt>
      <trkpt lat="45.92481" lon="3.03155">
        <ele>671.1376953125</ele>
        <time>2010-04-24T10:41:00Z</time>
      </trkpt>
      <trkpt lat="45.92487" lon="3.03142">
        <ele>672.09887695312</ele>
        <time>2010-04-24T10:41:04Z</time>
      </trkpt>
      <trkpt lat="45.92505" lon="3.03116">
        <ele>672.09887695312</ele>
        <time>2010-04-24T10:41:12Z</time>
      </trkpt>
      <trkpt lat="45.92519" lon="3.03101">
        <ele>671.6181640625</ele>
        <time>2010-04-24T10:41:18Z</time>
      </trkpt>
      <trkpt lat="45.92529" lon="3.03098">
        <ele>672.09887695312</ele>
        <time>2010-04-24T10:41:23Z</time>
      </trkpt>
      <trkpt lat="45.92531" lon="3.03097">
        <ele>672.09887695312</ele>
        <time>2010-04-24T10:41:28Z</time>
      </trkpt>
      <trkpt lat="45.92532" lon="3.03097">
        <ele>672.09887695312</ele>
        <time>2010-04-24T10:41:35Z</time>
      </trkpt>
      <trkpt lat="45.92533" lon="3.03095">
        <ele>671.6181640625</ele>
        <time>2010-04-24T10:46:58Z</time>
      </trkpt>
      <trkpt lat="45.92533" lon="3.03091">
        <ele>670.65698242188</ele>
        <time>2010-04-24T10:47:18Z</time>
      </trkpt>
      <trkpt lat="45.92534" lon="3.03089">
        <ele>670.65698242188</ele>
        <time>2010-04-24T10:47:24Z</time>
      </trkpt>
      <trkpt lat="45.92534" lon="3.03086">
        <ele>671.1376953125</ele>
        <time>2010-04-24T10:47:28Z</time>
      </trkpt>
      <trkpt lat="45.92535" lon="3.03076">
        <ele>671.6181640625</ele>
        <time>2010-04-24T10:47:36Z</time>
      </trkpt>
      <trkpt lat="45.92534" lon="3.03071">
        <ele>671.1376953125</ele>
        <time>2010-04-24T10:47:41Z</time>
      </trkpt>
      <trkpt lat="45.92535" lon="3.0307">
        <ele>671.1376953125</ele>
        <time>2010-04-24T10:47:52Z</time>
      </trkpt>
      <trkpt lat="45.92533" lon="3.03068">
        <ele>671.1376953125</ele>
        <time>2010-04-24T10:47:57Z</time>
      </trkpt>
      <trkpt lat="45.92533" lon="3.03067">
        <ele>671.1376953125</ele>
        <time>2010-04-24T10:48:01Z</time>
      </trkpt>
      <trkpt lat="45.92532" lon="3.03067">
        <ele>671.1376953125</ele>
        <time>2010-04-24T10:48:05Z</time>
      </trkpt>
      <trkpt lat="45.92531" lon="3.03066">
        <ele>671.1376953125</ele>
        <time>2010-04-24T10:48:10Z</time>
      </trkpt>
      <trkpt lat="45.92537" lon="3.03062">
        <ele>670.65698242188</ele>
        <time>2010-04-24T10:48:33Z</time>
      </trkpt>
      <trkpt lat="45.92535" lon="3.03051">
        <ele>671.6181640625</ele>
        <time>2010-04-24T10:48:50Z</time>
      </trkpt>
      <trkpt lat="45.92536" lon="3.03037">
        <ele>671.6181640625</ele>
        <time>2010-04-24T10:48:55Z</time>
      </trkpt>
      <trkpt lat="45.92539" lon="3.03015">
        <ele>671.6181640625</ele>
        <time>2010-04-24T10:49:01Z</time>
      </trkpt>
      <trkpt lat="45.92543" lon="3.02992">
        <ele>671.1376953125</ele>
        <time>2010-04-24T10:49:07Z</time>
      </trkpt>
      <trkpt lat="45.92546" lon="3.02968">
        <ele>671.6181640625</ele>
        <time>2010-04-24T10:49:12Z</time>
      </trkpt>
      <trkpt lat="45.92548" lon="3.02935">
        <ele>671.6181640625</ele>
        <time>2010-04-24T10:49:18Z</time>
      </trkpt>
      <trkpt lat="45.92546" lon="3.02899">
        <ele>672.09887695312</ele>
        <time>2010-04-24T10:49:24Z</time>
      </trkpt>
      <trkpt lat="45.92542" lon="3.02859">
        <ele>672.09887695312</ele>
        <time>2010-04-24T10:49:30Z</time>
      </trkpt>
      <trkpt lat="45.92534" lon="3.02812">
        <ele>673.06030273438</ele>
        <time>2010-04-24T10:49:37Z</time>
      </trkpt>
      <trkpt lat="45.92528" lon="3.02767">
        <ele>673.541015625</ele>
        <time>2010-04-24T10:49:44Z</time>
      </trkpt>
      <trkpt lat="45.92525" lon="3.02712">
        <ele>673.541015625</ele>
        <time>2010-04-24T10:49:52Z</time>
      </trkpt>
      <trkpt lat="45.92524" lon="3.0266">
        <ele>673.541015625</ele>
        <time>2010-04-24T10:50:00Z</time>
      </trkpt>
      <trkpt lat="45.92524" lon="3.02654">
        <ele>674.021484375</ele>
        <time>2010-04-24T10:50:01Z</time>
      </trkpt>
      <trkpt lat="45.92528" lon="3.02615">
        <ele>674.98291015625</ele>
        <time>2010-04-24T10:50:07Z</time>
      </trkpt>
      <trkpt lat="45.92537" lon="3.02566">
        <ele>675.94409179688</ele>
        <time>2010-04-24T10:50:15Z</time>
      </trkpt>
      <trkpt lat="45.92547" lon="3.02507">
        <ele>677.86669921875</ele>
        <time>2010-04-24T10:50:25Z</time>
      </trkpt>
      <trkpt lat="45.92548" lon="3.02495">
        <ele>678.828125</ele>
        <time>2010-04-24T10:50:27Z</time>
      </trkpt>
      <trkpt lat="45.92543" lon="3.02452">
        <ele>679.78930664062</ele>
        <time>2010-04-24T10:50:34Z</time>
      </trkpt>
      <trkpt lat="45.92541" lon="3.02435">
        <ele>682.19262695312</ele>
        <time>2010-04-24T10:50:37Z</time>
      </trkpt>
      <trkpt lat="45.92539" lon="3.02409">
        <ele>685.07690429688</ele>
        <time>2010-04-24T10:50:42Z</time>
      </trkpt>
      <trkpt lat="45.92538" lon="3.02381">
        <ele>686.51879882812</ele>
        <time>2010-04-24T10:50:48Z</time>
      </trkpt>
      <trkpt lat="45.92529" lon="3.02355">
        <ele>687.96069335938</ele>
        <time>2010-04-24T10:50:54Z</time>
      </trkpt>
      <trkpt lat="45.9251" lon="3.02326">
        <ele>689.40258789062</ele>
        <time>2010-04-24T10:51:03Z</time>
      </trkpt>
      <trkpt lat="45.925" lon="3.02307">
        <ele>691.80590820312</ele>
        <time>2010-04-24T10:51:09Z</time>
      </trkpt>
      <trkpt lat="45.92496" lon="3.02288">
        <ele>693.24780273438</ele>
        <time>2010-04-24T10:51:14Z</time>
      </trkpt>
      <trkpt lat="45.92497" lon="3.02264">
        <ele>695.65112304688</ele>
        <time>2010-04-24T10:51:20Z</time>
      </trkpt>
      <trkpt lat="45.92504" lon="3.02233">
        <ele>696.1318359375</ele>
        <time>2010-04-24T10:51:28Z</time>
      </trkpt>
      <trkpt lat="45.92507" lon="3.02208">
        <ele>695.65112304688</ele>
        <time>2010-04-24T10:51:33Z</time>
      </trkpt>
      <trkpt lat="45.92505" lon="3.02166">
        <ele>693.728515625</ele>
        <time>2010-04-24T10:51:39Z</time>
      </trkpt>
      <trkpt lat="45.92498" lon="3.02114">
        <ele>692.76733398438</ele>
        <time>2010-04-24T10:51:46Z</time>
      </trkpt>
      <trkpt lat="45.92493" lon="3.02091">
        <ele>693.24780273438</ele>
        <time>2010-04-24T10:51:49Z</time>
      </trkpt>
      <trkpt lat="45.92486" lon="3.0206">
        <ele>692.76733398438</ele>
        <time>2010-04-24T10:51:53Z</time>
      </trkpt>
      <trkpt lat="45.92476" lon="3.02018">
        <ele>692.76733398438</ele>
        <time>2010-04-24T10:51:59Z</time>
      </trkpt>
      <trkpt lat="45.9246" lon="3.01981">
        <ele>692.76733398438</ele>
        <time>2010-04-24T10:52:05Z</time>
      </trkpt>
      <trkpt lat="45.92445" lon="3.01939">
        <ele>693.24780273438</ele>
        <time>2010-04-24T10:52:12Z</time>
      </trkpt>
      <trkpt lat="45.92427" lon="3.01906">
        <ele>693.728515625</ele>
        <time>2010-04-24T10:52:18Z</time>
      </trkpt>
      <trkpt lat="45.92421" lon="3.01896">
        <ele>693.24780273438</ele>
        <time>2010-04-24T10:52:20Z</time>
      </trkpt>
      <trkpt lat="45.92406" lon="3.01867">
        <ele>693.24780273438</ele>
        <time>2010-04-24T10:52:25Z</time>
      </trkpt>
      <trkpt lat="45.92393" lon="3.01816">
        <ele>692.28662109375</ele>
        <time>2010-04-24T10:52:32Z</time>
      </trkpt>
      <trkpt lat="45.92384" lon="3.01757">
        <ele>691.80590820312</ele>
        <time>2010-04-24T10:52:40Z</time>
      </trkpt>
      <trkpt lat="45.92371" lon="3.01708">
        <ele>691.80590820312</ele>
        <time>2010-04-24T10:52:47Z</time>
      </trkpt>
      <trkpt lat="45.92369" lon="3.01702">
        <ele>691.3251953125</ele>
        <time>2010-04-24T10:52:48Z</time>
      </trkpt>
      <trkpt lat="45.92365" lon="3.01674">
        <ele>692.28662109375</ele>
        <time>2010-04-24T10:52:52Z</time>
      </trkpt>
      <trkpt lat="45.92365" lon="3.01661">
        <ele>692.28662109375</ele>
        <time>2010-04-24T10:52:54Z</time>
      </trkpt>
      <trkpt lat="45.92366" lon="3.0164">
        <ele>690.36401367188</ele>
        <time>2010-04-24T10:52:57Z</time>
      </trkpt>
      <trkpt lat="45.92368" lon="3.01626">
        <ele>689.88330078125</ele>
        <time>2010-04-24T10:52:59Z</time>
      </trkpt>
      <trkpt lat="45.92369" lon="3.01603">
        <ele>689.88330078125</ele>
        <time>2010-04-24T10:53:03Z</time>
      </trkpt>
      <trkpt lat="45.92363" lon="3.01574">
        <ele>686.51879882812</ele>
        <time>2010-04-24T10:53:08Z</time>
      </trkpt>
      <trkpt lat="45.92348" lon="3.01553">
        <ele>683.63452148438</ele>
        <time>2010-04-24T10:53:12Z</time>
      </trkpt>
      <trkpt lat="45.92336" lon="3.01544">
        <ele>682.67333984375</ele>
        <time>2010-04-24T10:53:14Z</time>
      </trkpt>
      <trkpt lat="45.92297" lon="3.01525">
        <ele>680.75073242188</ele>
        <time>2010-04-24T10:53:20Z</time>
      </trkpt>
      <trkpt lat="45.92285" lon="3.01519">
        <ele>682.19262695312</ele>
        <time>2010-04-24T10:53:22Z</time>
      </trkpt>
      <trkpt lat="45.92265" lon="3.0151">
        <ele>684.11547851562</ele>
        <time>2010-04-24T10:53:26Z</time>
      </trkpt>
      <trkpt lat="45.92257" lon="3.01506">
        <ele>685.07690429688</ele>
        <time>2010-04-24T10:53:28Z</time>
      </trkpt>
      <trkpt lat="45.92242" lon="3.01499">
        <ele>686.0380859375</ele>
        <time>2010-04-24T10:53:32Z</time>
      </trkpt>
      <trkpt lat="45.92232" lon="3.01496">
        <ele>686.99926757812</ele>
        <time>2010-04-24T10:53:35Z</time>
      </trkpt>
      <trkpt lat="45.92229" lon="3.01495">
        <ele>686.99926757812</ele>
        <time>2010-04-24T10:53:36Z</time>
      </trkpt>
      <trkpt lat="45.92208" lon="3.01488">
        <ele>687.47998046875</ele>
        <time>2010-04-24T10:53:42Z</time>
      </trkpt>
      <trkpt lat="45.92179" lon="3.01486">
        <ele>689.40258789062</ele>
        <time>2010-04-24T10:53:50Z</time>
      </trkpt>
      <trkpt lat="45.92158" lon="3.01473">
        <ele>688.44140625</ele>
        <time>2010-04-24T10:53:56Z</time>
      </trkpt>
      <trkpt lat="45.92135" lon="3.01446">
        <ele>688.44140625</ele>
        <time>2010-04-24T10:54:03Z</time>
      </trkpt>
      <trkpt lat="45.92119" lon="3.01412">
        <ele>688.44140625</ele>
        <time>2010-04-24T10:54:10Z</time>
      </trkpt>
      <trkpt lat="45.92115" lon="3.01388">
        <ele>687.47998046875</ele>
        <time>2010-04-24T10:54:14Z</time>
      </trkpt>
      <trkpt lat="45.92108" lon="3.01353">
        <ele>686.51879882812</ele>
        <time>2010-04-24T10:54:20Z</time>
      </trkpt>
      <trkpt lat="45.92104" lon="3.01335">
        <ele>685.55737304688</ele>
        <time>2010-04-24T10:54:23Z</time>
      </trkpt>
      <trkpt lat="45.92098" lon="3.01303">
        <ele>685.07690429688</ele>
        <time>2010-04-24T10:54:28Z</time>
      </trkpt>
      <trkpt lat="45.92094" lon="3.01285">
        <ele>684.59619140625</ele>
        <time>2010-04-24T10:54:31Z</time>
      </trkpt>
      <trkpt lat="45.9209" lon="3.01272">
        <ele>684.11547851562</ele>
        <time>2010-04-24T10:54:33Z</time>
      </trkpt>
      <trkpt lat="45.92088" lon="3.01266">
        <ele>683.63452148438</ele>
        <time>2010-04-24T10:54:34Z</time>
      </trkpt>
      <trkpt lat="45.92086" lon="3.01259">
        <ele>683.15380859375</ele>
        <time>2010-04-24T10:54:35Z</time>
      </trkpt>
      <trkpt lat="45.92083" lon="3.01243">
        <ele>682.19262695312</ele>
        <time>2010-04-24T10:54:37Z</time>
      </trkpt>
      <trkpt lat="45.92081" lon="3.01198">
        <ele>679.30859375</ele>
        <time>2010-04-24T10:54:42Z</time>
      </trkpt>
      <trkpt lat="45.92072" lon="3.01138">
        <ele>677.86669921875</ele>
        <time>2010-04-24T10:54:48Z</time>
      </trkpt>
      <trkpt lat="45.92073" lon="3.01087">
        <ele>675.46337890625</ele>
        <time>2010-04-24T10:54:53Z</time>
      </trkpt>
      <trkpt lat="45.9207" lon="3.01027">
        <ele>670.65698242188</ele>
        <time>2010-04-24T10:54:58Z</time>
      </trkpt>
      <trkpt lat="45.92067" lon="3.00976">
        <ele>666.33081054688</ele>
        <time>2010-04-24T10:55:02Z</time>
      </trkpt>
      <trkpt lat="45.92065" lon="3.00963">
        <ele>666.8115234375</ele>
        <time>2010-04-24T10:55:03Z</time>
      </trkpt>
      <trkpt lat="45.92064" lon="3.00939">
        <ele>664.88891601562</ele>
        <time>2010-04-24T10:55:05Z</time>
      </trkpt>
      <trkpt lat="45.9206" lon="3.00906">
        <ele>664.408203125</ele>
        <time>2010-04-24T10:55:08Z</time>
      </trkpt>
      <trkpt lat="45.9206" lon="3.00896">
        <ele>663.92749023438</ele>
        <time>2010-04-24T10:55:09Z</time>
      </trkpt>
      <trkpt lat="45.92051" lon="3.00876">
        <ele>663.92749023438</ele>
        <time>2010-04-24T10:55:13Z</time>
      </trkpt>
      <trkpt lat="45.92045" lon="3.00882">
        <ele>664.408203125</ele>
        <time>2010-04-24T10:55:16Z</time>
      </trkpt>
      <trkpt lat="45.92035" lon="3.00908">
        <ele>662.00512695312</ele>
        <time>2010-04-24T10:55:22Z</time>
      </trkpt>
      <trkpt lat="45.92028" lon="3.0093">
        <ele>662.00512695312</ele>
        <time>2010-04-24T10:55:27Z</time>
      </trkpt>
      <trkpt lat="45.92024" lon="3.00941">
        <ele>661.5244140625</ele>
        <time>2010-04-24T10:55:32Z</time>
      </trkpt>
      <trkpt lat="45.9202" lon="3.00956">
        <ele>660.56298828125</ele>
        <time>2010-04-24T10:55:35Z</time>
      </trkpt>
      <trkpt lat="45.92009" lon="3.00986">
        <ele>658.64038085938</ele>
        <time>2010-04-24T10:55:40Z</time>
      </trkpt>
      <trkpt lat="45.91991" lon="3.01023">
        <ele>657.19848632812</ele>
        <time>2010-04-24T10:55:46Z</time>
      </trkpt>
      <trkpt lat="45.91984" lon="3.01036">
        <ele>656.7177734375</ele>
        <time>2010-04-24T10:55:48Z</time>
      </trkpt>
      <trkpt lat="45.9197" lon="3.01066">
        <ele>656.23706054688</ele>
        <time>2010-04-24T10:55:52Z</time>
      </trkpt>
      <trkpt lat="45.91954" lon="3.01132">
        <ele>654.79516601562</ele>
        <time>2010-04-24T10:55:59Z</time>
      </trkpt>
      <trkpt lat="45.91949" lon="3.01163">
        <ele>653.35327148438</ele>
        <time>2010-04-24T10:56:02Z</time>
      </trkpt>
      <trkpt lat="45.91932" lon="3.01205">
        <ele>650.46923828125</ele>
        <time>2010-04-24T10:56:07Z</time>
      </trkpt>
      <trkpt lat="45.91917" lon="3.01216">
        <ele>649.98852539062</ele>
        <time>2010-04-24T10:56:09Z</time>
      </trkpt>
      <trkpt lat="45.91879" lon="3.0124">
        <ele>649.02709960938</ele>
        <time>2010-04-24T10:56:14Z</time>
      </trkpt>
      <trkpt lat="45.91859" lon="3.01264">
        <ele>649.5078125</ele>
        <time>2010-04-24T10:56:18Z</time>
      </trkpt>
      <trkpt lat="45.91853" lon="3.01264">
        <ele>650.46923828125</ele>
        <time>2010-04-24T10:56:20Z</time>
      </trkpt>
      <trkpt lat="45.91851" lon="3.01262">
        <ele>650.94970703125</ele>
        <time>2010-04-24T10:56:21Z</time>
      </trkpt>
      <trkpt lat="45.91849" lon="3.01255">
        <ele>651.43041992188</ele>
        <time>2010-04-24T10:56:24Z</time>
      </trkpt>
      <trkpt lat="45.91842" lon="3.01247">
        <ele>653.35327148438</ele>
        <time>2010-04-24T10:56:28Z</time>
      </trkpt>
      <trkpt lat="45.91833" lon="3.01241">
        <ele>655.27587890625</ele>
        <time>2010-04-24T10:56:32Z</time>
      </trkpt>
      <trkpt lat="45.91824" lon="3.01234">
        <ele>656.7177734375</ele>
        <time>2010-04-24T10:56:36Z</time>
      </trkpt>
      <trkpt lat="45.9182" lon="3.01229">
        <ele>657.19848632812</ele>
        <time>2010-04-24T10:56:38Z</time>
      </trkpt>
      <trkpt lat="45.91812" lon="3.01223">
        <ele>658.15991210938</ele>
        <time>2010-04-24T10:56:41Z</time>
      </trkpt>
      <trkpt lat="45.91809" lon="3.01221">
        <ele>658.64038085938</ele>
        <time>2010-04-24T10:56:42Z</time>
      </trkpt>
      <trkpt lat="45.91805" lon="3.01216">
        <ele>658.15991210938</ele>
        <time>2010-04-24T10:56:44Z</time>
      </trkpt>
      <trkpt lat="45.91802" lon="3.01213">
        <ele>658.64038085938</ele>
        <time>2010-04-24T10:56:45Z</time>
      </trkpt>
      <trkpt lat="45.91797" lon="3.01209">
        <ele>658.64038085938</ele>
        <time>2010-04-24T10:56:47Z</time>
      </trkpt>
      <trkpt lat="45.91781" lon="3.01192">
        <ele>660.56298828125</ele>
        <time>2010-04-24T10:56:54Z</time>
      </trkpt>
      <trkpt lat="45.9177" lon="3.0118">
        <ele>662.00512695312</ele>
        <time>2010-04-24T10:56:59Z</time>
      </trkpt>
      <trkpt lat="45.91753" lon="3.01161">
        <ele>662.96630859375</ele>
        <time>2010-04-24T10:57:07Z</time>
      </trkpt>
      <trkpt lat="45.91743" lon="3.01149">
        <ele>663.92749023438</ele>
        <time>2010-04-24T10:57:12Z</time>
      </trkpt>
      <trkpt lat="45.91728" lon="3.01134">
        <ele>665.36962890625</ele>
        <time>2010-04-24T10:57:19Z</time>
      </trkpt>
      <trkpt lat="45.91714" lon="3.01122">
        <ele>666.8115234375</ele>
        <time>2010-04-24T10:57:26Z</time>
      </trkpt>
      <trkpt lat="45.91703" lon="3.01114">
        <ele>668.734375</ele>
        <time>2010-04-24T10:57:32Z</time>
      </trkpt>
      <trkpt lat="45.9169" lon="3.01105">
        <ele>669.69580078125</ele>
        <time>2010-04-24T10:57:39Z</time>
      </trkpt>
      <trkpt lat="45.91677" lon="3.01093">
        <ele>671.6181640625</ele>
        <time>2010-04-24T10:57:47Z</time>
      </trkpt>
      <trkpt lat="45.91668" lon="3.01085">
        <ele>673.06030273438</ele>
        <time>2010-04-24T10:57:52Z</time>
      </trkpt>
      <trkpt lat="45.91656" lon="3.01075">
        <ele>673.541015625</ele>
        <time>2010-04-24T10:57:58Z</time>
      </trkpt>
      <trkpt lat="45.91637" lon="3.01061">
        <ele>674.98291015625</ele>
        <time>2010-04-24T10:58:07Z</time>
      </trkpt>
      <trkpt lat="45.91617" lon="3.01042">
        <ele>676.4248046875</ele>
        <time>2010-04-24T10:58:17Z</time>
      </trkpt>
      <trkpt lat="45.91599" lon="3.01032">
        <ele>677.38623046875</ele>
        <time>2010-04-24T10:58:26Z</time>
      </trkpt>
      <trkpt lat="45.91585" lon="3.01028">
        <ele>679.30859375</ele>
        <time>2010-04-24T10:58:33Z</time>
      </trkpt>
      <trkpt lat="45.91576" lon="3.01024">
        <ele>680.27001953125</ele>
        <time>2010-04-24T10:58:39Z</time>
      </trkpt>
      <trkpt lat="45.91562" lon="3.01016">
        <ele>681.7119140625</ele>
        <time>2010-04-24T10:58:46Z</time>
      </trkpt>
      <trkpt lat="45.91544" lon="3.01007">
        <ele>683.15380859375</ele>
        <time>2010-04-24T10:58:54Z</time>
      </trkpt>
      <trkpt lat="45.91534" lon="3.00992">
        <ele>684.59619140625</ele>
        <time>2010-04-24T10:59:01Z</time>
      </trkpt>
      <trkpt lat="45.91531" lon="3.00984">
        <ele>686.0380859375</ele>
        <time>2010-04-24T10:59:04Z</time>
      </trkpt>
      <trkpt lat="45.91523" lon="3.00962">
        <ele>686.99926757812</ele>
        <time>2010-04-24T10:59:12Z</time>
      </trkpt>
      <trkpt lat="45.9152" lon="3.00941">
        <ele>687.96069335938</ele>
        <time>2010-04-24T10:59:19Z</time>
      </trkpt>
      <trkpt lat="45.91518" lon="3.00925">
        <ele>689.88330078125</ele>
        <time>2010-04-24T10:59:25Z</time>
      </trkpt>
      <trkpt lat="45.91516" lon="3.00904">
        <ele>690.36401367188</ele>
        <time>2010-04-24T10:59:32Z</time>
      </trkpt>
      <trkpt lat="45.91509" lon="3.00888">
        <ele>689.88330078125</ele>
        <time>2010-04-24T10:59:38Z</time>
      </trkpt>
      <trkpt lat="45.91499" lon="3.00883">
        <ele>690.84448242188</ele>
        <time>2010-04-24T10:59:43Z</time>
      </trkpt>
      <trkpt lat="45.91481" lon="3.00881">
        <ele>690.84448242188</ele>
        <time>2010-04-24T10:59:50Z</time>
      </trkpt>
      <trkpt lat="45.91472" lon="3.00883">
        <ele>691.3251953125</ele>
        <time>2010-04-24T10:59:54Z</time>
      </trkpt>
      <trkpt lat="45.91469" lon="3.00901">
        <ele>691.3251953125</ele>
        <time>2010-04-24T10:59:59Z</time>
      </trkpt>
      <trkpt lat="45.9147" lon="3.00906">
        <ele>691.3251953125</ele>
        <time>2010-04-24T11:00:00Z</time>
      </trkpt>
      <trkpt lat="45.91475" lon="3.00929">
        <ele>690.36401367188</ele>
        <time>2010-04-24T11:00:04Z</time>
      </trkpt>
      <trkpt lat="45.91477" lon="3.00942">
        <ele>690.84448242188</ele>
        <time>2010-04-24T11:00:06Z</time>
      </trkpt>
      <trkpt lat="45.91487" lon="3.00981">
        <ele>688.92211914062</ele>
        <time>2010-04-24T11:00:12Z</time>
      </trkpt>
      <trkpt lat="45.91497" lon="3.01012">
        <ele>689.40258789062</ele>
        <time>2010-04-24T11:00:17Z</time>
      </trkpt>
      <trkpt lat="45.91514" lon="3.01045">
        <ele>688.92211914062</ele>
        <time>2010-04-24T11:00:23Z</time>
      </trkpt>
      <trkpt lat="45.9152" lon="3.01055">
        <ele>688.92211914062</ele>
        <time>2010-04-24T11:00:25Z</time>
      </trkpt>
      <trkpt lat="45.91533" lon="3.01076">
        <ele>689.40258789062</ele>
        <time>2010-04-24T11:00:29Z</time>
      </trkpt>
      <trkpt lat="45.91553" lon="3.01108">
        <ele>692.28662109375</ele>
        <time>2010-04-24T11:00:37Z</time>
      </trkpt>
      <trkpt lat="45.9156" lon="3.01118">
        <ele>693.24780273438</ele>
        <time>2010-04-24T11:00:40Z</time>
      </trkpt>
      <trkpt lat="45.91573" lon="3.01143">
        <ele>695.65112304688</ele>
        <time>2010-04-24T11:00:47Z</time>
      </trkpt>
      <trkpt lat="45.91583" lon="3.01163">
        <ele>696.61254882812</ele>
        <time>2010-04-24T11:00:53Z</time>
      </trkpt>
      <trkpt lat="45.91598" lon="3.01192">
        <ele>697.57373046875</ele>
        <time>2010-04-24T11:01:02Z</time>
      </trkpt>
      <trkpt lat="45.9161" lon="3.01218">
        <ele>698.53491210938</ele>
        <time>2010-04-24T11:01:10Z</time>
      </trkpt>
      <trkpt lat="45.91627" lon="3.01259">
        <ele>701.41918945312</ele>
        <time>2010-04-24T11:01:22Z</time>
      </trkpt>
      <trkpt lat="45.91637" lon="3.01294">
        <ele>703.341796875</ele>
        <time>2010-04-24T11:01:32Z</time>
      </trkpt>
      <trkpt lat="45.91638" lon="3.01309">
        <ele>704.78369140625</ele>
        <time>2010-04-24T11:01:36Z</time>
      </trkpt>
      <trkpt lat="45.91634" lon="3.01327">
        <ele>707.18701171875</ele>
        <time>2010-04-24T11:01:42Z</time>
      </trkpt>
      <trkpt lat="45.91631" lon="3.0133">
        <ele>708.1484375</ele>
        <time>2010-04-24T11:01:44Z</time>
      </trkpt>
      <trkpt lat="45.91617" lon="3.01336">
        <ele>710.55151367188</ele>
        <time>2010-04-24T11:01:52Z</time>
      </trkpt>
      <trkpt lat="45.91603" lon="3.0134">
        <ele>711.99365234375</ele>
        <time>2010-04-24T11:02:00Z</time>
      </trkpt>
      <trkpt lat="45.91586" lon="3.01343">
        <ele>712.95483398438</ele>
        <time>2010-04-24T11:02:09Z</time>
      </trkpt>
      <trkpt lat="45.91571" lon="3.01352">
        <ele>714.39672851562</ele>
        <time>2010-04-24T11:02:17Z</time>
      </trkpt>
      <trkpt lat="45.91554" lon="3.01367">
        <ele>715.35815429688</ele>
        <time>2010-04-24T11:02:27Z</time>
      </trkpt>
      <trkpt lat="45.91542" lon="3.01377">
        <ele>716.80029296875</ele>
        <time>2010-04-24T11:02:34Z</time>
      </trkpt>
      <trkpt lat="45.91531" lon="3.01386">
        <ele>718.72290039062</ele>
        <time>2010-04-24T11:02:41Z</time>
      </trkpt>
      <trkpt lat="45.91514" lon="3.01398">
        <ele>720.16479492188</ele>
        <time>2010-04-24T11:02:51Z</time>
      </trkpt>
      <trkpt lat="45.91502" lon="3.01408">
        <ele>722.56811523438</ele>
        <time>2010-04-24T11:02:59Z</time>
      </trkpt>
      <trkpt lat="45.91493" lon="3.01413">
        <ele>723.52954101562</ele>
        <time>2010-04-24T11:03:05Z</time>
      </trkpt>
      <trkpt lat="45.91483" lon="3.01416">
        <ele>725.45190429688</ele>
        <time>2010-04-24T11:03:11Z</time>
      </trkpt>
      <trkpt lat="45.91467" lon="3.01417">
        <ele>726.89404296875</ele>
        <time>2010-04-24T11:03:19Z</time>
      </trkpt>
      <trkpt lat="45.91448" lon="3.01416">
        <ele>727.37475585938</ele>
        <time>2010-04-24T11:03:27Z</time>
      </trkpt>
      <trkpt lat="45.91426" lon="3.01413">
        <ele>727.85522460938</ele>
        <time>2010-04-24T11:03:35Z</time>
      </trkpt>
      <trkpt lat="45.91405" lon="3.01411">
        <ele>729.29711914062</ele>
        <time>2010-04-24T11:03:42Z</time>
      </trkpt>
      <trkpt lat="45.91376" lon="3.01413">
        <ele>729.29711914062</ele>
        <time>2010-04-24T11:03:51Z</time>
      </trkpt>
      <trkpt lat="45.91347" lon="3.01426">
        <ele>731.21997070312</ele>
        <time>2010-04-24T11:04:00Z</time>
      </trkpt>
      <trkpt lat="45.9132" lon="3.01435">
        <ele>732.18139648438</ele>
        <time>2010-04-24T11:04:08Z</time>
      </trkpt>
      <trkpt lat="45.91296" lon="3.01443">
        <ele>733.142578125</ele>
        <time>2010-04-24T11:04:15Z</time>
      </trkpt>
      <trkpt lat="45.91278" lon="3.01454">
        <ele>733.142578125</ele>
        <time>2010-04-24T11:04:21Z</time>
      </trkpt>
      <trkpt lat="45.91264" lon="3.0146">
        <ele>733.142578125</ele>
        <time>2010-04-24T11:04:26Z</time>
      </trkpt>
      <trkpt lat="45.91251" lon="3.01483">
        <ele>731.70043945312</ele>
        <time>2010-04-24T11:04:32Z</time>
      </trkpt>
      <trkpt lat="45.91228" lon="3.01492">
        <ele>730.7392578125</ele>
        <time>2010-04-24T11:04:37Z</time>
      </trkpt>
      <trkpt lat="45.91196" lon="3.01497">
        <ele>730.7392578125</ele>
        <time>2010-04-24T11:04:44Z</time>
      </trkpt>
      <trkpt lat="45.91172" lon="3.01502">
        <ele>731.21997070312</ele>
        <time>2010-04-24T11:04:50Z</time>
      </trkpt>
      <trkpt lat="45.91165" lon="3.01516">
        <ele>729.29711914062</ele>
        <time>2010-04-24T11:04:53Z</time>
      </trkpt>
      <trkpt lat="45.91159" lon="3.01526">
        <ele>729.29711914062</ele>
        <time>2010-04-24T11:04:55Z</time>
      </trkpt>
      <trkpt lat="45.9114" lon="3.01547">
        <ele>727.85522460938</ele>
        <time>2010-04-24T11:05:00Z</time>
      </trkpt>
      <trkpt lat="45.91125" lon="3.01563">
        <ele>725.9326171875</ele>
        <time>2010-04-24T11:05:03Z</time>
      </trkpt>
      <trkpt lat="45.91102" lon="3.01588">
        <ele>722.56811523438</ele>
        <time>2010-04-24T11:05:07Z</time>
      </trkpt>
      <trkpt lat="45.91061" lon="3.01623">
        <ele>721.12622070312</ele>
        <time>2010-04-24T11:05:13Z</time>
      </trkpt>
      <trkpt lat="45.91033" lon="3.01645">
        <ele>718.72290039062</ele>
        <time>2010-04-24T11:05:17Z</time>
      </trkpt>
      <trkpt lat="45.91011" lon="3.0168">
        <ele>717.28100585938</ele>
        <time>2010-04-24T11:05:21Z</time>
      </trkpt>
      <trkpt lat="45.91007" lon="3.01691">
        <ele>716.80029296875</ele>
        <time>2010-04-24T11:05:22Z</time>
      </trkpt>
      <trkpt lat="45.90999" lon="3.01711">
        <ele>717.28100585938</ele>
        <time>2010-04-24T11:05:24Z</time>
      </trkpt>
      <trkpt lat="45.90984" lon="3.01737">
        <ele>715.8388671875</ele>
        <time>2010-04-24T11:05:27Z</time>
      </trkpt>
      <trkpt lat="45.90965" lon="3.01768">
        <ele>715.35815429688</ele>
        <time>2010-04-24T11:05:31Z</time>
      </trkpt>
      <trkpt lat="45.90937" lon="3.01837">
        <ele>714.87744140625</ele>
        <time>2010-04-24T11:05:39Z</time>
      </trkpt>
      <trkpt lat="45.90919" lon="3.01883">
        <ele>714.87744140625</ele>
        <time>2010-04-24T11:05:44Z</time>
      </trkpt>
      <trkpt lat="45.90909" lon="3.01911">
        <ele>715.35815429688</ele>
        <time>2010-04-24T11:05:47Z</time>
      </trkpt>
      <trkpt lat="45.90881" lon="3.01953">
        <ele>716.31958007812</ele>
        <time>2010-04-24T11:05:53Z</time>
      </trkpt>
      <trkpt lat="45.90857" lon="3.01983">
        <ele>717.76147460938</ele>
        <time>2010-04-24T11:05:58Z</time>
      </trkpt>
      <trkpt lat="45.90841" lon="3.02016">
        <ele>719.20361328125</ele>
        <time>2010-04-24T11:06:03Z</time>
      </trkpt>
      <trkpt lat="45.90831" lon="3.02064">
        <ele>720.6455078125</ele>
        <time>2010-04-24T11:06:10Z</time>
      </trkpt>
      <trkpt lat="45.90821" lon="3.02118">
        <ele>720.6455078125</ele>
        <time>2010-04-24T11:06:18Z</time>
      </trkpt>
      <trkpt lat="45.90812" lon="3.02161">
        <ele>722.56811523438</ele>
        <time>2010-04-24T11:06:25Z</time>
      </trkpt>
      <trkpt lat="45.90803" lon="3.02204">
        <ele>723.52954101562</ele>
        <time>2010-04-24T11:06:33Z</time>
      </trkpt>
      <trkpt lat="45.90796" lon="3.02245">
        <ele>725.45190429688</ele>
        <time>2010-04-24T11:06:42Z</time>
      </trkpt>
      <trkpt lat="45.9079" lon="3.02281">
        <ele>726.89404296875</ele>
        <time>2010-04-24T11:06:52Z</time>
      </trkpt>
      <trkpt lat="45.90784" lon="3.02314">
        <ele>728.3359375</ele>
        <time>2010-04-24T11:07:02Z</time>
      </trkpt>
      <trkpt lat="45.9078" lon="3.02341">
        <ele>729.77783203125</ele>
        <time>2010-04-24T11:07:10Z</time>
      </trkpt>
      <trkpt lat="45.90776" lon="3.02366">
        <ele>731.21997070312</ele>
        <time>2010-04-24T11:07:18Z</time>
      </trkpt>
      <trkpt lat="45.90772" lon="3.0239">
        <ele>733.62329101562</ele>
        <time>2010-04-24T11:07:26Z</time>
      </trkpt>
      <trkpt lat="45.90768" lon="3.0241">
        <ele>735.5458984375</ele>
        <time>2010-04-24T11:07:33Z</time>
      </trkpt>
      <trkpt lat="45.90764" lon="3.02433">
        <ele>738.91064453125</ele>
        <time>2010-04-24T11:07:41Z</time>
      </trkpt>
      <trkpt lat="45.90755" lon="3.02449">
        <ele>741.31372070312</ele>
        <time>2010-04-24T11:07:49Z</time>
      </trkpt>
      <trkpt lat="45.90752" lon="3.02449">
        <ele>741.79443359375</ele>
        <time>2010-04-24T11:07:51Z</time>
      </trkpt>
      <trkpt lat="45.90739" lon="3.02439">
        <ele>742.27514648438</ele>
        <time>2010-04-24T11:08:00Z</time>
      </trkpt>
      <trkpt lat="45.90728" lon="3.02441">
        <ele>741.31372070312</ele>
        <time>2010-04-24T11:08:06Z</time>
      </trkpt>
      <trkpt lat="45.90725" lon="3.02451">
        <ele>740.3525390625</ele>
        <time>2010-04-24T11:08:09Z</time>
      </trkpt>
      <trkpt lat="45.90722" lon="3.02484">
        <ele>737.46850585938</ele>
        <time>2010-04-24T11:08:15Z</time>
      </trkpt>
      <trkpt lat="45.90718" lon="3.02512">
        <ele>734.10400390625</ele>
        <time>2010-04-24T11:08:19Z</time>
      </trkpt>
      <trkpt lat="45.90717" lon="3.02519">
        <ele>732.662109375</ele>
        <time>2010-04-24T11:08:20Z</time>
      </trkpt>
      <trkpt lat="45.90705" lon="3.02549">
        <ele>733.142578125</ele>
        <time>2010-04-24T11:08:24Z</time>
      </trkpt>
      <trkpt lat="45.90702" lon="3.02556">
        <ele>733.62329101562</ele>
        <time>2010-04-24T11:08:25Z</time>
      </trkpt>
      <trkpt lat="45.90689" lon="3.0257">
        <ele>733.62329101562</ele>
        <time>2010-04-24T11:08:29Z</time>
      </trkpt>
      <trkpt lat="45.90681" lon="3.02561">
        <ele>733.142578125</ele>
        <time>2010-04-24T11:08:32Z</time>
      </trkpt>
      <trkpt lat="45.90679" lon="3.02556">
        <ele>733.142578125</ele>
        <time>2010-04-24T11:08:33Z</time>
      </trkpt>
      <trkpt lat="45.90663" lon="3.0252">
        <ele>729.77783203125</ele>
        <time>2010-04-24T11:08:39Z</time>
      </trkpt>
      <trkpt lat="45.9066" lon="3.02514">
        <ele>729.77783203125</ele>
        <time>2010-04-24T11:08:40Z</time>
      </trkpt>
      <trkpt lat="45.90648" lon="3.02489">
        <ele>728.3359375</ele>
        <time>2010-04-24T11:08:45Z</time>
      </trkpt>
      <trkpt lat="45.90645" lon="3.02479">
        <ele>727.85522460938</ele>
        <time>2010-04-24T11:08:47Z</time>
      </trkpt>
      <trkpt lat="45.90644" lon="3.02474">
        <ele>727.85522460938</ele>
        <time>2010-04-24T11:08:48Z</time>
      </trkpt>
      <trkpt lat="45.90644" lon="3.02469">
        <ele>726.89404296875</ele>
        <time>2010-04-24T11:08:49Z</time>
      </trkpt>
      <trkpt lat="45.90644" lon="3.02457">
        <ele>726.89404296875</ele>
        <time>2010-04-24T11:08:51Z</time>
      </trkpt>
      <trkpt lat="45.90643" lon="3.02445">
        <ele>726.89404296875</ele>
        <time>2010-04-24T11:08:53Z</time>
      </trkpt>
      <trkpt lat="45.90632" lon="3.02412">
        <ele>725.9326171875</ele>
        <time>2010-04-24T11:08:59Z</time>
      </trkpt>
      <trkpt lat="45.90619" lon="3.02402">
        <ele>725.45190429688</ele>
        <time>2010-04-24T11:09:03Z</time>
      </trkpt>
      <trkpt lat="45.90607" lon="3.02399">
        <ele>724.01000976562</ele>
        <time>2010-04-24T11:09:06Z</time>
      </trkpt>
      <trkpt lat="45.90579" lon="3.02383">
        <ele>720.6455078125</ele>
        <time>2010-04-24T11:09:11Z</time>
      </trkpt>
      <trkpt lat="45.90573" lon="3.02379">
        <ele>720.16479492188</ele>
        <time>2010-04-24T11:09:12Z</time>
      </trkpt>
      <trkpt lat="45.90552" lon="3.02367">
        <ele>719.20361328125</ele>
        <time>2010-04-24T11:09:15Z</time>
      </trkpt>
      <trkpt lat="45.90527" lon="3.02339">
        <ele>716.80029296875</ele>
        <time>2010-04-24T11:09:19Z</time>
      </trkpt>
      <trkpt lat="45.90522" lon="3.02331">
        <ele>716.80029296875</ele>
        <time>2010-04-24T11:09:20Z</time>
      </trkpt>
      <trkpt lat="45.9051" lon="3.02305">
        <ele>716.31958007812</ele>
        <time>2010-04-24T11:09:24Z</time>
      </trkpt>
      <trkpt lat="45.90503" lon="3.02286">
        <ele>715.8388671875</ele>
        <time>2010-04-24T11:09:28Z</time>
      </trkpt>
      <trkpt lat="45.90497" lon="3.0227">
        <ele>715.35815429688</ele>
        <time>2010-04-24T11:09:31Z</time>
      </trkpt>
      <trkpt lat="45.90479" lon="3.02218">
        <ele>712.47412109375</ele>
        <time>2010-04-24T11:09:38Z</time>
      </trkpt>
      <trkpt lat="45.90465" lon="3.0217">
        <ele>711.99365234375</ele>
        <time>2010-04-24T11:09:44Z</time>
      </trkpt>
      <trkpt lat="45.9046" lon="3.02107">
        <ele>711.99365234375</ele>
        <time>2010-04-24T11:09:52Z</time>
      </trkpt>
      <trkpt lat="45.90459" lon="3.02032">
        <ele>711.0322265625</ele>
        <time>2010-04-24T11:10:01Z</time>
      </trkpt>
      <trkpt lat="45.90458" lon="3.01985">
        <ele>710.55151367188</ele>
        <time>2010-04-24T11:10:07Z</time>
      </trkpt>
      <trkpt lat="45.90458" lon="3.01976">
        <ele>709.10961914062</ele>
        <time>2010-04-24T11:10:08Z</time>
      </trkpt>
      <trkpt lat="45.90446" lon="3.01921">
        <ele>705.26440429688</ele>
        <time>2010-04-24T11:10:14Z</time>
      </trkpt>
      <trkpt lat="45.90444" lon="3.01911">
        <ele>705.26440429688</ele>
        <time>2010-04-24T11:10:15Z</time>
      </trkpt>
      <trkpt lat="45.9044" lon="3.01889">
        <ele>703.341796875</ele>
        <time>2010-04-24T11:10:17Z</time>
      </trkpt>
      <trkpt lat="45.9043" lon="3.01832">
        <ele>700.4580078125</ele>
        <time>2010-04-24T11:10:22Z</time>
      </trkpt>
      <trkpt lat="45.90421" lon="3.01801">
        <ele>699.97705078125</ele>
        <time>2010-04-24T11:10:25Z</time>
      </trkpt>
      <trkpt lat="45.90404" lon="3.01722">
        <ele>693.728515625</ele>
        <time>2010-04-24T11:10:32Z</time>
      </trkpt>
      <trkpt lat="45.90401" lon="3.01709">
        <ele>689.88330078125</ele>
        <time>2010-04-24T11:10:33Z</time>
      </trkpt>
      <trkpt lat="45.90398" lon="3.01695">
        <ele>686.99926757812</ele>
        <time>2010-04-24T11:10:34Z</time>
      </trkpt>
      <trkpt lat="45.90385" lon="3.01624">
        <ele>686.99926757812</ele>
        <time>2010-04-24T11:10:39Z</time>
      </trkpt>
      <trkpt lat="45.90372" lon="3.01585">
        <ele>683.63452148438</ele>
        <time>2010-04-24T11:10:42Z</time>
      </trkpt>
      <trkpt lat="45.90363" lon="3.01557">
        <ele>680.27001953125</ele>
        <time>2010-04-24T11:10:44Z</time>
      </trkpt>
      <trkpt lat="45.90359" lon="3.01542">
        <ele>678.34741210938</ele>
        <time>2010-04-24T11:10:45Z</time>
      </trkpt>
      <trkpt lat="45.9034" lon="3.01498">
        <ele>675.46337890625</ele>
        <time>2010-04-24T11:10:48Z</time>
      </trkpt>
      <trkpt lat="45.90324" lon="3.01476">
        <ele>672.09887695312</ele>
        <time>2010-04-24T11:10:50Z</time>
      </trkpt>
      <trkpt lat="45.90315" lon="3.01469">
        <ele>672.57958984375</ele>
        <time>2010-04-24T11:10:51Z</time>
      </trkpt>
      <trkpt lat="45.90296" lon="3.01467">
        <ele>673.06030273438</ele>
        <time>2010-04-24T11:10:53Z</time>
      </trkpt>
      <trkpt lat="45.90279" lon="3.01479">
        <ele>674.021484375</ele>
        <time>2010-04-24T11:10:55Z</time>
      </trkpt>
      <trkpt lat="45.90266" lon="3.01512">
        <ele>677.38623046875</ele>
        <time>2010-04-24T11:10:58Z</time>
      </trkpt>
      <trkpt lat="45.90264" lon="3.01533">
        <ele>678.828125</ele>
        <time>2010-04-24T11:11:00Z</time>
      </trkpt>
      <trkpt lat="45.90264" lon="3.01552">
        <ele>680.27001953125</ele>
        <time>2010-04-24T11:11:02Z</time>
      </trkpt>
      <trkpt lat="45.90261" lon="3.01586">
        <ele>683.63452148438</ele>
        <time>2010-04-24T11:11:06Z</time>
      </trkpt>
      <trkpt lat="45.90258" lon="3.01603">
        <ele>683.63452148438</ele>
        <time>2010-04-24T11:11:08Z</time>
      </trkpt>
      <trkpt lat="45.90251" lon="3.01628">
        <ele>685.07690429688</ele>
        <time>2010-04-24T11:11:11Z</time>
      </trkpt>
      <trkpt lat="45.90247" lon="3.01635">
        <ele>685.07690429688</ele>
        <time>2010-04-24T11:11:12Z</time>
      </trkpt>
      <trkpt lat="45.90224" lon="3.01667">
        <ele>686.0380859375</ele>
        <time>2010-04-24T11:11:17Z</time>
      </trkpt>
      <trkpt lat="45.90202" lon="3.01695">
        <ele>687.47998046875</ele>
        <time>2010-04-24T11:11:22Z</time>
      </trkpt>
      <trkpt lat="45.9018" lon="3.01718">
        <ele>688.44140625</ele>
        <time>2010-04-24T11:11:26Z</time>
      </trkpt>
      <trkpt lat="45.90135" lon="3.01751">
        <ele>691.3251953125</ele>
        <time>2010-04-24T11:11:34Z</time>
      </trkpt>
      <trkpt lat="45.901" lon="3.01769">
        <ele>690.84448242188</ele>
        <time>2010-04-24T11:11:40Z</time>
      </trkpt>
      <trkpt lat="45.90061" lon="3.01774">
        <ele>693.24780273438</ele>
        <time>2010-04-24T11:11:47Z</time>
      </trkpt>
      <trkpt lat="45.90036" lon="3.01777">
        <ele>694.68969726562</ele>
        <time>2010-04-24T11:11:52Z</time>
      </trkpt>
      <trkpt lat="45.90019" lon="3.01783">
        <ele>695.65112304688</ele>
        <time>2010-04-24T11:11:56Z</time>
      </trkpt>
      <trkpt lat="45.89996" lon="3.01806">
        <ele>691.80590820312</ele>
        <time>2010-04-24T11:12:01Z</time>
      </trkpt>
      <trkpt lat="45.89986" lon="3.01818">
        <ele>691.3251953125</ele>
        <time>2010-04-24T11:12:04Z</time>
      </trkpt>
      <trkpt lat="45.8997" lon="3.01822">
        <ele>689.40258789062</ele>
        <time>2010-04-24T11:12:08Z</time>
      </trkpt>
      <trkpt lat="45.89947" lon="3.0183">
        <ele>686.99926757812</ele>
        <time>2010-04-24T11:12:12Z</time>
      </trkpt>
      <trkpt lat="45.89918" lon="3.01844">
        <ele>686.99926757812</ele>
        <time>2010-04-24T11:12:16Z</time>
      </trkpt>
      <trkpt lat="45.89899" lon="3.01865">
        <ele>688.92211914062</ele>
        <time>2010-04-24T11:12:20Z</time>
      </trkpt>
      <trkpt lat="45.89897" lon="3.01879">
        <ele>690.84448242188</ele>
        <time>2010-04-24T11:12:22Z</time>
      </trkpt>
      <trkpt lat="45.89898" lon="3.01922">
        <ele>692.28662109375</ele>
        <time>2010-04-24T11:12:29Z</time>
      </trkpt>
      <trkpt lat="45.89896" lon="3.01941">
        <ele>693.24780273438</ele>
        <time>2010-04-24T11:12:32Z</time>
      </trkpt>
      <trkpt lat="45.89896" lon="3.0196">
        <ele>694.20922851562</ele>
        <time>2010-04-24T11:12:35Z</time>
      </trkpt>
      <trkpt lat="45.89894" lon="3.01999">
        <ele>697.09301757812</ele>
        <time>2010-04-24T11:12:42Z</time>
      </trkpt>
      <trkpt lat="45.8989" lon="3.02029">
        <ele>698.53491210938</ele>
        <time>2010-04-24T11:12:49Z</time>
      </trkpt>
      <trkpt lat="45.89878" lon="3.02059">
        <ele>700.4580078125</ele>
        <time>2010-04-24T11:12:57Z</time>
      </trkpt>
      <trkpt lat="45.89868" lon="3.02072">
        <ele>702.38037109375</ele>
        <time>2010-04-24T11:13:03Z</time>
      </trkpt>
      <trkpt lat="45.89854" lon="3.02069">
        <ele>701.41918945312</ele>
        <time>2010-04-24T11:13:08Z</time>
      </trkpt>
      <trkpt lat="45.89835" lon="3.02064">
        <ele>700.4580078125</ele>
        <time>2010-04-24T11:13:14Z</time>
      </trkpt>
      <trkpt lat="45.89825" lon="3.02061">
        <ele>699.49633789062</ele>
        <time>2010-04-24T11:13:17Z</time>
      </trkpt>
      <trkpt lat="45.89803" lon="3.02058">
        <ele>699.015625</ele>
        <time>2010-04-24T11:13:22Z</time>
      </trkpt>
      <trkpt lat="45.8978" lon="3.02055">
        <ele>699.015625</ele>
        <time>2010-04-24T11:13:27Z</time>
      </trkpt>
      <trkpt lat="45.89738" lon="3.02053">
        <ele>699.97705078125</ele>
        <time>2010-04-24T11:13:36Z</time>
      </trkpt>
      <trkpt lat="45.89725" lon="3.02049">
        <ele>701.41918945312</ele>
        <time>2010-04-24T11:13:39Z</time>
      </trkpt>
      <trkpt lat="45.89713" lon="3.02042">
        <ele>701.41918945312</ele>
        <time>2010-04-24T11:13:42Z</time>
      </trkpt>
      <trkpt lat="45.89705" lon="3.02038">
        <ele>701.89990234375</ele>
        <time>2010-04-24T11:13:44Z</time>
      </trkpt>
      <trkpt lat="45.89685" lon="3.02032">
        <ele>701.41918945312</ele>
        <time>2010-04-24T11:13:49Z</time>
      </trkpt>
      <trkpt lat="45.89677" lon="3.02044">
        <ele>701.89990234375</ele>
        <time>2010-04-24T11:13:52Z</time>
      </trkpt>
      <trkpt lat="45.89669" lon="3.02091">
        <ele>702.86108398438</ele>
        <time>2010-04-24T11:14:00Z</time>
      </trkpt>
      <trkpt lat="45.8966" lon="3.02114">
        <ele>706.2255859375</ele>
        <time>2010-04-24T11:14:06Z</time>
      </trkpt>
      <trkpt lat="45.89659" lon="3.02118">
        <ele>706.70629882812</ele>
        <time>2010-04-24T11:14:07Z</time>
      </trkpt>
      <trkpt lat="45.89657" lon="3.02143">
        <ele>707.18701171875</ele>
        <time>2010-04-24T11:14:13Z</time>
      </trkpt>
      <trkpt lat="45.8966" lon="3.02172">
        <ele>708.1484375</ele>
        <time>2010-04-24T11:14:19Z</time>
      </trkpt>
      <trkpt lat="45.89656" lon="3.02208">
        <ele>709.10961914062</ele>
        <time>2010-04-24T11:14:26Z</time>
      </trkpt>
      <trkpt lat="45.89644" lon="3.0223">
        <ele>710.07080078125</ele>
        <time>2010-04-24T11:14:32Z</time>
      </trkpt>
      <trkpt lat="45.89629" lon="3.02233">
        <ele>709.59033203125</ele>
        <time>2010-04-24T11:14:36Z</time>
      </trkpt>
      <trkpt lat="45.8962" lon="3.02232">
        <ele>708.62890625</ele>
        <time>2010-04-24T11:14:38Z</time>
      </trkpt>
      <trkpt lat="45.89593" lon="3.02224">
        <ele>707.66772460938</ele>
        <time>2010-04-24T11:14:44Z</time>
      </trkpt>
      <trkpt lat="45.89574" lon="3.0223">
        <ele>704.30322265625</ele>
        <time>2010-04-24T11:14:49Z</time>
      </trkpt>
      <trkpt lat="45.89563" lon="3.02247">
        <ele>702.38037109375</ele>
        <time>2010-04-24T11:14:53Z</time>
      </trkpt>
      <trkpt lat="45.8956" lon="3.0226">
        <ele>702.38037109375</ele>
        <time>2010-04-24T11:14:55Z</time>
      </trkpt>
      <trkpt lat="45.89542" lon="3.02306">
        <ele>701.89990234375</ele>
        <time>2010-04-24T11:15:00Z</time>
      </trkpt>
      <trkpt lat="45.8954" lon="3.02316">
        <ele>701.41918945312</ele>
        <time>2010-04-24T11:15:01Z</time>
      </trkpt>
      <trkpt lat="45.89537" lon="3.02358">
        <ele>700.9384765625</ele>
        <time>2010-04-24T11:15:07Z</time>
      </trkpt>
      <trkpt lat="45.89537" lon="3.02366">
        <ele>700.4580078125</ele>
        <time>2010-04-24T11:15:08Z</time>
      </trkpt>
      <trkpt lat="45.89542" lon="3.02401">
        <ele>699.015625</ele>
        <time>2010-04-24T11:15:12Z</time>
      </trkpt>
      <trkpt lat="45.89545" lon="3.02433">
        <ele>697.57373046875</ele>
        <time>2010-04-24T11:15:15Z</time>
      </trkpt>
      <trkpt lat="45.89548" lon="3.02474">
        <ele>697.57373046875</ele>
        <time>2010-04-24T11:15:19Z</time>
      </trkpt>
      <trkpt lat="45.89547" lon="3.02493">
        <ele>696.61254882812</ele>
        <time>2010-04-24T11:15:21Z</time>
      </trkpt>
      <trkpt lat="45.89541" lon="3.02526">
        <ele>693.24780273438</ele>
        <time>2010-04-24T11:15:24Z</time>
      </trkpt>
      <trkpt lat="45.89537" lon="3.02575">
        <ele>691.80590820312</ele>
        <time>2010-04-24T11:15:28Z</time>
      </trkpt>
      <trkpt lat="45.89539" lon="3.02606">
        <ele>692.76733398438</ele>
        <time>2010-04-24T11:15:31Z</time>
      </trkpt>
      <trkpt lat="45.89542" lon="3.02625">
        <ele>693.24780273438</ele>
        <time>2010-04-24T11:15:33Z</time>
      </trkpt>
      <trkpt lat="45.89559" lon="3.02663">
        <ele>694.20922851562</ele>
        <time>2010-04-24T11:15:38Z</time>
      </trkpt>
      <trkpt lat="45.89573" lon="3.02685">
        <ele>690.84448242188</ele>
        <time>2010-04-24T11:15:41Z</time>
      </trkpt>
      <trkpt lat="45.89582" lon="3.02701">
        <ele>688.92211914062</ele>
        <time>2010-04-24T11:15:43Z</time>
      </trkpt>
      <trkpt lat="45.89582" lon="3.02722">
        <ele>687.47998046875</ele>
        <time>2010-04-24T11:15:47Z</time>
      </trkpt>
      <trkpt lat="45.89566" lon="3.02723">
        <ele>684.59619140625</ele>
        <time>2010-04-24T11:15:50Z</time>
      </trkpt>
      <trkpt lat="45.89546" lon="3.02729">
        <ele>682.19262695312</ele>
        <time>2010-04-24T11:15:53Z</time>
      </trkpt>
      <trkpt lat="45.89524" lon="3.02756">
        <ele>679.30859375</ele>
        <time>2010-04-24T11:15:57Z</time>
      </trkpt>
      <trkpt lat="45.895" lon="3.02804">
        <ele>676.90551757812</ele>
        <time>2010-04-24T11:16:02Z</time>
      </trkpt>
      <trkpt lat="45.89481" lon="3.02855">
        <ele>674.021484375</ele>
        <time>2010-04-24T11:16:07Z</time>
      </trkpt>
      <trkpt lat="45.89478" lon="3.02866">
        <ele>673.06030273438</ele>
        <time>2010-04-24T11:16:08Z</time>
      </trkpt>
      <trkpt lat="45.89463" lon="3.02938">
        <ele>670.65698242188</ele>
        <time>2010-04-24T11:16:14Z</time>
      </trkpt>
      <trkpt lat="45.8945" lon="3.0299">
        <ele>668.25366210938</ele>
        <time>2010-04-24T11:16:18Z</time>
      </trkpt>
      <trkpt lat="45.89447" lon="3.03002">
        <ele>668.25366210938</ele>
        <time>2010-04-24T11:16:19Z</time>
      </trkpt>
      <trkpt lat="45.8942" lon="3.03053">
        <ele>665.85034179688</ele>
        <time>2010-04-24T11:16:24Z</time>
      </trkpt>
      <trkpt lat="45.8941" lon="3.03074">
        <ele>664.88891601562</ele>
        <time>2010-04-24T11:16:26Z</time>
      </trkpt>
      <trkpt lat="45.89395" lon="3.03132">
        <ele>663.92749023438</ele>
        <time>2010-04-24T11:16:31Z</time>
      </trkpt>
      <trkpt lat="45.89385" lon="3.03182">
        <ele>664.408203125</ele>
        <time>2010-04-24T11:16:36Z</time>
      </trkpt>
      <trkpt lat="45.89376" lon="3.03192">
        <ele>664.408203125</ele>
        <time>2010-04-24T11:16:40Z</time>
      </trkpt>
      <trkpt lat="45.89371" lon="3.03183">
        <ele>663.92749023438</ele>
        <time>2010-04-24T11:16:42Z</time>
      </trkpt>
      <trkpt lat="45.89359" lon="3.03137">
        <ele>663.92749023438</ele>
        <time>2010-04-24T11:16:49Z</time>
      </trkpt>
      <trkpt lat="45.89354" lon="3.03101">
        <ele>664.88891601562</ele>
        <time>2010-04-24T11:16:54Z</time>
      </trkpt>
      <trkpt lat="45.89349" lon="3.03073">
        <ele>665.36962890625</ele>
        <time>2010-04-24T11:16:58Z</time>
      </trkpt>
      <trkpt lat="45.89336" lon="3.0303">
        <ele>667.29223632812</ele>
        <time>2010-04-24T11:17:06Z</time>
      </trkpt>
      <trkpt lat="45.89316" lon="3.02997">
        <ele>667.77270507812</ele>
        <time>2010-04-24T11:17:14Z</time>
      </trkpt>
      <trkpt lat="45.89302" lon="3.02989">
        <ele>669.21508789062</ele>
        <time>2010-04-24T11:17:19Z</time>
      </trkpt>
      <trkpt lat="45.89281" lon="3.0298">
        <ele>670.17626953125</ele>
        <time>2010-04-24T11:17:25Z</time>
      </trkpt>
      <trkpt lat="45.89258" lon="3.02965">
        <ele>670.65698242188</ele>
        <time>2010-04-24T11:17:32Z</time>
      </trkpt>
      <trkpt lat="45.89233" lon="3.02953">
        <ele>673.06030273438</ele>
        <time>2010-04-24T11:17:40Z</time>
      </trkpt>
      <trkpt lat="45.89218" lon="3.02947">
        <ele>673.541015625</ele>
        <time>2010-04-24T11:17:46Z</time>
      </trkpt>
      <trkpt lat="45.89199" lon="3.02941">
        <ele>673.541015625</ele>
        <time>2010-04-24T11:17:54Z</time>
      </trkpt>
      <trkpt lat="45.89182" lon="3.02926">
        <ele>674.50219726562</ele>
        <time>2010-04-24T11:18:01Z</time>
      </trkpt>
      <trkpt lat="45.89168" lon="3.02904">
        <ele>673.06030273438</ele>
        <time>2010-04-24T11:18:07Z</time>
      </trkpt>
      <trkpt lat="45.89161" lon="3.02888">
        <ele>672.57958984375</ele>
        <time>2010-04-24T11:18:10Z</time>
      </trkpt>
      <trkpt lat="45.89139" lon="3.02852">
        <ele>672.57958984375</ele>
        <time>2010-04-24T11:18:18Z</time>
      </trkpt>
      <trkpt lat="45.89122" lon="3.0283">
        <ele>673.541015625</ele>
        <time>2010-04-24T11:18:24Z</time>
      </trkpt>
      <trkpt lat="45.89106" lon="3.02816">
        <ele>673.06030273438</ele>
        <time>2010-04-24T11:18:29Z</time>
      </trkpt>
      <trkpt lat="45.89079" lon="3.02792">
        <ele>673.541015625</ele>
        <time>2010-04-24T11:18:37Z</time>
      </trkpt>
      <trkpt lat="45.89063" lon="3.02775">
        <ele>671.6181640625</ele>
        <time>2010-04-24T11:18:43Z</time>
      </trkpt>
      <trkpt lat="45.89058" lon="3.02767">
        <ele>670.65698242188</ele>
        <time>2010-04-24T11:18:45Z</time>
      </trkpt>
      <trkpt lat="45.89047" lon="3.02768">
        <ele>671.1376953125</ele>
        <time>2010-04-24T11:18:49Z</time>
      </trkpt>
      <trkpt lat="45.89037" lon="3.02796">
        <ele>670.65698242188</ele>
        <time>2010-04-24T11:18:56Z</time>
      </trkpt>
      <trkpt lat="45.89037" lon="3.0282">
        <ele>667.29223632812</ele>
        <time>2010-04-24T11:19:00Z</time>
      </trkpt>
      <trkpt lat="45.89036" lon="3.02837">
        <ele>664.408203125</ele>
        <time>2010-04-24T11:19:02Z</time>
      </trkpt>
      <trkpt lat="45.89036" lon="3.02877">
        <ele>661.5244140625</ele>
        <time>2010-04-24T11:19:06Z</time>
      </trkpt>
      <trkpt lat="45.89031" lon="3.02919">
        <ele>659.12109375</ele>
        <time>2010-04-24T11:19:10Z</time>
      </trkpt>
      <trkpt lat="45.89023" lon="3.02946">
        <ele>659.60180664062</ele>
        <time>2010-04-24T11:19:15Z</time>
      </trkpt>
      <trkpt lat="45.89025" lon="3.02946">
        <ele>660.08227539062</ele>
        <time>2010-04-24T11:19:23Z</time>
      </trkpt>
      <trkpt lat="45.89025" lon="3.02946">
        <ele>659.60180664062</ele>
        <time>2010-04-24T11:19:31Z</time>
      </trkpt>
      <trkpt lat="45.89025" lon="3.02945">
        <ele>660.08227539062</ele>
        <time>2010-04-24T11:19:36Z</time>
      </trkpt>
      <trkpt lat="45.89024" lon="3.02945">
        <ele>660.08227539062</ele>
        <time>2010-04-24T11:19:44Z</time>
      </trkpt>
      <trkpt lat="45.89024" lon="3.02945">
        <ele>660.08227539062</ele>
        <time>2010-04-24T11:19:47Z</time>
      </trkpt>
      <trkpt lat="45.89024" lon="3.02945">
        <ele>660.56298828125</ele>
        <time>2010-04-24T11:19:48Z</time>
      </trkpt>
      <trkpt lat="45.89025" lon="3.02946">
        <ele>659.60180664062</ele>
        <time>2010-04-24T11:20:04Z</time>
      </trkpt>
      <trkpt lat="45.89024" lon="3.02946">
        <ele>659.60180664062</ele>
        <time>2010-04-24T11:20:17Z</time>
      </trkpt>
      <trkpt lat="45.89024" lon="3.02946">
        <ele>659.60180664062</ele>
        <time>2010-04-24T11:20:22Z</time>
      </trkpt>
      <trkpt lat="45.89023" lon="3.02946">
        <ele>660.08227539062</ele>
        <time>2010-04-24T11:20:30Z</time>
      </trkpt>
      <trkpt lat="45.89024" lon="3.02947">
        <ele>659.60180664062</ele>
        <time>2010-04-24T11:20:39Z</time>
      </trkpt>
      <trkpt lat="45.89024" lon="3.02947">
        <ele>659.12109375</ele>
        <time>2010-04-24T11:20:48Z</time>
      </trkpt>
      <trkpt lat="45.89024" lon="3.02947">
        <ele>658.64038085938</ele>
        <time>2010-04-24T11:20:57Z</time>
      </trkpt>
      <trkpt lat="45.89025" lon="3.02947">
        <ele>658.15991210938</ele>
        <time>2010-04-24T11:20:59Z</time>
      </trkpt>
      <trkpt lat="45.89033" lon="3.02955">
        <ele>655.75659179688</ele>
        <time>2010-04-24T11:21:03Z</time>
      </trkpt>
      <trkpt lat="45.89041" lon="3.02966">
        <ele>654.31469726562</ele>
        <time>2010-04-24T11:21:06Z</time>
      </trkpt>
      <trkpt lat="45.89045" lon="3.0298">
        <ele>650.94970703125</ele>
        <time>2010-04-24T11:21:09Z</time>
      </trkpt>
      <trkpt lat="45.89046" lon="3.02993">
        <ele>647.58520507812</ele>
        <time>2010-04-24T11:21:12Z</time>
      </trkpt>
      <trkpt lat="45.89048" lon="3.03009">
        <ele>643.73999023438</ele>
        <time>2010-04-24T11:21:15Z</time>
      </trkpt>
      <trkpt lat="45.89048" lon="3.03021">
        <ele>641.8173828125</ele>
        <time>2010-04-24T11:21:17Z</time>
      </trkpt>
      <trkpt lat="45.89047" lon="3.03043">
        <ele>638.45288085938</ele>
        <time>2010-04-24T11:21:20Z</time>
      </trkpt>
      <trkpt lat="45.89048" lon="3.03061">
        <ele>637.49145507812</ele>
        <time>2010-04-24T11:21:24Z</time>
      </trkpt>
      <trkpt lat="45.89047" lon="3.03068">
        <ele>636.5302734375</ele>
        <time>2010-04-24T11:21:26Z</time>
      </trkpt>
      <trkpt lat="45.89044" lon="3.0308">
        <ele>632.68481445312</ele>
        <time>2010-04-24T11:21:32Z</time>
      </trkpt>
      <trkpt lat="45.89037" lon="3.0309">
        <ele>627.87817382812</ele>
        <time>2010-04-24T11:21:36Z</time>
      </trkpt>
      <trkpt lat="45.89034" lon="3.03091">
        <ele>627.87817382812</ele>
        <time>2010-04-24T11:21:37Z</time>
      </trkpt>
      <trkpt lat="45.89027" lon="3.03087">
        <ele>625.95556640625</ele>
        <time>2010-04-24T11:21:40Z</time>
      </trkpt>
      <trkpt lat="45.89024" lon="3.03087">
        <ele>625.95556640625</ele>
        <time>2010-04-24T11:21:41Z</time>
      </trkpt>
      <trkpt lat="45.89018" lon="3.03089">
        <ele>623.07177734375</ele>
        <time>2010-04-24T11:21:43Z</time>
      </trkpt>
      <trkpt lat="45.89016" lon="3.0309">
        <ele>622.59106445312</ele>
        <time>2010-04-24T11:21:44Z</time>
      </trkpt>
      <trkpt lat="45.89013" lon="3.03096">
        <ele>622.1103515625</ele>
        <time>2010-04-24T11:21:48Z</time>
      </trkpt>
      <trkpt lat="45.89014" lon="3.03099">
        <ele>621.62963867188</ele>
        <time>2010-04-24T11:21:51Z</time>
      </trkpt>
      <trkpt lat="45.89014" lon="3.03108">
        <ele>619.70703125</ele>
        <time>2010-04-24T11:21:57Z</time>
      </trkpt>
      <trkpt lat="45.89013" lon="3.03113">
        <ele>617.7841796875</ele>
        <time>2010-04-24T11:22:03Z</time>
      </trkpt>
      <trkpt lat="45.89013" lon="3.03114">
        <ele>617.7841796875</ele>
        <time>2010-04-24T11:22:04Z</time>
      </trkpt>
      <trkpt lat="45.89011" lon="3.03117">
        <ele>617.3037109375</ele>
        <time>2010-04-24T11:22:06Z</time>
      </trkpt>
      <trkpt lat="45.89013" lon="3.03127">
        <ele>614.41967773438</ele>
        <time>2010-04-24T11:22:12Z</time>
      </trkpt>
      <trkpt lat="45.89015" lon="3.03134">
        <ele>613.45849609375</ele>
        <time>2010-04-24T11:22:17Z</time>
      </trkpt>
      <trkpt lat="45.89011" lon="3.03147">
        <ele>610.57446289062</ele>
        <time>2010-04-24T11:22:22Z</time>
      </trkpt>
      <trkpt lat="45.89001" lon="3.0315">
        <ele>608.65185546875</ele>
        <time>2010-04-24T11:22:26Z</time>
      </trkpt>
      <trkpt lat="45.88993" lon="3.03149">
        <ele>605.76806640625</ele>
        <time>2010-04-24T11:22:30Z</time>
      </trkpt>
      <trkpt lat="45.88989" lon="3.0315">
        <ele>604.326171875</ele>
        <time>2010-04-24T11:22:31Z</time>
      </trkpt>
      <trkpt lat="45.88985" lon="3.03149">
        <ele>604.326171875</ele>
        <time>2010-04-24T11:22:32Z</time>
      </trkpt>
      <trkpt lat="45.88976" lon="3.03148">
        <ele>602.8837890625</ele>
        <time>2010-04-24T11:22:34Z</time>
      </trkpt>
      <trkpt lat="45.88972" lon="3.03149">
        <ele>601.44189453125</ele>
        <time>2010-04-24T11:22:35Z</time>
      </trkpt>
      <trkpt lat="45.88965" lon="3.03153">
        <ele>599.51928710938</ele>
        <time>2010-04-24T11:22:37Z</time>
      </trkpt>
      <trkpt lat="45.88961" lon="3.03164">
        <ele>596.15478515625</ele>
        <time>2010-04-24T11:22:40Z</time>
      </trkpt>
      <trkpt lat="45.88963" lon="3.03176">
        <ele>594.71264648438</ele>
        <time>2010-04-24T11:22:43Z</time>
      </trkpt>
      <trkpt lat="45.88964" lon="3.03191">
        <ele>591.34814453125</ele>
        <time>2010-04-24T11:22:46Z</time>
      </trkpt>
      <trkpt lat="45.88964" lon="3.03208">
        <ele>587.9833984375</ele>
        <time>2010-04-24T11:22:49Z</time>
      </trkpt>
      <trkpt lat="45.88965" lon="3.03214">
        <ele>587.50268554688</ele>
        <time>2010-04-24T11:22:50Z</time>
      </trkpt>
      <trkpt lat="45.88968" lon="3.03222">
        <ele>586.54150390625</ele>
        <time>2010-04-24T11:22:52Z</time>
      </trkpt>
      <trkpt lat="45.8897" lon="3.03225">
        <ele>583.65747070312</ele>
        <time>2010-04-24T11:22:54Z</time>
      </trkpt>
      <trkpt lat="45.88984" lon="3.03226">
        <ele>579.81225585938</ele>
        <time>2010-04-24T11:22:58Z</time>
      </trkpt>
      <trkpt lat="45.89" lon="3.03231">
        <ele>576.44775390625</ele>
        <time>2010-04-24T11:23:01Z</time>
      </trkpt>
      <trkpt lat="45.89025" lon="3.03231">
        <ele>574.04443359375</ele>
        <time>2010-04-24T11:23:06Z</time>
      </trkpt>
      <trkpt lat="45.8904" lon="3.03222">
        <ele>572.6025390625</ele>
        <time>2010-04-24T11:23:10Z</time>
      </trkpt>
      <trkpt lat="45.89043" lon="3.0322">
        <ele>572.12182617188</ele>
        <time>2010-04-24T11:23:11Z</time>
      </trkpt>
      <trkpt lat="45.89052" lon="3.03219">
        <ele>571.16040039062</ele>
        <time>2010-04-24T11:23:13Z</time>
      </trkpt>
      <trkpt lat="45.89054" lon="3.0322">
        <ele>571.16040039062</ele>
        <time>2010-04-24T11:23:14Z</time>
      </trkpt>
      <trkpt lat="45.89055" lon="3.03237">
        <ele>569.23779296875</ele>
        <time>2010-04-24T11:23:19Z</time>
      </trkpt>
      <trkpt lat="45.89054" lon="3.03242">
        <ele>569.71850585938</ele>
        <time>2010-04-24T11:23:20Z</time>
      </trkpt>
      <trkpt lat="45.89046" lon="3.03277">
        <ele>566.35375976562</ele>
        <time>2010-04-24T11:23:26Z</time>
      </trkpt>
      <trkpt lat="45.89044" lon="3.03284">
        <ele>565.87329101562</ele>
        <time>2010-04-24T11:23:27Z</time>
      </trkpt>
      <trkpt lat="45.89038" lon="3.03313">
        <ele>561.06665039062</ele>
        <time>2010-04-24T11:23:31Z</time>
      </trkpt>
      <trkpt lat="45.89038" lon="3.03342">
        <ele>556.74072265625</ele>
        <time>2010-04-24T11:23:35Z</time>
      </trkpt>
      <trkpt lat="45.89039" lon="3.0335">
        <ele>555.779296875</ele>
        <time>2010-04-24T11:23:36Z</time>
      </trkpt>
      <trkpt lat="45.89038" lon="3.03384">
        <ele>551.45336914062</ele>
        <time>2010-04-24T11:23:40Z</time>
      </trkpt>
      <trkpt lat="45.89038" lon="3.03392">
        <ele>551.45336914062</ele>
        <time>2010-04-24T11:23:41Z</time>
      </trkpt>
      <trkpt lat="45.89038" lon="3.03408">
        <ele>549.53076171875</ele>
        <time>2010-04-24T11:23:43Z</time>
      </trkpt>
      <trkpt lat="45.8904" lon="3.03451">
        <ele>544.72424316406</ele>
        <time>2010-04-24T11:23:48Z</time>
      </trkpt>
      <trkpt lat="45.89038" lon="3.03477">
        <ele>541.35949707031</ele>
        <time>2010-04-24T11:23:52Z</time>
      </trkpt>
      <trkpt lat="45.89037" lon="3.03501">
        <ele>539.43688964844</ele>
        <time>2010-04-24T11:23:55Z</time>
      </trkpt>
      <trkpt lat="45.89022" lon="3.0355">
        <ele>537.99499511719</ele>
        <time>2010-04-24T11:24:00Z</time>
      </trkpt>
      <trkpt lat="45.89016" lon="3.03569">
        <ele>534.63037109375</ele>
        <time>2010-04-24T11:24:02Z</time>
      </trkpt>
      <trkpt lat="45.89013" lon="3.03578">
        <ele>532.70776367188</ele>
        <time>2010-04-24T11:24:03Z</time>
      </trkpt>
      <trkpt lat="45.89006" lon="3.03595">
        <ele>531.26574707031</ele>
        <time>2010-04-24T11:24:05Z</time>
      </trkpt>
      <trkpt lat="45.89004" lon="3.03602">
        <ele>530.78515625</ele>
        <time>2010-04-24T11:24:06Z</time>
      </trkpt>
      <trkpt lat="45.88985" lon="3.03633">
        <ele>528.86254882812</ele>
        <time>2010-04-24T11:24:11Z</time>
      </trkpt>
      <trkpt lat="45.88978" lon="3.03644">
        <ele>527.42041015625</ele>
        <time>2010-04-24T11:24:13Z</time>
      </trkpt>
      <trkpt lat="45.88972" lon="3.03662">
        <ele>525.01721191406</ele>
        <time>2010-04-24T11:24:16Z</time>
      </trkpt>
      <trkpt lat="45.88957" lon="3.03704">
        <ele>521.65258789062</ele>
        <time>2010-04-24T11:24:21Z</time>
      </trkpt>
      <trkpt lat="45.88943" lon="3.0374">
        <ele>518.28784179688</ele>
        <time>2010-04-24T11:24:25Z</time>
      </trkpt>
      <trkpt lat="45.88936" lon="3.03759">
        <ele>517.80725097656</ele>
        <time>2010-04-24T11:24:27Z</time>
      </trkpt>
      <trkpt lat="45.88926" lon="3.03785">
        <ele>516.84594726562</ele>
        <time>2010-04-24T11:24:30Z</time>
      </trkpt>
      <trkpt lat="45.88911" lon="3.03818">
        <ele>515.40405273438</ele>
        <time>2010-04-24T11:24:34Z</time>
      </trkpt>
      <trkpt lat="45.88894" lon="3.03842">
        <ele>513.96203613281</ele>
        <time>2010-04-24T11:24:37Z</time>
      </trkpt>
      <trkpt lat="45.8888" lon="3.03856">
        <ele>511.07800292969</ele>
        <time>2010-04-24T11:24:39Z</time>
      </trkpt>
      <trkpt lat="45.88861" lon="3.03874">
        <ele>507.23278808594</ele>
        <time>2010-04-24T11:24:42Z</time>
      </trkpt>
      <trkpt lat="45.88855" lon="3.03879">
        <ele>506.271484375</ele>
        <time>2010-04-24T11:24:43Z</time>
      </trkpt>
      <trkpt lat="45.88839" lon="3.03896">
        <ele>504.82946777344</ele>
        <time>2010-04-24T11:24:46Z</time>
      </trkpt>
      <trkpt lat="45.88835" lon="3.03901">
        <ele>505.31018066406</ele>
        <time>2010-04-24T11:24:47Z</time>
      </trkpt>
      <trkpt lat="45.88826" lon="3.03899">
        <ele>504.82946777344</ele>
        <time>2010-04-24T11:24:51Z</time>
      </trkpt>
      <trkpt lat="45.88816" lon="3.03889">
        <ele>505.31018066406</ele>
        <time>2010-04-24T11:24:56Z</time>
      </trkpt>
      <trkpt lat="45.88807" lon="3.03887">
        <ele>505.79089355469</ele>
        <time>2010-04-24T11:25:00Z</time>
      </trkpt>
      <trkpt lat="45.88791" lon="3.03892">
        <ele>506.75207519531</ele>
        <time>2010-04-24T11:25:07Z</time>
      </trkpt>
      <trkpt lat="45.88781" lon="3.03893">
        <ele>508.19409179688</ele>
        <time>2010-04-24T11:25:13Z</time>
      </trkpt>
      <trkpt lat="45.88779" lon="3.03893">
        <ele>508.67468261719</ele>
        <time>2010-04-24T11:25:14Z</time>
      </trkpt>
      <trkpt lat="45.88775" lon="3.03892">
        <ele>509.63610839844</ele>
        <time>2010-04-24T11:25:16Z</time>
      </trkpt>
      <trkpt lat="45.8877" lon="3.0389">
        <ele>509.63610839844</ele>
        <time>2010-04-24T11:25:18Z</time>
      </trkpt>
      <trkpt lat="45.88761" lon="3.03881">
        <ele>511.55871582031</ele>
        <time>2010-04-24T11:25:24Z</time>
      </trkpt>
      <trkpt lat="45.88758" lon="3.03878">
        <ele>512.52001953125</ele>
        <time>2010-04-24T11:25:26Z</time>
      </trkpt>
      <trkpt lat="45.8875" lon="3.03865">
        <ele>513.00073242188</ele>
        <time>2010-04-24T11:25:32Z</time>
      </trkpt>
      <trkpt lat="45.88747" lon="3.03859">
        <ele>513.96203613281</ele>
        <time>2010-04-24T11:25:35Z</time>
      </trkpt>
      <trkpt lat="45.88746" lon="3.03855">
        <ele>514.44262695312</ele>
        <time>2010-04-24T11:25:37Z</time>
      </trkpt>
      <trkpt lat="45.88739" lon="3.03837">
        <ele>515.88464355469</ele>
        <time>2010-04-24T11:25:45Z</time>
      </trkpt>
      <trkpt lat="45.88733" lon="3.0382">
        <ele>517.32666015625</ele>
        <time>2010-04-24T11:25:52Z</time>
      </trkpt>
      <trkpt lat="45.88729" lon="3.03813">
        <ele>518.28784179688</ele>
        <time>2010-04-24T11:25:56Z</time>
      </trkpt>
      <trkpt lat="45.88726" lon="3.03807">
        <ele>518.7685546875</ele>
        <time>2010-04-24T11:25:59Z</time>
      </trkpt>
      <trkpt lat="45.88719" lon="3.03796">
        <ele>519.24926757812</ele>
        <time>2010-04-24T11:26:05Z</time>
      </trkpt>
      <trkpt lat="45.88715" lon="3.0379">
        <ele>519.72985839844</ele>
        <time>2010-04-24T11:26:08Z</time>
      </trkpt>
      <trkpt lat="45.8871" lon="3.03782">
        <ele>520.69128417969</ele>
        <time>2010-04-24T11:26:13Z</time>
      </trkpt>
      <trkpt lat="45.88704" lon="3.03775">
        <ele>521.65258789062</ele>
        <time>2010-04-24T11:26:18Z</time>
      </trkpt>
      <trkpt lat="45.88696" lon="3.03759">
        <ele>523.5751953125</ele>
        <time>2010-04-24T11:26:25Z</time>
      </trkpt>
      <trkpt lat="45.88689" lon="3.03745">
        <ele>525.01721191406</ele>
        <time>2010-04-24T11:26:32Z</time>
      </trkpt>
      <trkpt lat="45.88687" lon="3.03741">
        <ele>525.01721191406</ele>
        <time>2010-04-24T11:26:34Z</time>
      </trkpt>
      <trkpt lat="45.88679" lon="3.03728">
        <ele>525.97839355469</ele>
        <time>2010-04-24T11:26:41Z</time>
      </trkpt>
      <trkpt lat="45.88667" lon="3.03717">
        <ele>526.93981933594</ele>
        <time>2010-04-24T11:26:48Z</time>
      </trkpt>
      <trkpt lat="45.88657" lon="3.03705">
        <ele>529.34313964844</ele>
        <time>2010-04-24T11:26:55Z</time>
      </trkpt>
      <trkpt lat="45.88647" lon="3.03694">
        <ele>530.78515625</ele>
        <time>2010-04-24T11:27:02Z</time>
      </trkpt>
      <trkpt lat="45.88639" lon="3.03682">
        <ele>532.22705078125</ele>
        <time>2010-04-24T11:27:08Z</time>
      </trkpt>
      <trkpt lat="45.88637" lon="3.0368">
        <ele>532.70776367188</ele>
        <time>2010-04-24T11:27:10Z</time>
      </trkpt>
      <trkpt lat="45.88627" lon="3.03669">
        <ele>533.6689453125</ele>
        <time>2010-04-24T11:27:16Z</time>
      </trkpt>
      <trkpt lat="45.88625" lon="3.03667">
        <ele>534.14965820312</ele>
        <time>2010-04-24T11:27:17Z</time>
      </trkpt>
      <trkpt lat="45.88613" lon="3.03651">
        <ele>535.59155273438</ele>
        <time>2010-04-24T11:27:25Z</time>
      </trkpt>
      <trkpt lat="45.88609" lon="3.03636">
        <ele>536.07238769531</ele>
        <time>2010-04-24T11:27:31Z</time>
      </trkpt>
      <trkpt lat="45.88602" lon="3.03624">
        <ele>537.51428222656</ele>
        <time>2010-04-24T11:27:36Z</time>
      </trkpt>
      <trkpt lat="45.88594" lon="3.03615">
        <ele>538.95629882812</ele>
        <time>2010-04-24T11:27:41Z</time>
      </trkpt>
      <trkpt lat="45.88588" lon="3.03605">
        <ele>539.91760253906</ele>
        <time>2010-04-24T11:27:46Z</time>
      </trkpt>
      <trkpt lat="45.88579" lon="3.03588">
        <ele>541.84020996094</ele>
        <time>2010-04-24T11:27:53Z</time>
      </trkpt>
      <trkpt lat="45.88576" lon="3.03571">
        <ele>543.28210449219</ele>
        <time>2010-04-24T11:27:59Z</time>
      </trkpt>
      <trkpt lat="45.88573" lon="3.03549">
        <ele>544.72424316406</ele>
        <time>2010-04-24T11:28:06Z</time>
      </trkpt>
      <trkpt lat="45.8857" lon="3.03535">
        <ele>546.16625976562</ele>
        <time>2010-04-24T11:28:12Z</time>
      </trkpt>
      <trkpt lat="45.88567" lon="3.0352">
        <ele>547.12744140625</ele>
        <time>2010-04-24T11:28:18Z</time>
      </trkpt>
      <trkpt lat="45.88566" lon="3.03505">
        <ele>547.60815429688</ele>
        <time>2010-04-24T11:28:24Z</time>
      </trkpt>
      <trkpt lat="45.88564" lon="3.03491">
        <ele>549.05004882812</ele>
        <time>2010-04-24T11:28:30Z</time>
      </trkpt>
      <trkpt lat="45.88561" lon="3.03477">
        <ele>549.53076171875</ele>
        <time>2010-04-24T11:28:36Z</time>
      </trkpt>
      <trkpt lat="45.88559" lon="3.0346">
        <ele>550.97265625</ele>
        <time>2010-04-24T11:28:43Z</time>
      </trkpt>
      <trkpt lat="45.88557" lon="3.03448">
        <ele>552.89526367188</ele>
        <time>2010-04-24T11:28:49Z</time>
      </trkpt>
      <trkpt lat="45.88555" lon="3.0343">
        <ele>553.85668945312</ele>
        <time>2010-04-24T11:28:56Z</time>
      </trkpt>
      <trkpt lat="45.88554" lon="3.03413">
        <ele>555.29858398438</ele>
        <time>2010-04-24T11:29:02Z</time>
      </trkpt>
      <trkpt lat="45.8855" lon="3.03392">
        <ele>556.74072265625</ele>
        <time>2010-04-24T11:29:10Z</time>
      </trkpt>
      <trkpt lat="45.88544" lon="3.0338">
        <ele>558.18286132812</ele>
        <time>2010-04-24T11:29:16Z</time>
      </trkpt>
      <trkpt lat="45.88538" lon="3.03367">
        <ele>559.62475585938</ele>
        <time>2010-04-24T11:29:21Z</time>
      </trkpt>
      <trkpt lat="45.88534" lon="3.03352">
        <ele>560.5859375</ele>
        <time>2010-04-24T11:29:27Z</time>
      </trkpt>
      <trkpt lat="45.88532" lon="3.03342">
        <ele>561.54736328125</ele>
        <time>2010-04-24T11:29:31Z</time>
      </trkpt>
      <trkpt lat="45.88527" lon="3.03322">
        <ele>562.50854492188</ele>
        <time>2010-04-24T11:29:38Z</time>
      </trkpt>
      <trkpt lat="45.88522" lon="3.0331">
        <ele>564.43115234375</ele>
        <time>2010-04-24T11:29:43Z</time>
      </trkpt>
      <trkpt lat="45.88516" lon="3.03292">
        <ele>564.91186523438</ele>
        <time>2010-04-24T11:29:50Z</time>
      </trkpt>
      <trkpt lat="45.88514" lon="3.03276">
        <ele>566.35375976562</ele>
        <time>2010-04-24T11:29:56Z</time>
      </trkpt>
      <trkpt lat="45.88514" lon="3.03263">
        <ele>567.31518554688</ele>
        <time>2010-04-24T11:30:01Z</time>
      </trkpt>
      <trkpt lat="45.88513" lon="3.03255">
        <ele>567.79565429688</ele>
        <time>2010-04-24T11:30:04Z</time>
      </trkpt>
      <trkpt lat="45.88505" lon="3.03254">
        <ele>569.23779296875</ele>
        <time>2010-04-24T11:30:09Z</time>
      </trkpt>
      <trkpt lat="45.88503" lon="3.03257">
        <ele>568.75708007812</ele>
        <time>2010-04-24T11:30:11Z</time>
      </trkpt>
      <trkpt lat="45.88495" lon="3.03269">
        <ele>566.83447265625</ele>
        <time>2010-04-24T11:30:15Z</time>
      </trkpt>
      <trkpt lat="45.88481" lon="3.03288">
        <ele>563.95043945312</ele>
        <time>2010-04-24T11:30:19Z</time>
      </trkpt>
      <trkpt lat="45.88479" lon="3.03293">
        <ele>563.95043945312</ele>
        <time>2010-04-24T11:30:20Z</time>
      </trkpt>
      <trkpt lat="45.88482" lon="3.033">
        <ele>564.43115234375</ele>
        <time>2010-04-24T11:30:22Z</time>
      </trkpt>
      <trkpt lat="45.88493" lon="3.03321">
        <ele>565.392578125</ele>
        <time>2010-04-24T11:30:28Z</time>
      </trkpt>
      <trkpt lat="45.88496" lon="3.03342">
        <ele>566.35375976562</ele>
        <time>2010-04-24T11:30:33Z</time>
      </trkpt>
      <trkpt lat="45.88496" lon="3.03355">
        <ele>567.79565429688</ele>
        <time>2010-04-24T11:30:37Z</time>
      </trkpt>
      <trkpt lat="45.88493" lon="3.03372">
        <ele>570.19897460938</ele>
        <time>2010-04-24T11:30:43Z</time>
      </trkpt>
      <trkpt lat="45.88491" lon="3.03382">
        <ele>571.64086914062</ele>
        <time>2010-04-24T11:30:47Z</time>
      </trkpt>
      <trkpt lat="45.88489" lon="3.03398">
        <ele>573.56396484375</ele>
        <time>2010-04-24T11:30:53Z</time>
      </trkpt>
      <trkpt lat="45.88488" lon="3.03402">
        <ele>574.04443359375</ele>
        <time>2010-04-24T11:30:54Z</time>
      </trkpt>
      <trkpt lat="45.88484" lon="3.0342">
        <ele>575.486328125</ele>
        <time>2010-04-24T11:31:00Z</time>
      </trkpt>
      <trkpt lat="45.88482" lon="3.03427">
        <ele>575.96704101562</ele>
        <time>2010-04-24T11:31:03Z</time>
      </trkpt>
      <trkpt lat="45.8848" lon="3.03443">
        <ele>576.44775390625</ele>
        <time>2010-04-24T11:31:09Z</time>
      </trkpt>
      <trkpt lat="45.88478" lon="3.03457">
        <ele>577.8896484375</ele>
        <time>2010-04-24T11:31:14Z</time>
      </trkpt>
      <trkpt lat="45.88475" lon="3.03474">
        <ele>579.33154296875</ele>
        <time>2010-04-24T11:31:20Z</time>
      </trkpt>
      <trkpt lat="45.88475" lon="3.03487">
        <ele>580.29296875</ele>
        <time>2010-04-24T11:31:25Z</time>
      </trkpt>
      <trkpt lat="45.88475" lon="3.03493">
        <ele>580.77368164062</ele>
        <time>2010-04-24T11:31:27Z</time>
      </trkpt>
      <trkpt lat="45.88473" lon="3.03516">
        <ele>581.25439453125</ele>
        <time>2010-04-24T11:31:34Z</time>
      </trkpt>
      <trkpt lat="45.88472" lon="3.03542">
        <ele>582.21557617188</ele>
        <time>2010-04-24T11:31:41Z</time>
      </trkpt>
      <trkpt lat="45.88465" lon="3.03558">
        <ele>584.13818359375</ele>
        <time>2010-04-24T11:31:46Z</time>
      </trkpt>
      <trkpt lat="45.8845" lon="3.03573">
        <ele>585.580078125</ele>
        <time>2010-04-24T11:31:53Z</time>
      </trkpt>
      <trkpt lat="45.88439" lon="3.03584">
        <ele>586.06079101562</ele>
        <time>2010-04-24T11:31:58Z</time>
      </trkpt>
      <trkpt lat="45.88437" lon="3.03586">
        <ele>586.54150390625</ele>
        <time>2010-04-24T11:31:59Z</time>
      </trkpt>
      <trkpt lat="45.88433" lon="3.03602">
        <ele>586.06079101562</ele>
        <time>2010-04-24T11:32:04Z</time>
      </trkpt>
      <trkpt lat="45.88433" lon="3.03618">
        <ele>586.06079101562</ele>
        <time>2010-04-24T11:32:08Z</time>
      </trkpt>
      <trkpt lat="45.88443" lon="3.03646">
        <ele>587.9833984375</ele>
        <time>2010-04-24T11:32:15Z</time>
      </trkpt>
      <trkpt lat="45.88451" lon="3.03666">
        <ele>588.94506835938</ele>
        <time>2010-04-24T11:32:21Z</time>
      </trkpt>
      <trkpt lat="45.88461" lon="3.03688">
        <ele>590.38696289062</ele>
        <time>2010-04-24T11:32:28Z</time>
      </trkpt>
      <trkpt lat="45.8847" lon="3.03707">
        <ele>592.3095703125</ele>
        <time>2010-04-24T11:32:35Z</time>
      </trkpt>
      <trkpt lat="45.88477" lon="3.03721">
        <ele>593.75146484375</ele>
        <time>2010-04-24T11:32:40Z</time>
      </trkpt>
      <trkpt lat="45.88486" lon="3.03739">
        <ele>595.193359375</ele>
        <time>2010-04-24T11:32:47Z</time>
      </trkpt>
      <trkpt lat="45.88496" lon="3.03755">
        <ele>598.07739257812</ele>
        <time>2010-04-24T11:32:54Z</time>
      </trkpt>
      <trkpt lat="45.88503" lon="3.03769">
        <ele>599.51928710938</ele>
        <time>2010-04-24T11:33:00Z</time>
      </trkpt>
      <trkpt lat="45.88503" lon="3.0378">
        <ele>600.96118164062</ele>
        <time>2010-04-24T11:33:06Z</time>
      </trkpt>
      <trkpt lat="45.88497" lon="3.03776">
        <ele>601.44189453125</ele>
        <time>2010-04-24T11:33:09Z</time>
      </trkpt>
      <trkpt lat="45.88482" lon="3.03768">
        <ele>601.44189453125</ele>
        <time>2010-04-24T11:33:16Z</time>
      </trkpt>
      <trkpt lat="45.88475" lon="3.03769">
        <ele>602.40307617188</ele>
        <time>2010-04-24T11:33:21Z</time>
      </trkpt>
      <trkpt lat="45.88475" lon="3.03768">
        <ele>601.92260742188</ele>
        <time>2010-04-24T11:33:22Z</time>
      </trkpt>
      <trkpt lat="45.88477" lon="3.03764">
        <ele>602.40307617188</ele>
        <time>2010-04-24T11:33:28Z</time>
      </trkpt>
      <trkpt lat="45.88477" lon="3.03764">
        <ele>601.92260742188</ele>
        <time>2010-04-24T11:33:33Z</time>
      </trkpt>
      <trkpt lat="45.88477" lon="3.03765">
        <ele>601.92260742188</ele>
        <time>2010-04-24T11:33:38Z</time>
      </trkpt>
      <trkpt lat="45.88477" lon="3.03765">
        <ele>601.92260742188</ele>
        <time>2010-04-24T11:33:49Z</time>
      </trkpt>
      <trkpt lat="45.88477" lon="3.03765">
        <ele>602.8837890625</ele>
        <time>2010-04-24T11:33:56Z</time>
      </trkpt>
      <trkpt lat="45.88477" lon="3.03766">
        <ele>602.40307617188</ele>
        <time>2010-04-24T11:33:59Z</time>
      </trkpt>
      <trkpt lat="45.88477" lon="3.03766">
        <ele>602.8837890625</ele>
        <time>2010-04-24T11:34:00Z</time>
      </trkpt>
      <trkpt lat="45.88477" lon="3.03766">
        <ele>602.40307617188</ele>
        <time>2010-04-24T11:34:05Z</time>
      </trkpt>
      <trkpt lat="45.88477" lon="3.03766">
        <ele>602.40307617188</ele>
        <time>2010-04-24T11:34:08Z</time>
      </trkpt>
      <trkpt lat="45.88477" lon="3.03766">
        <ele>602.8837890625</ele>
        <time>2010-04-24T11:34:24Z</time>
      </trkpt>
      <trkpt lat="45.88477" lon="3.03766">
        <ele>602.40307617188</ele>
        <time>2010-04-24T11:34:29Z</time>
      </trkpt>
      <trkpt lat="45.88477" lon="3.03766">
        <ele>602.40307617188</ele>
        <time>2010-04-24T11:34:38Z</time>
      </trkpt>
      <trkpt lat="45.88477" lon="3.03765">
        <ele>602.40307617188</ele>
        <time>2010-04-24T11:34:44Z</time>
      </trkpt>
      <trkpt lat="45.88477" lon="3.03765">
        <ele>602.40307617188</ele>
        <time>2010-04-24T11:34:57Z</time>
      </trkpt>
      <trkpt lat="45.88478" lon="3.03765">
        <ele>602.40307617188</ele>
        <time>2010-04-24T11:35:13Z</time>
      </trkpt>
      <trkpt lat="45.88478" lon="3.03765">
        <ele>602.40307617188</ele>
        <time>2010-04-24T11:35:19Z</time>
      </trkpt>
      <trkpt lat="45.88477" lon="3.03766">
        <ele>601.44189453125</ele>
        <time>2010-04-24T11:35:58Z</time>
      </trkpt>
      <trkpt lat="45.88477" lon="3.03766">
        <ele>602.40307617188</ele>
        <time>2010-04-24T11:36:12Z</time>
      </trkpt>
      <trkpt lat="45.88477" lon="3.03765">
        <ele>602.40307617188</ele>
        <time>2010-04-24T11:36:27Z</time>
      </trkpt>
      <trkpt lat="45.88477" lon="3.03765">
        <ele>602.40307617188</ele>
        <time>2010-04-24T11:36:28Z</time>
      </trkpt>
      <trkpt lat="45.88477" lon="3.03765">
        <ele>602.40307617188</ele>
        <time>2010-04-24T11:36:32Z</time>
      </trkpt>
      <trkpt lat="45.88477" lon="3.03765">
        <ele>601.92260742188</ele>
        <time>2010-04-24T11:36:33Z</time>
      </trkpt>
      <trkpt lat="45.88477" lon="3.03765">
        <ele>601.92260742188</ele>
        <time>2010-04-24T11:36:42Z</time>
      </trkpt>
      <trkpt lat="45.88477" lon="3.03765">
        <ele>601.92260742188</ele>
        <time>2010-04-24T11:36:46Z</time>
      </trkpt>
      <trkpt lat="45.88477" lon="3.03765">
        <ele>601.44189453125</ele>
        <time>2010-04-24T11:36:50Z</time>
      </trkpt>
      <trkpt lat="45.88478" lon="3.03767">
        <ele>601.92260742188</ele>
        <time>2010-04-24T11:37:17Z</time>
      </trkpt>
      <trkpt lat="45.88472" lon="3.03776">
        <ele>601.92260742188</ele>
        <time>2010-04-24T11:37:22Z</time>
      </trkpt>
      <trkpt lat="45.8847" lon="3.03778">
        <ele>602.8837890625</ele>
        <time>2010-04-24T11:37:23Z</time>
      </trkpt>
      <trkpt lat="45.88464" lon="3.0379">
        <ele>603.84521484375</ele>
        <time>2010-04-24T11:37:27Z</time>
      </trkpt>
      <trkpt lat="45.8846" lon="3.03794">
        <ele>603.84521484375</ele>
        <time>2010-04-24T11:37:29Z</time>
      </trkpt>
      <trkpt lat="45.88458" lon="3.03794">
        <ele>603.84521484375</ele>
        <time>2010-04-24T11:37:30Z</time>
      </trkpt>
      <trkpt lat="45.88453" lon="3.03793">
        <ele>604.326171875</ele>
        <time>2010-04-24T11:37:32Z</time>
      </trkpt>
      <trkpt lat="45.88437" lon="3.03776">
        <ele>604.326171875</ele>
        <time>2010-04-24T11:37:39Z</time>
      </trkpt>
      <trkpt lat="45.8843" lon="3.03765">
        <ele>604.806640625</ele>
        <time>2010-04-24T11:37:43Z</time>
      </trkpt>
      <trkpt lat="45.88418" lon="3.03761">
        <ele>606.24853515625</ele>
        <time>2010-04-24T11:37:48Z</time>
      </trkpt>
      <trkpt lat="45.88405" lon="3.03756">
        <ele>606.72924804688</ele>
        <time>2010-04-24T11:37:54Z</time>
      </trkpt>
      <trkpt lat="45.88403" lon="3.03748">
        <ele>607.2099609375</ele>
        <time>2010-04-24T11:38:00Z</time>
      </trkpt>
      <trkpt lat="45.88393" lon="3.03744">
        <ele>608.17138671875</ele>
        <time>2010-04-24T11:38:06Z</time>
      </trkpt>
      <trkpt lat="45.88377" lon="3.03738">
        <ele>609.13256835938</ele>
        <time>2010-04-24T11:38:13Z</time>
      </trkpt>
      <trkpt lat="45.88363" lon="3.03731">
        <ele>609.61328125</ele>
        <time>2010-04-24T11:38:18Z</time>
      </trkpt>
      <trkpt lat="45.88345" lon="3.03718">
        <ele>609.61328125</ele>
        <time>2010-04-24T11:38:24Z</time>
      </trkpt>
      <trkpt lat="45.88326" lon="3.03707">
        <ele>609.61328125</ele>
        <time>2010-04-24T11:38:30Z</time>
      </trkpt>
      <trkpt lat="45.88312" lon="3.03697">
        <ele>610.09375</ele>
        <time>2010-04-24T11:38:35Z</time>
      </trkpt>
      <trkpt lat="45.88284" lon="3.0368">
        <ele>610.57446289062</ele>
        <time>2010-04-24T11:38:44Z</time>
      </trkpt>
      <trkpt lat="45.88268" lon="3.03668">
        <ele>611.53588867188</ele>
        <time>2010-04-24T11:38:49Z</time>
      </trkpt>
      <trkpt lat="45.88246" lon="3.03652">
        <ele>612.97778320312</ele>
        <time>2010-04-24T11:38:56Z</time>
      </trkpt>
      <trkpt lat="45.88231" lon="3.03643">
        <ele>613.45849609375</ele>
        <time>2010-04-24T11:39:01Z</time>
      </trkpt>
      <trkpt lat="45.88206" lon="3.03635">
        <ele>612.97778320312</ele>
        <time>2010-04-24T11:39:08Z</time>
      </trkpt>
      <trkpt lat="45.88185" lon="3.03635">
        <ele>612.97778320312</ele>
        <time>2010-04-24T11:39:12Z</time>
      </trkpt>
      <trkpt lat="45.88159" lon="3.03642">
        <ele>614.900390625</ele>
        <time>2010-04-24T11:39:17Z</time>
      </trkpt>
      <trkpt lat="45.8813" lon="3.0365">
        <ele>615.86181640625</ele>
        <time>2010-04-24T11:39:23Z</time>
      </trkpt>
      <trkpt lat="45.88099" lon="3.03658">
        <ele>616.34228515625</ele>
        <time>2010-04-24T11:39:29Z</time>
      </trkpt>
      <trkpt lat="45.88094" lon="3.03659">
        <ele>616.82299804688</ele>
        <time>2010-04-24T11:39:30Z</time>
      </trkpt>
      <trkpt lat="45.88052" lon="3.03666">
        <ele>618.26489257812</ele>
        <time>2010-04-24T11:39:38Z</time>
      </trkpt>
      <trkpt lat="45.88033" lon="3.03666">
        <ele>620.18774414062</ele>
        <time>2010-04-24T11:39:43Z</time>
      </trkpt>
      <trkpt lat="45.88013" lon="3.03664">
        <ele>620.66845703125</ele>
        <time>2010-04-24T11:39:49Z</time>
      </trkpt>
      <trkpt lat="45.87986" lon="3.03664">
        <ele>620.66845703125</ele>
        <time>2010-04-24T11:39:56Z</time>
      </trkpt>
      <trkpt lat="45.87963" lon="3.03664">
        <ele>621.62963867188</ele>
        <time>2010-04-24T11:40:02Z</time>
      </trkpt>
      <trkpt lat="45.8794" lon="3.03665">
        <ele>623.07177734375</ele>
        <time>2010-04-24T11:40:08Z</time>
      </trkpt>
      <trkpt lat="45.8792" lon="3.03667">
        <ele>623.55249023438</ele>
        <time>2010-04-24T11:40:13Z</time>
      </trkpt>
      <trkpt lat="45.87917" lon="3.03667">
        <ele>624.03295898438</ele>
        <time>2010-04-24T11:40:14Z</time>
      </trkpt>
      <trkpt lat="45.87888" lon="3.03667">
        <ele>624.99438476562</ele>
        <time>2010-04-24T11:40:21Z</time>
      </trkpt>
      <trkpt lat="45.87868" lon="3.03669">
        <ele>625.47485351562</ele>
        <time>2010-04-24T11:40:26Z</time>
      </trkpt>
      <trkpt lat="45.87842" lon="3.03676">
        <ele>626.9169921875</ele>
        <time>2010-04-24T11:40:33Z</time>
      </trkpt>
      <trkpt lat="45.87816" lon="3.03682">
        <ele>626.9169921875</ele>
        <time>2010-04-24T11:40:39Z</time>
      </trkpt>
      <trkpt lat="45.87799" lon="3.03688">
        <ele>628.35888671875</ele>
        <time>2010-04-24T11:40:43Z</time>
      </trkpt>
      <trkpt lat="45.87776" lon="3.03698">
        <ele>629.32006835938</ele>
        <time>2010-04-24T11:40:48Z</time>
      </trkpt>
      <trkpt lat="45.87763" lon="3.03705">
        <ele>629.80078125</ele>
        <time>2010-04-24T11:40:51Z</time>
      </trkpt>
      <trkpt lat="45.87744" lon="3.03709">
        <ele>630.28149414062</ele>
        <time>2010-04-24T11:40:55Z</time>
      </trkpt>
      <trkpt lat="45.87717" lon="3.03703">
        <ele>631.24291992188</ele>
        <time>2010-04-24T11:41:01Z</time>
      </trkpt>
      <trkpt lat="45.87691" lon="3.03698">
        <ele>632.2041015625</ele>
        <time>2010-04-24T11:41:07Z</time>
      </trkpt>
      <trkpt lat="45.87678" lon="3.03696">
        <ele>632.68481445312</ele>
        <time>2010-04-24T11:41:10Z</time>
      </trkpt>
      <trkpt lat="45.87648" lon="3.0369">
        <ele>634.607421875</ele>
        <time>2010-04-24T11:41:17Z</time>
      </trkpt>
      <trkpt lat="45.87623" lon="3.03681">
        <ele>637.49145507812</ele>
        <time>2010-04-24T11:41:23Z</time>
      </trkpt>
      <trkpt lat="45.87608" lon="3.03668">
        <ele>638.93359375</ele>
        <time>2010-04-24T11:41:27Z</time>
      </trkpt>
      <trkpt lat="45.87603" lon="3.03662">
        <ele>638.93359375</ele>
        <time>2010-04-24T11:41:29Z</time>
      </trkpt>
      <trkpt lat="45.87587" lon="3.03642">
        <ele>639.4140625</ele>
        <time>2010-04-24T11:41:36Z</time>
      </trkpt>
      <trkpt lat="45.87576" lon="3.03626">
        <ele>636.5302734375</ele>
        <time>2010-04-24T11:41:41Z</time>
      </trkpt>
      <trkpt lat="45.87569" lon="3.03616">
        <ele>635.08813476562</ele>
        <time>2010-04-24T11:41:43Z</time>
      </trkpt>
      <trkpt lat="45.87557" lon="3.03595">
        <ele>632.2041015625</ele>
        <time>2010-04-24T11:41:46Z</time>
      </trkpt>
      <trkpt lat="45.87535" lon="3.03547">
        <ele>632.68481445312</ele>
        <time>2010-04-24T11:41:52Z</time>
      </trkpt>
      <trkpt lat="45.87517" lon="3.03504">
        <ele>633.16528320312</ele>
        <time>2010-04-24T11:41:59Z</time>
      </trkpt>
      <trkpt lat="45.87515" lon="3.035">
        <ele>633.16528320312</ele>
        <time>2010-04-24T11:42:00Z</time>
      </trkpt>
      <trkpt lat="45.87502" lon="3.03463">
        <ele>631.72338867188</ele>
        <time>2010-04-24T11:42:06Z</time>
      </trkpt>
      <trkpt lat="45.87489" lon="3.03437">
        <ele>631.72338867188</ele>
        <time>2010-04-24T11:42:11Z</time>
      </trkpt>
      <trkpt lat="45.87483" lon="3.03419">
        <ele>631.24291992188</ele>
        <time>2010-04-24T11:42:14Z</time>
      </trkpt>
      <trkpt lat="45.87481" lon="3.03393">
        <ele>630.28149414062</ele>
        <time>2010-04-24T11:42:18Z</time>
      </trkpt>
      <trkpt lat="45.87482" lon="3.03377">
        <ele>629.32006835938</ele>
        <time>2010-04-24T11:42:21Z</time>
      </trkpt>
      <trkpt lat="45.87476" lon="3.03364">
        <ele>626.9169921875</ele>
        <time>2010-04-24T11:42:25Z</time>
      </trkpt>
      <trkpt lat="45.8747" lon="3.03354">
        <ele>624.513671875</ele>
        <time>2010-04-24T11:42:30Z</time>
      </trkpt>
      <trkpt lat="45.87466" lon="3.03349">
        <ele>623.07177734375</ele>
        <time>2010-04-24T11:42:32Z</time>
      </trkpt>
      <trkpt lat="45.8746" lon="3.03346">
        <ele>621.62963867188</ele>
        <time>2010-04-24T11:42:34Z</time>
      </trkpt>
      <trkpt lat="45.87449" lon="3.03339">
        <ele>619.22631835938</ele>
        <time>2010-04-24T11:42:38Z</time>
      </trkpt>
      <trkpt lat="45.87446" lon="3.03337">
        <ele>619.70703125</ele>
        <time>2010-04-24T11:42:39Z</time>
      </trkpt>
      <trkpt lat="45.87437" lon="3.03329">
        <ele>617.7841796875</ele>
        <time>2010-04-24T11:42:44Z</time>
      </trkpt>
      <trkpt lat="45.87434" lon="3.03332">
        <ele>617.3037109375</ele>
        <time>2010-04-24T11:42:48Z</time>
      </trkpt>
      <trkpt lat="45.87431" lon="3.03335">
        <ele>615.86181640625</ele>
        <time>2010-04-24T11:42:53Z</time>
      </trkpt>
      <trkpt lat="45.87431" lon="3.03334">
        <ele>615.86181640625</ele>
        <time>2010-04-24T11:42:59Z</time>
      </trkpt>
      <trkpt lat="45.87429" lon="3.03334">
        <ele>615.38110351562</ele>
        <time>2010-04-24T11:43:08Z</time>
      </trkpt>
      <trkpt lat="45.87423" lon="3.03335">
        <ele>612.97778320312</ele>
        <time>2010-04-24T11:43:15Z</time>
      </trkpt>
      <trkpt lat="45.8742" lon="3.03335">
        <ele>612.0166015625</ele>
        <time>2010-04-24T11:43:20Z</time>
      </trkpt>
      <trkpt lat="45.87416" lon="3.03334">
        <ele>610.57446289062</ele>
        <time>2010-04-24T11:43:25Z</time>
      </trkpt>
      <trkpt lat="45.8741" lon="3.03332">
        <ele>609.13256835938</ele>
        <time>2010-04-24T11:43:27Z</time>
      </trkpt>
      <trkpt lat="45.87395" lon="3.03329">
        <ele>605.28735351562</ele>
        <time>2010-04-24T11:43:32Z</time>
      </trkpt>
      <trkpt lat="45.87389" lon="3.0333">
        <ele>604.806640625</ele>
        <time>2010-04-24T11:43:35Z</time>
      </trkpt>
      <trkpt lat="45.87383" lon="3.03331">
        <ele>602.40307617188</ele>
        <time>2010-04-24T11:43:39Z</time>
      </trkpt>
      <trkpt lat="45.87369" lon="3.03335">
        <ele>599.03857421875</ele>
        <time>2010-04-24T11:43:44Z</time>
      </trkpt>
      <trkpt lat="45.8736" lon="3.03339">
        <ele>597.11596679688</ele>
        <time>2010-04-24T11:43:48Z</time>
      </trkpt>
      <trkpt lat="45.87354" lon="3.03338">
        <ele>595.67407226562</ele>
        <time>2010-04-24T11:43:51Z</time>
      </trkpt>
      <trkpt lat="45.87344" lon="3.03341">
        <ele>593.27075195312</ele>
        <time>2010-04-24T11:43:56Z</time>
      </trkpt>
      <trkpt lat="45.87333" lon="3.03345">
        <ele>589.42553710938</ele>
        <time>2010-04-24T11:44:00Z</time>
      </trkpt>
      <trkpt lat="45.87329" lon="3.03346">
        <ele>589.90625</ele>
        <time>2010-04-24T11:44:01Z</time>
      </trkpt>
      <trkpt lat="45.87325" lon="3.03348">
        <ele>588.94506835938</ele>
        <time>2010-04-24T11:44:03Z</time>
      </trkpt>
      <trkpt lat="45.87321" lon="3.03355">
        <ele>587.50268554688</ele>
        <time>2010-04-24T11:44:07Z</time>
      </trkpt>
      <trkpt lat="45.8731" lon="3.03367">
        <ele>584.61889648438</ele>
        <time>2010-04-24T11:44:12Z</time>
      </trkpt>
      <trkpt lat="45.87297" lon="3.03379">
        <ele>582.21557617188</ele>
        <time>2010-04-24T11:44:18Z</time>
      </trkpt>
      <trkpt lat="45.87292" lon="3.03384">
        <ele>579.81225585938</ele>
        <time>2010-04-24T11:44:21Z</time>
      </trkpt>
      <trkpt lat="45.87285" lon="3.03391">
        <ele>577.8896484375</ele>
        <time>2010-04-24T11:44:25Z</time>
      </trkpt>
      <trkpt lat="45.87278" lon="3.0339">
        <ele>575.486328125</ele>
        <time>2010-04-24T11:44:28Z</time>
      </trkpt>
      <trkpt lat="45.87274" lon="3.03375">
        <ele>575.005859375</ele>
        <time>2010-04-24T11:44:32Z</time>
      </trkpt>
      <trkpt lat="45.87284" lon="3.03362">
        <ele>575.96704101562</ele>
        <time>2010-04-24T11:44:37Z</time>
      </trkpt>
      <trkpt lat="45.87291" lon="3.03352">
        <ele>576.44775390625</ele>
        <time>2010-04-24T11:44:41Z</time>
      </trkpt>
      <trkpt lat="45.87282" lon="3.03351">
        <ele>574.52514648438</ele>
        <time>2010-04-24T11:44:44Z</time>
      </trkpt>
      <trkpt lat="45.87278" lon="3.03354">
        <ele>573.56396484375</ele>
        <time>2010-04-24T11:44:45Z</time>
      </trkpt>
      <trkpt lat="45.8726" lon="3.03367">
        <ele>567.79565429688</ele>
        <time>2010-04-24T11:44:48Z</time>
      </trkpt>
      <trkpt lat="45.87237" lon="3.03381">
        <ele>564.43115234375</ele>
        <time>2010-04-24T11:44:51Z</time>
      </trkpt>
      <trkpt lat="45.87223" lon="3.03387">
        <ele>562.9892578125</ele>
        <time>2010-04-24T11:44:53Z</time>
      </trkpt>
      <trkpt lat="45.87217" lon="3.0339">
        <ele>562.50854492188</ele>
        <time>2010-04-24T11:44:54Z</time>
      </trkpt>
      <trkpt lat="45.87196" lon="3.03387">
        <ele>560.10522460938</ele>
        <time>2010-04-24T11:44:58Z</time>
      </trkpt>
      <trkpt lat="45.87184" lon="3.03368">
        <ele>557.22143554688</ele>
        <time>2010-04-24T11:45:01Z</time>
      </trkpt>
      <trkpt lat="45.87167" lon="3.03362">
        <ele>555.29858398438</ele>
        <time>2010-04-24T11:45:04Z</time>
      </trkpt>
      <trkpt lat="45.87149" lon="3.03371">
        <ele>554.33740234375</ele>
        <time>2010-04-24T11:45:07Z</time>
      </trkpt>
      <trkpt lat="45.87142" lon="3.03373">
        <ele>554.33740234375</ele>
        <time>2010-04-24T11:45:08Z</time>
      </trkpt>
      <trkpt lat="45.87125" lon="3.03376">
        <ele>554.81787109375</ele>
        <time>2010-04-24T11:45:11Z</time>
      </trkpt>
      <trkpt lat="45.87105" lon="3.03385">
        <ele>551.45336914062</ele>
        <time>2010-04-24T11:45:15Z</time>
      </trkpt>
      <trkpt lat="45.87098" lon="3.03387">
        <ele>551.45336914062</ele>
        <time>2010-04-24T11:45:16Z</time>
      </trkpt>
      <trkpt lat="45.87091" lon="3.03386">
        <ele>550.4921875</ele>
        <time>2010-04-24T11:45:17Z</time>
      </trkpt>
      <trkpt lat="45.87071" lon="3.03383">
        <ele>550.4921875</ele>
        <time>2010-04-24T11:45:20Z</time>
      </trkpt>
      <trkpt lat="45.87045" lon="3.03386">
        <ele>551.45336914062</ele>
        <time>2010-04-24T11:45:25Z</time>
      </trkpt>
      <trkpt lat="45.87037" lon="3.03387">
        <ele>550.97265625</ele>
        <time>2010-04-24T11:45:27Z</time>
      </trkpt>
      <trkpt lat="45.8702" lon="3.03398">
        <ele>550.4921875</ele>
        <time>2010-04-24T11:45:31Z</time>
      </trkpt>
      <trkpt lat="45.86991" lon="3.03431">
        <ele>548.0888671875</ele>
        <time>2010-04-24T11:45:38Z</time>
      </trkpt>
      <trkpt lat="45.86978" lon="3.0346">
        <ele>547.60815429688</ele>
        <time>2010-04-24T11:45:42Z</time>
      </trkpt>
      <trkpt lat="45.86972" lon="3.03489">
        <ele>545.685546875</ele>
        <time>2010-04-24T11:45:46Z</time>
      </trkpt>
      <trkpt lat="45.86972" lon="3.03497">
        <ele>545.685546875</ele>
        <time>2010-04-24T11:45:47Z</time>
      </trkpt>
      <trkpt lat="45.86972" lon="3.03506">
        <ele>545.20483398438</ele>
        <time>2010-04-24T11:45:48Z</time>
      </trkpt>
      <trkpt lat="45.86972" lon="3.03523">
        <ele>543.28210449219</ele>
        <time>2010-04-24T11:45:50Z</time>
      </trkpt>
      <trkpt lat="45.86979" lon="3.03552">
        <ele>538.95629882812</ele>
        <time>2010-04-24T11:45:53Z</time>
      </trkpt>
      <trkpt lat="45.86988" lon="3.03582">
        <ele>535.59155273438</ele>
        <time>2010-04-24T11:45:56Z</time>
      </trkpt>
      <trkpt lat="45.86998" lon="3.03618">
        <ele>531.26574707031</ele>
        <time>2010-04-24T11:46:00Z</time>
      </trkpt>
      <trkpt lat="45.86999" lon="3.03625">
        <ele>530.30444335938</ele>
        <time>2010-04-24T11:46:01Z</time>
      </trkpt>
      <trkpt lat="45.87001" lon="3.03638">
        <ele>529.34313964844</ele>
        <time>2010-04-24T11:46:03Z</time>
      </trkpt>
      <trkpt lat="45.86996" lon="3.03653">
        <ele>529.82373046875</ele>
        <time>2010-04-24T11:46:06Z</time>
      </trkpt>
      <trkpt lat="45.86991" lon="3.03668">
        <ele>528.86254882812</ele>
        <time>2010-04-24T11:46:10Z</time>
      </trkpt>
      <trkpt lat="45.86988" lon="3.0368">
        <ele>525.49780273438</ele>
        <time>2010-04-24T11:46:13Z</time>
      </trkpt>
      <trkpt lat="45.86989" lon="3.03687">
        <ele>524.53649902344</ele>
        <time>2010-04-24T11:46:14Z</time>
      </trkpt>
      <trkpt lat="45.8699" lon="3.03718">
        <ele>523.5751953125</ele>
        <time>2010-04-24T11:46:19Z</time>
      </trkpt>
      <trkpt lat="45.8699" lon="3.03734">
        <ele>523.5751953125</ele>
        <time>2010-04-24T11:46:24Z</time>
      </trkpt>
      <trkpt lat="45.86989" lon="3.03741">
        <ele>523.09460449219</ele>
        <time>2010-04-24T11:46:26Z</time>
      </trkpt>
      <trkpt lat="45.86983" lon="3.03759">
        <ele>518.28784179688</ele>
        <time>2010-04-24T11:46:29Z</time>
      </trkpt>
      <trkpt lat="45.86972" lon="3.03777">
        <ele>515.40405273438</ele>
        <time>2010-04-24T11:46:33Z</time>
      </trkpt>
      <trkpt lat="45.86959" lon="3.03773">
        <ele>513.96203613281</ele>
        <time>2010-04-24T11:46:35Z</time>
      </trkpt>
      <trkpt lat="45.86946" lon="3.03764">
        <ele>512.03942871094</ele>
        <time>2010-04-24T11:46:37Z</time>
      </trkpt>
      <trkpt lat="45.8693" lon="3.03757">
        <ele>509.15539550781</ele>
        <time>2010-04-24T11:46:39Z</time>
      </trkpt>
      <trkpt lat="45.86899" lon="3.03758">
        <ele>508.19409179688</ele>
        <time>2010-04-24T11:46:43Z</time>
      </trkpt>
      <trkpt lat="45.86892" lon="3.03764">
        <ele>506.75207519531</ele>
        <time>2010-04-24T11:46:44Z</time>
      </trkpt>
      <trkpt lat="45.86865" lon="3.03789">
        <ele>504.82946777344</ele>
        <time>2010-04-24T11:46:48Z</time>
      </trkpt>
      <trkpt lat="45.86843" lon="3.03819">
        <ele>502.90673828125</ele>
        <time>2010-04-24T11:46:52Z</time>
      </trkpt>
      <trkpt lat="45.86823" lon="3.03839">
        <ele>501.46484375</ele>
        <time>2010-04-24T11:46:55Z</time>
      </trkpt>
      <trkpt lat="45.86792" lon="3.0386">
        <ele>498.10034179688</ele>
        <time>2010-04-24T11:46:59Z</time>
      </trkpt>
      <trkpt lat="45.86747" lon="3.0389">
        <ele>497.61962890625</ele>
        <time>2010-04-24T11:47:05Z</time>
      </trkpt>
      <trkpt lat="45.86691" lon="3.03922">
        <ele>496.177734375</ele>
        <time>2010-04-24T11:47:13Z</time>
      </trkpt>
      <trkpt lat="45.8664" lon="3.03949">
        <ele>495.69689941406</ele>
        <time>2010-04-24T11:47:21Z</time>
      </trkpt>
      <trkpt lat="45.86582" lon="3.03978">
        <ele>494.73559570312</ele>
        <time>2010-04-24T11:47:30Z</time>
      </trkpt>
      <trkpt lat="45.86538" lon="3.03995">
        <ele>494.73559570312</ele>
        <time>2010-04-24T11:47:37Z</time>
      </trkpt>
      <trkpt lat="45.86525" lon="3.03997">
        <ele>495.21618652344</ele>
        <time>2010-04-24T11:47:39Z</time>
      </trkpt>
      <trkpt lat="45.86493" lon="3.04">
        <ele>493.77429199219</ele>
        <time>2010-04-24T11:47:44Z</time>
      </trkpt>
      <trkpt lat="45.8646" lon="3.0402">
        <ele>490.89038085938</ele>
        <time>2010-04-24T11:47:49Z</time>
      </trkpt>
      <trkpt lat="45.86422" lon="3.04031">
        <ele>489.92907714844</ele>
        <time>2010-04-24T11:47:54Z</time>
      </trkpt>
      <trkpt lat="45.86407" lon="3.04038">
        <ele>488.48718261719</ele>
        <time>2010-04-24T11:47:56Z</time>
      </trkpt>
      <trkpt lat="45.86388" lon="3.04054">
        <ele>488.00646972656</ele>
        <time>2010-04-24T11:47:59Z</time>
      </trkpt>
      <trkpt lat="45.86377" lon="3.04065">
        <ele>488.00646972656</ele>
        <time>2010-04-24T11:48:01Z</time>
      </trkpt>
      <trkpt lat="45.86366" lon="3.04073">
        <ele>488.48718261719</ele>
        <time>2010-04-24T11:48:03Z</time>
      </trkpt>
      <trkpt lat="45.86351" lon="3.04089">
        <ele>488.9677734375</ele>
        <time>2010-04-24T11:48:07Z</time>
      </trkpt>
      <trkpt lat="45.86351" lon="3.041">
        <ele>488.00646972656</ele>
        <time>2010-04-24T11:48:09Z</time>
      </trkpt>
      <trkpt lat="45.86356" lon="3.04147">
        <ele>486.564453125</ele>
        <time>2010-04-24T11:48:16Z</time>
      </trkpt>
      <trkpt lat="45.86364" lon="3.04167">
        <ele>487.04504394531</ele>
        <time>2010-04-24T11:48:19Z</time>
      </trkpt>
      <trkpt lat="45.86366" lon="3.04185">
        <ele>483.68041992188</ele>
        <time>2010-04-24T11:48:22Z</time>
      </trkpt>
      <trkpt lat="45.86358" lon="3.04208">
        <ele>481.27722167969</ele>
        <time>2010-04-24T11:48:25Z</time>
      </trkpt>
      <trkpt lat="45.86321" lon="3.04263">
        <ele>480.31591796875</ele>
        <time>2010-04-24T11:48:33Z</time>
      </trkpt>
      <trkpt lat="45.86284" lon="3.04296">
        <ele>479.3544921875</ele>
        <time>2010-04-24T11:48:40Z</time>
      </trkpt>
      <trkpt lat="45.86259" lon="3.04321">
        <ele>477.43188476562</ele>
        <time>2010-04-24T11:48:45Z</time>
      </trkpt>
      <trkpt lat="45.86226" lon="3.04349">
        <ele>475.50927734375</ele>
        <time>2010-04-24T11:48:51Z</time>
      </trkpt>
      <trkpt lat="45.862" lon="3.04368">
        <ele>475.98986816406</ele>
        <time>2010-04-24T11:48:56Z</time>
      </trkpt>
      <trkpt lat="45.86164" lon="3.04379">
        <ele>473.10607910156</ele>
        <time>2010-04-24T11:49:02Z</time>
      </trkpt>
      <trkpt lat="45.86145" lon="3.0439">
        <ele>470.22192382812</ele>
        <time>2010-04-24T11:49:05Z</time>
      </trkpt>
      <trkpt lat="45.86103" lon="3.04427">
        <ele>469.2607421875</ele>
        <time>2010-04-24T11:49:12Z</time>
      </trkpt>
      <trkpt lat="45.86098" lon="3.04433">
        <ele>469.2607421875</ele>
        <time>2010-04-24T11:49:13Z</time>
      </trkpt>
      <trkpt lat="45.86079" lon="3.04474">
        <ele>468.78002929688</ele>
        <time>2010-04-24T11:49:18Z</time>
      </trkpt>
      <trkpt lat="45.86054" lon="3.04534">
        <ele>467.81872558594</ele>
        <time>2010-04-24T11:49:25Z</time>
      </trkpt>
      <trkpt lat="45.86047" lon="3.04552">
        <ele>468.29931640625</ele>
        <time>2010-04-24T11:49:27Z</time>
      </trkpt>
      <trkpt lat="45.86029" lon="3.04595">
        <ele>467.33813476562</ele>
        <time>2010-04-24T11:49:32Z</time>
      </trkpt>
      <trkpt lat="45.86008" lon="3.04666">
        <ele>466.857421875</ele>
        <time>2010-04-24T11:49:40Z</time>
      </trkpt>
      <trkpt lat="45.85997" lon="3.0471">
        <ele>466.857421875</ele>
        <time>2010-04-24T11:49:45Z</time>
      </trkpt>
      <trkpt lat="45.85975" lon="3.04742">
        <ele>466.857421875</ele>
        <time>2010-04-24T11:49:50Z</time>
      </trkpt>
      <trkpt lat="45.85964" lon="3.04751">
        <ele>467.33813476562</ele>
        <time>2010-04-24T11:49:52Z</time>
      </trkpt>
      <trkpt lat="45.85922" lon="3.04779">
        <ele>468.29931640625</ele>
        <time>2010-04-24T11:50:00Z</time>
      </trkpt>
      <trkpt lat="45.85889" lon="3.0479">
        <ele>468.29931640625</ele>
        <time>2010-04-24T11:50:06Z</time>
      </trkpt>
      <trkpt lat="45.8583" lon="3.0481">
        <ele>469.2607421875</ele>
        <time>2010-04-24T11:50:16Z</time>
      </trkpt>
      <trkpt lat="45.85791" lon="3.04822">
        <ele>469.2607421875</ele>
        <time>2010-04-24T11:50:23Z</time>
      </trkpt>
      <trkpt lat="45.85785" lon="3.04824">
        <ele>469.74133300781</ele>
        <time>2010-04-24T11:50:24Z</time>
      </trkpt>
      <trkpt lat="45.85764" lon="3.04836">
        <ele>469.74133300781</ele>
        <time>2010-04-24T11:50:28Z</time>
      </trkpt>
      <trkpt lat="45.85726" lon="3.04876">
        <ele>470.22192382812</ele>
        <time>2010-04-24T11:50:36Z</time>
      </trkpt>
      <trkpt lat="45.85708" lon="3.04896">
        <ele>470.70263671875</ele>
        <time>2010-04-24T11:50:40Z</time>
      </trkpt>
      <trkpt lat="45.8568" lon="3.04925">
        <ele>470.70263671875</ele>
        <time>2010-04-24T11:50:46Z</time>
      </trkpt>
      <trkpt lat="45.85654" lon="3.04945">
        <ele>472.14465332031</ele>
        <time>2010-04-24T11:50:52Z</time>
      </trkpt>
      <trkpt lat="45.85649" lon="3.04947">
        <ele>472.62536621094</ele>
        <time>2010-04-24T11:50:53Z</time>
      </trkpt>
      <trkpt lat="45.85611" lon="3.0497">
        <ele>474.06726074219</ele>
        <time>2010-04-24T11:51:02Z</time>
      </trkpt>
      <trkpt lat="45.85564" lon="3.04994">
        <ele>474.54797363281</ele>
        <time>2010-04-24T11:51:12Z</time>
      </trkpt>
      <trkpt lat="45.85529" lon="3.05011">
        <ele>477.91247558594</ele>
        <time>2010-04-24T11:51:20Z</time>
      </trkpt>
      <trkpt lat="45.85524" lon="3.05013">
        <ele>478.39318847656</ele>
        <time>2010-04-24T11:51:21Z</time>
      </trkpt>
      <trkpt lat="45.85484" lon="3.05026">
        <ele>479.83508300781</ele>
        <time>2010-04-24T11:51:30Z</time>
      </trkpt>
      <trkpt lat="45.85453" lon="3.05038">
        <ele>480.79663085938</ele>
        <time>2010-04-24T11:51:37Z</time>
      </trkpt>
      <trkpt lat="45.85424" lon="3.05041">
        <ele>483.68041992188</ele>
        <time>2010-04-24T11:51:44Z</time>
      </trkpt>
      <trkpt lat="45.85393" lon="3.05031">
        <ele>484.64184570312</ele>
        <time>2010-04-24T11:51:52Z</time>
      </trkpt>
      <trkpt lat="45.85366" lon="3.0502">
        <ele>485.60302734375</ele>
        <time>2010-04-24T11:51:59Z</time>
      </trkpt>
      <trkpt lat="45.85334" lon="3.05005">
        <ele>486.564453125</ele>
        <time>2010-04-24T11:52:08Z</time>
      </trkpt>
      <trkpt lat="45.85304" lon="3.04985">
        <ele>487.04504394531</ele>
        <time>2010-04-24T11:52:16Z</time>
      </trkpt>
      <trkpt lat="45.85276" lon="3.04955">
        <ele>487.52563476562</ele>
        <time>2010-04-24T11:52:24Z</time>
      </trkpt>
      <trkpt lat="45.85265" lon="3.04942">
        <ele>487.04504394531</ele>
        <time>2010-04-24T11:52:27Z</time>
      </trkpt>
      <trkpt lat="45.85247" lon="3.0493">
        <ele>487.52563476562</ele>
        <time>2010-04-24T11:52:31Z</time>
      </trkpt>
      <trkpt lat="45.852" lon="3.0492">
        <ele>488.00646972656</ele>
        <time>2010-04-24T11:52:41Z</time>
      </trkpt>
      <trkpt lat="45.85172" lon="3.04912">
        <ele>488.48718261719</ele>
        <time>2010-04-24T11:52:47Z</time>
      </trkpt>
      <trkpt lat="45.85148" lon="3.04904">
        <ele>488.9677734375</ele>
        <time>2010-04-24T11:52:52Z</time>
      </trkpt>
      <trkpt lat="45.85127" lon="3.04897">
        <ele>489.92907714844</ele>
        <time>2010-04-24T11:52:57Z</time>
      </trkpt>
      <trkpt lat="45.85099" lon="3.04883">
        <ele>492.81298828125</ele>
        <time>2010-04-24T11:53:04Z</time>
      </trkpt>
      <trkpt lat="45.85091" lon="3.04881">
        <ele>493.29357910156</ele>
        <time>2010-04-24T11:53:06Z</time>
      </trkpt>
      <trkpt lat="45.85088" lon="3.0488">
        <ele>493.77429199219</ele>
        <time>2010-04-24T11:53:07Z</time>
      </trkpt>
      <trkpt lat="45.85068" lon="3.0488">
        <ele>495.21618652344</ele>
        <time>2010-04-24T11:53:12Z</time>
      </trkpt>
      <trkpt lat="45.85044" lon="3.04881">
        <ele>497.13891601562</ele>
        <time>2010-04-24T11:53:19Z</time>
      </trkpt>
      <trkpt lat="45.85033" lon="3.04881">
        <ele>498.10034179688</ele>
        <time>2010-04-24T11:53:22Z</time>
      </trkpt>
      <trkpt lat="45.85011" lon="3.04881">
        <ele>500.02294921875</ele>
        <time>2010-04-24T11:53:29Z</time>
      </trkpt>
      <trkpt lat="45.85008" lon="3.04882">
        <ele>500.02294921875</ele>
        <time>2010-04-24T11:53:30Z</time>
      </trkpt>
      <trkpt lat="45.85001" lon="3.04903">
        <ele>500.50354003906</ele>
        <time>2010-04-24T11:53:36Z</time>
      </trkpt>
      <trkpt lat="45.84992" lon="3.04932">
        <ele>501.46484375</ele>
        <time>2010-04-24T11:53:43Z</time>
      </trkpt>
      <trkpt lat="45.84979" lon="3.04947">
        <ele>502.42614746094</ele>
        <time>2010-04-24T11:53:48Z</time>
      </trkpt>
      <trkpt lat="45.84955" lon="3.04952">
        <ele>503.8681640625</ele>
        <time>2010-04-24T11:53:55Z</time>
      </trkpt>
      <trkpt lat="45.84927" lon="3.04954">
        <ele>504.34887695312</ele>
        <time>2010-04-24T11:54:03Z</time>
      </trkpt>
      <trkpt lat="45.84907" lon="3.04951">
        <ele>503.8681640625</ele>
        <time>2010-04-24T11:54:08Z</time>
      </trkpt>
      <trkpt lat="45.84865" lon="3.04952">
        <ele>503.38745117188</ele>
        <time>2010-04-24T11:54:17Z</time>
      </trkpt>
      <trkpt lat="45.8486" lon="3.04953">
        <ele>503.38745117188</ele>
        <time>2010-04-24T11:54:18Z</time>
      </trkpt>
      <trkpt lat="45.84822" lon="3.04957">
        <ele>502.42614746094</ele>
        <time>2010-04-24T11:54:26Z</time>
      </trkpt>
      <trkpt lat="45.84809" lon="3.04958">
        <ele>503.38745117188</ele>
        <time>2010-04-24T11:54:29Z</time>
      </trkpt>
      <trkpt lat="45.84799" lon="3.04961">
        <ele>503.38745117188</ele>
        <time>2010-04-24T11:54:32Z</time>
      </trkpt>
      <trkpt lat="45.84792" lon="3.04964">
        <ele>503.38745117188</ele>
        <time>2010-04-24T11:54:34Z</time>
      </trkpt>
      <trkpt lat="45.84789" lon="3.04966">
        <ele>503.38745117188</ele>
        <time>2010-04-24T11:54:35Z</time>
      </trkpt>
      <trkpt lat="45.84775" lon="3.04981">
        <ele>502.42614746094</ele>
        <time>2010-04-24T11:54:39Z</time>
      </trkpt>
      <trkpt lat="45.84745" lon="3.05033">
        <ele>502.42614746094</ele>
        <time>2010-04-24T11:54:48Z</time>
      </trkpt>
      <trkpt lat="45.84737" lon="3.05051">
        <ele>503.38745117188</ele>
        <time>2010-04-24T11:54:51Z</time>
      </trkpt>
      <trkpt lat="45.84727" lon="3.05082">
        <ele>505.79089355469</ele>
        <time>2010-04-24T11:54:56Z</time>
      </trkpt>
      <trkpt lat="45.84726" lon="3.05095">
        <ele>506.271484375</ele>
        <time>2010-04-24T11:54:58Z</time>
      </trkpt>
      <trkpt lat="45.84731" lon="3.05121">
        <ele>507.71350097656</ele>
        <time>2010-04-24T11:55:02Z</time>
      </trkpt>
      <trkpt lat="45.84735" lon="3.05133">
        <ele>508.19409179688</ele>
        <time>2010-04-24T11:55:04Z</time>
      </trkpt>
      <trkpt lat="45.84762" lon="3.05175">
        <ele>510.11669921875</ele>
        <time>2010-04-24T11:55:13Z</time>
      </trkpt>
      <trkpt lat="45.84768" lon="3.05184">
        <ele>510.59729003906</ele>
        <time>2010-04-24T11:55:15Z</time>
      </trkpt>
      <trkpt lat="45.84784" lon="3.05223">
        <ele>513.4814453125</ele>
        <time>2010-04-24T11:55:23Z</time>
      </trkpt>
      <trkpt lat="45.84781" lon="3.05244">
        <ele>514.44262695312</ele>
        <time>2010-04-24T11:55:27Z</time>
      </trkpt>
      <trkpt lat="45.84773" lon="3.05255">
        <ele>515.88464355469</ele>
        <time>2010-04-24T11:55:30Z</time>
      </trkpt>
      <trkpt lat="45.84748" lon="3.05269">
        <ele>517.32666015625</ele>
        <time>2010-04-24T11:55:37Z</time>
      </trkpt>
      <trkpt lat="45.8474" lon="3.0527">
        <ele>518.28784179688</ele>
        <time>2010-04-24T11:55:39Z</time>
      </trkpt>
      <trkpt lat="45.84722" lon="3.05264">
        <ele>519.24926757812</ele>
        <time>2010-04-24T11:55:44Z</time>
      </trkpt>
      <trkpt lat="45.84715" lon="3.0526">
        <ele>519.72985839844</ele>
        <time>2010-04-24T11:55:46Z</time>
      </trkpt>
      <trkpt lat="45.84708" lon="3.05257">
        <ele>521.17199707031</ele>
        <time>2010-04-24T11:55:48Z</time>
      </trkpt>
      <trkpt lat="45.84686" lon="3.0526">
        <ele>521.65258789062</ele>
        <time>2010-04-24T11:55:54Z</time>
      </trkpt>
      <trkpt lat="45.84661" lon="3.05278">
        <ele>521.65258789062</ele>
        <time>2010-04-24T11:56:01Z</time>
      </trkpt>
      <trkpt lat="45.84638" lon="3.05302">
        <ele>522.13317871094</ele>
        <time>2010-04-24T11:56:08Z</time>
      </trkpt>
      <trkpt lat="45.84621" lon="3.05317">
        <ele>522.61389160156</ele>
        <time>2010-04-24T11:56:13Z</time>
      </trkpt>
      <trkpt lat="45.84602" lon="3.05326">
        <ele>522.13317871094</ele>
        <time>2010-04-24T11:56:19Z</time>
      </trkpt>
      <trkpt lat="45.84597" lon="3.05341">
        <ele>522.61389160156</ele>
        <time>2010-04-24T11:56:23Z</time>
      </trkpt>
      <trkpt lat="45.84597" lon="3.05346">
        <ele>522.61389160156</ele>
        <time>2010-04-24T11:56:24Z</time>
      </trkpt>
      <trkpt lat="45.84589" lon="3.05366">
        <ele>522.13317871094</ele>
        <time>2010-04-24T11:56:28Z</time>
      </trkpt>
      <trkpt lat="45.84556" lon="3.05403">
        <ele>522.61389160156</ele>
        <time>2010-04-24T11:56:37Z</time>
      </trkpt>
      <trkpt lat="45.84519" lon="3.05443">
        <ele>522.13317871094</ele>
        <time>2010-04-24T11:56:46Z</time>
      </trkpt>
      <trkpt lat="45.84477" lon="3.05487">
        <ele>523.5751953125</ele>
        <time>2010-04-24T11:56:56Z</time>
      </trkpt>
      <trkpt lat="45.84447" lon="3.05519">
        <ele>524.05578613281</ele>
        <time>2010-04-24T11:57:03Z</time>
      </trkpt>
      <trkpt lat="45.8441" lon="3.0556">
        <ele>525.01721191406</ele>
        <time>2010-04-24T11:57:12Z</time>
      </trkpt>
      <trkpt lat="45.84377" lon="3.05604">
        <ele>525.01721191406</ele>
        <time>2010-04-24T11:57:21Z</time>
      </trkpt>
      <trkpt lat="45.84345" lon="3.05642">
        <ele>524.53649902344</ele>
        <time>2010-04-24T11:57:29Z</time>
      </trkpt>
      <trkpt lat="45.84317" lon="3.05669">
        <ele>522.61389160156</ele>
        <time>2010-04-24T11:57:35Z</time>
      </trkpt>
      <trkpt lat="45.84304" lon="3.05683">
        <ele>522.13317871094</ele>
        <time>2010-04-24T11:57:38Z</time>
      </trkpt>
      <trkpt lat="45.8429" lon="3.05697">
        <ele>522.13317871094</ele>
        <time>2010-04-24T11:57:41Z</time>
      </trkpt>
      <trkpt lat="45.8428" lon="3.05704">
        <ele>523.5751953125</ele>
        <time>2010-04-24T11:57:44Z</time>
      </trkpt>
      <trkpt lat="45.84266" lon="3.05721">
        <ele>522.13317871094</ele>
        <time>2010-04-24T11:57:49Z</time>
      </trkpt>
      <trkpt lat="45.84241" lon="3.05745">
        <ele>522.61389160156</ele>
        <time>2010-04-24T11:57:55Z</time>
      </trkpt>
      <trkpt lat="45.84229" lon="3.05758">
        <ele>523.5751953125</ele>
        <time>2010-04-24T11:57:58Z</time>
      </trkpt>
      <trkpt lat="45.84201" lon="3.05783">
        <ele>523.5751953125</ele>
        <time>2010-04-24T11:58:04Z</time>
      </trkpt>
      <trkpt lat="45.84165" lon="3.05815">
        <ele>521.17199707031</ele>
        <time>2010-04-24T11:58:11Z</time>
      </trkpt>
      <trkpt lat="45.84132" lon="3.05848">
        <ele>521.17199707031</ele>
        <time>2010-04-24T11:58:17Z</time>
      </trkpt>
      <trkpt lat="45.84097" lon="3.05876">
        <ele>520.21057128906</ele>
        <time>2010-04-24T11:58:23Z</time>
      </trkpt>
      <trkpt lat="45.84068" lon="3.05901">
        <ele>519.24926757812</ele>
        <time>2010-04-24T11:58:28Z</time>
      </trkpt>
      <trkpt lat="45.84036" lon="3.05913">
        <ele>516.365234375</ele>
        <time>2010-04-24T11:58:33Z</time>
      </trkpt>
      <trkpt lat="45.84001" lon="3.05916">
        <ele>516.365234375</ele>
        <time>2010-04-24T11:58:38Z</time>
      </trkpt>
      <trkpt lat="45.83966" lon="3.05907">
        <ele>515.88464355469</ele>
        <time>2010-04-24T11:58:43Z</time>
      </trkpt>
      <trkpt lat="45.83959" lon="3.05905">
        <ele>515.88464355469</ele>
        <time>2010-04-24T11:58:44Z</time>
      </trkpt>
      <trkpt lat="45.83906" lon="3.05897">
        <ele>514.44262695312</ele>
        <time>2010-04-24T11:58:52Z</time>
      </trkpt>
      <trkpt lat="45.83873" lon="3.059">
        <ele>513.00073242188</ele>
        <time>2010-04-24T11:58:57Z</time>
      </trkpt>
      <trkpt lat="45.83855" lon="3.05909">
        <ele>513.00073242188</ele>
        <time>2010-04-24T11:59:00Z</time>
      </trkpt>
      <trkpt lat="45.83827" lon="3.05935">
        <ele>513.4814453125</ele>
        <time>2010-04-24T11:59:05Z</time>
      </trkpt>
      <trkpt lat="45.83821" lon="3.05952">
        <ele>513.4814453125</ele>
        <time>2010-04-24T11:59:07Z</time>
      </trkpt>
      <trkpt lat="45.83794" lon="3.06008">
        <ele>512.52001953125</ele>
        <time>2010-04-24T11:59:14Z</time>
      </trkpt>
      <trkpt lat="45.8379" lon="3.06016">
        <ele>512.52001953125</ele>
        <time>2010-04-24T11:59:15Z</time>
      </trkpt>
      <trkpt lat="45.83759" lon="3.0605">
        <ele>511.55871582031</ele>
        <time>2010-04-24T11:59:21Z</time>
      </trkpt>
      <trkpt lat="45.83735" lon="3.0608">
        <ele>510.59729003906</ele>
        <time>2010-04-24T11:59:26Z</time>
      </trkpt>
      <trkpt lat="45.83713" lon="3.06107">
        <ele>508.67468261719</ele>
        <time>2010-04-24T11:59:30Z</time>
      </trkpt>
      <trkpt lat="45.8369" lon="3.06127">
        <ele>508.19409179688</ele>
        <time>2010-04-24T11:59:34Z</time>
      </trkpt>
      <trkpt lat="45.83679" lon="3.06134">
        <ele>507.71350097656</ele>
        <time>2010-04-24T11:59:36Z</time>
      </trkpt>
      <trkpt lat="45.83652" lon="3.06143">
        <ele>507.23278808594</ele>
        <time>2010-04-24T11:59:41Z</time>
      </trkpt>
      <trkpt lat="45.83615" lon="3.06157">
        <ele>503.8681640625</ele>
        <time>2010-04-24T11:59:47Z</time>
      </trkpt>
      <trkpt lat="45.83609" lon="3.06159">
        <ele>503.38745117188</ele>
        <time>2010-04-24T11:59:48Z</time>
      </trkpt>
      <trkpt lat="45.83588" lon="3.06177">
        <ele>501.46484375</ele>
        <time>2010-04-24T11:59:52Z</time>
      </trkpt>
      <trkpt lat="45.83585" lon="3.06209">
        <ele>500.02294921875</ele>
        <time>2010-04-24T11:59:56Z</time>
      </trkpt>
      <trkpt lat="45.83585" lon="3.06252">
        <ele>500.50354003906</ele>
        <time>2010-04-24T12:00:01Z</time>
      </trkpt>
      <trkpt lat="45.83581" lon="3.06283">
        <ele>498.10034179688</ele>
        <time>2010-04-24T12:00:05Z</time>
      </trkpt>
      <trkpt lat="45.83569" lon="3.06317">
        <ele>496.177734375</ele>
        <time>2010-04-24T12:00:09Z</time>
      </trkpt>
      <trkpt lat="45.83561" lon="3.06334">
        <ele>494.73559570312</ele>
        <time>2010-04-24T12:00:11Z</time>
      </trkpt>
      <trkpt lat="45.83551" lon="3.06349">
        <ele>494.73559570312</ele>
        <time>2010-04-24T12:00:13Z</time>
      </trkpt>
      <trkpt lat="45.8354" lon="3.06364">
        <ele>494.25500488281</ele>
        <time>2010-04-24T12:00:15Z</time>
      </trkpt>
      <trkpt lat="45.83526" lon="3.06389">
        <ele>493.29357910156</ele>
        <time>2010-04-24T12:00:18Z</time>
      </trkpt>
      <trkpt lat="45.83511" lon="3.06414">
        <ele>492.81298828125</ele>
        <time>2010-04-24T12:00:21Z</time>
      </trkpt>
      <trkpt lat="45.83485" lon="3.06446">
        <ele>490.40979003906</ele>
        <time>2010-04-24T12:00:26Z</time>
      </trkpt>
      <trkpt lat="45.83458" lon="3.06478">
        <ele>488.00646972656</ele>
        <time>2010-04-24T12:00:31Z</time>
      </trkpt>
      <trkpt lat="45.83436" lon="3.06496">
        <ele>484.64184570312</ele>
        <time>2010-04-24T12:00:34Z</time>
      </trkpt>
      <trkpt lat="45.83412" lon="3.0651">
        <ele>480.79663085938</ele>
        <time>2010-04-24T12:00:37Z</time>
      </trkpt>
      <trkpt lat="45.83371" lon="3.06533">
        <ele>476.95129394531</ele>
        <time>2010-04-24T12:00:42Z</time>
      </trkpt>
      <trkpt lat="45.83339" lon="3.06539">
        <ele>474.06726074219</ele>
        <time>2010-04-24T12:00:46Z</time>
      </trkpt>
      <trkpt lat="45.83303" lon="3.06534">
        <ele>469.74133300781</ele>
        <time>2010-04-24T12:00:50Z</time>
      </trkpt>
      <trkpt lat="45.83293" lon="3.06533">
        <ele>469.74133300781</ele>
        <time>2010-04-24T12:00:51Z</time>
      </trkpt>
      <trkpt lat="45.83275" lon="3.06534">
        <ele>469.2607421875</ele>
        <time>2010-04-24T12:00:53Z</time>
      </trkpt>
      <trkpt lat="45.83257" lon="3.06538">
        <ele>468.29931640625</ele>
        <time>2010-04-24T12:00:55Z</time>
      </trkpt>
      <trkpt lat="45.83233" lon="3.06549">
        <ele>466.857421875</ele>
        <time>2010-04-24T12:00:58Z</time>
      </trkpt>
      <trkpt lat="45.83218" lon="3.06557">
        <ele>464.93481445312</ele>
        <time>2010-04-24T12:01:00Z</time>
      </trkpt>
      <trkpt lat="45.83189" lon="3.06557">
        <ele>462.53137207031</ele>
        <time>2010-04-24T12:01:04Z</time>
      </trkpt>
      <trkpt lat="45.83176" lon="3.06548">
        <ele>461.57019042969</ele>
        <time>2010-04-24T12:01:06Z</time>
      </trkpt>
      <trkpt lat="45.83144" lon="3.06534">
        <ele>462.53137207031</ele>
        <time>2010-04-24T12:01:11Z</time>
      </trkpt>
      <trkpt lat="45.83128" lon="3.06544">
        <ele>463.01208496094</ele>
        <time>2010-04-24T12:01:14Z</time>
      </trkpt>
      <trkpt lat="45.83125" lon="3.06549">
        <ele>462.53137207031</ele>
        <time>2010-04-24T12:01:15Z</time>
      </trkpt>
      <trkpt lat="45.83119" lon="3.06563">
        <ele>463.49279785156</ele>
        <time>2010-04-24T12:01:21Z</time>
      </trkpt>
      <trkpt lat="45.83119" lon="3.06569">
        <ele>463.01208496094</ele>
        <time>2010-04-24T12:01:26Z</time>
      </trkpt>
      <trkpt lat="45.83118" lon="3.0657">
        <ele>463.01208496094</ele>
        <time>2010-04-24T12:01:45Z</time>
      </trkpt>
      <trkpt lat="45.83112" lon="3.06567">
        <ele>462.05078125</ele>
        <time>2010-04-24T12:01:50Z</time>
      </trkpt>
      <trkpt lat="45.83106" lon="3.06556">
        <ele>463.01208496094</ele>
        <time>2010-04-24T12:01:55Z</time>
      </trkpt>
      <trkpt lat="45.83099" lon="3.06553">
        <ele>461.57019042969</ele>
        <time>2010-04-24T12:01:57Z</time>
      </trkpt>
      <trkpt lat="45.8307" lon="3.06555">
        <ele>457.24426269531</ele>
        <time>2010-04-24T12:02:02Z</time>
      </trkpt>
      <trkpt lat="45.83035" lon="3.06565">
        <ele>454.36022949219</ele>
        <time>2010-04-24T12:02:07Z</time>
      </trkpt>
      <trkpt lat="45.8302" lon="3.06564">
        <ele>452.91821289062</ele>
        <time>2010-04-24T12:02:09Z</time>
      </trkpt>
      <trkpt lat="45.82994" lon="3.06552">
        <ele>452.43762207031</ele>
        <time>2010-04-24T12:02:13Z</time>
      </trkpt>
      <trkpt lat="45.82981" lon="3.06544">
        <ele>451.95703125</ele>
        <time>2010-04-24T12:02:15Z</time>
      </trkpt>
      <trkpt lat="45.82945" lon="3.0654">
        <ele>449.5537109375</ele>
        <time>2010-04-24T12:02:20Z</time>
      </trkpt>
      <trkpt lat="45.82938" lon="3.06543">
        <ele>449.07299804688</ele>
        <time>2010-04-24T12:02:21Z</time>
      </trkpt>
      <trkpt lat="45.82925" lon="3.06548">
        <ele>447.63098144531</ele>
        <time>2010-04-24T12:02:23Z</time>
      </trkpt>
      <trkpt lat="45.82891" lon="3.06564">
        <ele>444.7470703125</ele>
        <time>2010-04-24T12:02:28Z</time>
      </trkpt>
      <trkpt lat="45.82872" lon="3.06593">
        <ele>438.97912597656</ele>
        <time>2010-04-24T12:02:32Z</time>
      </trkpt>
      <trkpt lat="45.82864" lon="3.06611">
        <ele>439.9404296875</ele>
        <time>2010-04-24T12:02:34Z</time>
      </trkpt>
      <trkpt lat="45.8286" lon="3.06628">
        <ele>438.49853515625</ele>
        <time>2010-04-24T12:02:37Z</time>
      </trkpt>
      <trkpt lat="45.82859" lon="3.06633">
        <ele>438.97912597656</ele>
        <time>2010-04-24T12:02:41Z</time>
      </trkpt>
      <trkpt lat="45.8286" lon="3.06633">
        <ele>438.97912597656</ele>
        <time>2010-04-24T12:02:48Z</time>
      </trkpt>
      <trkpt lat="45.8286" lon="3.06634">
        <ele>439.45971679688</ele>
        <time>2010-04-24T12:02:51Z</time>
      </trkpt>
      <trkpt lat="45.82861" lon="3.06634">
        <ele>438.97912597656</ele>
        <time>2010-04-24T12:03:09Z</time>
      </trkpt>
      <trkpt lat="45.82861" lon="3.06635">
        <ele>438.49853515625</ele>
        <time>2010-04-24T12:03:38Z</time>
      </trkpt>
      <trkpt lat="45.82862" lon="3.06635">
        <ele>438.01782226562</ele>
        <time>2010-04-24T12:03:48Z</time>
      </trkpt>
      <trkpt lat="45.82862" lon="3.06635">
        <ele>438.01782226562</ele>
        <time>2010-04-24T12:04:01Z</time>
      </trkpt>
      <trkpt lat="45.82862" lon="3.06635">
        <ele>438.49853515625</ele>
        <time>2010-04-24T12:04:13Z</time>
      </trkpt>
      <trkpt lat="45.82862" lon="3.06635">
        <ele>439.45971679688</ele>
        <time>2010-04-24T12:04:21Z</time>
      </trkpt>
      <trkpt lat="45.82862" lon="3.06635">
        <ele>438.97912597656</ele>
        <time>2010-04-24T12:04:25Z</time>
      </trkpt>
      <trkpt lat="45.82861" lon="3.06634">
        <ele>439.45971679688</ele>
        <time>2010-04-24T12:05:11Z</time>
      </trkpt>
      <trkpt lat="45.82861" lon="3.06633">
        <ele>438.49853515625</ele>
        <time>2010-04-24T12:05:25Z</time>
      </trkpt>
      <trkpt lat="45.82861" lon="3.06633">
        <ele>438.49853515625</ele>
        <time>2010-04-24T12:05:32Z</time>
      </trkpt>
      <trkpt lat="45.82861" lon="3.06633">
        <ele>438.49853515625</ele>
        <time>2010-04-24T12:05:57Z</time>
      </trkpt>
      <trkpt lat="45.8286" lon="3.06634">
        <ele>438.49853515625</ele>
        <time>2010-04-24T12:06:07Z</time>
      </trkpt>
      <trkpt lat="45.82853" lon="3.06649">
        <ele>437.537109375</ele>
        <time>2010-04-24T12:06:13Z</time>
      </trkpt>
      <trkpt lat="45.82852" lon="3.06654">
        <ele>437.537109375</ele>
        <time>2010-04-24T12:06:14Z</time>
      </trkpt>
      <trkpt lat="45.82854" lon="3.06673">
        <ele>436.09521484375</ele>
        <time>2010-04-24T12:06:17Z</time>
      </trkpt>
      <trkpt lat="45.82857" lon="3.06678">
        <ele>436.09521484375</ele>
        <time>2010-04-24T12:06:18Z</time>
      </trkpt>
      <trkpt lat="45.82864" lon="3.06692">
        <ele>436.09521484375</ele>
        <time>2010-04-24T12:06:21Z</time>
      </trkpt>
      <trkpt lat="45.82867" lon="3.06695">
        <ele>435.13391113281</ele>
        <time>2010-04-24T12:06:22Z</time>
      </trkpt>
      <trkpt lat="45.82886" lon="3.06706">
        <ele>435.61450195312</ele>
        <time>2010-04-24T12:06:27Z</time>
      </trkpt>
      <trkpt lat="45.82893" lon="3.06718">
        <ele>436.09521484375</ele>
        <time>2010-04-24T12:06:30Z</time>
      </trkpt>
      <trkpt lat="45.82893" lon="3.06727">
        <ele>434.6533203125</ele>
        <time>2010-04-24T12:06:32Z</time>
      </trkpt>
      <trkpt lat="45.82886" lon="3.0677">
        <ele>433.21130371094</ele>
        <time>2010-04-24T12:06:38Z</time>
      </trkpt>
      <trkpt lat="45.82884" lon="3.06786">
        <ele>431.28857421875</ele>
        <time>2010-04-24T12:06:40Z</time>
      </trkpt>
      <trkpt lat="45.82883" lon="3.06804">
        <ele>430.32727050781</ele>
        <time>2010-04-24T12:06:42Z</time>
      </trkpt>
      <trkpt lat="45.82882" lon="3.06813">
        <ele>430.32727050781</ele>
        <time>2010-04-24T12:06:43Z</time>
      </trkpt>
      <trkpt lat="45.82881" lon="3.0684">
        <ele>428.88537597656</ele>
        <time>2010-04-24T12:06:46Z</time>
      </trkpt>
      <trkpt lat="45.82878" lon="3.06857">
        <ele>428.40466308594</ele>
        <time>2010-04-24T12:06:48Z</time>
      </trkpt>
      <trkpt lat="45.8288" lon="3.06882">
        <ele>427.443359375</ele>
        <time>2010-04-24T12:06:51Z</time>
      </trkpt>
      <trkpt lat="45.82882" lon="3.06933">
        <ele>426.00134277344</ele>
        <time>2010-04-24T12:06:57Z</time>
      </trkpt>
      <trkpt lat="45.82883" lon="3.06943">
        <ele>425.52075195312</ele>
        <time>2010-04-24T12:06:58Z</time>
      </trkpt>
      <trkpt lat="45.82879" lon="3.07003">
        <ele>422.15600585938</ele>
        <time>2010-04-24T12:07:04Z</time>
      </trkpt>
      <trkpt lat="45.82877" lon="3.07013">
        <ele>422.15600585938</ele>
        <time>2010-04-24T12:07:05Z</time>
      </trkpt>
      <trkpt lat="45.82872" lon="3.07043">
        <ele>421.19482421875</ele>
        <time>2010-04-24T12:07:08Z</time>
      </trkpt>
      <trkpt lat="45.82865" lon="3.07082">
        <ele>419.27221679688</ele>
        <time>2010-04-24T12:07:12Z</time>
      </trkpt>
      <trkpt lat="45.82863" lon="3.07154">
        <ele>416.86889648438</ele>
        <time>2010-04-24T12:07:19Z</time>
      </trkpt>
      <trkpt lat="45.82865" lon="3.07239">
        <ele>416.38818359375</ele>
        <time>2010-04-24T12:07:27Z</time>
      </trkpt>
      <trkpt lat="45.82865" lon="3.07306">
        <ele>413.98486328125</ele>
        <time>2010-04-24T12:07:34Z</time>
      </trkpt>
      <trkpt lat="45.82867" lon="3.07359">
        <ele>413.02355957031</ele>
        <time>2010-04-24T12:07:40Z</time>
      </trkpt>
      <trkpt lat="45.8287" lon="3.07421">
        <ele>411.10095214844</ele>
        <time>2010-04-24T12:07:47Z</time>
      </trkpt>
      <trkpt lat="45.8287" lon="3.0744">
        <ele>409.17834472656</ele>
        <time>2010-04-24T12:07:49Z</time>
      </trkpt>
      <trkpt lat="45.8287" lon="3.07479">
        <ele>407.736328125</ele>
        <time>2010-04-24T12:07:53Z</time>
      </trkpt>
      <trkpt lat="45.8287" lon="3.07526">
        <ele>407.736328125</ele>
        <time>2010-04-24T12:07:58Z</time>
      </trkpt>
      <trkpt lat="45.8287" lon="3.07592">
        <ele>408.21704101562</ele>
        <time>2010-04-24T12:08:06Z</time>
      </trkpt>
      <trkpt lat="45.82871" lon="3.076">
        <ele>408.69763183594</ele>
        <time>2010-04-24T12:08:08Z</time>
      </trkpt>
      <trkpt lat="45.82862" lon="3.07607">
        <ele>408.21704101562</ele>
        <time>2010-04-24T12:08:12Z</time>
      </trkpt>
      <trkpt lat="45.82848" lon="3.07616">
        <ele>407.25561523438</ele>
        <time>2010-04-24T12:08:16Z</time>
      </trkpt>
      <trkpt lat="45.82846" lon="3.07629">
        <ele>407.25561523438</ele>
        <time>2010-04-24T12:08:18Z</time>
      </trkpt>
      <trkpt lat="45.82848" lon="3.07659">
        <ele>404.85229492188</ele>
        <time>2010-04-24T12:08:22Z</time>
      </trkpt>
      <trkpt lat="45.8285" lon="3.07667">
        <ele>405.3330078125</ele>
        <time>2010-04-24T12:08:23Z</time>
      </trkpt>
      <trkpt lat="45.82853" lon="3.07683">
        <ele>404.37170410156</ele>
        <time>2010-04-24T12:08:25Z</time>
      </trkpt>
      <trkpt lat="45.8286" lon="3.07724">
        <ele>403.41040039062</ele>
        <time>2010-04-24T12:08:30Z</time>
      </trkpt>
      <trkpt lat="45.82877" lon="3.07739">
        <ele>402.9296875</ele>
        <time>2010-04-24T12:08:34Z</time>
      </trkpt>
      <trkpt lat="45.82894" lon="3.07735">
        <ele>403.41040039062</ele>
        <time>2010-04-24T12:08:37Z</time>
      </trkpt>
      <trkpt lat="45.82911" lon="3.07733">
        <ele>402.9296875</ele>
        <time>2010-04-24T12:08:41Z</time>
      </trkpt>
      <trkpt lat="45.82919" lon="3.07754">
        <ele>403.41040039062</ele>
        <time>2010-04-24T12:08:44Z</time>
      </trkpt>
      <trkpt lat="45.8292" lon="3.07762">
        <ele>402.9296875</ele>
        <time>2010-04-24T12:08:45Z</time>
      </trkpt>
      <trkpt lat="45.82924" lon="3.07787">
        <ele>401.48779296875</ele>
        <time>2010-04-24T12:08:48Z</time>
      </trkpt>
      <trkpt lat="45.82925" lon="3.07803">
        <ele>400.52648925781</ele>
        <time>2010-04-24T12:08:50Z</time>
      </trkpt>
      <trkpt lat="45.82927" lon="3.07825">
        <ele>401.00708007812</ele>
        <time>2010-04-24T12:08:54Z</time>
      </trkpt>
      <trkpt lat="45.82932" lon="3.07847">
        <ele>400.52648925781</ele>
        <time>2010-04-24T12:09:00Z</time>
      </trkpt>
      <trkpt lat="45.82939" lon="3.07861">
        <ele>399.56506347656</ele>
        <time>2010-04-24T12:09:04Z</time>
      </trkpt>
      <trkpt lat="45.82951" lon="3.07855">
        <ele>399.56506347656</ele>
        <time>2010-04-24T12:09:08Z</time>
      </trkpt>
      <trkpt lat="45.82974" lon="3.07837">
        <ele>401.00708007812</ele>
        <time>2010-04-24T12:09:14Z</time>
      </trkpt>
      <trkpt lat="45.82981" lon="3.07832">
        <ele>401.48779296875</ele>
        <time>2010-04-24T12:09:16Z</time>
      </trkpt>
      <trkpt lat="45.82983" lon="3.0783">
        <ele>401.00708007812</ele>
        <time>2010-04-24T12:09:17Z</time>
      </trkpt>
      <trkpt lat="45.82991" lon="3.07826">
        <ele>401.00708007812</ele>
        <time>2010-04-24T12:09:22Z</time>
      </trkpt>
      <trkpt lat="45.82992" lon="3.07826">
        <ele>401.48779296875</ele>
        <time>2010-04-24T12:09:26Z</time>
      </trkpt>
    </trkseg>
  </trk>
</gpx>